﻿<?xml version="1.0" encoding="utf-8"?><gpx version="1.1" creator="izvne.com" xmlns="http://www.topografix.com/GPX/1/1"><trk><name>cyprus-overview</name><trkseg><trkpt lat="34.7788826" lon="32.4223243"><ele>75.4</ele><time>2015-04-24T14:49:17.0000000+00:00</time></trkpt><trkpt lat="34.7789328" lon="32.422495"><ele>76.6</ele><time>2015-04-24T14:49:22.0000000+00:00</time></trkpt><trkpt lat="34.7787914" lon="32.4223399"><ele>74.7</ele><time>2015-04-24T14:53:13.0000000+00:00</time></trkpt><trkpt lat="34.7778736" lon="32.4226882"><ele>76.5</ele><time>2015-04-24T14:53:49.0000000+00:00</time></trkpt><trkpt lat="34.7776242" lon="32.4218669"><ele>74.4</ele><time>2015-04-24T14:54:17.0000000+00:00</time></trkpt><trkpt lat="34.7776318" lon="32.4211899"><ele>72.5</ele><time>2015-04-24T14:54:39.0000000+00:00</time></trkpt><trkpt lat="34.7772282" lon="32.4206442"><ele>71.2</ele><time>2015-04-24T14:54:57.0000000+00:00</time></trkpt><trkpt lat="34.778318" lon="32.4195519"><ele>67.0</ele><time>2015-04-24T14:55:52.0000000+00:00</time></trkpt><trkpt lat="34.7788959" lon="32.4199052"><ele>69.9</ele><time>2015-04-24T14:56:15.0000000+00:00</time></trkpt><trkpt lat="34.7796422" lon="32.4191764"><ele>70.6</ele><time>2015-04-24T14:56:43.0000000+00:00</time></trkpt><trkpt lat="34.7799104" lon="32.4185425"><ele>71.3</ele><time>2015-04-24T14:57:02.0000000+00:00</time></trkpt><trkpt lat="34.781168" lon="32.417809"><ele>70.8</ele><time>2015-04-24T14:57:36.0000000+00:00</time></trkpt><trkpt lat="34.7815757" lon="32.4168153"><ele>75.6</ele><time>2015-04-24T14:58:15.0000000+00:00</time></trkpt><trkpt lat="34.7813671" lon="32.4148137"><ele>58.1</ele><time>2015-04-24T14:58:56.0000000+00:00</time></trkpt><trkpt lat="34.7819199" lon="32.4134208"><ele>57.3</ele><time>2015-04-24T14:59:20.0000000+00:00</time></trkpt><trkpt lat="34.7817248" lon="32.4138016"><ele>56.6</ele><time>2015-04-24T14:59:33.0000000+00:00</time></trkpt><trkpt lat="34.7811068" lon="32.4142766"><ele>48.5</ele><time>2015-04-24T14:59:46.0000000+00:00</time></trkpt><trkpt lat="34.7808916" lon="32.4142777"><ele>46.0</ele><time>2015-04-24T14:59:52.0000000+00:00</time></trkpt><trkpt lat="34.7808124" lon="32.4123514"><ele>41.0</ele><time>2015-04-24T15:00:26.0000000+00:00</time></trkpt><trkpt lat="34.7805707" lon="32.4122443"><ele>39.1</ele><time>2015-04-24T15:00:44.0000000+00:00</time></trkpt><trkpt lat="34.7801418" lon="32.41117"><ele>37.1</ele><time>2015-04-24T15:01:03.0000000+00:00</time></trkpt><trkpt lat="34.7792719" lon="32.4097736"><ele>32.7</ele><time>2015-04-24T15:01:32.0000000+00:00</time></trkpt><trkpt lat="34.7786058" lon="32.4063796"><ele>19.3</ele><time>2015-04-24T15:03:18.0000000+00:00</time></trkpt><trkpt lat="34.7802198" lon="32.4059693"><ele>20.1</ele><time>2015-04-24T15:03:58.0000000+00:00</time></trkpt><trkpt lat="34.7803172" lon="32.4057396"><ele>18.8</ele><time>2015-04-24T15:04:06.0000000+00:00</time></trkpt><trkpt lat="34.7805664" lon="32.4062738"><ele>22.6</ele><time>2015-04-24T15:05:25.0000000+00:00</time></trkpt><trkpt lat="34.780962" lon="32.4061857"><ele>22.6</ele><time>2015-04-24T15:06:49.0000000+00:00</time></trkpt><trkpt lat="34.7805296" lon="32.4061312"><ele>21.5</ele><time>2015-04-24T15:19:36.0000000+00:00</time></trkpt><trkpt lat="34.7804912" lon="32.4059669"><ele>20.3</ele><time>2015-04-24T15:20:19.0000000+00:00</time></trkpt><trkpt lat="34.7812878" lon="32.4056932"><ele>20.5</ele><time>2015-04-24T15:20:45.0000000+00:00</time></trkpt><trkpt lat="34.7827119" lon="32.4055385"><ele>24.5</ele><time>2015-04-24T15:21:23.0000000+00:00</time></trkpt><trkpt lat="34.7845891" lon="32.4056384"><ele>27.6</ele><time>2015-04-24T15:22:15.0000000+00:00</time></trkpt><trkpt lat="34.7848173" lon="32.4055027"><ele>26.9</ele><time>2015-04-24T15:22:23.0000000+00:00</time></trkpt><trkpt lat="34.7849772" lon="32.4056452"><ele>27.6</ele><time>2015-04-24T15:22:31.0000000+00:00</time></trkpt><trkpt lat="34.7862814" lon="32.4054059"><ele>28.6</ele><time>2015-04-24T15:23:11.0000000+00:00</time></trkpt><trkpt lat="34.7872811" lon="32.4047652"><ele>28.7</ele><time>2015-04-24T15:23:37.0000000+00:00</time></trkpt><trkpt lat="34.789627" lon="32.4023011"><ele>29.2</ele><time>2015-04-24T15:24:51.0000000+00:00</time></trkpt><trkpt lat="34.7906008" lon="32.4017436"><ele>27.5</ele><time>2015-04-24T15:25:15.0000000+00:00</time></trkpt><trkpt lat="34.791854" lon="32.4015603"><ele>25.8</ele><time>2015-04-24T15:25:42.0000000+00:00</time></trkpt><trkpt lat="34.7942087" lon="32.4018262"><ele>30.1</ele><time>2015-04-24T15:26:31.0000000+00:00</time></trkpt><trkpt lat="34.796782" lon="32.4008659"><ele>34.3</ele><time>2015-04-24T15:27:31.0000000+00:00</time></trkpt><trkpt lat="34.7983785" lon="32.4006022"><ele>34.9</ele><time>2015-04-24T15:28:08.0000000+00:00</time></trkpt><trkpt lat="34.8000677" lon="32.3998762"><ele>33.8</ele><time>2015-04-24T15:28:40.0000000+00:00</time></trkpt><trkpt lat="34.804326" lon="32.397438"><ele>28.7</ele><time>2015-04-24T15:30:04.0000000+00:00</time></trkpt><trkpt lat="34.805839" lon="32.3968902"><ele>27.5</ele><time>2015-04-24T15:30:38.0000000+00:00</time></trkpt><trkpt lat="34.8077138" lon="32.3966878"><ele>26.7</ele><time>2015-04-24T15:31:16.0000000+00:00</time></trkpt><trkpt lat="34.8099881" lon="32.39604"><ele>21.8</ele><time>2015-04-24T15:32:01.0000000+00:00</time></trkpt><trkpt lat="34.8127511" lon="32.3967343"><ele>16.7</ele><time>2015-04-24T15:32:49.0000000+00:00</time></trkpt><trkpt lat="34.8134491" lon="32.3964319"><ele>14.7</ele><time>2015-04-24T15:33:00.0000000+00:00</time></trkpt><trkpt lat="34.8144951" lon="32.3955756"><ele>15.4</ele><time>2015-04-24T15:33:24.0000000+00:00</time></trkpt><trkpt lat="34.8158741" lon="32.3950442"><ele>15.8</ele><time>2015-04-24T15:33:52.0000000+00:00</time></trkpt><trkpt lat="34.8190945" lon="32.3950877"><ele>18.0</ele><time>2015-04-24T15:34:46.0000000+00:00</time></trkpt><trkpt lat="34.8199617" lon="32.3946706"><ele>15.1</ele><time>2015-04-24T15:35:02.0000000+00:00</time></trkpt><trkpt lat="34.8222826" lon="32.3928026"><ele>18.5</ele><time>2015-04-24T15:36:02.0000000+00:00</time></trkpt><trkpt lat="34.8231439" lon="32.392424"><ele>21.0</ele><time>2015-04-24T15:36:26.0000000+00:00</time></trkpt><trkpt lat="34.8288653" lon="32.3922299"><ele>35.3</ele><time>2015-04-24T15:38:54.0000000+00:00</time></trkpt><trkpt lat="34.83184" lon="32.3929282"><ele>15.6</ele><time>2015-04-24T15:39:42.0000000+00:00</time></trkpt><trkpt lat="34.8325445" lon="32.3929104"><ele>13.2</ele><time>2015-04-24T15:39:52.0000000+00:00</time></trkpt><trkpt lat="34.8332394" lon="32.3925792"><ele>10.4</ele><time>2015-04-24T15:40:03.0000000+00:00</time></trkpt><trkpt lat="34.8355727" lon="32.3908714"><ele>5.3</ele><time>2015-04-24T15:40:46.0000000+00:00</time></trkpt><trkpt lat="34.8377474" lon="32.3896484"><ele>1.4</ele><time>2015-04-24T15:41:26.0000000+00:00</time></trkpt><trkpt lat="34.8408353" lon="32.3882875"><ele>2.7</ele><time>2015-04-24T15:42:39.0000000+00:00</time></trkpt><trkpt lat="34.8462054" lon="32.3862518"><ele>10.5</ele><time>2015-04-24T15:48:54.0000000+00:00</time></trkpt><trkpt lat="34.8493152" lon="32.3848319"><ele>14.0</ele><time>2015-04-24T15:50:04.0000000+00:00</time></trkpt><trkpt lat="34.850976" lon="32.3835349"><ele>17.1</ele><time>2015-04-24T15:50:48.0000000+00:00</time></trkpt><trkpt lat="34.8534066" lon="32.3809182"><ele>35.0</ele><time>2015-04-24T15:52:37.0000000+00:00</time></trkpt><trkpt lat="34.8551874" lon="32.3820887"><ele>46.0</ele><time>2015-04-24T15:54:39.0000000+00:00</time></trkpt><trkpt lat="34.8572247" lon="32.3803533"><ele>54.3</ele><time>2015-04-24T15:56:02.0000000+00:00</time></trkpt><trkpt lat="34.857159" lon="32.3802497"><ele>54.2</ele><time>2015-04-24T15:56:09.0000000+00:00</time></trkpt><trkpt lat="34.8572781" lon="32.3803421"><ele>54.1</ele><time>2015-04-24T16:01:04.0000000+00:00</time></trkpt><trkpt lat="34.8589049" lon="32.3797276"><ele>56.6</ele><time>2015-04-24T16:02:29.0000000+00:00</time></trkpt><trkpt lat="34.860588" lon="32.3796509"><ele>59.5</ele><time>2015-04-24T16:03:22.0000000+00:00</time></trkpt><trkpt lat="34.8623652" lon="32.3798791"><ele>63.0</ele><time>2015-04-24T16:04:15.0000000+00:00</time></trkpt><trkpt lat="34.8633071" lon="32.379718"><ele>65.6</ele><time>2015-04-24T16:04:41.0000000+00:00</time></trkpt><trkpt lat="34.8654807" lon="32.3782505"><ele>76.3</ele><time>2015-04-24T16:06:01.0000000+00:00</time></trkpt><trkpt lat="34.8668039" lon="32.3777341"><ele>82.3</ele><time>2015-04-24T16:06:58.0000000+00:00</time></trkpt><trkpt lat="34.8694912" lon="32.37806"><ele>94.9</ele><time>2015-04-24T16:09:17.0000000+00:00</time></trkpt><trkpt lat="34.8704446" lon="32.3784306"><ele>106.2</ele><time>2015-04-24T16:10:27.0000000+00:00</time></trkpt><trkpt lat="34.8719169" lon="32.3779431"><ele>111.0</ele><time>2015-04-24T16:11:31.0000000+00:00</time></trkpt><trkpt lat="34.8726922" lon="32.3779794"><ele>112.5</ele><time>2015-04-24T16:11:53.0000000+00:00</time></trkpt><trkpt lat="34.874147" lon="32.378551"><ele>117.6</ele><time>2015-04-24T16:12:43.0000000+00:00</time></trkpt><trkpt lat="34.8760532" lon="32.3800798"><ele>128.7</ele><time>2015-04-24T16:14:02.0000000+00:00</time></trkpt><trkpt lat="34.8766569" lon="32.380393"><ele>131.6</ele><time>2015-04-24T16:14:25.0000000+00:00</time></trkpt><trkpt lat="34.8788486" lon="32.3797713"><ele>148.9</ele><time>2015-04-24T16:16:08.0000000+00:00</time></trkpt><trkpt lat="34.8820891" lon="32.3799671"><ele>172.0</ele><time>2015-04-24T16:18:30.0000000+00:00</time></trkpt><trkpt lat="34.8827945" lon="32.3804837"><ele>182.2</ele><time>2015-04-24T16:19:17.0000000+00:00</time></trkpt><trkpt lat="34.8839041" lon="32.3819164"><ele>202.3</ele><time>2015-04-24T16:21:10.0000000+00:00</time></trkpt><trkpt lat="34.88422" lon="32.3820491"><ele>204.6</ele><time>2015-04-24T16:22:59.0000000+00:00</time></trkpt><trkpt lat="34.8845978" lon="32.3815113"><ele>208.8</ele><time>2015-04-24T16:23:34.0000000+00:00</time></trkpt><trkpt lat="34.8843565" lon="32.3806567"><ele>206.2</ele><time>2015-04-24T16:24:01.0000000+00:00</time></trkpt><trkpt lat="34.8843673" lon="32.3801701"><ele>207.5</ele><time>2015-04-24T16:24:15.0000000+00:00</time></trkpt><trkpt lat="34.8857871" lon="32.3771749"><ele>228.4</ele><time>2015-04-24T16:26:37.0000000+00:00</time></trkpt><trkpt lat="34.886097" lon="32.3769135"><ele>236.2</ele><time>2015-04-24T16:26:58.0000000+00:00</time></trkpt><trkpt lat="34.8863534" lon="32.3770387"><ele>242.6</ele><time>2015-04-24T16:27:12.0000000+00:00</time></trkpt><trkpt lat="34.8861004" lon="32.378031"><ele>242.9</ele><time>2015-04-24T16:27:45.0000000+00:00</time></trkpt><trkpt lat="34.8863684" lon="32.3781965"><ele>248.6</ele><time>2015-04-24T16:28:03.0000000+00:00</time></trkpt><trkpt lat="34.8877267" lon="32.3767891"><ele>258.4</ele><time>2015-04-24T16:29:31.0000000+00:00</time></trkpt><trkpt lat="34.8878219" lon="32.3762547"><ele>261.7</ele><time>2015-04-24T16:29:50.0000000+00:00</time></trkpt><trkpt lat="34.8877443" lon="32.3739144"><ele>275.8</ele><time>2015-04-24T16:31:16.0000000+00:00</time></trkpt><trkpt lat="34.8879858" lon="32.3718973"><ele>289.7</ele><time>2015-04-24T16:32:35.0000000+00:00</time></trkpt><trkpt lat="34.8884231" lon="32.3710932"><ele>294.5</ele><time>2015-04-24T16:33:13.0000000+00:00</time></trkpt><trkpt lat="34.8897826" lon="32.369365"><ele>306.1</ele><time>2015-04-24T16:34:36.0000000+00:00</time></trkpt><trkpt lat="34.8907024" lon="32.3659456"><ele>319.0</ele><time>2015-04-24T16:38:15.0000000+00:00</time></trkpt><trkpt lat="34.8911205" lon="32.365316"><ele>322.3</ele><time>2015-04-24T16:38:30.0000000+00:00</time></trkpt><trkpt lat="34.8915192" lon="32.3637455"><ele>325.8</ele><time>2015-04-24T16:39:21.0000000+00:00</time></trkpt><trkpt lat="34.8921296" lon="32.3630242"><ele>331.2</ele><time>2015-04-24T16:39:51.0000000+00:00</time></trkpt><trkpt lat="34.8930409" lon="32.3628868"><ele>338.9</ele><time>2015-04-24T16:40:23.0000000+00:00</time></trkpt><trkpt lat="34.893876" lon="32.3635371"><ele>342.6</ele><time>2015-04-24T16:40:57.0000000+00:00</time></trkpt><trkpt lat="34.895385" lon="32.3668036"><ele>356.2</ele><time>2015-04-24T16:42:31.0000000+00:00</time></trkpt><trkpt lat="34.8979839" lon="32.3701252"><ele>374.3</ele><time>2015-04-24T16:44:34.0000000+00:00</time></trkpt><trkpt lat="34.8983502" lon="32.3710537"><ele>380.4</ele><time>2015-04-24T16:45:08.0000000+00:00</time></trkpt><trkpt lat="34.8982772" lon="32.3723184"><ele>389.9</ele><time>2015-04-24T16:45:58.0000000+00:00</time></trkpt><trkpt lat="34.8966144" lon="32.3753419"><ele>417.6</ele><time>2015-04-24T16:49:07.0000000+00:00</time></trkpt><trkpt lat="34.8949871" lon="32.3789895"><ele>444.4</ele><time>2015-04-24T16:52:30.0000000+00:00</time></trkpt><trkpt lat="34.8947074" lon="32.3802097"><ele>455.5</ele><time>2015-04-24T16:53:33.0000000+00:00</time></trkpt><trkpt lat="34.8947548" lon="32.381163"><ele>456.2</ele><time>2015-04-24T16:54:16.0000000+00:00</time></trkpt><trkpt lat="34.8960656" lon="32.3844364"><ele>472.6</ele><time>2015-04-24T17:01:43.0000000+00:00</time></trkpt><trkpt lat="34.8963185" lon="32.3845443"><ele>482.8</ele><time>2015-04-24T17:04:34.0000000+00:00</time></trkpt><trkpt lat="34.8975977" lon="32.3867183"><ele>500.3</ele><time>2015-04-24T17:06:04.0000000+00:00</time></trkpt><trkpt lat="34.8998418" lon="32.3888686"><ele>507.6</ele><time>2015-04-24T17:07:32.0000000+00:00</time></trkpt><trkpt lat="34.901628" lon="32.3916538"><ele>521.0</ele><time>2015-04-24T17:09:15.0000000+00:00</time></trkpt><trkpt lat="34.9026632" lon="32.3957453"><ele>534.2</ele><time>2015-04-24T17:11:30.0000000+00:00</time></trkpt><trkpt lat="34.9030446" lon="32.3959888"><ele>534.1</ele><time>2015-04-24T17:11:44.0000000+00:00</time></trkpt><trkpt lat="34.9040091" lon="32.3959061"><ele>529.9</ele><time>2015-04-24T17:17:24.0000000+00:00</time></trkpt><trkpt lat="34.9046845" lon="32.3966008"><ele>525.9</ele><time>2015-04-24T17:17:44.0000000+00:00</time></trkpt><trkpt lat="34.904751" lon="32.3968708"><ele>523.7</ele><time>2015-04-24T17:17:50.0000000+00:00</time></trkpt><trkpt lat="34.9045774" lon="32.397768"><ele>517.2</ele><time>2015-04-24T17:18:01.0000000+00:00</time></trkpt><trkpt lat="34.9034212" lon="32.3996774"><ele>503.7</ele><time>2015-04-24T17:18:23.0000000+00:00</time></trkpt><trkpt lat="34.9032144" lon="32.4002525"><ele>498.8</ele><time>2015-04-24T17:18:28.0000000+00:00</time></trkpt><trkpt lat="34.9027831" lon="32.4028645"><ele>502.5</ele><time>2015-04-24T17:19:05.0000000+00:00</time></trkpt><trkpt lat="34.9027056" lon="32.4038414"><ele>502.7</ele><time>2015-04-24T17:19:31.0000000+00:00</time></trkpt><trkpt lat="34.9030203" lon="32.4078359"><ele>522.2</ele><time>2015-04-24T17:21:35.0000000+00:00</time></trkpt><trkpt lat="34.9033269" lon="32.4081889"><ele>523.2</ele><time>2015-04-24T17:21:56.0000000+00:00</time></trkpt><trkpt lat="34.9038355" lon="32.4081"><ele>526.1</ele><time>2015-04-24T17:22:23.0000000+00:00</time></trkpt><trkpt lat="34.9040306" lon="32.4076406"><ele>527.2</ele><time>2015-04-24T17:22:44.0000000+00:00</time></trkpt><trkpt lat="34.9042631" lon="32.405991"><ele>536.3</ele><time>2015-04-24T17:23:59.0000000+00:00</time></trkpt><trkpt lat="34.9045236" lon="32.4057389"><ele>544.7</ele><time>2015-04-24T17:24:17.0000000+00:00</time></trkpt><trkpt lat="34.9047751" lon="32.4058483"><ele>549.8</ele><time>2015-04-24T17:24:32.0000000+00:00</time></trkpt><trkpt lat="34.905013" lon="32.4083016"><ele>558.9</ele><time>2015-04-24T17:26:09.0000000+00:00</time></trkpt><trkpt lat="34.9059753" lon="32.409881"><ele>565.1</ele><time>2015-04-24T17:27:19.0000000+00:00</time></trkpt><trkpt lat="34.9061752" lon="32.4133555"><ele>580.9</ele><time>2015-04-24T17:30:21.0000000+00:00</time></trkpt><trkpt lat="34.9059406" lon="32.4151506"><ele>590.0</ele><time>2015-04-24T17:31:33.0000000+00:00</time></trkpt><trkpt lat="34.9063596" lon="32.417188"><ele>598.5</ele><time>2015-04-24T17:33:09.0000000+00:00</time></trkpt><trkpt lat="34.9067098" lon="32.4179314"><ele>604.7</ele><time>2015-04-24T17:33:40.0000000+00:00</time></trkpt><trkpt lat="34.9085654" lon="32.4201061"><ele>618.2</ele><time>2015-04-24T17:35:26.0000000+00:00</time></trkpt><trkpt lat="34.9093626" lon="32.4214224"><ele>625.7</ele><time>2015-04-24T17:36:36.0000000+00:00</time></trkpt><trkpt lat="34.9098008" lon="32.4215965"><ele>626.8</ele><time>2015-04-24T17:36:56.0000000+00:00</time></trkpt><trkpt lat="34.9106946" lon="32.4215889"><ele>634.1</ele><time>2015-04-24T17:37:49.0000000+00:00</time></trkpt><trkpt lat="34.9144058" lon="32.4212715"><ele>647.9</ele><time>2015-04-24T17:40:05.0000000+00:00</time></trkpt><trkpt lat="34.9157852" lon="32.4204506"><ele>650.7</ele><time>2015-04-24T17:40:53.0000000+00:00</time></trkpt><trkpt lat="34.9166962" lon="32.4201846"><ele>653.4</ele><time>2015-04-24T17:41:22.0000000+00:00</time></trkpt><trkpt lat="34.9180515" lon="32.4202149"><ele>653.4</ele><time>2015-04-24T17:42:07.0000000+00:00</time></trkpt><trkpt lat="34.9200648" lon="32.4209575"><ele>652.8</ele><time>2015-04-24T17:42:50.0000000+00:00</time></trkpt><trkpt lat="34.9226541" lon="32.4203427"><ele>647.2</ele><time>2015-04-24T17:43:35.0000000+00:00</time></trkpt><trkpt lat="34.924605" lon="32.4195054"><ele>643.6</ele><time>2015-04-24T17:44:07.0000000+00:00</time></trkpt><trkpt lat="34.92615" lon="32.4182282"><ele>638.0</ele><time>2015-04-24T17:44:32.0000000+00:00</time></trkpt><trkpt lat="34.929073" lon="32.4174169"><ele>633.2</ele><time>2015-04-24T17:45:12.0000000+00:00</time></trkpt><trkpt lat="34.9307813" lon="32.4164335"><ele>628.5</ele><time>2015-04-24T17:52:51.0000000+00:00</time></trkpt><trkpt lat="34.9340242" lon="32.4160252"><ele>633.0</ele><time>2015-04-24T17:53:49.0000000+00:00</time></trkpt><trkpt lat="34.9345245" lon="32.4153652"><ele>628.0</ele><time>2015-04-24T17:54:03.0000000+00:00</time></trkpt><trkpt lat="34.9351175" lon="32.4132523"><ele>619.4</ele><time>2015-04-24T17:54:29.0000000+00:00</time></trkpt><trkpt lat="34.9354951" lon="32.4127831"><ele>618.1</ele><time>2015-04-24T17:54:36.0000000+00:00</time></trkpt><trkpt lat="34.9414026" lon="32.4105166"><ele>593.3</ele><time>2015-04-24T17:55:49.0000000+00:00</time></trkpt><trkpt lat="34.9423852" lon="32.4106956"><ele>589.7</ele><time>2015-04-24T17:56:00.0000000+00:00</time></trkpt><trkpt lat="34.9438378" lon="32.4119309"><ele>586.8</ele><time>2015-04-24T17:56:20.0000000+00:00</time></trkpt><trkpt lat="34.9445316" lon="32.4122373"><ele>585.6</ele><time>2015-04-24T17:56:29.0000000+00:00</time></trkpt><trkpt lat="34.9450952" lon="32.4122791"><ele>589.1</ele><time>2015-04-24T17:56:37.0000000+00:00</time></trkpt><trkpt lat="34.9468195" lon="32.4117563"><ele>594.7</ele><time>2015-04-24T17:57:18.0000000+00:00</time></trkpt><trkpt lat="34.9481236" lon="32.411616"><ele>596.7</ele><time>2015-04-24T17:57:50.0000000+00:00</time></trkpt><trkpt lat="34.9493303" lon="32.4106827"><ele>590.7</ele><time>2015-04-24T17:58:14.0000000+00:00</time></trkpt><trkpt lat="34.9520272" lon="32.4104987"><ele>589.5</ele><time>2015-04-24T17:58:52.0000000+00:00</time></trkpt><trkpt lat="34.9535602" lon="32.4106764"><ele>585.8</ele><time>2015-04-24T17:59:14.0000000+00:00</time></trkpt><trkpt lat="34.9546266" lon="32.4109151"><ele>578.7</ele><time>2015-04-24T17:59:27.0000000+00:00</time></trkpt><trkpt lat="34.9560103" lon="32.411729"><ele>572.5</ele><time>2015-04-24T17:59:44.0000000+00:00</time></trkpt><trkpt lat="34.9578961" lon="32.4121634"><ele>566.4</ele><time>2015-04-24T18:00:04.0000000+00:00</time></trkpt><trkpt lat="34.9604644" lon="32.4136883"><ele>547.3</ele><time>2015-04-24T18:01:01.0000000+00:00</time></trkpt><trkpt lat="34.9623656" lon="32.4143582"><ele>531.0</ele><time>2015-04-24T18:01:19.0000000+00:00</time></trkpt><trkpt lat="34.9674165" lon="32.4111418"><ele>512.6</ele><time>2015-04-24T18:02:20.0000000+00:00</time></trkpt><trkpt lat="34.9677912" lon="32.4101465"><ele>506.8</ele><time>2015-04-24T18:02:31.0000000+00:00</time></trkpt><trkpt lat="34.9674576" lon="32.4083054"><ele>493.9</ele><time>2015-04-24T18:02:49.0000000+00:00</time></trkpt><trkpt lat="34.9677169" lon="32.4073482"><ele>489.8</ele><time>2015-04-24T18:02:57.0000000+00:00</time></trkpt><trkpt lat="34.9687031" lon="32.4065557"><ele>478.6</ele><time>2015-04-24T18:03:09.0000000+00:00</time></trkpt><trkpt lat="34.9693828" lon="32.4066166"><ele>473.3</ele><time>2015-04-24T18:03:16.0000000+00:00</time></trkpt><trkpt lat="34.9698708" lon="32.4064675"><ele>471.2</ele><time>2015-04-24T18:03:21.0000000+00:00</time></trkpt><trkpt lat="34.9707851" lon="32.4051306"><ele>459.8</ele><time>2015-04-24T18:03:35.0000000+00:00</time></trkpt><trkpt lat="34.9711765" lon="32.4049131"><ele>454.6</ele><time>2015-04-24T18:03:41.0000000+00:00</time></trkpt><trkpt lat="34.9735547" lon="32.4058864"><ele>435.1</ele><time>2015-04-24T18:04:09.0000000+00:00</time></trkpt><trkpt lat="34.9750556" lon="32.4051867"><ele>423.6</ele><time>2015-04-24T18:04:23.0000000+00:00</time></trkpt><trkpt lat="34.976112" lon="32.4053098"><ele>413.4</ele><time>2015-04-24T18:04:32.0000000+00:00</time></trkpt><trkpt lat="34.9775055" lon="32.4046401"><ele>397.9</ele><time>2015-04-24T18:04:45.0000000+00:00</time></trkpt><trkpt lat="34.9782346" lon="32.4050093"><ele>389.6</ele><time>2015-04-24T18:04:52.0000000+00:00</time></trkpt><trkpt lat="34.9828292" lon="32.4059523"><ele>383.4</ele><time>2015-04-24T18:05:39.0000000+00:00</time></trkpt><trkpt lat="34.9868611" lon="32.406218"><ele>358.9</ele><time>2015-04-24T18:06:20.0000000+00:00</time></trkpt><trkpt lat="34.9887539" lon="32.4056984"><ele>342.0</ele><time>2015-04-24T18:06:38.0000000+00:00</time></trkpt><trkpt lat="34.990761" lon="32.4061346"><ele>333.7</ele><time>2015-04-24T18:06:57.0000000+00:00</time></trkpt><trkpt lat="34.9912773" lon="32.4059584"><ele>329.6</ele><time>2015-04-24T18:07:03.0000000+00:00</time></trkpt><trkpt lat="34.9923354" lon="32.4048145"><ele>320.1</ele><time>2015-04-24T18:07:17.0000000+00:00</time></trkpt><trkpt lat="34.9931147" lon="32.4044761"><ele>315.5</ele><time>2015-04-24T18:07:24.0000000+00:00</time></trkpt><trkpt lat="34.994229" lon="32.4044545"><ele>308.4</ele><time>2015-04-24T18:07:35.0000000+00:00</time></trkpt><trkpt lat="34.9969281" lon="32.4048993"><ele>282.3</ele><time>2015-04-24T18:07:56.0000000+00:00</time></trkpt><trkpt lat="34.9991654" lon="32.4042523"><ele>255.1</ele><time>2015-04-24T18:08:17.0000000+00:00</time></trkpt><trkpt lat="35.0000647" lon="32.4042172"><ele>247.4</ele><time>2015-04-24T18:08:25.0000000+00:00</time></trkpt><trkpt lat="35.0019117" lon="32.4047764"><ele>231.0</ele><time>2015-04-24T18:08:44.0000000+00:00</time></trkpt><trkpt lat="35.002559" lon="32.4046661"><ele>232.8</ele><time>2015-04-24T18:08:50.0000000+00:00</time></trkpt><trkpt lat="35.0043172" lon="32.4037734"><ele>208.7</ele><time>2015-04-24T18:09:06.0000000+00:00</time></trkpt><trkpt lat="35.0049387" lon="32.4036651"><ele>204.1</ele><time>2015-04-24T18:09:11.0000000+00:00</time></trkpt><trkpt lat="35.0069573" lon="32.4042484"><ele>184.4</ele><time>2015-04-24T18:09:26.0000000+00:00</time></trkpt><trkpt lat="35.0094421" lon="32.4041302"><ele>172.3</ele><time>2015-04-24T18:09:46.0000000+00:00</time></trkpt><trkpt lat="35.013529" lon="32.4050157"><ele>133.6</ele><time>2015-04-24T18:10:22.0000000+00:00</time></trkpt><trkpt lat="35.0143567" lon="32.4058342"><ele>128.5</ele><time>2015-04-24T18:10:33.0000000+00:00</time></trkpt><trkpt lat="35.015357" lon="32.408824"><ele>105.0</ele><time>2015-04-24T18:11:01.0000000+00:00</time></trkpt><trkpt lat="35.0157768" lon="32.4096062"><ele>100.1</ele><time>2015-04-24T18:11:08.0000000+00:00</time></trkpt><trkpt lat="35.0163232" lon="32.4099643"><ele>96.5</ele><time>2015-04-24T18:11:14.0000000+00:00</time></trkpt><trkpt lat="35.0175443" lon="32.4102004"><ele>97.2</ele><time>2015-04-24T18:11:28.0000000+00:00</time></trkpt><trkpt lat="35.018124" lon="32.410584"><ele>93.4</ele><time>2015-04-24T18:11:38.0000000+00:00</time></trkpt><trkpt lat="35.0197372" lon="32.4128331"><ele>88.9</ele><time>2015-04-24T18:12:14.0000000+00:00</time></trkpt><trkpt lat="35.020394" lon="32.4133748"><ele>83.7</ele><time>2015-04-24T18:12:24.0000000+00:00</time></trkpt><trkpt lat="35.0229249" lon="32.4147228"><ele>71.7</ele><time>2015-04-24T18:13:00.0000000+00:00</time></trkpt><trkpt lat="35.0237095" lon="32.414945"><ele>65.4</ele><time>2015-04-24T18:13:09.0000000+00:00</time></trkpt><trkpt lat="35.028317" lon="32.4141057"><ele>45.7</ele><time>2015-04-24T18:14:02.0000000+00:00</time></trkpt><trkpt lat="35.0257624" lon="32.4146958"><ele>53.6</ele><time>2015-04-24T18:16:35.0000000+00:00</time></trkpt><trkpt lat="35.0265137" lon="32.4169558"><ele>49.1</ele><time>2015-04-24T18:17:36.0000000+00:00</time></trkpt><trkpt lat="35.0267053" lon="32.4172249"><ele>45.0</ele><time>2015-04-24T18:17:44.0000000+00:00</time></trkpt><trkpt lat="35.0273939" lon="32.4175929"><ele>37.0</ele><time>2015-04-24T18:17:55.0000000+00:00</time></trkpt><trkpt lat="35.0281092" lon="32.4184653"><ele>28.7</ele><time>2015-04-24T18:18:12.0000000+00:00</time></trkpt><trkpt lat="35.0284575" lon="32.4183421"><ele>28.8</ele><time>2015-04-24T18:18:21.0000000+00:00</time></trkpt><trkpt lat="35.0287666" lon="32.417971"><ele>28.1</ele><time>2015-04-24T18:18:30.0000000+00:00</time></trkpt><trkpt lat="35.028927" lon="32.4180124"><ele>24.1</ele><time>2015-04-24T18:18:35.0000000+00:00</time></trkpt><trkpt lat="35.0294527" lon="32.4191928"><ele>20.9</ele><time>2015-04-24T18:19:01.0000000+00:00</time></trkpt><trkpt lat="35.0302059" lon="32.4200334"><ele>21.0</ele><time>2015-04-24T18:19:32.0000000+00:00</time></trkpt><trkpt lat="35.0300891" lon="32.4200918"><ele>21.4</ele><time>2015-04-24T18:20:54.0000000+00:00</time></trkpt><trkpt lat="35.0306148" lon="32.4211193"><ele>19.9</ele><time>2015-04-24T18:34:54.0000000+00:00</time></trkpt><trkpt lat="35.0310298" lon="32.4225549"><ele>19.6</ele><time>2015-04-24T18:35:27.0000000+00:00</time></trkpt><trkpt lat="35.0330011" lon="32.4252088"><ele>22.1</ele><time>2015-04-24T18:36:52.0000000+00:00</time></trkpt><trkpt lat="35.0336801" lon="32.425598"><ele>30.9</ele><time>2015-04-24T18:37:30.0000000+00:00</time></trkpt><trkpt lat="35.0326984" lon="32.4270199"><ele>38.9</ele><time>2015-04-24T18:38:53.0000000+00:00</time></trkpt><trkpt lat="35.033062" lon="32.4272099"><ele>37.8</ele><time>2015-04-24T18:39:04.0000000+00:00</time></trkpt><trkpt lat="35.0340561" lon="32.4272202"><ele>34.6</ele><time>2015-04-24T18:39:25.0000000+00:00</time></trkpt><trkpt lat="35.0357044" lon="32.4282971"><ele>28.7</ele><time>2015-04-24T18:39:58.0000000+00:00</time></trkpt><trkpt lat="35.037367" lon="32.4326051"><ele>21.2</ele><time>2015-04-24T18:41:09.0000000+00:00</time></trkpt><trkpt lat="35.0385783" lon="32.4344779"><ele>24.8</ele><time>2015-04-24T18:42:11.0000000+00:00</time></trkpt><trkpt lat="35.039036" lon="32.4357882"><ele>25.4</ele><time>2015-04-24T18:42:40.0000000+00:00</time></trkpt><trkpt lat="35.0397548" lon="32.4367318"><ele>28.5</ele><time>2015-04-24T18:43:08.0000000+00:00</time></trkpt><trkpt lat="35.0413429" lon="32.4395924"><ele>27.7</ele><time>2015-04-24T18:44:10.0000000+00:00</time></trkpt><trkpt lat="35.0419693" lon="32.4402642"><ele>25.8</ele><time>2015-04-24T18:44:23.0000000+00:00</time></trkpt><trkpt lat="35.0426628" lon="32.4406165"><ele>24.3</ele><time>2015-04-24T18:44:33.0000000+00:00</time></trkpt><trkpt lat="35.0459878" lon="32.4409759"><ele>14.1</ele><time>2015-04-24T18:45:17.0000000+00:00</time></trkpt><trkpt lat="35.0468263" lon="32.4413283"><ele>13.9</ele><time>2015-04-24T18:45:28.0000000+00:00</time></trkpt><trkpt lat="35.047418" lon="32.44184"><ele>8.9</ele><time>2015-04-24T18:45:37.0000000+00:00</time></trkpt><trkpt lat="35.0507996" lon="32.4471144"><ele>8.2</ele><time>2015-04-24T18:47:01.0000000+00:00</time></trkpt><trkpt lat="35.0541776" lon="32.4539134"><ele>11.2</ele><time>2015-04-24T18:48:57.0000000+00:00</time></trkpt><trkpt lat="35.054853" lon="32.4545294"><ele>12.2</ele><time>2015-04-24T18:49:12.0000000+00:00</time></trkpt><trkpt lat="35.0569523" lon="32.4548541"><ele>6.1</ele><time>2015-04-24T18:49:44.0000000+00:00</time></trkpt><trkpt lat="35.0574452" lon="32.4551747"><ele>4.9</ele><time>2015-04-24T18:49:52.0000000+00:00</time></trkpt><trkpt lat="35.0588514" lon="32.4575912"><ele>4.0</ele><time>2015-04-24T18:50:42.0000000+00:00</time></trkpt><trkpt lat="35.0601121" lon="32.4593277"><ele>8.3</ele><time>2015-04-24T18:51:24.0000000+00:00</time></trkpt><trkpt lat="35.060977" lon="32.4612659"><ele>5.3</ele><time>2015-04-24T18:52:01.0000000+00:00</time></trkpt><trkpt lat="35.0630512" lon="32.4641498"><ele>5.0</ele><time>2015-04-24T18:53:01.0000000+00:00</time></trkpt><trkpt lat="35.0647874" lon="32.4661866"><ele>6.6</ele><time>2015-04-24T18:53:51.0000000+00:00</time></trkpt><trkpt lat="35.0665159" lon="32.4692663"><ele>6.5</ele><time>2015-04-24T18:54:57.0000000+00:00</time></trkpt><trkpt lat="35.067518" lon="32.4703639"><ele>8.2</ele><time>2015-04-24T18:55:30.0000000+00:00</time></trkpt><trkpt lat="35.0700238" lon="32.4738061"><ele>3.7</ele><time>2015-04-24T18:56:43.0000000+00:00</time></trkpt><trkpt lat="35.0767337" lon="32.4817264"><ele>5.4</ele><time>2015-04-24T19:00:19.0000000+00:00</time></trkpt><trkpt lat="35.077491" lon="32.482153"><ele>3.7</ele><time>2015-04-24T19:00:35.0000000+00:00</time></trkpt><trkpt lat="35.0801095" lon="32.4850373"><ele>4.0</ele><time>2015-04-24T19:01:44.0000000+00:00</time></trkpt><trkpt lat="35.0823852" lon="32.487121"><ele>3.3</ele><time>2015-04-24T19:02:38.0000000+00:00</time></trkpt><trkpt lat="35.0847066" lon="32.4889891"><ele>4.5</ele><time>2015-04-24T19:03:34.0000000+00:00</time></trkpt><trkpt lat="35.0865334" lon="32.4907224"><ele>2.8</ele><time>2015-04-24T19:04:16.0000000+00:00</time></trkpt><trkpt lat="35.088702" lon="32.4923163"><ele>4.1</ele><time>2015-04-24T19:05:02.0000000+00:00</time></trkpt><trkpt lat="35.0938613" lon="32.4969118"><ele>4.8</ele><time>2015-04-24T19:07:08.0000000+00:00</time></trkpt><trkpt lat="35.0965949" lon="32.4985434"><ele>5.0</ele><time>2015-04-24T19:08:03.0000000+00:00</time></trkpt><trkpt lat="35.1039891" lon="32.503617"><ele>5.5</ele><time>2015-04-24T19:11:02.0000000+00:00</time></trkpt><trkpt lat="35.1060382" lon="32.5043325"><ele>4.2</ele><time>2015-04-24T19:11:47.0000000+00:00</time></trkpt><trkpt lat="35.1105868" lon="32.5074473"><ele>6.4</ele><time>2015-04-24T19:13:54.0000000+00:00</time></trkpt><trkpt lat="35.1108388" lon="32.5077153"><ele>7.4</ele><time>2015-04-24T19:14:22.0000000+00:00</time></trkpt><trkpt lat="35.1108164" lon="32.5078915"><ele>5.8</ele><time>2015-04-24T19:14:41.0000000+00:00</time></trkpt></trkseg><trkseg><trkpt lat="35.11071" lon="32.5079817"><ele>5.7</ele><time>2015-04-25T07:57:35.0000000+00:00</time></trkpt><trkpt lat="35.1108401" lon="32.5077211"><ele>7.4</ele><time>2015-04-25T07:59:51.0000000+00:00</time></trkpt><trkpt lat="35.1105991" lon="32.5075244"><ele>6.6</ele><time>2015-04-25T08:00:04.0000000+00:00</time></trkpt><trkpt lat="35.1061934" lon="32.504515"><ele>4.1</ele><time>2015-04-25T08:01:58.0000000+00:00</time></trkpt><trkpt lat="35.1056321" lon="32.5041687"><ele>4.9</ele><time>2015-04-25T08:02:10.0000000+00:00</time></trkpt><trkpt lat="35.1039528" lon="32.5036723"><ele>5.6</ele><time>2015-04-25T08:02:42.0000000+00:00</time></trkpt><trkpt lat="35.0960278" lon="32.4982491"><ele>5.1</ele><time>2015-04-25T08:05:22.0000000+00:00</time></trkpt><trkpt lat="35.0937827" lon="32.4969366"><ele>5.0</ele><time>2015-04-25T08:06:08.0000000+00:00</time></trkpt><trkpt lat="35.0884987" lon="32.4922561"><ele>4.1</ele><time>2015-04-25T08:08:07.0000000+00:00</time></trkpt><trkpt lat="35.0864503" lon="32.4907476"><ele>2.8</ele><time>2015-04-25T08:08:52.0000000+00:00</time></trkpt><trkpt lat="35.0826504" lon="32.4874878"><ele>3.6</ele><time>2015-04-25T08:10:22.0000000+00:00</time></trkpt><trkpt lat="35.0796103" lon="32.4846786"><ele>5.1</ele><time>2015-04-25T08:11:36.0000000+00:00</time></trkpt><trkpt lat="35.0774419" lon="32.4822305"><ele>3.9</ele><time>2015-04-25T08:12:32.0000000+00:00</time></trkpt><trkpt lat="35.0765564" lon="32.4816865"><ele>5.6</ele><time>2015-04-25T08:12:52.0000000+00:00</time></trkpt><trkpt lat="35.0694932" lon="32.4733284"><ele>4.9</ele><time>2015-04-25T08:17:36.0000000+00:00</time></trkpt><trkpt lat="35.0672866" lon="32.4703334"><ele>7.7</ele><time>2015-04-25T08:18:41.0000000+00:00</time></trkpt><trkpt lat="35.066295" lon="32.4692837"><ele>7.1</ele><time>2015-04-25T08:19:08.0000000+00:00</time></trkpt><trkpt lat="35.0648086" lon="32.4664194"><ele>5.6</ele><time>2015-04-25T08:20:01.0000000+00:00</time></trkpt><trkpt lat="35.063348" lon="32.4647826"><ele>6.0</ele><time>2015-04-25T08:20:38.0000000+00:00</time></trkpt><trkpt lat="35.0606917" lon="32.4609997"><ele>6.9</ele><time>2015-04-25T08:21:53.0000000+00:00</time></trkpt><trkpt lat="35.0599173" lon="32.4591612"><ele>6.9</ele><time>2015-04-25T08:22:25.0000000+00:00</time></trkpt><trkpt lat="35.0585392" lon="32.4572827"><ele>3.5</ele><time>2015-04-25T08:23:00.0000000+00:00</time></trkpt><trkpt lat="35.057535" lon="32.4554272"><ele>4.0</ele><time>2015-04-25T08:23:33.0000000+00:00</time></trkpt><trkpt lat="35.057046" lon="32.4549514"><ele>5.5</ele><time>2015-04-25T08:23:56.0000000+00:00</time></trkpt><trkpt lat="35.0573211" lon="32.4544298"><ele>4.2</ele><time>2015-04-25T08:24:16.0000000+00:00</time></trkpt><trkpt lat="35.0586217" lon="32.4536748"><ele>0.0</ele><time>2015-04-25T08:26:10.0000000+00:00</time></trkpt><trkpt lat="35.0573742" lon="32.4544122"><ele>3.9</ele><time>2015-04-25T08:45:21.0000000+00:00</time></trkpt><trkpt lat="35.0572926" lon="32.4546819"><ele>5.3</ele><time>2015-04-25T08:45:37.0000000+00:00</time></trkpt><trkpt lat="35.0570015" lon="32.4548805"><ele>6.0</ele><time>2015-04-25T08:45:50.0000000+00:00</time></trkpt><trkpt lat="35.0555572" lon="32.4548096"><ele>9.3</ele><time>2015-04-25T08:46:26.0000000+00:00</time></trkpt><trkpt lat="35.0545518" lon="32.4545509"><ele>14.5</ele><time>2015-04-25T08:46:52.0000000+00:00</time></trkpt><trkpt lat="35.0538442" lon="32.4535236"><ele>10.6</ele><time>2015-04-25T08:47:17.0000000+00:00</time></trkpt><trkpt lat="35.0506634" lon="32.4470762"><ele>8.4</ele><time>2015-04-25T08:49:16.0000000+00:00</time></trkpt><trkpt lat="35.047335" lon="32.4418494"><ele>9.8</ele><time>2015-04-25T08:50:44.0000000+00:00</time></trkpt><trkpt lat="35.0466255" lon="32.4412774"><ele>14.3</ele><time>2015-04-25T08:50:58.0000000+00:00</time></trkpt><trkpt lat="35.0459062" lon="32.4409936"><ele>14.1</ele><time>2015-04-25T08:51:13.0000000+00:00</time></trkpt><trkpt lat="35.0426097" lon="32.4406622"><ele>25.3</ele><time>2015-04-25T08:52:26.0000000+00:00</time></trkpt><trkpt lat="35.041414" lon="32.4398277"><ele>28.3</ele><time>2015-04-25T08:52:57.0000000+00:00</time></trkpt><trkpt lat="35.0397089" lon="32.4367232"><ele>28.9</ele><time>2015-04-25T08:54:08.0000000+00:00</time></trkpt><trkpt lat="35.0389892" lon="32.4358024"><ele>25.7</ele><time>2015-04-25T08:54:31.0000000+00:00</time></trkpt><trkpt lat="35.038571" lon="32.4345597"><ele>25.0</ele><time>2015-04-25T08:54:51.0000000+00:00</time></trkpt><trkpt lat="35.0374571" lon="32.4329673"><ele>21.3</ele><time>2015-04-25T08:55:29.0000000+00:00</time></trkpt><trkpt lat="35.035575" lon="32.4283425"><ele>30.2</ele><time>2015-04-25T08:57:21.0000000+00:00</time></trkpt><trkpt lat="35.0347307" lon="32.4278959"><ele>32.0</ele><time>2015-04-25T08:57:53.0000000+00:00</time></trkpt><trkpt lat="35.0340278" lon="32.4272622"><ele>35.2</ele><time>2015-04-25T08:58:21.0000000+00:00</time></trkpt><trkpt lat="35.0331172" lon="32.4272748"><ele>37.8</ele><time>2015-04-25T08:58:48.0000000+00:00</time></trkpt><trkpt lat="35.0326295" lon="32.426998"><ele>38.7</ele><time>2015-04-25T08:59:13.0000000+00:00</time></trkpt><trkpt lat="35.033594" lon="32.4256882"><ele>31.3</ele><time>2015-04-25T08:59:52.0000000+00:00</time></trkpt><trkpt lat="35.0327594" lon="32.4250738"><ele>19.4</ele><time>2015-04-25T09:00:11.0000000+00:00</time></trkpt><trkpt lat="35.0311275" lon="32.4228705"><ele>20.0</ele><time>2015-04-25T09:01:04.0000000+00:00</time></trkpt><trkpt lat="35.0303247" lon="32.4204972"><ele>21.1</ele><time>2015-04-25T09:02:07.0000000+00:00</time></trkpt><trkpt lat="35.0294369" lon="32.4191769"><ele>21.0</ele><time>2015-04-25T09:03:46.0000000+00:00</time></trkpt><trkpt lat="35.0293132" lon="32.4186941"><ele>20.1</ele><time>2015-04-25T09:21:14.0000000+00:00</time></trkpt><trkpt lat="35.0288207" lon="32.4179758"><ele>26.7</ele><time>2015-04-25T09:23:27.0000000+00:00</time></trkpt><trkpt lat="35.0285008" lon="32.4183629"><ele>28.4</ele><time>2015-04-25T09:23:55.0000000+00:00</time></trkpt><trkpt lat="35.0280512" lon="32.4185325"><ele>28.3</ele><time>2015-04-25T09:24:24.0000000+00:00</time></trkpt><trkpt lat="35.027566" lon="32.4177726"><ele>35.0</ele><time>2015-04-25T09:24:59.0000000+00:00</time></trkpt><trkpt lat="35.0265198" lon="32.4170464"><ele>48.2</ele><time>2015-04-25T09:26:05.0000000+00:00</time></trkpt><trkpt lat="35.0257201" lon="32.414618"><ele>53.8</ele><time>2015-04-25T09:27:35.0000000+00:00</time></trkpt><trkpt lat="35.0250936" lon="32.4137425"><ele>52.1</ele><time>2015-04-25T09:28:00.0000000+00:00</time></trkpt><trkpt lat="35.0245931" lon="32.4126958"><ele>59.7</ele><time>2015-04-25T09:28:37.0000000+00:00</time></trkpt><trkpt lat="35.0244184" lon="32.411732"><ele>67.2</ele><time>2015-04-25T09:29:20.0000000+00:00</time></trkpt><trkpt lat="35.0240672" lon="32.4109196"><ele>64.8</ele><time>2015-04-25T09:29:42.0000000+00:00</time></trkpt><trkpt lat="35.0241517" lon="32.4096827"><ele>69.7</ele><time>2015-04-25T09:30:06.0000000+00:00</time></trkpt><trkpt lat="35.0240474" lon="32.4087068"><ele>76.5</ele><time>2015-04-25T09:30:35.0000000+00:00</time></trkpt><trkpt lat="35.0231311" lon="32.4067252"><ele>74.3</ele><time>2015-04-25T09:32:41.0000000+00:00</time></trkpt><trkpt lat="35.02125" lon="32.4006053"><ele>83.6</ele><time>2015-04-25T09:34:48.0000000+00:00</time></trkpt><trkpt lat="35.0202921" lon="32.3999029"><ele>81.7</ele><time>2015-04-25T09:37:08.0000000+00:00</time></trkpt><trkpt lat="35.0193611" lon="32.3997451"><ele>71.7</ele><time>2015-04-25T09:37:18.0000000+00:00</time></trkpt><trkpt lat="35.018747" lon="32.3990383"><ele>69.3</ele><time>2015-04-25T09:37:27.0000000+00:00</time></trkpt><trkpt lat="35.0188018" lon="32.3983629"><ele>70.8</ele><time>2015-04-25T09:37:35.0000000+00:00</time></trkpt><trkpt lat="35.0199004" lon="32.3977503"><ele>79.1</ele><time>2015-04-25T09:38:27.0000000+00:00</time></trkpt><trkpt lat="35.0204952" lon="32.3977905"><ele>80.9</ele><time>2015-04-25T09:38:57.0000000+00:00</time></trkpt><trkpt lat="35.0206285" lon="32.3975649"><ele>85.3</ele><time>2015-04-25T09:39:08.0000000+00:00</time></trkpt><trkpt lat="35.0205549" lon="32.3972839"><ele>89.3</ele><time>2015-04-25T09:39:20.0000000+00:00</time></trkpt><trkpt lat="35.020101" lon="32.3970565"><ele>95.6</ele><time>2015-04-25T09:39:47.0000000+00:00</time></trkpt><trkpt lat="35.0188873" lon="32.3969726"><ele>104.9</ele><time>2015-04-25T09:40:56.0000000+00:00</time></trkpt><trkpt lat="35.0177863" lon="32.3966514"><ele>119.4</ele><time>2015-04-25T09:42:13.0000000+00:00</time></trkpt><trkpt lat="35.0174691" lon="32.3968062"><ele>121.4</ele><time>2015-04-25T09:42:38.0000000+00:00</time></trkpt><trkpt lat="35.016621" lon="32.3967218"><ele>120.9</ele><time>2015-04-25T09:43:31.0000000+00:00</time></trkpt><trkpt lat="35.0140313" lon="32.395107"><ele>148.3</ele><time>2015-04-25T09:46:27.0000000+00:00</time></trkpt><trkpt lat="35.0131053" lon="32.3936737"><ele>168.7</ele><time>2015-04-25T09:48:10.0000000+00:00</time></trkpt><trkpt lat="35.0124967" lon="32.3930177"><ele>182.3</ele><time>2015-04-25T09:48:58.0000000+00:00</time></trkpt><trkpt lat="35.0104936" lon="32.3917649"><ele>193.6</ele><time>2015-04-25T10:05:20.0000000+00:00</time></trkpt><trkpt lat="35.009807" lon="32.3918027"><ele>200.8</ele><time>2015-04-25T10:06:04.0000000+00:00</time></trkpt><trkpt lat="35.0092276" lon="32.3914038"><ele>206.2</ele><time>2015-04-25T10:06:46.0000000+00:00</time></trkpt><trkpt lat="35.0068668" lon="32.391559"><ele>226.5</ele><time>2015-04-25T10:09:29.0000000+00:00</time></trkpt><trkpt lat="35.0064064" lon="32.3905597"><ele>234.5</ele><time>2015-04-25T10:10:30.0000000+00:00</time></trkpt><trkpt lat="35.0055074" lon="32.3898151"><ele>249.0</ele><time>2015-04-25T10:11:46.0000000+00:00</time></trkpt><trkpt lat="35.005184" lon="32.3886071"><ele>252.1</ele><time>2015-04-25T10:18:51.0000000+00:00</time></trkpt><trkpt lat="35.0044075" lon="32.3881896"><ele>260.7</ele><time>2015-04-25T10:19:34.0000000+00:00</time></trkpt><trkpt lat="35.0032318" lon="32.3869453"><ele>269.6</ele><time>2015-04-25T10:20:32.0000000+00:00</time></trkpt><trkpt lat="35.0026953" lon="32.3860664"><ele>267.4</ele><time>2015-04-25T10:21:08.0000000+00:00</time></trkpt><trkpt lat="35.0023849" lon="32.3859275"><ele>264.4</ele><time>2015-04-25T10:21:21.0000000+00:00</time></trkpt><trkpt lat="35.0008412" lon="32.3864008"><ele>264.7</ele><time>2015-04-25T10:21:55.0000000+00:00</time></trkpt><trkpt lat="35.0016119" lon="32.3852056"><ele>266.5</ele><time>2015-04-25T10:22:47.0000000+00:00</time></trkpt><trkpt lat="35.001401" lon="32.3840185"><ele>274.9</ele><time>2015-04-25T10:23:42.0000000+00:00</time></trkpt><trkpt lat="35.0002506" lon="32.3826816"><ele>287.6</ele><time>2015-04-25T10:25:19.0000000+00:00</time></trkpt><trkpt lat="34.9989386" lon="32.381637"><ele>301.6</ele><time>2015-04-25T10:26:47.0000000+00:00</time></trkpt><trkpt lat="34.9987208" lon="32.3818148"><ele>302.7</ele><time>2015-04-25T10:28:21.0000000+00:00</time></trkpt><trkpt lat="34.998387" lon="32.3831404"><ele>303.0</ele><time>2015-04-25T10:31:26.0000000+00:00</time></trkpt><trkpt lat="34.9980555" lon="32.3834975"><ele>306.5</ele><time>2015-04-25T10:31:43.0000000+00:00</time></trkpt><trkpt lat="34.9968218" lon="32.382912"><ele>317.6</ele><time>2015-04-25T10:33:02.0000000+00:00</time></trkpt><trkpt lat="34.9967934" lon="32.3820835"><ele>325.0</ele><time>2015-04-25T10:33:45.0000000+00:00</time></trkpt><trkpt lat="34.9962796" lon="32.3825575"><ele>325.9</ele><time>2015-04-25T10:34:28.0000000+00:00</time></trkpt><trkpt lat="34.995761" lon="32.3823835"><ele>333.2</ele><time>2015-04-25T10:35:03.0000000+00:00</time></trkpt><trkpt lat="34.9953767" lon="32.3825885"><ele>335.9</ele><time>2015-04-25T10:35:43.0000000+00:00</time></trkpt><trkpt lat="34.9946366" lon="32.38246"><ele>343.1</ele><time>2015-04-25T10:36:22.0000000+00:00</time></trkpt><trkpt lat="34.9942457" lon="32.3820402"><ele>347.8</ele><time>2015-04-25T10:36:48.0000000+00:00</time></trkpt><trkpt lat="34.9939603" lon="32.381188"><ele>352.7</ele><time>2015-04-25T10:37:22.0000000+00:00</time></trkpt><trkpt lat="34.9929383" lon="32.3806235"><ele>359.7</ele><time>2015-04-25T10:38:28.0000000+00:00</time></trkpt><trkpt lat="34.9908762" lon="32.3783925"><ele>381.9</ele><time>2015-04-25T10:46:23.0000000+00:00</time></trkpt><trkpt lat="34.9901702" lon="32.3785147"><ele>388.1</ele><time>2015-04-25T10:47:02.0000000+00:00</time></trkpt><trkpt lat="34.9893737" lon="32.378393"><ele>396.3</ele><time>2015-04-25T10:47:53.0000000+00:00</time></trkpt><trkpt lat="34.9888105" lon="32.3789539"><ele>399.7</ele><time>2015-04-25T10:48:44.0000000+00:00</time></trkpt><trkpt lat="34.9875529" lon="32.3791955"><ele>412.6</ele><time>2015-04-25T10:59:57.0000000+00:00</time></trkpt><trkpt lat="34.9872855" lon="32.3798197"><ele>415.7</ele><time>2015-04-25T11:00:36.0000000+00:00</time></trkpt><trkpt lat="34.9860469" lon="32.3804195"><ele>424.1</ele><time>2015-04-25T11:01:58.0000000+00:00</time></trkpt><trkpt lat="34.9858736" lon="32.380335"><ele>424.4</ele><time>2015-04-25T11:02:11.0000000+00:00</time></trkpt><trkpt lat="34.985184" lon="32.3790544"><ele>434.5</ele><time>2015-04-25T11:03:32.0000000+00:00</time></trkpt><trkpt lat="34.9843202" lon="32.3785428"><ele>444.2</ele><time>2015-04-25T11:04:34.0000000+00:00</time></trkpt><trkpt lat="34.984031" lon="32.3784817"><ele>449.2</ele><time>2015-04-25T11:04:52.0000000+00:00</time></trkpt><trkpt lat="34.9835431" lon="32.3792308"><ele>454.0</ele><time>2015-04-25T11:05:29.0000000+00:00</time></trkpt><trkpt lat="34.9832226" lon="32.3793225"><ele>454.2</ele><time>2015-04-25T11:05:47.0000000+00:00</time></trkpt><trkpt lat="34.9830922" lon="32.3791213"><ele>455.2</ele><time>2015-04-25T11:05:59.0000000+00:00</time></trkpt><trkpt lat="34.9833284" lon="32.3775938"><ele>468.2</ele><time>2015-04-25T11:07:08.0000000+00:00</time></trkpt><trkpt lat="34.9839828" lon="32.3767436"><ele>474.5</ele><time>2015-04-25T11:08:02.0000000+00:00</time></trkpt><trkpt lat="34.9840834" lon="32.3759139"><ele>481.4</ele><time>2015-04-25T11:08:41.0000000+00:00</time></trkpt><trkpt lat="34.9833944" lon="32.37464"><ele>497.0</ele><time>2015-04-25T11:10:32.0000000+00:00</time></trkpt><trkpt lat="34.982141" lon="32.3743591"><ele>511.8</ele><time>2015-04-25T11:13:05.0000000+00:00</time></trkpt><trkpt lat="34.9811783" lon="32.3736852"><ele>524.8</ele><time>2015-04-25T11:15:11.0000000+00:00</time></trkpt><trkpt lat="34.9796681" lon="32.3742651"><ele>531.5</ele><time>2015-04-25T11:17:49.0000000+00:00</time></trkpt><trkpt lat="34.9786741" lon="32.375109"><ele>538.2</ele><time>2015-04-25T11:18:55.0000000+00:00</time></trkpt><trkpt lat="34.9780523" lon="32.3753224"><ele>541.8</ele><time>2015-04-25T11:19:41.0000000+00:00</time></trkpt><trkpt lat="34.9769813" lon="32.3752175"><ele>549.8</ele><time>2015-04-25T11:20:37.0000000+00:00</time></trkpt><trkpt lat="34.9755754" lon="32.3747963"><ele>561.3</ele><time>2015-04-25T11:21:55.0000000+00:00</time></trkpt><trkpt lat="34.9745994" lon="32.3739356"><ele>568.1</ele><time>2015-04-25T11:22:58.0000000+00:00</time></trkpt><trkpt lat="34.9719597" lon="32.3745151"><ele>573.6</ele><time>2015-04-25T11:48:32.0000000+00:00</time></trkpt><trkpt lat="34.9738053" lon="32.3730182"><ele>555.7</ele><time>2015-04-25T11:49:11.0000000+00:00</time></trkpt><trkpt lat="34.9744067" lon="32.371397"><ele>545.9</ele><time>2015-04-25T11:50:50.0000000+00:00</time></trkpt><trkpt lat="34.9755849" lon="32.3694863"><ele>526.1</ele><time>2015-04-25T11:51:15.0000000+00:00</time></trkpt><trkpt lat="34.9757803" lon="32.3672532"><ele>521.4</ele><time>2015-04-25T11:51:42.0000000+00:00</time></trkpt><trkpt lat="34.9765299" lon="32.3661122"><ele>520.2</ele><time>2015-04-25T11:51:58.0000000+00:00</time></trkpt><trkpt lat="34.97754" lon="32.3627879"><ele>514.7</ele><time>2015-04-25T11:52:53.0000000+00:00</time></trkpt><trkpt lat="34.9780732" lon="32.3615727"><ele>515.1</ele><time>2015-04-25T11:53:26.0000000+00:00</time></trkpt><trkpt lat="34.9791558" lon="32.3598217"><ele>506.3</ele><time>2015-04-25T11:53:56.0000000+00:00</time></trkpt><trkpt lat="34.9799745" lon="32.3572137"><ele>493.3</ele><time>2015-04-25T11:54:28.0000000+00:00</time></trkpt><trkpt lat="34.9805563" lon="32.3560275"><ele>493.2</ele><time>2015-04-25T11:54:47.0000000+00:00</time></trkpt><trkpt lat="34.9817571" lon="32.354637"><ele>493.6</ele><time>2015-04-25T11:55:25.0000000+00:00</time></trkpt><trkpt lat="34.9820612" lon="32.3547164"><ele>493.6</ele><time>2015-04-25T11:55:44.0000000+00:00</time></trkpt><trkpt lat="34.9823196" lon="32.354504"><ele>498.9</ele><time>2015-04-25T11:56:04.0000000+00:00</time></trkpt><trkpt lat="34.9826026" lon="32.3529562"><ele>482.7</ele><time>2015-04-25T12:03:54.0000000+00:00</time></trkpt><trkpt lat="34.9835541" lon="32.3517868"><ele>473.4</ele><time>2015-04-25T12:04:56.0000000+00:00</time></trkpt><trkpt lat="34.9840156" lon="32.3506672"><ele>479.8</ele><time>2015-04-25T12:05:28.0000000+00:00</time></trkpt><trkpt lat="34.9859652" lon="32.3499062"><ele>481.4</ele><time>2015-04-25T12:06:23.0000000+00:00</time></trkpt><trkpt lat="34.9879181" lon="32.3475062"><ele>470.8</ele><time>2015-04-25T12:09:07.0000000+00:00</time></trkpt><trkpt lat="34.9893848" lon="32.3473269"><ele>464.6</ele><time>2015-04-25T12:10:34.0000000+00:00</time></trkpt><trkpt lat="34.9898831" lon="32.3469707"><ele>456.8</ele><time>2015-04-25T12:10:42.0000000+00:00</time></trkpt><trkpt lat="34.990594" lon="32.3468092"><ele>457.9</ele><time>2015-04-25T12:10:52.0000000+00:00</time></trkpt><trkpt lat="34.9910805" lon="32.3463371"><ele>456.1</ele><time>2015-04-25T12:11:02.0000000+00:00</time></trkpt><trkpt lat="34.9919421" lon="32.3461335"><ele>453.9</ele><time>2015-04-25T12:11:18.0000000+00:00</time></trkpt><trkpt lat="34.9930292" lon="32.3454499"><ele>440.0</ele><time>2015-04-25T12:15:18.0000000+00:00</time></trkpt><trkpt lat="34.9931673" lon="32.3451998"><ele>440.7</ele><time>2015-04-25T12:15:26.0000000+00:00</time></trkpt><trkpt lat="34.9930631" lon="32.3448553"><ele>442.9</ele><time>2015-04-25T12:15:34.0000000+00:00</time></trkpt><trkpt lat="34.993554" lon="32.3443737"><ele>433.1</ele><time>2015-04-25T12:15:48.0000000+00:00</time></trkpt><trkpt lat="34.993563" lon="32.3438246"><ele>432.3</ele><time>2015-04-25T12:16:02.0000000+00:00</time></trkpt><trkpt lat="34.9942169" lon="32.3438806"><ele>420.0</ele><time>2015-04-25T12:16:15.0000000+00:00</time></trkpt><trkpt lat="34.9950645" lon="32.3445136"><ele>416.0</ele><time>2015-04-25T12:16:33.0000000+00:00</time></trkpt><trkpt lat="34.995117" lon="32.3450299"><ele>411.5</ele><time>2015-04-25T12:16:42.0000000+00:00</time></trkpt><trkpt lat="34.9953774" lon="32.3454521"><ele>409.7</ele><time>2015-04-25T12:16:55.0000000+00:00</time></trkpt><trkpt lat="34.9958572" lon="32.3453602"><ele>409.4</ele><time>2015-04-25T12:17:06.0000000+00:00</time></trkpt><trkpt lat="34.9965134" lon="32.3449383"><ele>406.2</ele><time>2015-04-25T12:17:18.0000000+00:00</time></trkpt><trkpt lat="34.9970591" lon="32.3421738"><ele>390.3</ele><time>2015-04-25T12:23:30.0000000+00:00</time></trkpt><trkpt lat="34.9976711" lon="32.3416828"><ele>381.5</ele><time>2015-04-25T12:23:41.0000000+00:00</time></trkpt><trkpt lat="34.999418" lon="32.341276"><ele>373.9</ele><time>2015-04-25T12:24:08.0000000+00:00</time></trkpt><trkpt lat="34.9997797" lon="32.3418203"><ele>372.6</ele><time>2015-04-25T12:24:28.0000000+00:00</time></trkpt><trkpt lat="35.0000559" lon="32.3418818"><ele>375.9</ele><time>2015-04-25T12:24:42.0000000+00:00</time></trkpt><trkpt lat="35.0002065" lon="32.3424061"><ele>373.1</ele><time>2015-04-25T12:24:58.0000000+00:00</time></trkpt><trkpt lat="35.0003757" lon="32.3424238"><ele>374.2</ele><time>2015-04-25T12:25:01.0000000+00:00</time></trkpt><trkpt lat="35.0010899" lon="32.3411657"><ele>377.6</ele><time>2015-04-25T12:25:21.0000000+00:00</time></trkpt><trkpt lat="35.00195" lon="32.3408888"><ele>361.0</ele><time>2015-04-25T12:25:36.0000000+00:00</time></trkpt><trkpt lat="35.0028236" lon="32.3402408"><ele>370.8</ele><time>2015-04-25T12:26:09.0000000+00:00</time></trkpt><trkpt lat="35.0050272" lon="32.3400264"><ele>371.5</ele><time>2015-04-25T12:27:23.0000000+00:00</time></trkpt><trkpt lat="35.0061111" lon="32.3390483"><ele>369.6</ele><time>2015-04-25T12:28:04.0000000+00:00</time></trkpt><trkpt lat="35.0075293" lon="32.3395455"><ele>360.3</ele><time>2015-04-25T12:28:33.0000000+00:00</time></trkpt><trkpt lat="35.008292" lon="32.3389642"><ele>362.9</ele><time>2015-04-25T12:28:53.0000000+00:00</time></trkpt><trkpt lat="35.009133" lon="32.3388088"><ele>359.4</ele><time>2015-04-25T12:29:19.0000000+00:00</time></trkpt><trkpt lat="35.009408" lon="32.338411"><ele>364.2</ele><time>2015-04-25T12:29:38.0000000+00:00</time></trkpt><trkpt lat="35.0099261" lon="32.3387932"><ele>361.4</ele><time>2015-04-25T12:29:58.0000000+00:00</time></trkpt><trkpt lat="35.0106866" lon="32.3379254"><ele>364.8</ele><time>2015-04-25T12:30:30.0000000+00:00</time></trkpt><trkpt lat="35.0103703" lon="32.3370766"><ele>365.2</ele><time>2015-04-25T12:30:48.0000000+00:00</time></trkpt><trkpt lat="35.0112207" lon="32.3361139"><ele>354.9</ele><time>2015-04-25T12:31:06.0000000+00:00</time></trkpt><trkpt lat="35.0141658" lon="32.335059"><ele>343.1</ele><time>2015-04-25T12:32:02.0000000+00:00</time></trkpt><trkpt lat="35.0157114" lon="32.335057"><ele>338.0</ele><time>2015-04-25T12:32:25.0000000+00:00</time></trkpt><trkpt lat="35.0161951" lon="32.334471"><ele>335.3</ele><time>2015-04-25T12:32:35.0000000+00:00</time></trkpt><trkpt lat="35.0173456" lon="32.333933"><ele>343.6</ele><time>2015-04-25T12:33:41.0000000+00:00</time></trkpt><trkpt lat="35.0178705" lon="32.3334658"><ele>348.9</ele><time>2015-04-25T12:41:43.0000000+00:00</time></trkpt><trkpt lat="35.0181968" lon="32.3326754"><ele>351.6</ele><time>2015-04-25T12:42:22.0000000+00:00</time></trkpt><trkpt lat="35.0192558" lon="32.3313483"><ele>343.6</ele><time>2015-04-25T12:42:46.0000000+00:00</time></trkpt><trkpt lat="35.0198111" lon="32.3309386"><ele>338.5</ele><time>2015-04-25T12:43:01.0000000+00:00</time></trkpt><trkpt lat="35.0199728" lon="32.3303056"><ele>335.5</ele><time>2015-04-25T12:43:11.0000000+00:00</time></trkpt><trkpt lat="35.0204528" lon="32.3298566"><ele>330.0</ele><time>2015-04-25T12:43:22.0000000+00:00</time></trkpt><trkpt lat="35.0214596" lon="32.3292671"><ele>318.4</ele><time>2015-04-25T12:43:38.0000000+00:00</time></trkpt><trkpt lat="35.0221811" lon="32.3292734"><ele>312.7</ele><time>2015-04-25T12:43:48.0000000+00:00</time></trkpt><trkpt lat="35.023139" lon="32.3289307"><ele>313.2</ele><time>2015-04-25T12:44:02.0000000+00:00</time></trkpt><trkpt lat="35.0233446" lon="32.3286292"><ele>315.6</ele><time>2015-04-25T12:44:20.0000000+00:00</time></trkpt><trkpt lat="35.0233677" lon="32.3282578"><ele>318.9</ele><time>2015-04-25T12:44:44.0000000+00:00</time></trkpt><trkpt lat="35.0237461" lon="32.3280482"><ele>324.5</ele><time>2015-04-25T12:45:15.0000000+00:00</time></trkpt><trkpt lat="35.024039" lon="32.3275638"><ele>328.6</ele><time>2015-04-25T12:45:49.0000000+00:00</time></trkpt><trkpt lat="35.0248175" lon="32.3272417"><ele>338.3</ele><time>2015-04-25T12:46:34.0000000+00:00</time></trkpt><trkpt lat="35.0248676" lon="32.3268224"><ele>333.8</ele><time>2015-04-25T12:46:53.0000000+00:00</time></trkpt><trkpt lat="35.0253492" lon="32.3269804"><ele>346.2</ele><time>2015-04-25T12:49:04.0000000+00:00</time></trkpt><trkpt lat="35.0256745" lon="32.3266177"><ele>340.9</ele><time>2015-04-25T12:49:27.0000000+00:00</time></trkpt><trkpt lat="35.0260778" lon="32.326825"><ele>351.0</ele><time>2015-04-25T12:49:47.0000000+00:00</time></trkpt><trkpt lat="35.0263687" lon="32.3267244"><ele>348.3</ele><time>2015-04-25T12:50:02.0000000+00:00</time></trkpt><trkpt lat="35.0267542" lon="32.3259528"><ele>345.0</ele><time>2015-04-25T12:50:36.0000000+00:00</time></trkpt><trkpt lat="35.0272146" lon="32.3260346"><ele>353.0</ele><time>2015-04-25T12:51:02.0000000+00:00</time></trkpt><trkpt lat="35.0275191" lon="32.3263504"><ele>360.0</ele><time>2015-04-25T12:51:21.0000000+00:00</time></trkpt><trkpt lat="35.0286942" lon="32.3264248"><ele>357.7</ele><time>2015-04-25T12:52:07.0000000+00:00</time></trkpt><trkpt lat="35.0289438" lon="32.3267335"><ele>364.2</ele><time>2015-04-25T12:52:22.0000000+00:00</time></trkpt><trkpt lat="35.0306434" lon="32.327743"><ele>369.1</ele><time>2015-04-25T12:53:52.0000000+00:00</time></trkpt><trkpt lat="35.0314942" lon="32.3273316"><ele>370.4</ele><time>2015-04-25T12:54:30.0000000+00:00</time></trkpt><trkpt lat="35.0322" lon="32.3273847"><ele>365.6</ele><time>2015-04-25T12:54:47.0000000+00:00</time></trkpt><trkpt lat="35.0341721" lon="32.326838"><ele>370.5</ele><time>2015-04-25T12:55:52.0000000+00:00</time></trkpt><trkpt lat="35.0351478" lon="32.3268982"><ele>381.2</ele><time>2015-04-25T12:56:59.0000000+00:00</time></trkpt><trkpt lat="35.0365501" lon="32.3259576"><ele>378.3</ele><time>2015-04-25T12:58:01.0000000+00:00</time></trkpt><trkpt lat="35.036956" lon="32.3253315"><ele>372.2</ele><time>2015-04-25T12:58:13.0000000+00:00</time></trkpt><trkpt lat="35.0370954" lon="32.3242796"><ele>366.7</ele><time>2015-04-25T12:58:26.0000000+00:00</time></trkpt><trkpt lat="35.037376" lon="32.324081"><ele>367.2</ele><time>2015-04-25T12:58:39.0000000+00:00</time></trkpt><trkpt lat="35.0379621" lon="32.3241752"><ele>370.8</ele><time>2015-04-25T12:59:16.0000000+00:00</time></trkpt><trkpt lat="35.0382923" lon="32.3235284"><ele>373.2</ele><time>2015-04-25T12:59:31.0000000+00:00</time></trkpt><trkpt lat="35.0390023" lon="32.3229064"><ele>371.2</ele><time>2015-04-25T12:59:55.0000000+00:00</time></trkpt><trkpt lat="35.0401548" lon="32.3229878"><ele>369.5</ele><time>2015-04-25T13:01:46.0000000+00:00</time></trkpt><trkpt lat="35.0412602" lon="32.3225009"><ele>363.9</ele><time>2015-04-25T13:02:20.0000000+00:00</time></trkpt><trkpt lat="35.0422349" lon="32.3227691"><ele>368.5</ele><time>2015-04-25T13:03:22.0000000+00:00</time></trkpt><trkpt lat="35.0431704" lon="32.3233043"><ele>359.6</ele><time>2015-04-25T13:03:45.0000000+00:00</time></trkpt><trkpt lat="35.0446138" lon="32.3227845"><ele>361.1</ele><time>2015-04-25T13:04:20.0000000+00:00</time></trkpt><trkpt lat="35.0452626" lon="32.3228897"><ele>359.6</ele><time>2015-04-25T13:04:42.0000000+00:00</time></trkpt><trkpt lat="35.0455732" lon="32.3234585"><ele>361.2</ele><time>2015-04-25T13:04:57.0000000+00:00</time></trkpt><trkpt lat="35.0459577" lon="32.3236697"><ele>351.2</ele><time>2015-04-25T13:05:10.0000000+00:00</time></trkpt><trkpt lat="35.047313" lon="32.3227613"><ele>335.4</ele><time>2015-04-25T13:05:34.0000000+00:00</time></trkpt><trkpt lat="35.0481651" lon="32.3225643"><ele>336.3</ele><time>2015-04-25T13:05:51.0000000+00:00</time></trkpt><trkpt lat="35.0484168" lon="32.3227013"><ele>337.1</ele><time>2015-04-25T13:06:02.0000000+00:00</time></trkpt><trkpt lat="35.048805" lon="32.323308"><ele>341.8</ele><time>2015-04-25T13:06:52.0000000+00:00</time></trkpt><trkpt lat="35.0495138" lon="32.3235318"><ele>348.4</ele><time>2015-04-25T13:07:51.0000000+00:00</time></trkpt><trkpt lat="35.0497942" lon="32.3233949"><ele>352.8</ele><time>2015-04-25T13:08:20.0000000+00:00</time></trkpt><trkpt lat="35.0507839" lon="32.322074"><ele>363.3</ele><time>2015-04-25T13:09:30.0000000+00:00</time></trkpt><trkpt lat="35.0516266" lon="32.3212504"><ele>361.7</ele><time>2015-04-25T13:09:56.0000000+00:00</time></trkpt><trkpt lat="35.0525154" lon="32.3211553"><ele>360.2</ele><time>2015-04-25T13:10:21.0000000+00:00</time></trkpt><trkpt lat="35.0532957" lon="32.3201092"><ele>343.5</ele><time>2015-04-25T13:10:53.0000000+00:00</time></trkpt><trkpt lat="35.0543773" lon="32.3199332"><ele>340.8</ele><time>2015-04-25T13:11:14.0000000+00:00</time></trkpt><trkpt lat="35.055188" lon="32.3201752"><ele>336.9</ele><time>2015-04-25T13:11:35.0000000+00:00</time></trkpt><trkpt lat="35.0552539" lon="32.3200539"><ele>338.8</ele><time>2015-04-25T13:11:39.0000000+00:00</time></trkpt><trkpt lat="35.0549166" lon="32.319303"><ele>339.2</ele><time>2015-04-25T13:11:55.0000000+00:00</time></trkpt><trkpt lat="35.0550692" lon="32.3188361"><ele>328.2</ele><time>2015-04-25T13:12:01.0000000+00:00</time></trkpt><trkpt lat="35.0556058" lon="32.3180501"><ele>320.5</ele><time>2015-04-25T13:12:10.0000000+00:00</time></trkpt><trkpt lat="35.0566409" lon="32.3174734"><ele>312.3</ele><time>2015-04-25T13:12:23.0000000+00:00</time></trkpt><trkpt lat="35.0572475" lon="32.316601"><ele>310.2</ele><time>2015-04-25T13:12:35.0000000+00:00</time></trkpt><trkpt lat="35.0576526" lon="32.316478"><ele>310.9</ele><time>2015-04-25T13:12:42.0000000+00:00</time></trkpt><trkpt lat="35.0579654" lon="32.3168203"><ele>313.5</ele><time>2015-04-25T13:13:04.0000000+00:00</time></trkpt><trkpt lat="35.0584656" lon="32.3165348"><ele>319.5</ele><time>2015-04-25T13:13:55.0000000+00:00</time></trkpt><trkpt lat="35.0599095" lon="32.316388"><ele>325.8</ele><time>2015-04-25T13:15:05.0000000+00:00</time></trkpt><trkpt lat="35.0602295" lon="32.3161058"><ele>326.7</ele><time>2015-04-25T13:15:19.0000000+00:00</time></trkpt><trkpt lat="35.0604689" lon="32.3150735"><ele>335.3</ele><time>2015-04-25T13:15:51.0000000+00:00</time></trkpt><trkpt lat="35.0599074" lon="32.3136014"><ele>325.7</ele><time>2015-04-25T13:16:18.0000000+00:00</time></trkpt><trkpt lat="35.0599912" lon="32.3128248"><ele>317.8</ele><time>2015-04-25T13:16:26.0000000+00:00</time></trkpt><trkpt lat="35.0604229" lon="32.3121466"><ele>314.6</ele><time>2015-04-25T13:16:35.0000000+00:00</time></trkpt><trkpt lat="35.0615765" lon="32.3111336"><ele>302.9</ele><time>2015-04-25T13:16:53.0000000+00:00</time></trkpt><trkpt lat="35.0629222" lon="32.3094935"><ele>283.3</ele><time>2015-04-25T13:17:18.0000000+00:00</time></trkpt><trkpt lat="35.0637139" lon="32.3072033"><ele>270.1</ele><time>2015-04-25T13:17:49.0000000+00:00</time></trkpt><trkpt lat="35.0641156" lon="32.306622"><ele>267.9</ele><time>2015-04-25T13:18:06.0000000+00:00</time></trkpt><trkpt lat="35.0652199" lon="32.305637"><ele>258.1</ele><time>2015-04-25T13:21:36.0000000+00:00</time></trkpt><trkpt lat="35.0658622" lon="32.304038"><ele>241.9</ele><time>2015-04-25T13:22:52.0000000+00:00</time></trkpt><trkpt lat="35.0673862" lon="32.3012794"><ele>221.4</ele><time>2015-04-25T13:23:33.0000000+00:00</time></trkpt><trkpt lat="35.0678554" lon="32.300731"><ele>220.5</ele><time>2015-04-25T13:23:49.0000000+00:00</time></trkpt><trkpt lat="35.0690025" lon="32.3005625"><ele>219.1</ele><time>2015-04-25T13:24:38.0000000+00:00</time></trkpt><trkpt lat="35.0694864" lon="32.299292"><ele>219.6</ele><time>2015-04-25T13:25:12.0000000+00:00</time></trkpt><trkpt lat="35.0704006" lon="32.29802"><ele>219.0</ele><time>2015-04-25T13:26:03.0000000+00:00</time></trkpt><trkpt lat="35.0712407" lon="32.2977466"><ele>213.9</ele><time>2015-04-25T13:26:22.0000000+00:00</time></trkpt><trkpt lat="35.0716276" lon="32.2972816"><ele>212.6</ele><time>2015-04-25T13:26:34.0000000+00:00</time></trkpt><trkpt lat="35.0735457" lon="32.296075"><ele>208.5</ele><time>2015-04-25T13:27:45.0000000+00:00</time></trkpt><trkpt lat="35.0739235" lon="32.2956774"><ele>209.6</ele><time>2015-04-25T13:28:03.0000000+00:00</time></trkpt><trkpt lat="35.0746312" lon="32.2955302"><ele>204.1</ele><time>2015-04-25T13:28:35.0000000+00:00</time></trkpt><trkpt lat="35.0750996" lon="32.2944989"><ele>193.8</ele><time>2015-04-25T13:28:51.0000000+00:00</time></trkpt><trkpt lat="35.0778635" lon="32.2912664"><ele>183.6</ele><time>2015-04-25T13:32:11.0000000+00:00</time></trkpt><trkpt lat="35.0785042" lon="32.2902075"><ele>173.5</ele><time>2015-04-25T13:32:29.0000000+00:00</time></trkpt><trkpt lat="35.0786268" lon="32.2894535"><ele>167.5</ele><time>2015-04-25T13:32:41.0000000+00:00</time></trkpt><trkpt lat="35.0795211" lon="32.2891937"><ele>161.0</ele><time>2015-04-25T13:33:06.0000000+00:00</time></trkpt><trkpt lat="35.0801006" lon="32.2880252"><ele>158.7</ele><time>2015-04-25T13:33:34.0000000+00:00</time></trkpt><trkpt lat="35.0804333" lon="32.2878845"><ele>159.1</ele><time>2015-04-25T13:33:53.0000000+00:00</time></trkpt><trkpt lat="35.080822" lon="32.2874009"><ele>164.1</ele><time>2015-04-25T13:35:06.0000000+00:00</time></trkpt><trkpt lat="35.0813358" lon="32.2871958"><ele>165.1</ele><time>2015-04-25T13:36:13.0000000+00:00</time></trkpt><trkpt lat="35.0838742" lon="32.2871735"><ele>173.9</ele><time>2015-04-25T13:38:45.0000000+00:00</time></trkpt><trkpt lat="35.084638" lon="32.2867031"><ele>177.1</ele><time>2015-04-25T13:39:34.0000000+00:00</time></trkpt><trkpt lat="35.0849533" lon="32.2861854"><ele>182.5</ele><time>2015-04-25T13:40:10.0000000+00:00</time></trkpt><trkpt lat="35.0855746" lon="32.2857073"><ele>183.6</ele><time>2015-04-25T13:40:51.0000000+00:00</time></trkpt><trkpt lat="35.0856433" lon="32.2854535"><ele>186.4</ele><time>2015-04-25T13:41:03.0000000+00:00</time></trkpt><trkpt lat="35.0866829" lon="32.2847949"><ele>179.6</ele><time>2015-04-25T13:41:30.0000000+00:00</time></trkpt><trkpt lat="35.0876913" lon="32.2849171"><ele>186.4</ele><time>2015-04-25T13:42:00.0000000+00:00</time></trkpt><trkpt lat="35.0883772" lon="32.2844698"><ele>186.9</ele><time>2015-04-25T13:42:37.0000000+00:00</time></trkpt><trkpt lat="35.0890756" lon="32.2842828"><ele>194.8</ele><time>2015-04-25T13:44:21.0000000+00:00</time></trkpt><trkpt lat="35.089661" lon="32.2833935"><ele>192.1</ele><time>2015-04-25T13:44:53.0000000+00:00</time></trkpt><trkpt lat="35.0902177" lon="32.2830857"><ele>199.8</ele><time>2015-04-25T13:45:30.0000000+00:00</time></trkpt><trkpt lat="35.0907499" lon="32.2830504"><ele>198.5</ele><time>2015-04-25T13:46:02.0000000+00:00</time></trkpt><trkpt lat="35.0911698" lon="32.2822608"><ele>203.8</ele><time>2015-04-25T13:48:06.0000000+00:00</time></trkpt><trkpt lat="35.091014" lon="32.2820002"><ele>201.1</ele><time>2015-04-25T13:48:52.0000000+00:00</time></trkpt><trkpt lat="35.0911202" lon="32.282109"><ele>204.3</ele><time>2015-04-25T13:51:44.0000000+00:00</time></trkpt><trkpt lat="35.0909192" lon="32.2829212"><ele>197.6</ele><time>2015-04-25T14:15:12.0000000+00:00</time></trkpt><trkpt lat="35.0897362" lon="32.2833488"><ele>194.0</ele><time>2015-04-25T14:18:29.0000000+00:00</time></trkpt><trkpt lat="35.088968" lon="32.2843652"><ele>195.7</ele><time>2015-04-25T14:19:53.0000000+00:00</time></trkpt><trkpt lat="35.0876723" lon="32.2849159"><ele>186.2</ele><time>2015-04-25T14:20:30.0000000+00:00</time></trkpt><trkpt lat="35.0866516" lon="32.28487"><ele>182.0</ele><time>2015-04-25T14:20:51.0000000+00:00</time></trkpt><trkpt lat="35.0856142" lon="32.2854874"><ele>186.2</ele><time>2015-04-25T14:21:44.0000000+00:00</time></trkpt><trkpt lat="35.0845592" lon="32.2867471"><ele>176.9</ele><time>2015-04-25T14:22:29.0000000+00:00</time></trkpt><trkpt lat="35.0838261" lon="32.2871724"><ele>173.9</ele><time>2015-04-25T14:22:46.0000000+00:00</time></trkpt><trkpt lat="35.0811868" lon="32.2872196"><ele>165.1</ele><time>2015-04-25T14:23:36.0000000+00:00</time></trkpt><trkpt lat="35.0801175" lon="32.2879649"><ele>158.9</ele><time>2015-04-25T14:24:11.0000000+00:00</time></trkpt><trkpt lat="35.0799977" lon="32.2882101"><ele>158.2</ele><time>2015-04-25T14:24:16.0000000+00:00</time></trkpt><trkpt lat="35.0800056" lon="32.2884164"><ele>158.3</ele><time>2015-04-25T14:24:23.0000000+00:00</time></trkpt><trkpt lat="35.0819778" lon="32.2914566"><ele>136.8</ele><time>2015-04-25T14:26:50.0000000+00:00</time></trkpt><trkpt lat="35.0810401" lon="32.292418"><ele>123.7</ele><time>2015-04-25T14:27:20.0000000+00:00</time></trkpt><trkpt lat="35.0808205" lon="32.2924726"><ele>127.4</ele><time>2015-04-25T14:27:26.0000000+00:00</time></trkpt><trkpt lat="35.0804595" lon="32.2932264"><ele>112.6</ele><time>2015-04-25T14:27:49.0000000+00:00</time></trkpt><trkpt lat="35.0812746" lon="32.2936854"><ele>95.3</ele><time>2015-04-25T14:28:05.0000000+00:00</time></trkpt><trkpt lat="35.0822598" lon="32.2945644"><ele>74.7</ele><time>2015-04-25T14:28:31.0000000+00:00</time></trkpt><trkpt lat="35.0834053" lon="32.2951693"><ele>65.1</ele><time>2015-04-25T14:28:47.0000000+00:00</time></trkpt><trkpt lat="35.0846916" lon="32.2973063"><ele>46.5</ele><time>2015-04-25T14:29:18.0000000+00:00</time></trkpt><trkpt lat="35.0853781" lon="32.2980979"><ele>43.5</ele><time>2015-04-25T14:29:43.0000000+00:00</time></trkpt><trkpt lat="35.086043" lon="32.2985099"><ele>41.7</ele><time>2015-04-25T14:30:36.0000000+00:00</time></trkpt><trkpt lat="35.0865951" lon="32.2990985"><ele>35.6</ele><time>2015-04-25T14:30:51.0000000+00:00</time></trkpt><trkpt lat="35.0865719" lon="32.2992847"><ele>32.5</ele><time>2015-04-25T14:31:58.0000000+00:00</time></trkpt><trkpt lat="35.0857546" lon="32.2994084"><ele>28.2</ele><time>2015-04-25T14:32:24.0000000+00:00</time></trkpt><trkpt lat="35.0857227" lon="32.3000064"><ele>33.8</ele><time>2015-04-25T14:32:37.0000000+00:00</time></trkpt><trkpt lat="35.0859401" lon="32.3002972"><ele>31.3</ele><time>2015-04-25T14:32:55.0000000+00:00</time></trkpt><trkpt lat="35.0873242" lon="32.3004282"><ele>19.9</ele><time>2015-04-25T14:34:11.0000000+00:00</time></trkpt><trkpt lat="35.0900459" lon="32.3002302"><ele>8.3</ele><time>2015-04-25T14:34:54.0000000+00:00</time></trkpt><trkpt lat="35.0906702" lon="32.3008257"><ele>7.1</ele><time>2015-04-25T14:35:22.0000000+00:00</time></trkpt><trkpt lat="35.091461" lon="32.3011224"><ele>6.1</ele><time>2015-04-25T14:35:59.0000000+00:00</time></trkpt><trkpt lat="35.0923289" lon="32.3001564"><ele>8.3</ele><time>2015-04-25T14:40:35.0000000+00:00</time></trkpt><trkpt lat="35.0923954" lon="32.2996918"><ele>10.1</ele><time>2015-04-25T14:40:49.0000000+00:00</time></trkpt><trkpt lat="35.0922716" lon="32.2993609"><ele>11.6</ele><time>2015-04-25T14:41:04.0000000+00:00</time></trkpt><trkpt lat="35.092651" lon="32.2982297"><ele>9.7</ele><time>2015-04-25T14:41:57.0000000+00:00</time></trkpt><trkpt lat="35.0926982" lon="32.2974715"><ele>13.6</ele><time>2015-04-25T14:42:32.0000000+00:00</time></trkpt><trkpt lat="35.0932483" lon="32.2971302"><ele>12.3</ele><time>2015-04-25T14:43:05.0000000+00:00</time></trkpt><trkpt lat="35.0936023" lon="32.2963303"><ele>14.8</ele><time>2015-04-25T14:43:38.0000000+00:00</time></trkpt><trkpt lat="35.0938244" lon="32.2963618"><ele>14.0</ele><time>2015-04-25T14:43:48.0000000+00:00</time></trkpt><trkpt lat="35.094042" lon="32.2957257"><ele>17.3</ele><time>2015-04-25T14:44:20.0000000+00:00</time></trkpt><trkpt lat="35.0949679" lon="32.2949612"><ele>16.8</ele><time>2015-04-25T14:45:04.0000000+00:00</time></trkpt><trkpt lat="35.0954727" lon="32.2947767"><ele>17.0</ele><time>2015-04-25T14:45:24.0000000+00:00</time></trkpt><trkpt lat="35.0957354" lon="32.2926503"><ele>20.8</ele><time>2015-04-25T14:46:46.0000000+00:00</time></trkpt><trkpt lat="35.0960677" lon="32.2924312"><ele>20.4</ele><time>2015-04-25T14:47:05.0000000+00:00</time></trkpt><trkpt lat="35.0960291" lon="32.2921032"><ele>21.3</ele><time>2015-04-25T14:47:17.0000000+00:00</time></trkpt><trkpt lat="35.0961871" lon="32.2918759"><ele>21.2</ele><time>2015-04-25T14:47:28.0000000+00:00</time></trkpt><trkpt lat="35.096717" lon="32.29143"><ele>22.0</ele><time>2015-04-25T14:47:57.0000000+00:00</time></trkpt><trkpt lat="35.0969807" lon="32.2904764"><ele>24.8</ele><time>2015-04-25T14:48:32.0000000+00:00</time></trkpt><trkpt lat="35.0975903" lon="32.2902731"><ele>23.4</ele><time>2015-04-25T14:48:59.0000000+00:00</time></trkpt><trkpt lat="35.0978238" lon="32.289746"><ele>25.7</ele><time>2015-04-25T14:49:21.0000000+00:00</time></trkpt><trkpt lat="35.0981975" lon="32.2894563"><ele>24.5</ele><time>2015-04-25T14:49:42.0000000+00:00</time></trkpt><trkpt lat="35.0983179" lon="32.2886361"><ele>26.6</ele><time>2015-04-25T14:50:20.0000000+00:00</time></trkpt><trkpt lat="35.0987599" lon="32.288003"><ele>25.0</ele><time>2015-04-25T14:50:37.0000000+00:00</time></trkpt><trkpt lat="35.0995596" lon="32.2875581"><ele>24.6</ele><time>2015-04-25T14:51:05.0000000+00:00</time></trkpt><trkpt lat="35.100144" lon="32.2875426"><ele>20.7</ele><time>2015-04-25T14:51:19.0000000+00:00</time></trkpt><trkpt lat="35.1005398" lon="32.2873018"><ele>20.3</ele><time>2015-04-25T14:51:30.0000000+00:00</time></trkpt><trkpt lat="35.1006733" lon="32.2867843"><ele>22.3</ele><time>2015-04-25T14:51:48.0000000+00:00</time></trkpt><trkpt lat="35.1011157" lon="32.2865802"><ele>21.5</ele><time>2015-04-25T14:52:21.0000000+00:00</time></trkpt><trkpt lat="35.1015601" lon="32.2856955"><ele>18.9</ele><time>2015-04-25T14:52:58.0000000+00:00</time></trkpt><trkpt lat="35.102056" lon="32.2854077"><ele>13.1</ele><time>2015-04-25T14:54:05.0000000+00:00</time></trkpt><trkpt lat="35.1021488" lon="32.2846294"><ele>12.2</ele><time>2015-04-25T14:54:23.0000000+00:00</time></trkpt><trkpt lat="35.1030413" lon="32.2836437"><ele>4.3</ele><time>2015-04-25T14:55:06.0000000+00:00</time></trkpt><trkpt lat="35.1036397" lon="32.2834632"><ele>3.2</ele><time>2015-04-25T14:55:46.0000000+00:00</time></trkpt><trkpt lat="35.1037218" lon="32.2838296"><ele>3.5</ele><time>2015-04-25T14:56:03.0000000+00:00</time></trkpt><trkpt lat="35.1043725" lon="32.2840412"><ele>3.2</ele><time>2015-04-25T14:56:23.0000000+00:00</time></trkpt><trkpt lat="35.1048275" lon="32.2848349"><ele>2.9</ele><time>2015-04-25T14:57:10.0000000+00:00</time></trkpt><trkpt lat="35.1050681" lon="32.2849914"><ele>2.6</ele><time>2015-04-25T14:57:26.0000000+00:00</time></trkpt><trkpt lat="35.104744" lon="32.2864076"><ele>1.2</ele><time>2015-04-25T14:58:37.0000000+00:00</time></trkpt><trkpt lat="35.1049668" lon="32.2872222"><ele>1.6</ele><time>2015-04-25T15:07:42.0000000+00:00</time></trkpt><trkpt lat="35.1047653" lon="32.2875552"><ele>0.2</ele><time>2015-04-25T15:08:51.0000000+00:00</time></trkpt><trkpt lat="35.1048791" lon="32.2875196"><ele>0.5</ele><time>2015-04-25T15:13:58.0000000+00:00</time></trkpt><trkpt lat="35.1044367" lon="32.287244"><ele>0.8</ele><time>2015-04-25T15:24:06.0000000+00:00</time></trkpt><trkpt lat="35.1032233" lon="32.2875264"><ele>2.5</ele><time>2015-04-25T15:25:18.0000000+00:00</time></trkpt><trkpt lat="35.1031135" lon="32.287714"><ele>1.5</ele><time>2015-04-25T15:25:50.0000000+00:00</time></trkpt><trkpt lat="35.102595" lon="32.2876218"><ele>3.7</ele><time>2015-04-25T15:26:22.0000000+00:00</time></trkpt><trkpt lat="35.1023949" lon="32.2882792"><ele>7.2</ele><time>2015-04-25T15:27:14.0000000+00:00</time></trkpt><trkpt lat="35.1024493" lon="32.288687"><ele>5.3</ele><time>2015-04-25T15:27:48.0000000+00:00</time></trkpt><trkpt lat="35.1021305" lon="32.2888878"><ele>3.6</ele><time>2015-04-25T15:28:09.0000000+00:00</time></trkpt><trkpt lat="35.1013558" lon="32.2887345"><ele>6.7</ele><time>2015-04-25T15:28:38.0000000+00:00</time></trkpt><trkpt lat="35.1007614" lon="32.2884127"><ele>11.5</ele><time>2015-04-25T15:29:16.0000000+00:00</time></trkpt><trkpt lat="35.1006818" lon="32.2889938"><ele>10.5</ele><time>2015-04-25T15:29:32.0000000+00:00</time></trkpt><trkpt lat="35.1008563" lon="32.2899146"><ele>7.0</ele><time>2015-04-25T15:29:59.0000000+00:00</time></trkpt><trkpt lat="35.1004746" lon="32.2922464"><ele>7.8</ele><time>2015-04-25T15:31:16.0000000+00:00</time></trkpt><trkpt lat="35.0999426" lon="32.2926616"><ele>9.1</ele><time>2015-04-25T15:31:57.0000000+00:00</time></trkpt><trkpt lat="35.0993602" lon="32.2928623"><ele>7.5</ele><time>2015-04-25T15:32:29.0000000+00:00</time></trkpt><trkpt lat="35.0990433" lon="32.2935933"><ele>2.4</ele><time>2015-04-25T15:32:52.0000000+00:00</time></trkpt><trkpt lat="35.0986556" lon="32.2936016"><ele>5.0</ele><time>2015-04-25T15:33:29.0000000+00:00</time></trkpt><trkpt lat="35.0984655" lon="32.2938928"><ele>4.3</ele><time>2015-04-25T15:33:39.0000000+00:00</time></trkpt><trkpt lat="35.0979074" lon="32.2939284"><ele>2.9</ele><time>2015-04-25T15:34:03.0000000+00:00</time></trkpt><trkpt lat="35.0973038" lon="32.2942535"><ele>5.5</ele><time>2015-04-25T15:34:35.0000000+00:00</time></trkpt><trkpt lat="35.0972133" lon="32.2947436"><ele>3.2</ele><time>2015-04-25T15:35:11.0000000+00:00</time></trkpt><trkpt lat="35.0963279" lon="32.2960305"><ele>2.3</ele><time>2015-04-25T15:37:33.0000000+00:00</time></trkpt><trkpt lat="35.0956619" lon="32.296544"><ele>1.5</ele><time>2015-04-25T15:38:03.0000000+00:00</time></trkpt><trkpt lat="35.0952291" lon="32.2966402"><ele>2.7</ele><time>2015-04-25T15:38:18.0000000+00:00</time></trkpt><trkpt lat="35.0939388" lon="32.2976562"><ele>3.4</ele><time>2015-04-25T15:39:32.0000000+00:00</time></trkpt><trkpt lat="35.0934199" lon="32.2984092"><ele>4.8</ele><time>2015-04-25T15:40:05.0000000+00:00</time></trkpt><trkpt lat="35.0928156" lon="32.298455"><ele>7.9</ele><time>2015-04-25T15:40:40.0000000+00:00</time></trkpt><trkpt lat="35.0923348" lon="32.2989115"><ele>11.3</ele><time>2015-04-25T15:41:17.0000000+00:00</time></trkpt><trkpt lat="35.0922887" lon="32.3001452"><ele>8.6</ele><time>2015-04-25T15:42:03.0000000+00:00</time></trkpt><trkpt lat="35.0914124" lon="32.3010965"><ele>6.2</ele><time>2015-04-25T15:42:54.0000000+00:00</time></trkpt><trkpt lat="35.0907784" lon="32.3024802"><ele>3.9</ele><time>2015-04-25T15:43:48.0000000+00:00</time></trkpt><trkpt lat="35.0905366" lon="32.302434"><ele>3.1</ele><time>2015-04-25T15:44:01.0000000+00:00</time></trkpt><trkpt lat="35.0902854" lon="32.3011375"><ele>4.0</ele><time>2015-04-25T15:44:52.0000000+00:00</time></trkpt><trkpt lat="35.0896889" lon="32.300634"><ele>4.3</ele><time>2015-04-25T15:45:19.0000000+00:00</time></trkpt><trkpt lat="35.0888419" lon="32.3005506"><ele>8.1</ele><time>2015-04-25T15:47:20.0000000+00:00</time></trkpt><trkpt lat="35.0881662" lon="32.301159"><ele>7.9</ele><time>2015-04-25T15:48:02.0000000+00:00</time></trkpt><trkpt lat="35.0881716" lon="32.3012731"><ele>6.6</ele><time>2015-04-25T15:48:07.0000000+00:00</time></trkpt><trkpt lat="35.0883503" lon="32.3011748"><ele>4.9</ele><time>2015-04-25T15:49:17.0000000+00:00</time></trkpt><trkpt lat="35.0879678" lon="32.3014514"><ele>8.1</ele><time>2015-04-25T15:50:16.0000000+00:00</time></trkpt><trkpt lat="35.087386" lon="32.302492"><ele>8.3</ele><time>2015-04-25T15:50:46.0000000+00:00</time></trkpt><trkpt lat="35.0867624" lon="32.3029202"><ele>8.5</ele><time>2015-04-25T15:51:08.0000000+00:00</time></trkpt><trkpt lat="35.0863683" lon="32.30342"><ele>9.7</ele><time>2015-04-25T15:51:26.0000000+00:00</time></trkpt><trkpt lat="35.0858172" lon="32.3037345"><ele>9.6</ele><time>2015-04-25T15:51:42.0000000+00:00</time></trkpt><trkpt lat="35.0839503" lon="32.3040281"><ele>10.6</ele><time>2015-04-25T15:52:31.0000000+00:00</time></trkpt><trkpt lat="35.083476" lon="32.3043786"><ele>10.0</ele><time>2015-04-25T15:52:45.0000000+00:00</time></trkpt><trkpt lat="35.0826737" lon="32.3053116"><ele>11.6</ele><time>2015-04-25T15:53:14.0000000+00:00</time></trkpt><trkpt lat="35.0817091" lon="32.3070492"><ele>11.0</ele><time>2015-04-25T15:54:00.0000000+00:00</time></trkpt><trkpt lat="35.0811396" lon="32.3076681"><ele>13.7</ele><time>2015-04-25T15:54:27.0000000+00:00</time></trkpt><trkpt lat="35.0809252" lon="32.3082745"><ele>14.1</ele><time>2015-04-25T15:54:45.0000000+00:00</time></trkpt><trkpt lat="35.0800049" lon="32.3087425"><ele>14.1</ele><time>2015-04-25T15:55:13.0000000+00:00</time></trkpt><trkpt lat="35.07941" lon="32.3099666"><ele>14.5</ele><time>2015-04-25T15:55:44.0000000+00:00</time></trkpt><trkpt lat="35.0786339" lon="32.3107183"><ele>13.3</ele><time>2015-04-25T15:56:08.0000000+00:00</time></trkpt><trkpt lat="35.0771482" lon="32.3132261"><ele>12.0</ele><time>2015-04-25T15:57:12.0000000+00:00</time></trkpt><trkpt lat="35.0747149" lon="32.3158273"><ele>10.1</ele><time>2015-04-25T15:58:33.0000000+00:00</time></trkpt><trkpt lat="35.074463" lon="32.316662"><ele>9.7</ele><time>2015-04-25T15:58:52.0000000+00:00</time></trkpt><trkpt lat="35.0744897" lon="32.3173632"><ele>8.1</ele><time>2015-04-25T15:59:08.0000000+00:00</time></trkpt><trkpt lat="35.0742508" lon="32.3183553"><ele>13.4</ele><time>2015-04-25T15:59:35.0000000+00:00</time></trkpt><trkpt lat="35.073801" lon="32.3193032"><ele>7.0</ele><time>2015-04-25T16:00:16.0000000+00:00</time></trkpt><trkpt lat="35.0733826" lon="32.3196215"><ele>6.1</ele><time>2015-04-25T16:00:25.0000000+00:00</time></trkpt><trkpt lat="35.0730513" lon="32.3201581"><ele>10.5</ele><time>2015-04-25T16:00:38.0000000+00:00</time></trkpt><trkpt lat="35.073025" lon="32.3206552"><ele>10.9</ele><time>2015-04-25T16:00:48.0000000+00:00</time></trkpt><trkpt lat="35.0731513" lon="32.3207801"><ele>10.1</ele><time>2015-04-25T16:00:57.0000000+00:00</time></trkpt><trkpt lat="35.0730134" lon="32.3207019"><ele>11.0</ele><time>2015-04-25T16:05:46.0000000+00:00</time></trkpt><trkpt lat="35.0726799" lon="32.320954"><ele>12.8</ele><time>2015-04-25T16:06:09.0000000+00:00</time></trkpt><trkpt lat="35.0718737" lon="32.3211628"><ele>17.4</ele><time>2015-04-25T16:06:46.0000000+00:00</time></trkpt><trkpt lat="35.0714917" lon="32.321074"><ele>18.4</ele><time>2015-04-25T16:07:09.0000000+00:00</time></trkpt><trkpt lat="35.0710934" lon="32.3206233"><ele>24.8</ele><time>2015-04-25T16:07:46.0000000+00:00</time></trkpt><trkpt lat="35.070313" lon="32.3214637"><ele>28.2</ele><time>2015-04-25T16:08:31.0000000+00:00</time></trkpt><trkpt lat="35.0703439" lon="32.3241992"><ele>25.3</ele><time>2015-04-25T16:09:30.0000000+00:00</time></trkpt><trkpt lat="35.0702277" lon="32.3249459"><ele>25.2</ele><time>2015-04-25T16:12:12.0000000+00:00</time></trkpt><trkpt lat="35.0699963" lon="32.3256372"><ele>24.0</ele><time>2015-04-25T16:12:30.0000000+00:00</time></trkpt><trkpt lat="35.069707" lon="32.3259742"><ele>32.9</ele><time>2015-04-25T16:16:02.0000000+00:00</time></trkpt><trkpt lat="35.0694658" lon="32.3280005"><ele>40.2</ele><time>2015-04-25T16:17:28.0000000+00:00</time></trkpt><trkpt lat="35.0688536" lon="32.329478"><ele>54.1</ele><time>2015-04-25T16:19:03.0000000+00:00</time></trkpt><trkpt lat="35.0679809" lon="32.3304332"><ele>60.8</ele><time>2015-04-25T16:25:44.0000000+00:00</time></trkpt><trkpt lat="35.0679438" lon="32.3307869"><ele>53.4</ele><time>2015-04-25T16:26:00.0000000+00:00</time></trkpt><trkpt lat="35.0672872" lon="32.3316573"><ele>44.9</ele><time>2015-04-25T16:26:36.0000000+00:00</time></trkpt><trkpt lat="35.0669022" lon="32.3318036"><ele>48.3</ele><time>2015-04-25T16:26:48.0000000+00:00</time></trkpt><trkpt lat="35.0660518" lon="32.33254"><ele>45.4</ele><time>2015-04-25T16:27:18.0000000+00:00</time></trkpt><trkpt lat="35.0654682" lon="32.3336018"><ele>38.6</ele><time>2015-04-25T16:27:35.0000000+00:00</time></trkpt><trkpt lat="35.064281" lon="32.3346684"><ele>41.0</ele><time>2015-04-25T16:30:28.0000000+00:00</time></trkpt><trkpt lat="35.0640272" lon="32.3352477"><ele>37.8</ele><time>2015-04-25T16:30:54.0000000+00:00</time></trkpt><trkpt lat="35.0633018" lon="32.3361854"><ele>36.6</ele><time>2015-04-25T16:31:24.0000000+00:00</time></trkpt><trkpt lat="35.062244" lon="32.3369128"><ele>52.6</ele><time>2015-04-25T16:34:23.0000000+00:00</time></trkpt><trkpt lat="35.0618023" lon="32.3380678"><ele>77.7</ele><time>2015-04-25T16:37:01.0000000+00:00</time></trkpt><trkpt lat="35.0618045" lon="32.3395029"><ele>69.5</ele><time>2015-04-25T16:38:55.0000000+00:00</time></trkpt><trkpt lat="35.0616749" lon="32.3398079"><ele>62.6</ele><time>2015-04-25T16:39:03.0000000+00:00</time></trkpt><trkpt lat="35.0602606" lon="32.340663"><ele>62.8</ele><time>2015-04-25T16:39:59.0000000+00:00</time></trkpt><trkpt lat="35.0594885" lon="32.3415848"><ele>66.2</ele><time>2015-04-25T16:40:24.0000000+00:00</time></trkpt><trkpt lat="35.0593356" lon="32.3420324"><ele>52.8</ele><time>2015-04-25T16:40:50.0000000+00:00</time></trkpt><trkpt lat="35.0588151" lon="32.3421372"><ele>55.6</ele><time>2015-04-25T16:41:02.0000000+00:00</time></trkpt><trkpt lat="35.0581242" lon="32.3428937"><ele>53.2</ele><time>2015-04-25T16:41:23.0000000+00:00</time></trkpt><trkpt lat="35.0571289" lon="32.3446179"><ele>43.5</ele><time>2015-04-25T16:48:50.0000000+00:00</time></trkpt><trkpt lat="35.056875" lon="32.3456896"><ele>31.1</ele><time>2015-04-25T16:49:12.0000000+00:00</time></trkpt><trkpt lat="35.0563159" lon="32.3454745"><ele>35.3</ele><time>2015-04-25T16:49:27.0000000+00:00</time></trkpt><trkpt lat="35.0561858" lon="32.3457"><ele>33.1</ele><time>2015-04-25T16:49:36.0000000+00:00</time></trkpt><trkpt lat="35.0562586" lon="32.3468232"><ele>26.8</ele><time>2015-04-25T16:53:52.0000000+00:00</time></trkpt><trkpt lat="35.0561472" lon="32.3472437"><ele>23.9</ele><time>2015-04-25T16:53:58.0000000+00:00</time></trkpt><trkpt lat="35.0559134" lon="32.3472279"><ele>22.4</ele><time>2015-04-25T16:54:03.0000000+00:00</time></trkpt><trkpt lat="35.0554707" lon="32.3467778"><ele>25.5</ele><time>2015-04-25T16:54:15.0000000+00:00</time></trkpt><trkpt lat="35.0551242" lon="32.3473885"><ele>25.3</ele><time>2015-04-25T16:54:35.0000000+00:00</time></trkpt><trkpt lat="35.0539508" lon="32.3478171"><ele>30.1</ele><time>2015-04-25T16:55:30.0000000+00:00</time></trkpt><trkpt lat="35.0504972" lon="32.3530291"><ele>24.7</ele><time>2015-04-25T16:57:46.0000000+00:00</time></trkpt><trkpt lat="35.0469999" lon="32.3557032"><ele>19.0</ele><time>2015-04-25T16:59:23.0000000+00:00</time></trkpt><trkpt lat="35.047036" lon="32.356603"><ele>20.0</ele><time>2015-04-25T16:59:42.0000000+00:00</time></trkpt><trkpt lat="35.046877" lon="32.357198"><ele>19.3</ele><time>2015-04-25T16:59:58.0000000+00:00</time></trkpt><trkpt lat="35.0455868" lon="32.3583009"><ele>14.6</ele><time>2015-04-25T17:00:31.0000000+00:00</time></trkpt><trkpt lat="35.0441377" lon="32.3618604"><ele>23.4</ele><time>2015-04-25T17:02:12.0000000+00:00</time></trkpt><trkpt lat="35.0434683" lon="32.3627866"><ele>18.6</ele><time>2015-04-25T17:02:32.0000000+00:00</time></trkpt><trkpt lat="35.0436673" lon="32.364355"><ele>22.6</ele><time>2015-04-25T17:02:57.0000000+00:00</time></trkpt><trkpt lat="35.0427291" lon="32.3675311"><ele>24.0</ele><time>2015-04-25T17:04:22.0000000+00:00</time></trkpt><trkpt lat="35.0426842" lon="32.3721981"><ele>30.7</ele><time>2015-04-25T17:05:48.0000000+00:00</time></trkpt><trkpt lat="35.0424209" lon="32.3729089"><ele>25.1</ele><time>2015-04-25T17:06:01.0000000+00:00</time></trkpt><trkpt lat="35.0419532" lon="32.3734741"><ele>23.9</ele><time>2015-04-25T17:06:14.0000000+00:00</time></trkpt><trkpt lat="35.0412207" lon="32.3739952"><ele>25.2</ele><time>2015-04-25T17:06:32.0000000+00:00</time></trkpt><trkpt lat="35.0399271" lon="32.3737679"><ele>25.0</ele><time>2015-04-25T17:07:01.0000000+00:00</time></trkpt><trkpt lat="35.0381282" lon="32.3740211"><ele>31.6</ele><time>2015-04-25T17:07:29.0000000+00:00</time></trkpt><trkpt lat="35.0375519" lon="32.3743583"><ele>32.8</ele><time>2015-04-25T17:07:52.0000000+00:00</time></trkpt><trkpt lat="35.0373994" lon="32.3752285"><ele>30.3</ele><time>2015-04-25T17:08:16.0000000+00:00</time></trkpt><trkpt lat="35.0385454" lon="32.3777086"><ele>24.1</ele><time>2015-04-25T17:09:00.0000000+00:00</time></trkpt><trkpt lat="35.0392509" lon="32.3811418"><ele>11.0</ele><time>2015-04-25T17:09:38.0000000+00:00</time></trkpt><trkpt lat="35.0408007" lon="32.3832662"><ele>3.6</ele><time>2015-04-25T17:10:05.0000000+00:00</time></trkpt><trkpt lat="35.0411013" lon="32.3878655"><ele>3.0</ele><time>2015-04-25T17:11:09.0000000+00:00</time></trkpt><trkpt lat="35.0410032" lon="32.3918801"><ele>5.9</ele><time>2015-04-25T17:12:34.0000000+00:00</time></trkpt><trkpt lat="35.041149" lon="32.3926889"><ele>3.9</ele><time>2015-04-25T17:12:54.0000000+00:00</time></trkpt><trkpt lat="35.0405616" lon="32.3949568"><ele>4.7</ele><time>2015-04-25T17:14:23.0000000+00:00</time></trkpt><trkpt lat="35.040501" lon="32.3950504"><ele>4.6</ele><time>2015-04-25T17:14:31.0000000+00:00</time></trkpt><trkpt lat="35.040421" lon="32.3948737"><ele>4.6</ele><time>2015-04-25T17:35:03.0000000+00:00</time></trkpt><trkpt lat="35.0393946" lon="32.397369"><ele>6.4</ele><time>2015-04-25T17:42:08.0000000+00:00</time></trkpt><trkpt lat="35.0390038" lon="32.4029029"><ele>4.1</ele><time>2015-04-25T17:43:27.0000000+00:00</time></trkpt><trkpt lat="35.038394" lon="32.4054586"><ele>8.0</ele><time>2015-04-25T17:44:08.0000000+00:00</time></trkpt><trkpt lat="35.0389304" lon="32.4082223"><ele>8.2</ele><time>2015-04-25T17:44:51.0000000+00:00</time></trkpt><trkpt lat="35.0395853" lon="32.4136066"><ele>12.0</ele><time>2015-04-25T17:46:13.0000000+00:00</time></trkpt><trkpt lat="35.0392728" lon="32.414741"><ele>12.3</ele><time>2015-04-25T17:46:41.0000000+00:00</time></trkpt><trkpt lat="35.03852" lon="32.4154736"><ele>8.3</ele><time>2015-04-25T17:47:00.0000000+00:00</time></trkpt><trkpt lat="35.038214" lon="32.4159956"><ele>8.7</ele><time>2015-04-25T17:47:11.0000000+00:00</time></trkpt><trkpt lat="35.0410723" lon="32.4173612"><ele>6.1</ele><time>2015-04-25T17:48:04.0000000+00:00</time></trkpt><trkpt lat="35.0406518" lon="32.4182899"><ele>7.5</ele><time>2015-04-25T17:48:28.0000000+00:00</time></trkpt><trkpt lat="35.0409285" lon="32.4191791"><ele>7.1</ele><time>2015-04-25T17:48:46.0000000+00:00</time></trkpt><trkpt lat="35.0417216" lon="32.4201338"><ele>11.5</ele><time>2015-04-25T17:49:12.0000000+00:00</time></trkpt><trkpt lat="35.04174" lon="32.4213394"><ele>6.5</ele><time>2015-04-25T17:49:30.0000000+00:00</time></trkpt><trkpt lat="35.0421714" lon="32.4217637"><ele>7.5</ele><time>2015-04-25T17:49:40.0000000+00:00</time></trkpt><trkpt lat="35.0421154" lon="32.4223263"><ele>4.7</ele><time>2015-04-25T17:49:49.0000000+00:00</time></trkpt><trkpt lat="35.0419027" lon="32.422643"><ele>5.5</ele><time>2015-04-25T17:49:55.0000000+00:00</time></trkpt><trkpt lat="35.0413739" lon="32.4229069"><ele>6.9</ele><time>2015-04-25T17:50:05.0000000+00:00</time></trkpt><trkpt lat="35.0392435" lon="32.4247579"><ele>16.9</ele><time>2015-04-25T17:51:18.0000000+00:00</time></trkpt><trkpt lat="35.0392154" lon="32.4249251"><ele>17.0</ele><time>2015-04-25T17:51:29.0000000+00:00</time></trkpt><trkpt lat="35.0398874" lon="32.4258994"><ele>11.3</ele><time>2015-04-25T17:51:47.0000000+00:00</time></trkpt><trkpt lat="35.0407697" lon="32.4277683"><ele>11.2</ele><time>2015-04-25T17:52:16.0000000+00:00</time></trkpt><trkpt lat="35.0449346" lon="32.4330806"><ele>6.9</ele><time>2015-04-25T17:55:57.0000000+00:00</time></trkpt><trkpt lat="35.0460997" lon="32.4356006"><ele>5.8</ele><time>2015-04-25T17:56:52.0000000+00:00</time></trkpt><trkpt lat="35.0465964" lon="32.4374801"><ele>7.5</ele><time>2015-04-25T18:00:18.0000000+00:00</time></trkpt><trkpt lat="35.0471183" lon="32.4385761"><ele>7.6</ele><time>2015-04-25T18:00:50.0000000+00:00</time></trkpt><trkpt lat="35.0481189" lon="32.4398486"><ele>6.9</ele><time>2015-04-25T18:01:21.0000000+00:00</time></trkpt><trkpt lat="35.0490681" lon="32.4405558"><ele>5.4</ele><time>2015-04-25T18:01:44.0000000+00:00</time></trkpt><trkpt lat="35.0496368" lon="32.4413266"><ele>4.6</ele><time>2015-04-25T18:02:00.0000000+00:00</time></trkpt><trkpt lat="35.0500169" lon="32.4427205"><ele>4.7</ele><time>2015-04-25T18:02:28.0000000+00:00</time></trkpt><trkpt lat="35.0486581" lon="32.4435298"><ele>9.7</ele><time>2015-04-25T18:03:07.0000000+00:00</time></trkpt><trkpt lat="35.0486142" lon="32.4437178"><ele>10.5</ele><time>2015-04-25T18:03:15.0000000+00:00</time></trkpt><trkpt lat="35.0507154" lon="32.4470369"><ele>8.0</ele><time>2015-04-25T18:04:38.0000000+00:00</time></trkpt><trkpt lat="35.0543498" lon="32.4542017"><ele>11.3</ele><time>2015-04-25T18:06:44.0000000+00:00</time></trkpt><trkpt lat="35.0548503" lon="32.454566"><ele>12.4</ele><time>2015-04-25T18:06:53.0000000+00:00</time></trkpt><trkpt lat="35.0569566" lon="32.4548744"><ele>6.1</ele><time>2015-04-25T18:07:23.0000000+00:00</time></trkpt><trkpt lat="35.0574109" lon="32.4551467"><ele>5.0</ele><time>2015-04-25T18:07:30.0000000+00:00</time></trkpt><trkpt lat="35.0589109" lon="32.4577402"><ele>4.2</ele><time>2015-04-25T18:08:09.0000000+00:00</time></trkpt><trkpt lat="35.059881" lon="32.4589783"><ele>7.1</ele><time>2015-04-25T18:08:34.0000000+00:00</time></trkpt><trkpt lat="35.060668" lon="32.4608262"><ele>7.3</ele><time>2015-04-25T18:09:24.0000000+00:00</time></trkpt><trkpt lat="35.063299" lon="32.4645533"><ele>5.2</ele><time>2015-04-25T18:11:12.0000000+00:00</time></trkpt><trkpt lat="35.0649172" lon="32.4664598"><ele>5.4</ele><time>2015-04-25T18:12:06.0000000+00:00</time></trkpt><trkpt lat="35.0665016" lon="32.4694558"><ele>7.3</ele><time>2015-04-25T18:13:21.0000000+00:00</time></trkpt><trkpt lat="35.0664146" lon="32.4694181"><ele>7.1</ele><time>2015-04-25T18:13:40.0000000+00:00</time></trkpt><trkpt lat="35.0674454" lon="32.4703553"><ele>8.0</ele><time>2015-04-25T18:26:16.0000000+00:00</time></trkpt><trkpt lat="35.0698231" lon="32.4736444"><ele>4.5</ele><time>2015-04-25T18:27:35.0000000+00:00</time></trkpt><trkpt lat="35.0738073" lon="32.4783983"><ele>4.3</ele><time>2015-04-25T18:29:27.0000000+00:00</time></trkpt><trkpt lat="35.0767145" lon="32.4816979"><ele>5.4</ele><time>2015-04-25T18:30:52.0000000+00:00</time></trkpt><trkpt lat="35.0775688" lon="32.4822331"><ele>3.6</ele><time>2015-04-25T18:31:10.0000000+00:00</time></trkpt><trkpt lat="35.0799234" lon="32.4848298"><ele>4.3</ele><time>2015-04-25T18:32:07.0000000+00:00</time></trkpt><trkpt lat="35.0826956" lon="32.4874078"><ele>3.4</ele><time>2015-04-25T18:33:07.0000000+00:00</time></trkpt><trkpt lat="35.0865249" lon="32.4907104"><ele>2.8</ele><time>2015-04-25T18:34:24.0000000+00:00</time></trkpt><trkpt lat="35.0887144" lon="32.4923244"><ele>4.1</ele><time>2015-04-25T18:35:07.0000000+00:00</time></trkpt><trkpt lat="35.0938844" lon="32.4969235"><ele>4.8</ele><time>2015-04-25T18:36:55.0000000+00:00</time></trkpt><trkpt lat="35.0967655" lon="32.4986475"><ele>5.0</ele><time>2015-04-25T18:37:46.0000000+00:00</time></trkpt><trkpt lat="35.1007281" lon="32.5014836"><ele>3.7</ele><time>2015-04-25T18:38:53.0000000+00:00</time></trkpt><trkpt lat="35.1041832" lon="32.503717"><ele>5.4</ele><time>2015-04-25T18:39:58.0000000+00:00</time></trkpt><trkpt lat="35.1056036" lon="32.5040843"><ele>5.2</ele><time>2015-04-25T18:40:20.0000000+00:00</time></trkpt><trkpt lat="35.1061906" lon="32.5044358"><ele>4.3</ele><time>2015-04-25T18:40:30.0000000+00:00</time></trkpt><trkpt lat="35.1105274" lon="32.5074019"><ele>6.2</ele><time>2015-04-25T18:42:03.0000000+00:00</time></trkpt><trkpt lat="35.1108661" lon="32.5077156"><ele>7.4</ele><time>2015-04-25T18:42:12.0000000+00:00</time></trkpt><trkpt lat="35.1107909" lon="32.5079957"><ele>5.4</ele><time>2015-04-25T18:42:22.0000000+00:00</time></trkpt></trkseg><trkseg><trkpt lat="35.1106433" lon="32.5082114"><ele>5.3</ele><time>2015-04-26T08:57:10.0000000+00:00</time></trkpt><trkpt lat="35.1108524" lon="32.5076794"><ele>7.8</ele><time>2015-04-26T08:58:29.0000000+00:00</time></trkpt><trkpt lat="35.1057454" lon="32.5042049"><ele>4.7</ele><time>2015-04-26T09:03:16.0000000+00:00</time></trkpt><trkpt lat="35.1036553" lon="32.5035862"><ele>5.5</ele><time>2015-04-26T09:04:44.0000000+00:00</time></trkpt><trkpt lat="35.1035282" lon="32.5036735"><ele>5.2</ele><time>2015-04-26T09:04:50.0000000+00:00</time></trkpt><trkpt lat="35.1035787" lon="32.5042182"><ele>7.4</ele><time>2015-04-26T09:05:08.0000000+00:00</time></trkpt><trkpt lat="35.1034255" lon="32.5045383"><ele>9.8</ele><time>2015-04-26T09:05:21.0000000+00:00</time></trkpt><trkpt lat="35.1027752" lon="32.5048694"><ele>14.8</ele><time>2015-04-26T09:05:56.0000000+00:00</time></trkpt><trkpt lat="35.1022316" lon="32.5055022"><ele>18.2</ele><time>2015-04-26T09:06:38.0000000+00:00</time></trkpt><trkpt lat="35.1015713" lon="32.5074128"><ele>28.1</ele><time>2015-04-26T09:07:44.0000000+00:00</time></trkpt><trkpt lat="35.1009515" lon="32.5083255"><ele>35.6</ele><time>2015-04-26T09:08:32.0000000+00:00</time></trkpt><trkpt lat="35.1010648" lon="32.510709"><ele>45.8</ele><time>2015-04-26T09:09:55.0000000+00:00</time></trkpt><trkpt lat="35.1013168" lon="32.5125647"><ele>46.1</ele><time>2015-04-26T09:10:28.0000000+00:00</time></trkpt><trkpt lat="35.101097" lon="32.5133091"><ele>41.4</ele><time>2015-04-26T09:10:39.0000000+00:00</time></trkpt><trkpt lat="35.1006556" lon="32.5138881"><ele>44.3</ele><time>2015-04-26T09:10:57.0000000+00:00</time></trkpt><trkpt lat="35.1003468" lon="32.5148632"><ele>50.8</ele><time>2015-04-26T09:11:31.0000000+00:00</time></trkpt><trkpt lat="35.1005061" lon="32.5166216"><ele>62.4</ele><time>2015-04-26T09:14:20.0000000+00:00</time></trkpt><trkpt lat="35.1002646" lon="32.5171648"><ele>63.2</ele><time>2015-04-26T09:14:43.0000000+00:00</time></trkpt><trkpt lat="35.0998794" lon="32.5175435"><ele>73.8</ele><time>2015-04-26T09:15:05.0000000+00:00</time></trkpt><trkpt lat="35.1004799" lon="32.5166565"><ele>63.1</ele><time>2015-04-26T09:19:49.0000000+00:00</time></trkpt><trkpt lat="35.1003481" lon="32.5150063"><ele>52.5</ele><time>2015-04-26T09:20:18.0000000+00:00</time></trkpt><trkpt lat="35.1004691" lon="32.5147067"><ele>46.7</ele><time>2015-04-26T09:20:29.0000000+00:00</time></trkpt><trkpt lat="35.1006559" lon="32.5149172"><ele>45.1</ele><time>2015-04-26T09:20:39.0000000+00:00</time></trkpt><trkpt lat="35.101189" lon="32.5165782"><ele>59.6</ele><time>2015-04-26T09:22:24.0000000+00:00</time></trkpt><trkpt lat="35.1011666" lon="32.517066"><ele>66.4</ele><time>2015-04-26T09:23:00.0000000+00:00</time></trkpt><trkpt lat="35.1008801" lon="32.5177"><ele>64.5</ele><time>2015-04-26T09:23:55.0000000+00:00</time></trkpt><trkpt lat="35.1007583" lon="32.5186885"><ele>69.9</ele><time>2015-04-26T09:26:33.0000000+00:00</time></trkpt><trkpt lat="35.1008578" lon="32.5190666"><ele>70.1</ele><time>2015-04-26T09:26:44.0000000+00:00</time></trkpt><trkpt lat="35.1015097" lon="32.5197625"><ele>77.6</ele><time>2015-04-26T09:27:36.0000000+00:00</time></trkpt><trkpt lat="35.1020744" lon="32.5199692"><ele>89.2</ele><time>2015-04-26T09:29:41.0000000+00:00</time></trkpt><trkpt lat="35.1025774" lon="32.519816"><ele>103.1</ele><time>2015-04-26T09:30:52.0000000+00:00</time></trkpt><trkpt lat="35.1024768" lon="32.5203906"><ele>102.7</ele><time>2015-04-26T09:32:15.0000000+00:00</time></trkpt><trkpt lat="35.1031751" lon="32.5198143"><ele>121.2</ele><time>2015-04-26T09:34:32.0000000+00:00</time></trkpt><trkpt lat="35.1033465" lon="32.5214348"><ele>143.8</ele><time>2015-04-26T09:37:57.0000000+00:00</time></trkpt><trkpt lat="35.1035717" lon="32.5215034"><ele>145.9</ele><time>2015-04-26T09:39:43.0000000+00:00</time></trkpt><trkpt lat="35.1041799" lon="32.521185"><ele>158.4</ele><time>2015-04-26T09:41:16.0000000+00:00</time></trkpt><trkpt lat="35.1043468" lon="32.521299"><ele>162.8</ele><time>2015-04-26T09:41:29.0000000+00:00</time></trkpt><trkpt lat="35.1045868" lon="32.5228474"><ele>182.7</ele><time>2015-04-26T09:45:16.0000000+00:00</time></trkpt><trkpt lat="35.104931" lon="32.5237256"><ele>202.9</ele><time>2015-04-26T09:47:45.0000000+00:00</time></trkpt><trkpt lat="35.1055792" lon="32.5233359"><ele>191.2</ele><time>2015-04-26T09:51:42.0000000+00:00</time></trkpt><trkpt lat="35.106203" lon="32.5216083"><ele>170.6</ele><time>2015-04-26T09:52:34.0000000+00:00</time></trkpt><trkpt lat="35.1062391" lon="32.521182"><ele>165.2</ele><time>2015-04-26T09:54:04.0000000+00:00</time></trkpt><trkpt lat="35.1059011" lon="32.5206897"><ele>152.9</ele><time>2015-04-26T09:55:43.0000000+00:00</time></trkpt><trkpt lat="35.1057749" lon="32.5201309"><ele>136.7</ele><time>2015-04-26T09:57:40.0000000+00:00</time></trkpt><trkpt lat="35.1056994" lon="32.5189292"><ele>110.9</ele><time>2015-04-26T09:59:23.0000000+00:00</time></trkpt><trkpt lat="35.1066546" lon="32.5161452"><ele>64.3</ele><time>2015-04-26T10:01:49.0000000+00:00</time></trkpt><trkpt lat="35.1064914" lon="32.5159692"><ele>61.4</ele><time>2015-04-26T10:02:31.0000000+00:00</time></trkpt><trkpt lat="35.1060827" lon="32.5160204"><ele>61.2</ele><time>2015-04-26T10:02:43.0000000+00:00</time></trkpt><trkpt lat="35.1061109" lon="32.5153616"><ele>58.5</ele><time>2015-04-26T10:03:09.0000000+00:00</time></trkpt><trkpt lat="35.105995" lon="32.5151189"><ele>58.4</ele><time>2015-04-26T10:03:21.0000000+00:00</time></trkpt><trkpt lat="35.1051334" lon="32.5146689"><ele>59.1</ele><time>2015-04-26T10:03:45.0000000+00:00</time></trkpt><trkpt lat="35.1043894" lon="32.5140054"><ele>55.0</ele><time>2015-04-26T10:04:22.0000000+00:00</time></trkpt><trkpt lat="35.1058112" lon="32.5140279"><ele>46.0</ele><time>2015-04-26T10:04:43.0000000+00:00</time></trkpt><trkpt lat="35.1071589" lon="32.5138265"><ele>41.5</ele><time>2015-04-26T10:05:02.0000000+00:00</time></trkpt><trkpt lat="35.1082384" lon="32.5146021"><ele>37.1</ele><time>2015-04-26T10:05:17.0000000+00:00</time></trkpt><trkpt lat="35.1093736" lon="32.514964"><ele>33.7</ele><time>2015-04-26T10:05:33.0000000+00:00</time></trkpt><trkpt lat="35.1101613" lon="32.5144465"><ele>31.7</ele><time>2015-04-26T10:05:47.0000000+00:00</time></trkpt><trkpt lat="35.1116719" lon="32.5141636"><ele>29.8</ele><time>2015-04-26T10:06:15.0000000+00:00</time></trkpt><trkpt lat="35.1131301" lon="32.514595"><ele>23.1</ele><time>2015-04-26T10:06:34.0000000+00:00</time></trkpt><trkpt lat="35.1141898" lon="32.5139263"><ele>19.7</ele><time>2015-04-26T10:06:52.0000000+00:00</time></trkpt><trkpt lat="35.1147897" lon="32.5137383"><ele>18.8</ele><time>2015-04-26T10:07:10.0000000+00:00</time></trkpt><trkpt lat="35.1147685" lon="32.5145209"><ele>21.6</ele><time>2015-04-26T10:09:55.0000000+00:00</time></trkpt><trkpt lat="35.1146719" lon="32.5145126"><ele>21.9</ele><time>2015-04-26T10:10:04.0000000+00:00</time></trkpt><trkpt lat="35.1150421" lon="32.5150657"><ele>24.4</ele><time>2015-04-26T10:12:17.0000000+00:00</time></trkpt><trkpt lat="35.1149985" lon="32.5157938"><ele>26.9</ele><time>2015-04-26T10:14:14.0000000+00:00</time></trkpt><trkpt lat="35.1153766" lon="32.5172025"><ele>33.1</ele><time>2015-04-26T10:15:11.0000000+00:00</time></trkpt><trkpt lat="35.1155414" lon="32.5194054"><ele>47.1</ele><time>2015-04-26T10:21:26.0000000+00:00</time></trkpt><trkpt lat="35.1151379" lon="32.5229113"><ele>80.4</ele><time>2015-04-26T10:25:31.0000000+00:00</time></trkpt><trkpt lat="35.1147558" lon="32.523601"><ele>85.7</ele><time>2015-04-26T10:26:28.0000000+00:00</time></trkpt><trkpt lat="35.114365" lon="32.5254691"><ele>96.4</ele><time>2015-04-26T10:28:30.0000000+00:00</time></trkpt><trkpt lat="35.1145771" lon="32.5264094"><ele>108.4</ele><time>2015-04-26T10:29:26.0000000+00:00</time></trkpt><trkpt lat="35.1143692" lon="32.5278706"><ele>107.0</ele><time>2015-04-26T10:31:01.0000000+00:00</time></trkpt><trkpt lat="35.1144547" lon="32.5284991"><ele>104.5</ele><time>2015-04-26T10:31:12.0000000+00:00</time></trkpt><trkpt lat="35.1148088" lon="32.5281811"><ele>94.9</ele><time>2015-04-26T10:31:30.0000000+00:00</time></trkpt><trkpt lat="35.1152302" lon="32.5281379"><ele>95.9</ele><time>2015-04-26T10:31:47.0000000+00:00</time></trkpt><trkpt lat="35.1156778" lon="32.5265063"><ele>82.7</ele><time>2015-04-26T10:32:12.0000000+00:00</time></trkpt><trkpt lat="35.116248" lon="32.5257905"><ele>87.7</ele><time>2015-04-26T10:32:35.0000000+00:00</time></trkpt><trkpt lat="35.1163381" lon="32.5252058"><ele>87.4</ele><time>2015-04-26T10:32:46.0000000+00:00</time></trkpt><trkpt lat="35.1168111" lon="32.5246359"><ele>90.0</ele><time>2015-04-26T10:33:09.0000000+00:00</time></trkpt><trkpt lat="35.1171662" lon="32.524481"><ele>88.0</ele><time>2015-04-26T10:33:17.0000000+00:00</time></trkpt><trkpt lat="35.1176612" lon="32.5251948"><ele>80.8</ele><time>2015-04-26T10:33:29.0000000+00:00</time></trkpt><trkpt lat="35.11806" lon="32.5251874"><ele>78.6</ele><time>2015-04-26T10:33:44.0000000+00:00</time></trkpt><trkpt lat="35.1185773" lon="32.5244601"><ele>72.5</ele><time>2015-04-26T10:38:57.0000000+00:00</time></trkpt><trkpt lat="35.1186503" lon="32.5236141"><ele>65.2</ele><time>2015-04-26T10:39:22.0000000+00:00</time></trkpt><trkpt lat="35.1187986" lon="32.523714"><ele>65.4</ele><time>2015-04-26T10:39:35.0000000+00:00</time></trkpt><trkpt lat="35.1189347" lon="32.5235891"><ele>61.6</ele><time>2015-04-26T10:39:49.0000000+00:00</time></trkpt><trkpt lat="35.1194666" lon="32.5224645"><ele>52.0</ele><time>2015-04-26T10:40:27.0000000+00:00</time></trkpt><trkpt lat="35.1199874" lon="32.5222291"><ele>44.0</ele><time>2015-04-26T10:40:44.0000000+00:00</time></trkpt><trkpt lat="35.1211029" lon="32.5222282"><ele>33.9</ele><time>2015-04-26T10:40:58.0000000+00:00</time></trkpt><trkpt lat="35.1215688" lon="32.5219735"><ele>32.3</ele><time>2015-04-26T10:41:05.0000000+00:00</time></trkpt><trkpt lat="35.1216295" lon="32.5215426"><ele>31.1</ele><time>2015-04-26T10:41:17.0000000+00:00</time></trkpt><trkpt lat="35.121547" lon="32.5220325"><ele>32.4</ele><time>2015-04-26T10:42:52.0000000+00:00</time></trkpt><trkpt lat="35.1216662" lon="32.5218392"><ele>32.1</ele><time>2015-04-26T10:43:11.0000000+00:00</time></trkpt><trkpt lat="35.1221107" lon="32.5226013"><ele>46.2</ele><time>2015-04-26T10:45:18.0000000+00:00</time></trkpt><trkpt lat="35.122583" lon="32.5228578"><ele>46.4</ele><time>2015-04-26T10:45:41.0000000+00:00</time></trkpt><trkpt lat="35.1227307" lon="32.5231797"><ele>48.6</ele><time>2015-04-26T10:45:59.0000000+00:00</time></trkpt><trkpt lat="35.122549" lon="32.5228568"><ele>46.8</ele><time>2015-04-26T10:46:35.0000000+00:00</time></trkpt><trkpt lat="35.1221161" lon="32.5226095"><ele>46.3</ele><time>2015-04-26T10:46:53.0000000+00:00</time></trkpt><trkpt lat="35.1220882" lon="32.5223615"><ele>42.5</ele><time>2015-04-26T10:47:02.0000000+00:00</time></trkpt><trkpt lat="35.1216638" lon="32.5218768"><ele>32.2</ele><time>2015-04-26T10:47:23.0000000+00:00</time></trkpt><trkpt lat="35.1203346" lon="32.5224832"><ele>37.5</ele><time>2015-04-26T10:48:12.0000000+00:00</time></trkpt><trkpt lat="35.1201577" lon="32.5231708"><ele>40.6</ele><time>2015-04-26T10:48:32.0000000+00:00</time></trkpt><trkpt lat="35.1196816" lon="32.5237288"><ele>43.0</ele><time>2015-04-26T10:48:54.0000000+00:00</time></trkpt><trkpt lat="35.1197003" lon="32.5248788"><ele>50.2</ele><time>2015-04-26T10:49:28.0000000+00:00</time></trkpt><trkpt lat="35.1194577" lon="32.5254531"><ele>55.6</ele><time>2015-04-26T10:49:49.0000000+00:00</time></trkpt><trkpt lat="35.1196987" lon="32.526026"><ele>52.5</ele><time>2015-04-26T10:50:27.0000000+00:00</time></trkpt><trkpt lat="35.1199677" lon="32.5254489"><ele>52.3</ele><time>2015-04-26T10:50:57.0000000+00:00</time></trkpt><trkpt lat="35.1205318" lon="32.5250366"><ele>60.4</ele><time>2015-04-26T10:51:37.0000000+00:00</time></trkpt><trkpt lat="35.1205691" lon="32.5247354"><ele>61.0</ele><time>2015-04-26T10:51:57.0000000+00:00</time></trkpt><trkpt lat="35.120982" lon="32.5249858"><ele>70.9</ele><time>2015-04-26T10:52:30.0000000+00:00</time></trkpt><trkpt lat="35.1219594" lon="32.5251756"><ele>68.6</ele><time>2015-04-26T10:52:53.0000000+00:00</time></trkpt><trkpt lat="35.1222093" lon="32.5251142"><ele>67.1</ele><time>2015-04-26T10:52:57.0000000+00:00</time></trkpt><trkpt lat="35.1225046" lon="32.524688"><ele>72.3</ele><time>2015-04-26T10:53:21.0000000+00:00</time></trkpt><trkpt lat="35.1229872" lon="32.524745"><ele>78.6</ele><time>2015-04-26T10:53:45.0000000+00:00</time></trkpt><trkpt lat="35.1249028" lon="32.5260285"><ele>87.2</ele><time>2015-04-26T10:54:53.0000000+00:00</time></trkpt><trkpt lat="35.125144" lon="32.5263518"><ele>87.3</ele><time>2015-04-26T10:55:14.0000000+00:00</time></trkpt><trkpt lat="35.1252049" lon="32.5268788"><ele>89.7</ele><time>2015-04-26T10:55:28.0000000+00:00</time></trkpt><trkpt lat="35.1255447" lon="32.5267751"><ele>88.4</ele><time>2015-04-26T10:55:40.0000000+00:00</time></trkpt><trkpt lat="35.1260047" lon="32.5274051"><ele>82.1</ele><time>2015-04-26T10:56:00.0000000+00:00</time></trkpt><trkpt lat="35.1262586" lon="32.5273771"><ele>80.5</ele><time>2015-04-26T10:56:05.0000000+00:00</time></trkpt><trkpt lat="35.1263045" lon="32.5269439"><ele>78.1</ele><time>2015-04-26T10:56:20.0000000+00:00</time></trkpt><trkpt lat="35.1264689" lon="32.5267688"><ele>83.0</ele><time>2015-04-26T10:56:32.0000000+00:00</time></trkpt><trkpt lat="35.1268282" lon="32.52689"><ele>88.5</ele><time>2015-04-26T10:56:54.0000000+00:00</time></trkpt><trkpt lat="35.1273861" lon="32.5275134"><ele>80.2</ele><time>2015-04-26T10:57:30.0000000+00:00</time></trkpt><trkpt lat="35.1279016" lon="32.5275668"><ele>79.7</ele><time>2015-04-26T10:57:37.0000000+00:00</time></trkpt><trkpt lat="35.1280308" lon="32.527285"><ele>79.3</ele><time>2015-04-26T10:57:46.0000000+00:00</time></trkpt><trkpt lat="35.1283018" lon="32.5271928"><ele>82.1</ele><time>2015-04-26T10:58:00.0000000+00:00</time></trkpt><trkpt lat="35.1280745" lon="32.5273788"><ele>80.3</ele><time>2015-04-26T10:58:19.0000000+00:00</time></trkpt><trkpt lat="35.1284657" lon="32.5281369"><ele>90.6</ele><time>2015-04-26T10:59:29.0000000+00:00</time></trkpt><trkpt lat="35.1289735" lon="32.5282154"><ele>98.8</ele><time>2015-04-26T11:00:28.0000000+00:00</time></trkpt><trkpt lat="35.1294264" lon="32.5285125"><ele>99.2</ele><time>2015-04-26T11:00:48.0000000+00:00</time></trkpt><trkpt lat="35.1299328" lon="32.5290215"><ele>98.2</ele><time>2015-04-26T11:01:14.0000000+00:00</time></trkpt><trkpt lat="35.1298836" lon="32.5293474"><ele>102.6</ele><time>2015-04-26T11:01:34.0000000+00:00</time></trkpt><trkpt lat="35.1306327" lon="32.5297171"><ele>108.7</ele><time>2015-04-26T11:03:02.0000000+00:00</time></trkpt><trkpt lat="35.1309296" lon="32.5301903"><ele>105.9</ele><time>2015-04-26T11:03:18.0000000+00:00</time></trkpt><trkpt lat="35.1314272" lon="32.530228"><ele>103.6</ele><time>2015-04-26T11:04:07.0000000+00:00</time></trkpt><trkpt lat="35.1315275" lon="32.529795"><ele>98.8</ele><time>2015-04-26T11:04:21.0000000+00:00</time></trkpt><trkpt lat="35.131889" lon="32.5296145"><ele>105.2</ele><time>2015-04-26T11:04:42.0000000+00:00</time></trkpt><trkpt lat="35.1323855" lon="32.529689"><ele>110.0</ele><time>2015-04-26T11:05:01.0000000+00:00</time></trkpt><trkpt lat="35.1325394" lon="32.5284761"><ele>104.6</ele><time>2015-04-26T11:05:46.0000000+00:00</time></trkpt><trkpt lat="35.1327624" lon="32.5282126"><ele>104.9</ele><time>2015-04-26T11:05:54.0000000+00:00</time></trkpt><trkpt lat="35.1342462" lon="32.5277643"><ele>100.3</ele><time>2015-04-26T11:06:42.0000000+00:00</time></trkpt><trkpt lat="35.1346505" lon="32.528189"><ele>105.7</ele><time>2015-04-26T11:07:02.0000000+00:00</time></trkpt><trkpt lat="35.1348655" lon="32.5289944"><ele>106.3</ele><time>2015-04-26T11:07:22.0000000+00:00</time></trkpt><trkpt lat="35.1357313" lon="32.5281713"><ele>99.2</ele><time>2015-04-26T11:36:12.0000000+00:00</time></trkpt><trkpt lat="35.1361409" lon="32.5283038"><ele>104.5</ele><time>2015-04-26T11:36:40.0000000+00:00</time></trkpt><trkpt lat="35.1366008" lon="32.5279486"><ele>96.1</ele><time>2015-04-26T11:37:02.0000000+00:00</time></trkpt><trkpt lat="35.1371097" lon="32.5287171"><ele>91.5</ele><time>2015-04-26T11:37:23.0000000+00:00</time></trkpt><trkpt lat="35.1374916" lon="32.5282747"><ele>86.7</ele><time>2015-04-26T11:37:35.0000000+00:00</time></trkpt><trkpt lat="35.1378773" lon="32.5281444"><ele>86.5</ele><time>2015-04-26T11:37:46.0000000+00:00</time></trkpt><trkpt lat="35.1387173" lon="32.5291874"><ele>88.9</ele><time>2015-04-26T11:38:20.0000000+00:00</time></trkpt><trkpt lat="35.1391618" lon="32.5286804"><ele>84.0</ele><time>2015-04-26T11:38:42.0000000+00:00</time></trkpt><trkpt lat="35.1395088" lon="32.5288254"><ele>87.4</ele><time>2015-04-26T11:38:54.0000000+00:00</time></trkpt><trkpt lat="35.1399943" lon="32.5296564"><ele>94.4</ele><time>2015-04-26T11:39:35.0000000+00:00</time></trkpt><trkpt lat="35.1403991" lon="32.5295981"><ele>86.5</ele><time>2015-04-26T11:39:55.0000000+00:00</time></trkpt><trkpt lat="35.1407747" lon="32.5304792"><ele>93.4</ele><time>2015-04-26T11:40:37.0000000+00:00</time></trkpt><trkpt lat="35.1410738" lon="32.529973"><ele>84.4</ele><time>2015-04-26T11:40:55.0000000+00:00</time></trkpt><trkpt lat="35.1414984" lon="32.5297131"><ele>85.7</ele><time>2015-04-26T11:41:09.0000000+00:00</time></trkpt><trkpt lat="35.1416994" lon="32.5298659"><ele>84.8</ele><time>2015-04-26T11:41:19.0000000+00:00</time></trkpt><trkpt lat="35.1417056" lon="32.5306451"><ele>93.9</ele><time>2015-04-26T11:41:43.0000000+00:00</time></trkpt><trkpt lat="35.14215" lon="32.5302886"><ele>87.0</ele><time>2015-04-26T11:41:59.0000000+00:00</time></trkpt><trkpt lat="35.1425803" lon="32.5302656"><ele>88.8</ele><time>2015-04-26T11:42:16.0000000+00:00</time></trkpt><trkpt lat="35.1429353" lon="32.5304634"><ele>90.8</ele><time>2015-04-26T11:42:32.0000000+00:00</time></trkpt><trkpt lat="35.1430875" lon="32.5310494"><ele>96.6</ele><time>2015-04-26T11:42:57.0000000+00:00</time></trkpt><trkpt lat="35.1437033" lon="32.5305732"><ele>88.6</ele><time>2015-04-26T11:45:03.0000000+00:00</time></trkpt><trkpt lat="35.1441355" lon="32.530491"><ele>87.2</ele><time>2015-04-26T11:45:23.0000000+00:00</time></trkpt><trkpt lat="35.1442622" lon="32.5306702"><ele>85.8</ele><time>2015-04-26T11:45:38.0000000+00:00</time></trkpt><trkpt lat="35.1440754" lon="32.5317544"><ele>97.7</ele><time>2015-04-26T11:47:33.0000000+00:00</time></trkpt><trkpt lat="35.1442161" lon="32.5325579"><ele>97.1</ele><time>2015-04-26T11:47:56.0000000+00:00</time></trkpt><trkpt lat="35.1440539" lon="32.5326396"><ele>108.3</ele><time>2015-04-26T11:53:14.0000000+00:00</time></trkpt><trkpt lat="35.1438341" lon="32.5334954"><ele>102.2</ele><time>2015-04-26T11:54:48.0000000+00:00</time></trkpt><trkpt lat="35.1429871" lon="32.534399"><ele>104.0</ele><time>2015-04-26T11:55:13.0000000+00:00</time></trkpt><trkpt lat="35.142932" lon="32.5348508"><ele>101.1</ele><time>2015-04-26T11:55:22.0000000+00:00</time></trkpt><trkpt lat="35.143131" lon="32.5349923"><ele>88.9</ele><time>2015-04-26T11:55:27.0000000+00:00</time></trkpt><trkpt lat="35.1436775" lon="32.5347686"><ele>92.6</ele><time>2015-04-26T11:55:54.0000000+00:00</time></trkpt><trkpt lat="35.1451918" lon="32.5337475"><ele>90.1</ele><time>2015-04-26T11:57:06.0000000+00:00</time></trkpt><trkpt lat="35.1459647" lon="32.5346978"><ele>98.9</ele><time>2015-04-26T11:57:53.0000000+00:00</time></trkpt><trkpt lat="35.1460503" lon="32.5355291"><ele>102.8</ele><time>2015-04-26T11:58:20.0000000+00:00</time></trkpt><trkpt lat="35.1466692" lon="32.5354298"><ele>91.1</ele><time>2015-04-26T11:58:47.0000000+00:00</time></trkpt><trkpt lat="35.1467435" lon="32.5361349"><ele>96.1</ele><time>2015-04-26T11:59:09.0000000+00:00</time></trkpt><trkpt lat="35.1466173" lon="32.5365643"><ele>101.9</ele><time>2015-04-26T11:59:24.0000000+00:00</time></trkpt><trkpt lat="35.1475042" lon="32.5365152"><ele>92.7</ele><time>2015-04-26T11:59:50.0000000+00:00</time></trkpt><trkpt lat="35.1477589" lon="32.538228"><ele>105.6</ele><time>2015-04-26T12:00:39.0000000+00:00</time></trkpt><trkpt lat="35.1482822" lon="32.5393311"><ele>101.8</ele><time>2015-04-26T12:01:07.0000000+00:00</time></trkpt><trkpt lat="35.148299" lon="32.5398529"><ele>105.5</ele><time>2015-04-26T12:01:19.0000000+00:00</time></trkpt><trkpt lat="35.1488778" lon="32.5404288"><ele>100.3</ele><time>2015-04-26T12:01:37.0000000+00:00</time></trkpt><trkpt lat="35.1488869" lon="32.541219"><ele>104.3</ele><time>2015-04-26T12:01:54.0000000+00:00</time></trkpt><trkpt lat="35.1493966" lon="32.5414042"><ele>94.3</ele><time>2015-04-26T12:02:07.0000000+00:00</time></trkpt><trkpt lat="35.1494694" lon="32.5419228"><ele>100.4</ele><time>2015-04-26T12:02:18.0000000+00:00</time></trkpt><trkpt lat="35.1499844" lon="32.5419712"><ele>89.7</ele><time>2015-04-26T12:02:34.0000000+00:00</time></trkpt><trkpt lat="35.149407" lon="32.5426466"><ele>102.3</ele><time>2015-04-26T12:03:02.0000000+00:00</time></trkpt><trkpt lat="35.1494474" lon="32.5430066"><ele>103.2</ele><time>2015-04-26T12:03:11.0000000+00:00</time></trkpt><trkpt lat="35.1496269" lon="32.5430855"><ele>99.0</ele><time>2015-04-26T12:03:17.0000000+00:00</time></trkpt><trkpt lat="35.1503369" lon="32.5427868"><ele>93.2</ele><time>2015-04-26T12:03:41.0000000+00:00</time></trkpt><trkpt lat="35.1506447" lon="32.5432498"><ele>94.2</ele><time>2015-04-26T12:03:59.0000000+00:00</time></trkpt><trkpt lat="35.1505204" lon="32.5437998"><ele>101.5</ele><time>2015-04-26T12:04:13.0000000+00:00</time></trkpt><trkpt lat="35.1509488" lon="32.5442365"><ele>97.0</ele><time>2015-04-26T12:04:36.0000000+00:00</time></trkpt><trkpt lat="35.1510172" lon="32.544614"><ele>103.8</ele><time>2015-04-26T12:04:46.0000000+00:00</time></trkpt><trkpt lat="35.1517847" lon="32.545085"><ele>99.5</ele><time>2015-04-26T12:05:10.0000000+00:00</time></trkpt><trkpt lat="35.1525175" lon="32.5449869"><ele>91.8</ele><time>2015-04-26T12:07:42.0000000+00:00</time></trkpt><trkpt lat="35.1525242" lon="32.545261"><ele>89.6</ele><time>2015-04-26T12:07:54.0000000+00:00</time></trkpt><trkpt lat="35.1518774" lon="32.5459642"><ele>98.9</ele><time>2015-04-26T12:08:21.0000000+00:00</time></trkpt><trkpt lat="35.1529252" lon="32.5460444"><ele>96.0</ele><time>2015-04-26T12:08:52.0000000+00:00</time></trkpt><trkpt lat="35.1532205" lon="32.5471678"><ele>103.5</ele><time>2015-04-26T12:09:19.0000000+00:00</time></trkpt><trkpt lat="35.1534734" lon="32.5474074"><ele>98.1</ele><time>2015-04-26T12:09:27.0000000+00:00</time></trkpt><trkpt lat="35.1535802" lon="32.5478425"><ele>102.0</ele><time>2015-04-26T12:09:36.0000000+00:00</time></trkpt><trkpt lat="35.1537725" lon="32.5479986"><ele>100.2</ele><time>2015-04-26T12:09:42.0000000+00:00</time></trkpt><trkpt lat="35.1540405" lon="32.5479062"><ele>96.2</ele><time>2015-04-26T12:09:50.0000000+00:00</time></trkpt><trkpt lat="35.1542716" lon="32.5481791"><ele>98.6</ele><time>2015-04-26T12:09:58.0000000+00:00</time></trkpt><trkpt lat="35.1544825" lon="32.5492721"><ele>97.8</ele><time>2015-04-26T12:10:22.0000000+00:00</time></trkpt><trkpt lat="35.1553064" lon="32.5483113"><ele>94.3</ele><time>2015-04-26T12:10:58.0000000+00:00</time></trkpt><trkpt lat="35.1564725" lon="32.5485774"><ele>82.8</ele><time>2015-04-26T12:11:24.0000000+00:00</time></trkpt><trkpt lat="35.1595614" lon="32.5480346"><ele>43.4</ele><time>2015-04-26T12:12:17.0000000+00:00</time></trkpt><trkpt lat="35.1592203" lon="32.5485687"><ele>40.2</ele><time>2015-04-26T12:14:24.0000000+00:00</time></trkpt><trkpt lat="35.1599831" lon="32.5504841"><ele>30.5</ele><time>2015-04-26T12:15:06.0000000+00:00</time></trkpt><trkpt lat="35.1603127" lon="32.5519997"><ele>27.0</ele><time>2015-04-26T12:16:11.0000000+00:00</time></trkpt><trkpt lat="35.1605314" lon="32.5522006"><ele>22.4</ele><time>2015-04-26T12:16:22.0000000+00:00</time></trkpt><trkpt lat="35.162274" lon="32.550783"><ele>16.5</ele><time>2015-04-26T12:17:08.0000000+00:00</time></trkpt><trkpt lat="35.1633031" lon="32.5491136"><ele>16.1</ele><time>2015-04-26T12:17:55.0000000+00:00</time></trkpt><trkpt lat="35.1633114" lon="32.548284"><ele>13.3</ele><time>2015-04-26T12:18:16.0000000+00:00</time></trkpt><trkpt lat="35.164588" lon="32.548156"><ele>21.9</ele><time>2015-04-26T12:19:17.0000000+00:00</time></trkpt><trkpt lat="35.1674158" lon="32.5482346"><ele>19.6</ele><time>2015-04-26T12:20:34.0000000+00:00</time></trkpt><trkpt lat="35.168116" lon="32.5486699"><ele>18.9</ele><time>2015-04-26T12:21:07.0000000+00:00</time></trkpt><trkpt lat="35.1694856" lon="32.549021"><ele>19.7</ele><time>2015-04-26T12:21:47.0000000+00:00</time></trkpt><trkpt lat="35.1705936" lon="32.5495417"><ele>19.0</ele><time>2015-04-26T12:22:11.0000000+00:00</time></trkpt><trkpt lat="35.1715607" lon="32.5504614"><ele>19.0</ele><time>2015-04-26T12:22:33.0000000+00:00</time></trkpt><trkpt lat="35.1719656" lon="32.5511907"><ele>18.0</ele><time>2015-04-26T12:22:45.0000000+00:00</time></trkpt><trkpt lat="35.1723259" lon="32.5527051"><ele>17.2</ele><time>2015-04-26T12:23:06.0000000+00:00</time></trkpt><trkpt lat="35.1723453" lon="32.5542207"><ele>18.9</ele><time>2015-04-26T12:23:32.0000000+00:00</time></trkpt><trkpt lat="35.1721683" lon="32.5551767"><ele>16.7</ele><time>2015-04-26T12:23:52.0000000+00:00</time></trkpt><trkpt lat="35.1714713" lon="32.5565445"><ele>18.5</ele><time>2015-04-26T12:24:26.0000000+00:00</time></trkpt><trkpt lat="35.1704134" lon="32.5579568"><ele>22.3</ele><time>2015-04-26T12:24:54.0000000+00:00</time></trkpt><trkpt lat="35.1684082" lon="32.5632343"><ele>33.1</ele><time>2015-04-26T12:26:35.0000000+00:00</time></trkpt><trkpt lat="35.1681925" lon="32.5644672"><ele>38.0</ele><time>2015-04-26T12:26:59.0000000+00:00</time></trkpt><trkpt lat="35.1683249" lon="32.5656792"><ele>37.3</ele><time>2015-04-26T12:27:17.0000000+00:00</time></trkpt><trkpt lat="35.1688112" lon="32.5669392"><ele>31.4</ele><time>2015-04-26T12:27:34.0000000+00:00</time></trkpt><trkpt lat="35.1694118" lon="32.5692203"><ele>26.9</ele><time>2015-04-26T12:28:02.0000000+00:00</time></trkpt><trkpt lat="35.1692975" lon="32.571206"><ele>31.4</ele><time>2015-04-26T12:28:45.0000000+00:00</time></trkpt><trkpt lat="35.1696773" lon="32.5733666"><ele>31.8</ele><time>2015-04-26T12:29:21.0000000+00:00</time></trkpt><trkpt lat="35.1698949" lon="32.5762423"><ele>32.8</ele><time>2015-04-26T12:30:01.0000000+00:00</time></trkpt><trkpt lat="35.1702024" lon="32.5771109"><ele>31.1</ele><time>2015-04-26T12:30:12.0000000+00:00</time></trkpt><trkpt lat="35.1710662" lon="32.5779738"><ele>27.6</ele><time>2015-04-26T12:30:31.0000000+00:00</time></trkpt><trkpt lat="35.1712221" lon="32.5786924"><ele>29.4</ele><time>2015-04-26T12:30:46.0000000+00:00</time></trkpt><trkpt lat="35.1711504" lon="32.5805914"><ele>35.5</ele><time>2015-04-26T12:34:11.0000000+00:00</time></trkpt><trkpt lat="35.1714152" lon="32.5820217"><ele>36.6</ele><time>2015-04-26T12:34:56.0000000+00:00</time></trkpt><trkpt lat="35.1711223" lon="32.5833532"><ele>43.0</ele><time>2015-04-26T12:35:28.0000000+00:00</time></trkpt><trkpt lat="35.171135" lon="32.5840037"><ele>42.1</ele><time>2015-04-26T12:35:46.0000000+00:00</time></trkpt><trkpt lat="35.1708318" lon="32.5848599"><ele>44.4</ele><time>2015-04-26T12:36:21.0000000+00:00</time></trkpt><trkpt lat="35.1709903" lon="32.5856313"><ele>51.4</ele><time>2015-04-26T12:37:08.0000000+00:00</time></trkpt><trkpt lat="35.1708622" lon="32.5864805"><ele>45.0</ele><time>2015-04-26T12:37:47.0000000+00:00</time></trkpt><trkpt lat="35.1706235" lon="32.5865517"><ele>45.0</ele><time>2015-04-26T12:40:49.0000000+00:00</time></trkpt><trkpt lat="35.1691952" lon="32.5858746"><ele>60.4</ele><time>2015-04-26T12:42:20.0000000+00:00</time></trkpt><trkpt lat="35.1687263" lon="32.5860137"><ele>60.5</ele><time>2015-04-26T12:42:47.0000000+00:00</time></trkpt><trkpt lat="35.1677155" lon="32.585851"><ele>77.1</ele><time>2015-04-26T12:43:42.0000000+00:00</time></trkpt><trkpt lat="35.1673279" lon="32.5854743"><ele>80.0</ele><time>2015-04-26T12:44:18.0000000+00:00</time></trkpt><trkpt lat="35.1671418" lon="32.5849907"><ele>87.6</ele><time>2015-04-26T12:44:54.0000000+00:00</time></trkpt><trkpt lat="35.1672646" lon="32.5849407"><ele>86.2</ele><time>2015-04-26T12:45:06.0000000+00:00</time></trkpt><trkpt lat="35.1677723" lon="32.585443"><ele>82.1</ele><time>2015-04-26T12:45:44.0000000+00:00</time></trkpt><trkpt lat="35.1681591" lon="32.5850948"><ele>92.4</ele><time>2015-04-26T12:46:08.0000000+00:00</time></trkpt><trkpt lat="35.1687276" lon="32.5850018"><ele>93.4</ele><time>2015-04-26T12:46:37.0000000+00:00</time></trkpt><trkpt lat="35.1688373" lon="32.5844889"><ele>104.7</ele><time>2015-04-26T12:46:59.0000000+00:00</time></trkpt><trkpt lat="35.170123" lon="32.5839393"><ele>81.5</ele><time>2015-04-26T12:49:55.0000000+00:00</time></trkpt><trkpt lat="35.17025" lon="32.5836922"><ele>83.7</ele><time>2015-04-26T12:50:04.0000000+00:00</time></trkpt><trkpt lat="35.1701499" lon="32.5830305"><ele>86.3</ele><time>2015-04-26T12:50:20.0000000+00:00</time></trkpt><trkpt lat="35.1702822" lon="32.5825528"><ele>78.2</ele><time>2015-04-26T12:50:32.0000000+00:00</time></trkpt><trkpt lat="35.1700384" lon="32.581972"><ele>75.5</ele><time>2015-04-26T12:51:07.0000000+00:00</time></trkpt><trkpt lat="35.1692784" lon="32.581556"><ele>88.9</ele><time>2015-04-26T12:52:31.0000000+00:00</time></trkpt><trkpt lat="35.1687669" lon="32.581491"><ele>99.1</ele><time>2015-04-26T12:54:54.0000000+00:00</time></trkpt><trkpt lat="35.1687699" lon="32.5813268"><ele>98.6</ele><time>2015-04-26T12:55:24.0000000+00:00</time></trkpt><trkpt lat="35.1697111" lon="32.5806664"><ele>96.3</ele><time>2015-04-26T12:56:43.0000000+00:00</time></trkpt><trkpt lat="35.1697694" lon="32.5799918"><ele>109.1</ele><time>2015-04-26T12:57:08.0000000+00:00</time></trkpt><trkpt lat="35.1695828" lon="32.5796649"><ele>112.9</ele><time>2015-04-26T12:58:36.0000000+00:00</time></trkpt><trkpt lat="35.168868" lon="32.5791471"><ele>118.4</ele><time>2015-04-26T12:59:11.0000000+00:00</time></trkpt><trkpt lat="35.1683465" lon="32.5783821"><ele>132.5</ele><time>2015-04-26T13:00:45.0000000+00:00</time></trkpt><trkpt lat="35.168233" lon="32.5778727"><ele>130.7</ele><time>2015-04-26T13:01:33.0000000+00:00</time></trkpt><trkpt lat="35.1676727" lon="32.5775478"><ele>149.3</ele><time>2015-04-26T13:02:40.0000000+00:00</time></trkpt><trkpt lat="35.1682063" lon="32.576871"><ele>146.9</ele><time>2015-04-26T13:04:45.0000000+00:00</time></trkpt><trkpt lat="35.1677587" lon="32.5755877"><ele>149.9</ele><time>2015-04-26T13:14:47.0000000+00:00</time></trkpt><trkpt lat="35.1679853" lon="32.5744624"><ele>136.6</ele><time>2015-04-26T13:15:14.0000000+00:00</time></trkpt><trkpt lat="35.1679145" lon="32.5737914"><ele>138.1</ele><time>2015-04-26T13:15:25.0000000+00:00</time></trkpt><trkpt lat="35.1676667" lon="32.5731993"><ele>136.1</ele><time>2015-04-26T13:15:35.0000000+00:00</time></trkpt><trkpt lat="35.1665884" lon="32.5671545"><ele>91.7</ele><time>2015-04-26T13:17:38.0000000+00:00</time></trkpt><trkpt lat="35.1661605" lon="32.5663388"><ele>97.0</ele><time>2015-04-26T13:18:03.0000000+00:00</time></trkpt><trkpt lat="35.1660666" lon="32.5651497"><ele>91.3</ele><time>2015-04-26T13:18:37.0000000+00:00</time></trkpt><trkpt lat="35.1654779" lon="32.5647456"><ele>95.2</ele><time>2015-04-26T13:19:06.0000000+00:00</time></trkpt><trkpt lat="35.1652811" lon="32.5641935"><ele>94.5</ele><time>2015-04-26T13:19:24.0000000+00:00</time></trkpt><trkpt lat="35.1658719" lon="32.56344"><ele>91.6</ele><time>2015-04-26T13:19:48.0000000+00:00</time></trkpt><trkpt lat="35.1654843" lon="32.5625167"><ele>100.8</ele><time>2015-04-26T13:20:10.0000000+00:00</time></trkpt><trkpt lat="35.1660713" lon="32.5623992"><ele>82.7</ele><time>2015-04-26T13:20:25.0000000+00:00</time></trkpt><trkpt lat="35.1665893" lon="32.5615713"><ele>92.7</ele><time>2015-04-26T13:20:45.0000000+00:00</time></trkpt><trkpt lat="35.1665933" lon="32.5612405"><ele>93.4</ele><time>2015-04-26T13:20:53.0000000+00:00</time></trkpt><trkpt lat="35.1662816" lon="32.5609717"><ele>96.7</ele><time>2015-04-26T13:21:02.0000000+00:00</time></trkpt><trkpt lat="35.1664413" lon="32.5604126"><ele>93.3</ele><time>2015-04-26T13:21:13.0000000+00:00</time></trkpt><trkpt lat="35.16629" lon="32.5598108"><ele>98.6</ele><time>2015-04-26T13:21:27.0000000+00:00</time></trkpt><trkpt lat="35.1700807" lon="32.5553166"><ele>87.4</ele><time>2015-04-26T13:26:38.0000000+00:00</time></trkpt><trkpt lat="35.1703822" lon="32.5547364"><ele>92.7</ele><time>2015-04-26T13:28:05.0000000+00:00</time></trkpt><trkpt lat="35.1704356" lon="32.5541924"><ele>92.5</ele><time>2015-04-26T13:28:23.0000000+00:00</time></trkpt><trkpt lat="35.1702662" lon="32.5540309"><ele>91.2</ele><time>2015-04-26T13:28:33.0000000+00:00</time></trkpt><trkpt lat="35.1696965" lon="32.5541412"><ele>95.6</ele><time>2015-04-26T13:28:53.0000000+00:00</time></trkpt><trkpt lat="35.1691236" lon="32.5535573"><ele>94.8</ele><time>2015-04-26T13:29:30.0000000+00:00</time></trkpt><trkpt lat="35.1682279" lon="32.5533076"><ele>94.2</ele><time>2015-04-26T13:30:05.0000000+00:00</time></trkpt><trkpt lat="35.1674329" lon="32.553685"><ele>88.9</ele><time>2015-04-26T13:30:40.0000000+00:00</time></trkpt><trkpt lat="35.1672635" lon="32.5542414"><ele>97.1</ele><time>2015-04-26T13:30:59.0000000+00:00</time></trkpt><trkpt lat="35.1667932" lon="32.5541766"><ele>93.7</ele><time>2015-04-26T13:31:16.0000000+00:00</time></trkpt><trkpt lat="35.1662435" lon="32.5543897"><ele>90.1</ele><time>2015-04-26T13:31:39.0000000+00:00</time></trkpt><trkpt lat="35.1659072" lon="32.5549135"><ele>96.8</ele><time>2015-04-26T13:31:59.0000000+00:00</time></trkpt><trkpt lat="35.1656473" lon="32.5544975"><ele>91.8</ele><time>2015-04-26T13:32:13.0000000+00:00</time></trkpt><trkpt lat="35.1648593" lon="32.5545972"><ele>93.7</ele><time>2015-04-26T13:32:50.0000000+00:00</time></trkpt><trkpt lat="35.1641195" lon="32.5529297"><ele>64.0</ele><time>2015-04-26T13:40:24.0000000+00:00</time></trkpt><trkpt lat="35.1628656" lon="32.5529656"><ele>51.9</ele><time>2015-04-26T13:40:54.0000000+00:00</time></trkpt><trkpt lat="35.1627888" lon="32.5521928"><ele>50.2</ele><time>2015-04-26T13:41:06.0000000+00:00</time></trkpt><trkpt lat="35.1630921" lon="32.5515946"><ele>48.0</ele><time>2015-04-26T13:41:17.0000000+00:00</time></trkpt><trkpt lat="35.163423" lon="32.5515766"><ele>48.9</ele><time>2015-04-26T13:41:25.0000000+00:00</time></trkpt><trkpt lat="35.1636301" lon="32.5503613"><ele>35.1</ele><time>2015-04-26T13:41:41.0000000+00:00</time></trkpt><trkpt lat="35.1632827" lon="32.5480598"><ele>12.3</ele><time>2015-04-26T13:42:07.0000000+00:00</time></trkpt><trkpt lat="35.1643871" lon="32.5472557"><ele>11.3</ele><time>2015-04-26T13:42:30.0000000+00:00</time></trkpt><trkpt lat="35.1645491" lon="32.5469058"><ele>8.4</ele><time>2015-04-26T13:42:38.0000000+00:00</time></trkpt><trkpt lat="35.1623677" lon="32.5468362"><ele>8.1</ele><time>2015-04-26T13:44:01.0000000+00:00</time></trkpt><trkpt lat="35.161663" lon="32.5465843"><ele>9.7</ele><time>2015-04-26T13:44:31.0000000+00:00</time></trkpt><trkpt lat="35.1612046" lon="32.5460252"><ele>11.3</ele><time>2015-04-26T13:44:58.0000000+00:00</time></trkpt><trkpt lat="35.161231" lon="32.5457292"><ele>12.2</ele><time>2015-04-26T13:45:10.0000000+00:00</time></trkpt><trkpt lat="35.1610312" lon="32.5452746"><ele>14.9</ele><time>2015-04-26T13:45:31.0000000+00:00</time></trkpt><trkpt lat="35.1601655" lon="32.5448406"><ele>17.3</ele><time>2015-04-26T13:46:15.0000000+00:00</time></trkpt><trkpt lat="35.1604134" lon="32.5457825"><ele>19.9</ele><time>2015-04-26T13:47:20.0000000+00:00</time></trkpt><trkpt lat="35.1606954" lon="32.5456648"><ele>16.9</ele><time>2015-04-26T13:47:37.0000000+00:00</time></trkpt><trkpt lat="35.1603779" lon="32.5457247"><ele>19.5</ele><time>2015-04-26T13:48:01.0000000+00:00</time></trkpt><trkpt lat="35.1600671" lon="32.544772"><ele>17.1</ele><time>2015-04-26T13:48:26.0000000+00:00</time></trkpt><trkpt lat="35.1589742" lon="32.5438793"><ele>19.3</ele><time>2015-04-26T13:49:04.0000000+00:00</time></trkpt><trkpt lat="35.1582006" lon="32.5429023"><ele>22.6</ele><time>2015-04-26T13:49:41.0000000+00:00</time></trkpt><trkpt lat="35.1567081" lon="32.5429417"><ele>23.4</ele><time>2015-04-26T13:50:23.0000000+00:00</time></trkpt><trkpt lat="35.155319" lon="32.5418678"><ele>18.4</ele><time>2015-04-26T13:50:46.0000000+00:00</time></trkpt><trkpt lat="35.1535139" lon="32.5409065"><ele>29.2</ele><time>2015-04-26T13:51:33.0000000+00:00</time></trkpt><trkpt lat="35.1525029" lon="32.5407622"><ele>35.9</ele><time>2015-04-26T13:52:21.0000000+00:00</time></trkpt><trkpt lat="35.1516765" lon="32.5391784"><ele>40.6</ele><time>2015-04-26T13:53:20.0000000+00:00</time></trkpt><trkpt lat="35.1493806" lon="32.5376607"><ele>37.4</ele><time>2015-04-26T13:54:05.0000000+00:00</time></trkpt><trkpt lat="35.148894" lon="32.5370594"><ele>39.3</ele><time>2015-04-26T13:54:18.0000000+00:00</time></trkpt><trkpt lat="35.1486829" lon="32.5365145"><ele>40.3</ele><time>2015-04-26T13:54:28.0000000+00:00</time></trkpt><trkpt lat="35.148966" lon="32.5348307"><ele>42.0</ele><time>2015-04-26T13:54:58.0000000+00:00</time></trkpt><trkpt lat="35.1488919" lon="32.5344626"><ele>41.4</ele><time>2015-04-26T13:55:04.0000000+00:00</time></trkpt><trkpt lat="35.1479095" lon="32.5339965"><ele>34.2</ele><time>2015-04-26T13:55:22.0000000+00:00</time></trkpt><trkpt lat="35.1478303" lon="32.533025"><ele>37.6</ele><time>2015-04-26T13:55:33.0000000+00:00</time></trkpt><trkpt lat="35.147592" lon="32.5327328"><ele>38.6</ele><time>2015-04-26T13:55:38.0000000+00:00</time></trkpt><trkpt lat="35.1457869" lon="32.5328169"><ele>40.6</ele><time>2015-04-26T13:56:07.0000000+00:00</time></trkpt><trkpt lat="35.1454929" lon="32.5326541"><ele>39.0</ele><time>2015-04-26T13:56:17.0000000+00:00</time></trkpt><trkpt lat="35.1453824" lon="32.532386"><ele>45.2</ele><time>2015-04-26T13:56:25.0000000+00:00</time></trkpt><trkpt lat="35.1454519" lon="32.5320819"><ele>45.9</ele><time>2015-04-26T13:56:33.0000000+00:00</time></trkpt><trkpt lat="35.1466342" lon="32.5311847"><ele>44.1</ele><time>2015-04-26T13:57:25.0000000+00:00</time></trkpt><trkpt lat="35.1467049" lon="32.5307147"><ele>51.0</ele><time>2015-04-26T13:57:40.0000000+00:00</time></trkpt><trkpt lat="35.1457558" lon="32.5297281"><ele>49.1</ele><time>2015-04-26T13:58:22.0000000+00:00</time></trkpt><trkpt lat="35.1456272" lon="32.5293742"><ele>47.1</ele><time>2015-04-26T13:58:32.0000000+00:00</time></trkpt><trkpt lat="35.1456445" lon="32.529568"><ele>48.3</ele><time>2015-04-26T14:02:51.0000000+00:00</time></trkpt><trkpt lat="35.1436381" lon="32.5284565"><ele>42.5</ele><time>2015-04-26T14:03:29.0000000+00:00</time></trkpt><trkpt lat="35.1430168" lon="32.5268609"><ele>30.1</ele><time>2015-04-26T14:03:44.0000000+00:00</time></trkpt><trkpt lat="35.14243" lon="32.525951"><ele>26.4</ele><time>2015-04-26T14:03:53.0000000+00:00</time></trkpt><trkpt lat="35.141864" lon="32.5242413"><ele>21.2</ele><time>2015-04-26T14:04:10.0000000+00:00</time></trkpt><trkpt lat="35.1411595" lon="32.5234276"><ele>16.7</ele><time>2015-04-26T14:04:21.0000000+00:00</time></trkpt><trkpt lat="35.1376799" lon="32.5220874"><ele>22.1</ele><time>2015-04-26T14:11:18.0000000+00:00</time></trkpt><trkpt lat="35.1352282" lon="32.5206439"><ele>25.5</ele><time>2015-04-26T14:12:28.0000000+00:00</time></trkpt><trkpt lat="35.1332003" lon="32.520054"><ele>14.3</ele><time>2015-04-26T14:12:55.0000000+00:00</time></trkpt><trkpt lat="35.1315824" lon="32.5185677"><ele>8.6</ele><time>2015-04-26T14:13:18.0000000+00:00</time></trkpt><trkpt lat="35.130347" lon="32.5180277"><ele>6.9</ele><time>2015-04-26T14:13:38.0000000+00:00</time></trkpt><trkpt lat="35.1289564" lon="32.5170286"><ele>5.4</ele><time>2015-04-26T14:14:08.0000000+00:00</time></trkpt><trkpt lat="35.1266159" lon="32.5158158"><ele>6.0</ele><time>2015-04-26T14:15:11.0000000+00:00</time></trkpt><trkpt lat="35.126133" lon="32.5157265"><ele>7.1</ele><time>2015-04-26T14:15:23.0000000+00:00</time></trkpt><trkpt lat="35.1242258" lon="32.5163168"><ele>13.2</ele><time>2015-04-26T14:16:16.0000000+00:00</time></trkpt><trkpt lat="35.12383" lon="32.5161818"><ele>12.2</ele><time>2015-04-26T14:16:28.0000000+00:00</time></trkpt><trkpt lat="35.1225818" lon="32.5150458"><ele>8.8</ele><time>2015-04-26T14:17:06.0000000+00:00</time></trkpt><trkpt lat="35.1225839" lon="32.514897"><ele>8.6</ele><time>2015-04-26T14:17:15.0000000+00:00</time></trkpt><trkpt lat="35.1196358" lon="32.5132468"><ele>5.4</ele><time>2015-04-26T14:21:37.0000000+00:00</time></trkpt><trkpt lat="35.1158899" lon="32.5101619"><ele>6.2</ele><time>2015-04-26T14:25:16.0000000+00:00</time></trkpt><trkpt lat="35.1136488" lon="32.5093129"><ele>5.3</ele><time>2015-04-26T14:26:36.0000000+00:00</time></trkpt><trkpt lat="35.1120458" lon="32.5084595"><ele>6.0</ele><time>2015-04-26T14:27:24.0000000+00:00</time></trkpt><trkpt lat="35.1057908" lon="32.5042777"><ele>4.4</ele><time>2015-04-26T14:30:44.0000000+00:00</time></trkpt><trkpt lat="35.1039548" lon="32.5036935"><ele>5.6</ele><time>2015-04-26T14:31:20.0000000+00:00</time></trkpt><trkpt lat="35.0963442" lon="32.4984695"><ele>5.5</ele><time>2015-04-26T14:34:41.0000000+00:00</time></trkpt><trkpt lat="35.0936615" lon="32.496882"><ele>5.1</ele><time>2015-04-26T14:35:44.0000000+00:00</time></trkpt><trkpt lat="35.0886713" lon="32.4924003"><ele>4.2</ele><time>2015-04-26T14:38:10.0000000+00:00</time></trkpt><trkpt lat="35.0864688" lon="32.4907639"><ele>2.8</ele><time>2015-04-26T14:38:56.0000000+00:00</time></trkpt><trkpt lat="35.082638" lon="32.4874493"><ele>3.5</ele><time>2015-04-26T14:40:29.0000000+00:00</time></trkpt><trkpt lat="35.0794084" lon="32.4844418"><ele>5.8</ele><time>2015-04-26T14:42:07.0000000+00:00</time></trkpt><trkpt lat="35.0774985" lon="32.4822061"><ele>3.7</ele><time>2015-04-26T14:43:13.0000000+00:00</time></trkpt><trkpt lat="35.076699" lon="32.4817814"><ele>5.5</ele><time>2015-04-26T14:43:39.0000000+00:00</time></trkpt><trkpt lat="35.0762062" lon="32.4811808"><ele>5.0</ele><time>2015-04-26T14:44:01.0000000+00:00</time></trkpt><trkpt lat="35.075679" lon="32.4811326"><ele>6.2</ele><time>2015-04-26T14:44:15.0000000+00:00</time></trkpt><trkpt lat="35.074314" lon="32.481464"><ele>9.1</ele><time>2015-04-26T14:45:01.0000000+00:00</time></trkpt><trkpt lat="35.0734569" lon="32.4812337"><ele>11.6</ele><time>2015-04-26T14:45:29.0000000+00:00</time></trkpt><trkpt lat="35.0728211" lon="32.4812816"><ele>12.0</ele><time>2015-04-26T14:45:49.0000000+00:00</time></trkpt><trkpt lat="35.0733888" lon="32.4812392"><ele>11.5</ele><time>2015-04-26T14:46:49.0000000+00:00</time></trkpt><trkpt lat="35.0741356" lon="32.4814431"><ele>12.0</ele><time>2015-04-26T14:47:11.0000000+00:00</time></trkpt><trkpt lat="35.0761118" lon="32.4810795"><ele>5.3</ele><time>2015-04-26T14:47:55.0000000+00:00</time></trkpt><trkpt lat="35.0732469" lon="32.47785"><ele>4.7</ele><time>2015-04-26T14:49:11.0000000+00:00</time></trkpt><trkpt lat="35.0700168" lon="32.4739456"><ele>3.8</ele><time>2015-04-26T14:50:56.0000000+00:00</time></trkpt><trkpt lat="35.0674224" lon="32.4704537"><ele>7.9</ele><time>2015-04-26T14:52:20.0000000+00:00</time></trkpt><trkpt lat="35.0664393" lon="32.4694044"><ele>7.1</ele><time>2015-04-26T15:01:29.0000000+00:00</time></trkpt><trkpt lat="35.065557" lon="32.4678169"><ele>6.4</ele><time>2015-04-26T15:02:12.0000000+00:00</time></trkpt><trkpt lat="35.0655228" lon="32.4673546"><ele>5.0</ele><time>2015-04-26T15:02:24.0000000+00:00</time></trkpt><trkpt lat="35.0652746" lon="32.4672951"><ele>5.1</ele><time>2015-04-26T15:12:41.0000000+00:00</time></trkpt><trkpt lat="35.064682" lon="32.4662648"><ele>6.5</ele><time>2015-04-26T15:13:08.0000000+00:00</time></trkpt><trkpt lat="35.0633372" lon="32.4647277"><ele>5.8</ele><time>2015-04-26T15:14:03.0000000+00:00</time></trkpt><trkpt lat="35.0607162" lon="32.4610626"><ele>6.4</ele><time>2015-04-26T15:15:51.0000000+00:00</time></trkpt><trkpt lat="35.0598198" lon="32.459005"><ele>7.1</ele><time>2015-04-26T15:16:30.0000000+00:00</time></trkpt><trkpt lat="35.0586788" lon="32.4575316"><ele>3.5</ele><time>2015-04-26T15:17:00.0000000+00:00</time></trkpt><trkpt lat="35.0574476" lon="32.4553205"><ele>4.2</ele><time>2015-04-26T15:17:36.0000000+00:00</time></trkpt><trkpt lat="35.0569036" lon="32.4549591"><ele>5.6</ele><time>2015-04-26T15:17:47.0000000+00:00</time></trkpt><trkpt lat="35.0549363" lon="32.4547061"><ele>13.9</ele><time>2015-04-26T15:18:25.0000000+00:00</time></trkpt><trkpt lat="35.0542588" lon="32.4542133"><ele>11.2</ele><time>2015-04-26T15:18:45.0000000+00:00</time></trkpt><trkpt lat="35.0528407" lon="32.4516131"><ele>17.8</ele><time>2015-04-26T15:19:36.0000000+00:00</time></trkpt><trkpt lat="35.0505317" lon="32.4468105"><ele>9.1</ele><time>2015-04-26T15:21:03.0000000+00:00</time></trkpt><trkpt lat="35.047445" lon="32.4419966"><ele>9.5</ele><time>2015-04-26T15:22:29.0000000+00:00</time></trkpt><trkpt lat="35.0463438" lon="32.4411134"><ele>13.5</ele><time>2015-04-26T15:22:54.0000000+00:00</time></trkpt><trkpt lat="35.0426907" lon="32.4406926"><ele>24.4</ele><time>2015-04-26T15:24:09.0000000+00:00</time></trkpt><trkpt lat="35.0421425" lon="32.4404653"><ele>25.7</ele><time>2015-04-26T15:24:22.0000000+00:00</time></trkpt><trkpt lat="35.0414265" lon="32.4398656"><ele>28.3</ele><time>2015-04-26T15:24:45.0000000+00:00</time></trkpt><trkpt lat="35.0396918" lon="32.4366873"><ele>28.7</ele><time>2015-04-26T15:25:57.0000000+00:00</time></trkpt><trkpt lat="35.0389431" lon="32.4357289"><ele>25.3</ele><time>2015-04-26T15:26:20.0000000+00:00</time></trkpt><trkpt lat="35.0385368" lon="32.4345095"><ele>25.2</ele><time>2015-04-26T15:26:43.0000000+00:00</time></trkpt><trkpt lat="35.0372094" lon="32.432508"><ele>20.9</ele><time>2015-04-26T15:27:39.0000000+00:00</time></trkpt><trkpt lat="35.0369476" lon="32.4314975"><ele>21.6</ele><time>2015-04-26T15:30:39.0000000+00:00</time></trkpt><trkpt lat="35.0360479" lon="32.4295427"><ele>19.4</ele><time>2015-04-26T15:31:32.0000000+00:00</time></trkpt><trkpt lat="35.0354433" lon="32.4298685"><ele>19.6</ele><time>2015-04-26T15:32:30.0000000+00:00</time></trkpt><trkpt lat="35.0355508" lon="32.430297"><ele>19.5</ele><time>2015-04-26T15:33:35.0000000+00:00</time></trkpt><trkpt lat="35.0357897" lon="32.4306463"><ele>19.9</ele><time>2015-04-26T16:09:16.0000000+00:00</time></trkpt><trkpt lat="35.0356821" lon="32.4298098"><ele>20.0</ele><time>2015-04-26T16:09:45.0000000+00:00</time></trkpt><trkpt lat="35.0360926" lon="32.4295941"><ele>19.0</ele><time>2015-04-26T16:10:05.0000000+00:00</time></trkpt><trkpt lat="35.0356926" lon="32.4284167"><ele>29.4</ele><time>2015-04-26T16:11:04.0000000+00:00</time></trkpt><trkpt lat="35.0358004" lon="32.4276353"><ele>27.8</ele><time>2015-04-26T16:11:28.0000000+00:00</time></trkpt><trkpt lat="35.0357151" lon="32.4267676"><ele>27.1</ele><time>2015-04-26T16:11:54.0000000+00:00</time></trkpt><trkpt lat="35.0367957" lon="32.4259939"><ele>26.2</ele><time>2015-04-26T16:12:30.0000000+00:00</time></trkpt><trkpt lat="35.0363964" lon="32.424705"><ele>26.2</ele><time>2015-04-26T16:13:14.0000000+00:00</time></trkpt><trkpt lat="35.0357675" lon="32.4247322"><ele>28.9</ele><time>2015-04-26T16:13:36.0000000+00:00</time></trkpt><trkpt lat="35.0353119" lon="32.4249448"><ele>31.1</ele><time>2015-04-26T16:14:01.0000000+00:00</time></trkpt><trkpt lat="35.0360181" lon="32.4274216"><ele>27.2</ele><time>2015-04-26T16:15:17.0000000+00:00</time></trkpt><trkpt lat="35.0357689" lon="32.4282614"><ele>28.2</ele><time>2015-04-26T16:17:25.0000000+00:00</time></trkpt><trkpt lat="35.0362986" lon="32.429875"><ele>18.8</ele><time>2015-04-26T16:17:54.0000000+00:00</time></trkpt><trkpt lat="35.0362299" lon="32.4302241"><ele>18.6</ele><time>2015-04-26T16:19:54.0000000+00:00</time></trkpt><trkpt lat="35.0360847" lon="32.4295822"><ele>19.0</ele><time>2015-04-26T16:20:14.0000000+00:00</time></trkpt><trkpt lat="35.0354924" lon="32.4298985"><ele>19.7</ele><time>2015-04-26T16:20:37.0000000+00:00</time></trkpt><trkpt lat="35.0361365" lon="32.4296351"><ele>18.9</ele><time>2015-04-26T16:28:09.0000000+00:00</time></trkpt><trkpt lat="35.0375024" lon="32.4328231"><ele>21.2</ele><time>2015-04-26T16:29:47.0000000+00:00</time></trkpt><trkpt lat="35.0386436" lon="32.4344114"><ele>24.3</ele><time>2015-04-26T16:30:38.0000000+00:00</time></trkpt><trkpt lat="35.0390977" lon="32.4358678"><ele>25.6</ele><time>2015-04-26T16:31:10.0000000+00:00</time></trkpt><trkpt lat="35.0397648" lon="32.4367112"><ele>28.2</ele><time>2015-04-26T16:31:36.0000000+00:00</time></trkpt><trkpt lat="35.0413084" lon="32.4395157"><ele>27.8</ele><time>2015-04-26T16:32:31.0000000+00:00</time></trkpt><trkpt lat="35.0419103" lon="32.4401764"><ele>26.2</ele><time>2015-04-26T16:32:44.0000000+00:00</time></trkpt><trkpt lat="35.0426348" lon="32.4405821"><ele>24.4</ele><time>2015-04-26T16:32:55.0000000+00:00</time></trkpt><trkpt lat="35.0461816" lon="32.4410009"><ele>13.3</ele><time>2015-04-26T16:33:37.0000000+00:00</time></trkpt><trkpt lat="35.047414" lon="32.4418344"><ele>8.9</ele><time>2015-04-26T16:33:53.0000000+00:00</time></trkpt><trkpt lat="35.0507153" lon="32.4470153"><ele>8.1</ele><time>2015-04-26T16:35:07.0000000+00:00</time></trkpt><trkpt lat="35.0543331" lon="32.4541734"><ele>11.3</ele><time>2015-04-26T16:36:55.0000000+00:00</time></trkpt><trkpt lat="35.0548924" lon="32.4545865"><ele>12.2</ele><time>2015-04-26T16:37:04.0000000+00:00</time></trkpt><trkpt lat="35.0569176" lon="32.4548637"><ele>6.2</ele><time>2015-04-26T16:37:28.0000000+00:00</time></trkpt><trkpt lat="35.05747" lon="32.4551765"><ele>5.0</ele><time>2015-04-26T16:37:35.0000000+00:00</time></trkpt><trkpt lat="35.0589101" lon="32.4577253"><ele>4.2</ele><time>2015-04-26T16:38:07.0000000+00:00</time></trkpt><trkpt lat="35.0599152" lon="32.4590049"><ele>7.1</ele><time>2015-04-26T16:38:29.0000000+00:00</time></trkpt><trkpt lat="35.0607181" lon="32.4609001"><ele>7.1</ele><time>2015-04-26T16:38:56.0000000+00:00</time></trkpt><trkpt lat="35.0634053" lon="32.4647173"><ele>6.1</ele><time>2015-04-26T16:39:58.0000000+00:00</time></trkpt><trkpt lat="35.0648731" lon="32.4664139"><ele>5.7</ele><time>2015-04-26T16:40:29.0000000+00:00</time></trkpt><trkpt lat="35.0665785" lon="32.46941"><ele>6.9</ele><time>2015-04-26T16:41:23.0000000+00:00</time></trkpt><trkpt lat="35.0664701" lon="32.4694272"><ele>7.1</ele><time>2015-04-26T16:51:29.0000000+00:00</time></trkpt><trkpt lat="35.0672856" lon="32.4702135"><ele>7.8</ele><time>2015-04-26T16:53:52.0000000+00:00</time></trkpt><trkpt lat="35.0700214" lon="32.4738427"><ele>3.7</ele><time>2015-04-26T16:54:55.0000000+00:00</time></trkpt><trkpt lat="35.0734171" lon="32.4779753"><ele>4.8</ele><time>2015-04-26T16:56:05.0000000+00:00</time></trkpt><trkpt lat="35.0765405" lon="32.4815304"><ele>5.5</ele><time>2015-04-26T16:57:04.0000000+00:00</time></trkpt><trkpt lat="35.0774904" lon="32.4821896"><ele>3.7</ele><time>2015-04-26T16:57:18.0000000+00:00</time></trkpt><trkpt lat="35.079611" lon="32.4845807"><ele>5.2</ele><time>2015-04-26T16:57:58.0000000+00:00</time></trkpt><trkpt lat="35.0821515" lon="32.486945"><ele>3.5</ele><time>2015-04-26T16:58:41.0000000+00:00</time></trkpt><trkpt lat="35.0863852" lon="32.4905926"><ele>2.9</ele><time>2015-04-26T16:59:57.0000000+00:00</time></trkpt><trkpt lat="35.0884169" lon="32.4921108"><ele>4.0</ele><time>2015-04-26T17:00:33.0000000+00:00</time></trkpt><trkpt lat="35.0933448" lon="32.4965164"><ele>4.8</ele><time>2015-04-26T17:02:05.0000000+00:00</time></trkpt><trkpt lat="35.0965044" lon="32.4984837"><ele>5.0</ele><time>2015-04-26T17:02:59.0000000+00:00</time></trkpt><trkpt lat="35.1038425" lon="32.5035486"><ele>5.6</ele><time>2015-04-26T17:05:17.0000000+00:00</time></trkpt><trkpt lat="35.1060206" lon="32.5043287"><ele>4.2</ele><time>2015-04-26T17:05:59.0000000+00:00</time></trkpt><trkpt lat="35.1108171" lon="32.5076065"><ele>7.9</ele><time>2015-04-26T17:07:42.0000000+00:00</time></trkpt><trkpt lat="35.1108983" lon="32.5077162"><ele>7.4</ele><time>2015-04-26T17:07:47.0000000+00:00</time></trkpt><trkpt lat="35.110749" lon="32.5078968"><ele>6.0</ele><time>2015-04-26T17:11:31.0000000+00:00</time></trkpt></trkseg><trkseg><trkpt lat="35.1112206" lon="32.507937"><ele>5.2</ele><time>2015-04-27T06:03:11.0000000+00:00</time></trkpt><trkpt lat="35.1119425" lon="32.5082806"><ele>5.7</ele><time>2015-04-27T06:03:26.0000000+00:00</time></trkpt><trkpt lat="35.1118762" lon="32.5083922"><ele>5.3</ele><time>2015-04-27T06:03:27.0000000+00:00</time></trkpt><trkpt lat="35.112042" lon="32.5085118"><ele>5.8</ele><time>2015-04-27T06:03:30.0000000+00:00</time></trkpt><trkpt lat="35.1159427" lon="32.5101994"><ele>6.4</ele><time>2015-04-27T06:04:53.0000000+00:00</time></trkpt><trkpt lat="35.1129508" lon="32.5089503"><ele>4.9</ele><time>2015-04-27T06:11:04.0000000+00:00</time></trkpt><trkpt lat="35.1106366" lon="32.5075793"><ele>7.0</ele><time>2015-04-27T06:11:49.0000000+00:00</time></trkpt><trkpt lat="35.1057592" lon="32.5042598"><ele>4.5</ele><time>2015-04-27T06:13:29.0000000+00:00</time></trkpt><trkpt lat="35.1042488" lon="32.5038322"><ele>5.6</ele><time>2015-04-27T06:14:26.0000000+00:00</time></trkpt><trkpt lat="35.1032776" lon="32.5032464"><ele>4.3</ele><time>2015-04-27T06:14:58.0000000+00:00</time></trkpt><trkpt lat="35.1035238" lon="32.5039392"><ele>6.1</ele><time>2015-04-27T06:15:16.0000000+00:00</time></trkpt><trkpt lat="35.1035033" lon="32.5043302"><ele>8.2</ele><time>2015-04-27T06:15:26.0000000+00:00</time></trkpt><trkpt lat="35.1027274" lon="32.5048769"><ele>14.8</ele><time>2015-04-27T06:16:02.0000000+00:00</time></trkpt><trkpt lat="35.1021909" lon="32.505545"><ele>18.4</ele><time>2015-04-27T06:16:41.0000000+00:00</time></trkpt><trkpt lat="35.1014936" lon="32.5074929"><ele>29.0</ele><time>2015-04-27T06:18:00.0000000+00:00</time></trkpt><trkpt lat="35.1008813" lon="32.508377"><ele>35.9</ele><time>2015-04-27T06:19:05.0000000+00:00</time></trkpt><trkpt lat="35.1010991" lon="32.5113293"><ele>45.1</ele><time>2015-04-27T06:21:08.0000000+00:00</time></trkpt><trkpt lat="35.1013115" lon="32.512448"><ele>47.0</ele><time>2015-04-27T06:21:21.0000000+00:00</time></trkpt><trkpt lat="35.1011404" lon="32.5132137"><ele>41.7</ele><time>2015-04-27T06:21:32.0000000+00:00</time></trkpt><trkpt lat="35.1006417" lon="32.5138436"><ele>44.8</ele><time>2015-04-27T06:21:47.0000000+00:00</time></trkpt><trkpt lat="35.100411" lon="32.5146085"><ele>47.6</ele><time>2015-04-27T06:22:11.0000000+00:00</time></trkpt><trkpt lat="35.1011885" lon="32.5164954"><ele>58.9</ele><time>2015-04-27T06:24:26.0000000+00:00</time></trkpt><trkpt lat="35.1007273" lon="32.5186556"><ele>69.0</ele><time>2015-04-27T06:26:18.0000000+00:00</time></trkpt><trkpt lat="35.1009656" lon="32.5195078"><ele>76.0</ele><time>2015-04-27T06:29:12.0000000+00:00</time></trkpt><trkpt lat="35.100465" lon="32.5196545"><ele>72.0</ele><time>2015-04-27T06:29:28.0000000+00:00</time></trkpt><trkpt lat="35.1003015" lon="32.5202029"><ele>78.3</ele><time>2015-04-27T06:29:52.0000000+00:00</time></trkpt><trkpt lat="35.09976" lon="32.5206892"><ele>78.8</ele><time>2015-04-27T06:30:32.0000000+00:00</time></trkpt><trkpt lat="35.0995681" lon="32.5219699"><ele>84.9</ele><time>2015-04-27T06:31:41.0000000+00:00</time></trkpt><trkpt lat="35.0997077" lon="32.5225536"><ele>91.9</ele><time>2015-04-27T06:32:12.0000000+00:00</time></trkpt><trkpt lat="35.0996177" lon="32.5228099"><ele>95.3</ele><time>2015-04-27T06:32:23.0000000+00:00</time></trkpt><trkpt lat="35.0985072" lon="32.523402"><ele>95.5</ele><time>2015-04-27T06:33:22.0000000+00:00</time></trkpt><trkpt lat="35.0983294" lon="32.524402"><ele>100.9</ele><time>2015-04-27T06:33:42.0000000+00:00</time></trkpt><trkpt lat="35.0979531" lon="32.5244934"><ele>99.5</ele><time>2015-04-27T06:33:57.0000000+00:00</time></trkpt><trkpt lat="35.0970482" lon="32.5254775"><ele>103.9</ele><time>2015-04-27T06:35:25.0000000+00:00</time></trkpt><trkpt lat="35.096806" lon="32.526185"><ele>109.1</ele><time>2015-04-27T06:35:49.0000000+00:00</time></trkpt><trkpt lat="35.096381" lon="32.5263662"><ele>105.1</ele><time>2015-04-27T06:36:16.0000000+00:00</time></trkpt><trkpt lat="35.0962099" lon="32.5267911"><ele>113.6</ele><time>2015-04-27T06:37:06.0000000+00:00</time></trkpt><trkpt lat="35.0958214" lon="32.527082"><ele>124.3</ele><time>2015-04-27T06:37:42.0000000+00:00</time></trkpt><trkpt lat="35.0949355" lon="32.5270471"><ele>114.0</ele><time>2015-04-27T06:38:17.0000000+00:00</time></trkpt><trkpt lat="35.0947301" lon="32.5273725"><ele>111.6</ele><time>2015-04-27T06:38:29.0000000+00:00</time></trkpt><trkpt lat="35.0953615" lon="32.5305361"><ele>123.6</ele><time>2015-04-27T06:40:27.0000000+00:00</time></trkpt><trkpt lat="35.0956236" lon="32.5308423"><ele>127.4</ele><time>2015-04-27T06:40:41.0000000+00:00</time></trkpt><trkpt lat="35.0955073" lon="32.5313023"><ele>125.8</ele><time>2015-04-27T06:40:55.0000000+00:00</time></trkpt><trkpt lat="35.0957008" lon="32.5318615"><ele>128.6</ele><time>2015-04-27T06:41:13.0000000+00:00</time></trkpt><trkpt lat="35.095618" lon="32.5321599"><ele>129.2</ele><time>2015-04-27T06:41:26.0000000+00:00</time></trkpt><trkpt lat="35.0959942" lon="32.5327326"><ele>140.9</ele><time>2015-04-27T06:42:09.0000000+00:00</time></trkpt><trkpt lat="35.0957995" lon="32.5332632"><ele>146.0</ele><time>2015-04-27T06:42:42.0000000+00:00</time></trkpt><trkpt lat="35.0950201" lon="32.5343663"><ele>144.4</ele><time>2015-04-27T06:43:37.0000000+00:00</time></trkpt><trkpt lat="35.094944" lon="32.5358732"><ele>143.6</ele><time>2015-04-27T06:44:10.0000000+00:00</time></trkpt><trkpt lat="35.0951876" lon="32.5363594"><ele>151.1</ele><time>2015-04-27T06:44:26.0000000+00:00</time></trkpt><trkpt lat="35.0949761" lon="32.5366993"><ele>147.9</ele><time>2015-04-27T06:44:38.0000000+00:00</time></trkpt><trkpt lat="35.0947376" lon="32.5380215"><ele>155.8</ele><time>2015-04-27T06:45:40.0000000+00:00</time></trkpt><trkpt lat="35.0948033" lon="32.538517"><ele>166.1</ele><time>2015-04-27T06:46:01.0000000+00:00</time></trkpt><trkpt lat="35.094405" lon="32.5388022"><ele>161.4</ele><time>2015-04-27T06:46:25.0000000+00:00</time></trkpt><trkpt lat="35.0942366" lon="32.5397815"><ele>173.0</ele><time>2015-04-27T06:47:24.0000000+00:00</time></trkpt><trkpt lat="35.0940438" lon="32.5400762"><ele>169.4</ele><time>2015-04-27T06:53:22.0000000+00:00</time></trkpt><trkpt lat="35.0942302" lon="32.5407429"><ele>182.8</ele><time>2015-04-27T06:53:40.0000000+00:00</time></trkpt><trkpt lat="35.0936544" lon="32.5407972"><ele>171.2</ele><time>2015-04-27T06:54:10.0000000+00:00</time></trkpt><trkpt lat="35.0934993" lon="32.5414508"><ele>174.6</ele><time>2015-04-27T06:54:30.0000000+00:00</time></trkpt><trkpt lat="35.092811" lon="32.542227"><ele>168.9</ele><time>2015-04-27T06:55:07.0000000+00:00</time></trkpt><trkpt lat="35.092912" lon="32.5426304"><ele>171.4</ele><time>2015-04-27T06:55:26.0000000+00:00</time></trkpt><trkpt lat="35.0926611" lon="32.542539"><ele>167.2</ele><time>2015-04-27T06:56:22.0000000+00:00</time></trkpt><trkpt lat="35.0923781" lon="32.5428102"><ele>177.2</ele><time>2015-04-27T06:57:19.0000000+00:00</time></trkpt><trkpt lat="35.0923662" lon="32.5422039"><ele>177.5</ele><time>2015-04-27T06:59:02.0000000+00:00</time></trkpt><trkpt lat="35.0919943" lon="32.5421775"><ele>186.3</ele><time>2015-04-27T06:59:30.0000000+00:00</time></trkpt><trkpt lat="35.0921636" lon="32.5410333"><ele>176.6</ele><time>2015-04-27T07:00:16.0000000+00:00</time></trkpt><trkpt lat="35.0917821" lon="32.5408401"><ele>179.5</ele><time>2015-04-27T07:00:38.0000000+00:00</time></trkpt><trkpt lat="35.0919717" lon="32.5414584"><ele>184.3</ele><time>2015-04-27T07:01:14.0000000+00:00</time></trkpt><trkpt lat="35.0916721" lon="32.5423135"><ele>199.4</ele><time>2015-04-27T07:02:03.0000000+00:00</time></trkpt><trkpt lat="35.0919727" lon="32.543018"><ele>194.8</ele><time>2015-04-27T07:02:36.0000000+00:00</time></trkpt><trkpt lat="35.0921296" lon="32.5443895"><ele>206.7</ele><time>2015-04-27T07:03:24.0000000+00:00</time></trkpt><trkpt lat="35.0919907" lon="32.5454392"><ele>195.3</ele><time>2015-04-27T07:03:58.0000000+00:00</time></trkpt><trkpt lat="35.0914984" lon="32.5460109"><ele>196.1</ele><time>2015-04-27T07:04:25.0000000+00:00</time></trkpt><trkpt lat="35.0909793" lon="32.5461759"><ele>200.3</ele><time>2015-04-27T07:04:46.0000000+00:00</time></trkpt><trkpt lat="35.09063" lon="32.5467146"><ele>204.5</ele><time>2015-04-27T07:05:11.0000000+00:00</time></trkpt><trkpt lat="35.0898573" lon="32.5471491"><ele>207.8</ele><time>2015-04-27T07:05:52.0000000+00:00</time></trkpt><trkpt lat="35.0896608" lon="32.5479115"><ele>215.1</ele><time>2015-04-27T07:06:34.0000000+00:00</time></trkpt><trkpt lat="35.0898507" lon="32.5490203"><ele>220.0</ele><time>2015-04-27T07:07:34.0000000+00:00</time></trkpt><trkpt lat="35.0896078" lon="32.5492221"><ele>219.7</ele><time>2015-04-27T07:07:53.0000000+00:00</time></trkpt><trkpt lat="35.0886311" lon="32.549276"><ele>233.7</ele><time>2015-04-27T07:09:15.0000000+00:00</time></trkpt><trkpt lat="35.0885698" lon="32.5494981"><ele>235.8</ele><time>2015-04-27T07:09:28.0000000+00:00</time></trkpt><trkpt lat="35.0888576" lon="32.5499738"><ele>236.5</ele><time>2015-04-27T07:10:03.0000000+00:00</time></trkpt><trkpt lat="35.0888404" lon="32.5503958"><ele>238.0</ele><time>2015-04-27T07:10:26.0000000+00:00</time></trkpt><trkpt lat="35.0885063" lon="32.5507742"><ele>236.0</ele><time>2015-04-27T07:10:59.0000000+00:00</time></trkpt><trkpt lat="35.0879316" lon="32.5508124"><ele>243.4</ele><time>2015-04-27T07:11:40.0000000+00:00</time></trkpt><trkpt lat="35.0878536" lon="32.5513341"><ele>246.4</ele><time>2015-04-27T07:12:10.0000000+00:00</time></trkpt><trkpt lat="35.0876229" lon="32.5516562"><ele>254.3</ele><time>2015-04-27T07:12:32.0000000+00:00</time></trkpt><trkpt lat="35.0876808" lon="32.5522171"><ele>258.5</ele><time>2015-04-27T07:13:02.0000000+00:00</time></trkpt><trkpt lat="35.0875259" lon="32.552979"><ele>263.2</ele><time>2015-04-27T07:22:14.0000000+00:00</time></trkpt><trkpt lat="35.0878838" lon="32.553144"><ele>255.0</ele><time>2015-04-27T07:22:26.0000000+00:00</time></trkpt><trkpt lat="35.0880651" lon="32.5537326"><ele>250.6</ele><time>2015-04-27T07:22:47.0000000+00:00</time></trkpt><trkpt lat="35.0877515" lon="32.5545045"><ele>246.4</ele><time>2015-04-27T07:23:13.0000000+00:00</time></trkpt><trkpt lat="35.0884693" lon="32.5544675"><ele>246.2</ele><time>2015-04-27T07:24:02.0000000+00:00</time></trkpt><trkpt lat="35.0890472" lon="32.5548118"><ele>258.4</ele><time>2015-04-27T07:24:48.0000000+00:00</time></trkpt><trkpt lat="35.0895033" lon="32.5545277"><ele>251.4</ele><time>2015-04-27T07:25:33.0000000+00:00</time></trkpt><trkpt lat="35.0897076" lon="32.5548491"><ele>254.2</ele><time>2015-04-27T07:35:15.0000000+00:00</time></trkpt><trkpt lat="35.0895838" lon="32.555314"><ele>262.4</ele><time>2015-04-27T07:36:07.0000000+00:00</time></trkpt><trkpt lat="35.089133" lon="32.5560026"><ele>272.2</ele><time>2015-04-27T07:37:05.0000000+00:00</time></trkpt><trkpt lat="35.0888081" lon="32.5559083"><ele>277.4</ele><time>2015-04-27T07:37:33.0000000+00:00</time></trkpt><trkpt lat="35.0887504" lon="32.5561333"><ele>278.1</ele><time>2015-04-27T07:37:57.0000000+00:00</time></trkpt><trkpt lat="35.0888961" lon="32.5556317"><ele>274.4</ele><time>2015-04-27T07:38:33.0000000+00:00</time></trkpt><trkpt lat="35.0885828" lon="32.5552074"><ele>271.8</ele><time>2015-04-27T07:38:54.0000000+00:00</time></trkpt><trkpt lat="35.0881508" lon="32.5551886"><ele>265.9</ele><time>2015-04-27T07:39:16.0000000+00:00</time></trkpt><trkpt lat="35.0872127" lon="32.555737"><ele>275.6</ele><time>2015-04-27T07:39:59.0000000+00:00</time></trkpt><trkpt lat="35.0868514" lon="32.5555835"><ele>265.4</ele><time>2015-04-27T07:40:17.0000000+00:00</time></trkpt><trkpt lat="35.0861987" lon="32.5563283"><ele>279.3</ele><time>2015-04-27T07:40:54.0000000+00:00</time></trkpt><trkpt lat="35.0852104" lon="32.556517"><ele>275.3</ele><time>2015-04-27T07:41:38.0000000+00:00</time></trkpt><trkpt lat="35.084958" lon="32.5572963"><ele>298.8</ele><time>2015-04-27T07:42:13.0000000+00:00</time></trkpt><trkpt lat="35.0846594" lon="32.5571115"><ele>289.1</ele><time>2015-04-27T07:42:31.0000000+00:00</time></trkpt><trkpt lat="35.0834846" lon="32.557613"><ele>291.4</ele><time>2015-04-27T07:43:42.0000000+00:00</time></trkpt><trkpt lat="35.0829104" lon="32.5582508"><ele>297.7</ele><time>2015-04-27T07:44:18.0000000+00:00</time></trkpt><trkpt lat="35.0825613" lon="32.5584208"><ele>290.6</ele><time>2015-04-27T07:44:38.0000000+00:00</time></trkpt><trkpt lat="35.0822474" lon="32.5589803"><ele>291.0</ele><time>2015-04-27T07:45:05.0000000+00:00</time></trkpt><trkpt lat="35.0821725" lon="32.5596656"><ele>294.7</ele><time>2015-04-27T07:45:33.0000000+00:00</time></trkpt><trkpt lat="35.0819389" lon="32.5600845"><ele>293.6</ele><time>2015-04-27T07:45:51.0000000+00:00</time></trkpt><trkpt lat="35.0821488" lon="32.5609076"><ele>304.4</ele><time>2015-04-27T07:46:33.0000000+00:00</time></trkpt><trkpt lat="35.0824588" lon="32.5613881"><ele>328.2</ele><time>2015-04-27T07:46:58.0000000+00:00</time></trkpt><trkpt lat="35.0819724" lon="32.5613706"><ele>314.0</ele><time>2015-04-27T07:47:26.0000000+00:00</time></trkpt><trkpt lat="35.0810801" lon="32.5618343"><ele>307.6</ele><time>2015-04-27T07:48:22.0000000+00:00</time></trkpt><trkpt lat="35.0810318" lon="32.5620866"><ele>312.5</ele><time>2015-04-27T07:48:36.0000000+00:00</time></trkpt><trkpt lat="35.0814013" lon="32.5626193"><ele>315.0</ele><time>2015-04-27T07:49:01.0000000+00:00</time></trkpt><trkpt lat="35.0808662" lon="32.5637895"><ele>324.8</ele><time>2015-04-27T07:50:02.0000000+00:00</time></trkpt><trkpt lat="35.0807265" lon="32.5645535"><ele>334.0</ele><time>2015-04-27T07:50:39.0000000+00:00</time></trkpt><trkpt lat="35.0806114" lon="32.5641752"><ele>338.8</ele><time>2015-04-27T07:51:11.0000000+00:00</time></trkpt><trkpt lat="35.0807127" lon="32.5629232"><ele>347.5</ele><time>2015-04-27T07:52:37.0000000+00:00</time></trkpt><trkpt lat="35.0803218" lon="32.5622172"><ele>350.6</ele><time>2015-04-27T07:53:41.0000000+00:00</time></trkpt><trkpt lat="35.0796691" lon="32.5623312"><ele>359.0</ele><time>2015-04-27T07:54:34.0000000+00:00</time></trkpt><trkpt lat="35.0791144" lon="32.562124"><ele>358.4</ele><time>2015-04-27T07:55:24.0000000+00:00</time></trkpt><trkpt lat="35.07873" lon="32.562382"><ele>362.4</ele><time>2015-04-27T07:56:05.0000000+00:00</time></trkpt><trkpt lat="35.0783417" lon="32.5630687"><ele>363.0</ele><time>2015-04-27T07:57:01.0000000+00:00</time></trkpt><trkpt lat="35.0782376" lon="32.5636889"><ele>372.0</ele><time>2015-04-27T07:57:42.0000000+00:00</time></trkpt><trkpt lat="35.0776593" lon="32.564596"><ele>359.6</ele><time>2015-04-27T08:15:36.0000000+00:00</time></trkpt><trkpt lat="35.0783732" lon="32.5650388"><ele>375.4</ele><time>2015-04-27T08:16:15.0000000+00:00</time></trkpt><trkpt lat="35.0786494" lon="32.5655811"><ele>373.7</ele><time>2015-04-27T08:16:31.0000000+00:00</time></trkpt><trkpt lat="35.078381" lon="32.5662285"><ele>374.9</ele><time>2015-04-27T08:16:46.0000000+00:00</time></trkpt><trkpt lat="35.0775376" lon="32.567014"><ele>379.3</ele><time>2015-04-27T08:17:37.0000000+00:00</time></trkpt><trkpt lat="35.0778934" lon="32.5686183"><ele>386.0</ele><time>2015-04-27T08:18:50.0000000+00:00</time></trkpt><trkpt lat="35.0777299" lon="32.5690418"><ele>387.7</ele><time>2015-04-27T08:19:01.0000000+00:00</time></trkpt><trkpt lat="35.0772988" lon="32.5694559"><ele>402.5</ele><time>2015-04-27T08:19:23.0000000+00:00</time></trkpt><trkpt lat="35.0773247" lon="32.5684493"><ele>408.1</ele><time>2015-04-27T08:20:40.0000000+00:00</time></trkpt><trkpt lat="35.0770268" lon="32.5678768"><ele>413.1</ele><time>2015-04-27T08:21:23.0000000+00:00</time></trkpt><trkpt lat="35.0766903" lon="32.5676519"><ele>422.8</ele><time>2015-04-27T08:21:56.0000000+00:00</time></trkpt><trkpt lat="35.0767807" lon="32.5665632"><ele>412.7</ele><time>2015-04-27T08:23:04.0000000+00:00</time></trkpt><trkpt lat="35.0761488" lon="32.5661942"><ele>416.9</ele><time>2015-04-27T08:24:41.0000000+00:00</time></trkpt><trkpt lat="35.0764417" lon="32.5667408"><ele>430.4</ele><time>2015-04-27T08:26:36.0000000+00:00</time></trkpt><trkpt lat="35.0761431" lon="32.5680646"><ele>460.9</ele><time>2015-04-27T08:28:08.0000000+00:00</time></trkpt><trkpt lat="35.0765677" lon="32.5683859"><ele>444.7</ele><time>2015-04-27T08:28:41.0000000+00:00</time></trkpt><trkpt lat="35.0766854" lon="32.568692"><ele>445.6</ele><time>2015-04-27T08:28:59.0000000+00:00</time></trkpt><trkpt lat="35.0763451" lon="32.5699449"><ele>447.7</ele><time>2015-04-27T08:30:12.0000000+00:00</time></trkpt><trkpt lat="35.0756876" lon="32.5703592"><ele>464.8</ele><time>2015-04-27T08:31:11.0000000+00:00</time></trkpt><trkpt lat="35.075875" lon="32.5713514"><ele>459.0</ele><time>2015-04-27T08:32:17.0000000+00:00</time></trkpt><trkpt lat="35.0751824" lon="32.5716887"><ele>467.2</ele><time>2015-04-27T08:33:14.0000000+00:00</time></trkpt><trkpt lat="35.0744966" lon="32.5716308"><ele>480.7</ele><time>2015-04-27T08:34:00.0000000+00:00</time></trkpt><trkpt lat="35.0745067" lon="32.5721339"><ele>481.1</ele><time>2015-04-27T08:34:31.0000000+00:00</time></trkpt><trkpt lat="35.074361" lon="32.5724557"><ele>486.0</ele><time>2015-04-27T08:34:51.0000000+00:00</time></trkpt><trkpt lat="35.073854" lon="32.572807"><ele>496.6</ele><time>2015-04-27T08:35:35.0000000+00:00</time></trkpt><trkpt lat="35.0732648" lon="32.5736105"><ele>504.5</ele><time>2015-04-27T08:36:38.0000000+00:00</time></trkpt><trkpt lat="35.0734647" lon="32.5737378"><ele>497.7</ele><time>2015-04-27T08:36:59.0000000+00:00</time></trkpt><trkpt lat="35.0749837" lon="32.5732995"><ele>497.3</ele><time>2015-04-27T08:38:57.0000000+00:00</time></trkpt><trkpt lat="35.0757212" lon="32.5737279"><ele>510.8</ele><time>2015-04-27T08:40:02.0000000+00:00</time></trkpt><trkpt lat="35.0756007" lon="32.5756966"><ele>530.5</ele><time>2015-04-27T08:42:00.0000000+00:00</time></trkpt><trkpt lat="35.075738" lon="32.5760915"><ele>526.1</ele><time>2015-04-27T08:42:30.0000000+00:00</time></trkpt><trkpt lat="35.0754529" lon="32.576688"><ele>547.0</ele><time>2015-04-27T08:43:12.0000000+00:00</time></trkpt><trkpt lat="35.0758003" lon="32.5770714"><ele>536.1</ele><time>2015-04-27T08:43:46.0000000+00:00</time></trkpt><trkpt lat="35.0758678" lon="32.5774906"><ele>533.0</ele><time>2015-04-27T08:44:11.0000000+00:00</time></trkpt><trkpt lat="35.0757418" lon="32.5776759"><ele>533.4</ele><time>2015-04-27T08:44:26.0000000+00:00</time></trkpt><trkpt lat="35.0749533" lon="32.5778774"><ele>556.2</ele><time>2015-04-27T08:45:25.0000000+00:00</time></trkpt><trkpt lat="35.0755005" lon="32.5785252"><ele>556.1</ele><time>2015-04-27T08:46:16.0000000+00:00</time></trkpt><trkpt lat="35.0758348" lon="32.5794698"><ele>550.2</ele><time>2015-04-27T08:47:17.0000000+00:00</time></trkpt><trkpt lat="35.0756849" lon="32.5796425"><ele>550.6</ele><time>2015-04-27T08:47:33.0000000+00:00</time></trkpt><trkpt lat="35.0751487" lon="32.5796798"><ele>565.3</ele><time>2015-04-27T08:48:13.0000000+00:00</time></trkpt><trkpt lat="35.0748225" lon="32.5807214"><ele>560.4</ele><time>2015-04-27T08:49:21.0000000+00:00</time></trkpt><trkpt lat="35.0743142" lon="32.5812017"><ele>563.7</ele><time>2015-04-27T09:05:47.0000000+00:00</time></trkpt><trkpt lat="35.0733063" lon="32.5808803"><ele>591.8</ele><time>2015-04-27T09:06:57.0000000+00:00</time></trkpt><trkpt lat="35.0734087" lon="32.581932"><ele>586.2</ele><time>2015-04-27T09:08:15.0000000+00:00</time></trkpt><trkpt lat="35.0732124" lon="32.5822151"><ele>587.2</ele><time>2015-04-27T09:08:39.0000000+00:00</time></trkpt><trkpt lat="35.07227" lon="32.5828093"><ele>596.2</ele><time>2015-04-27T09:10:02.0000000+00:00</time></trkpt><trkpt lat="35.0701248" lon="32.5833476"><ele>622.4</ele><time>2015-04-27T09:12:40.0000000+00:00</time></trkpt><trkpt lat="35.0702821" lon="32.5839242"><ele>625.2</ele><time>2015-04-27T09:13:23.0000000+00:00</time></trkpt><trkpt lat="35.0702034" lon="32.5845647"><ele>632.3</ele><time>2015-04-27T09:14:08.0000000+00:00</time></trkpt><trkpt lat="35.0707523" lon="32.5842971"><ele>631.3</ele><time>2015-04-27T09:15:03.0000000+00:00</time></trkpt><trkpt lat="35.0713264" lon="32.5844412"><ele>645.2</ele><time>2015-04-27T09:15:50.0000000+00:00</time></trkpt><trkpt lat="35.0716926" lon="32.5848199"><ele>645.9</ele><time>2015-04-27T09:16:26.0000000+00:00</time></trkpt><trkpt lat="35.0717558" lon="32.5854534"><ele>661.7</ele><time>2015-04-27T09:17:05.0000000+00:00</time></trkpt><trkpt lat="35.072497" lon="32.5859011"><ele>652.2</ele><time>2015-04-27T09:18:09.0000000+00:00</time></trkpt><trkpt lat="35.0721154" lon="32.5875059"><ele>671.7</ele><time>2015-04-27T09:20:00.0000000+00:00</time></trkpt><trkpt lat="35.0724941" lon="32.5876324"><ele>670.3</ele><time>2015-04-27T09:20:34.0000000+00:00</time></trkpt><trkpt lat="35.0730385" lon="32.5874675"><ele>668.9</ele><time>2015-04-27T09:21:18.0000000+00:00</time></trkpt><trkpt lat="35.0733113" lon="32.5878113"><ele>670.7</ele><time>2015-04-27T09:31:09.0000000+00:00</time></trkpt><trkpt lat="35.0730857" lon="32.5883684"><ele>671.9</ele><time>2015-04-27T09:31:52.0000000+00:00</time></trkpt><trkpt lat="35.072441" lon="32.5890219"><ele>677.8</ele><time>2015-04-27T09:33:05.0000000+00:00</time></trkpt><trkpt lat="35.0718159" lon="32.5892609"><ele>700.9</ele><time>2015-04-27T09:33:56.0000000+00:00</time></trkpt><trkpt lat="35.0717202" lon="32.5906379"><ele>701.8</ele><time>2015-04-27T09:35:18.0000000+00:00</time></trkpt><trkpt lat="35.0718778" lon="32.5911516"><ele>696.4</ele><time>2015-04-27T09:35:46.0000000+00:00</time></trkpt><trkpt lat="35.0715614" lon="32.5916669"><ele>695.0</ele><time>2015-04-27T09:36:23.0000000+00:00</time></trkpt><trkpt lat="35.0713202" lon="32.5916395"><ele>690.2</ele><time>2015-04-27T09:36:38.0000000+00:00</time></trkpt><trkpt lat="35.0708959" lon="32.5910851"><ele>709.9</ele><time>2015-04-27T09:37:21.0000000+00:00</time></trkpt><trkpt lat="35.070009" lon="32.5907628"><ele>722.3</ele><time>2015-04-27T09:38:34.0000000+00:00</time></trkpt><trkpt lat="35.069794" lon="32.5908925"><ele>726.5</ele><time>2015-04-27T09:38:59.0000000+00:00</time></trkpt><trkpt lat="35.0701764" lon="32.5916152"><ele>723.2</ele><time>2015-04-27T09:39:54.0000000+00:00</time></trkpt><trkpt lat="35.0698677" lon="32.5919395"><ele>726.6</ele><time>2015-04-27T09:40:28.0000000+00:00</time></trkpt><trkpt lat="35.0693442" lon="32.5921327"><ele>743.7</ele><time>2015-04-27T09:41:12.0000000+00:00</time></trkpt><trkpt lat="35.0690475" lon="32.5930313"><ele>749.3</ele><time>2015-04-27T09:42:07.0000000+00:00</time></trkpt><trkpt lat="35.0695466" lon="32.5932927"><ele>740.5</ele><time>2015-04-27T09:42:48.0000000+00:00</time></trkpt><trkpt lat="35.069734" lon="32.5936988"><ele>741.3</ele><time>2015-04-27T09:43:18.0000000+00:00</time></trkpt><trkpt lat="35.0690938" lon="32.5942052"><ele>759.3</ele><time>2015-04-27T09:44:16.0000000+00:00</time></trkpt><trkpt lat="35.0693694" lon="32.5945309"><ele>758.4</ele><time>2015-04-27T09:44:52.0000000+00:00</time></trkpt><trkpt lat="35.0694054" lon="32.5956354"><ele>764.4</ele><time>2015-04-27T09:46:02.0000000+00:00</time></trkpt><trkpt lat="35.0690998" lon="32.5959621"><ele>773.6</ele><time>2015-04-27T09:46:31.0000000+00:00</time></trkpt><trkpt lat="35.0690699" lon="32.5968329"><ele>774.8</ele><time>2015-04-27T09:47:26.0000000+00:00</time></trkpt><trkpt lat="35.0685835" lon="32.597334"><ele>778.9</ele><time>2015-04-27T09:48:16.0000000+00:00</time></trkpt><trkpt lat="35.0691572" lon="32.5974716"><ele>776.4</ele><time>2015-04-27T09:49:52.0000000+00:00</time></trkpt><trkpt lat="35.068844" lon="32.5984056"><ele>774.5</ele><time>2015-04-27T09:52:53.0000000+00:00</time></trkpt><trkpt lat="35.0685337" lon="32.5985674"><ele>780.2</ele><time>2015-04-27T09:53:03.0000000+00:00</time></trkpt><trkpt lat="35.0684042" lon="32.5990496"><ele>783.6</ele><time>2015-04-27T09:53:13.0000000+00:00</time></trkpt><trkpt lat="35.0683918" lon="32.5996443"><ele>783.9</ele><time>2015-04-27T09:53:24.0000000+00:00</time></trkpt><trkpt lat="35.0688481" lon="32.6009445"><ele>774.8</ele><time>2015-04-27T09:53:58.0000000+00:00</time></trkpt><trkpt lat="35.0687217" lon="32.6010576"><ele>771.1</ele><time>2015-04-27T09:54:04.0000000+00:00</time></trkpt><trkpt lat="35.0681931" lon="32.600747"><ele>769.8</ele><time>2015-04-27T09:54:20.0000000+00:00</time></trkpt><trkpt lat="35.0678436" lon="32.6002003"><ele>776.6</ele><time>2015-04-27T09:54:38.0000000+00:00</time></trkpt><trkpt lat="35.0675372" lon="32.5999248"><ele>786.5</ele><time>2015-04-27T09:54:48.0000000+00:00</time></trkpt><trkpt lat="35.0674051" lon="32.5999892"><ele>794.9</ele><time>2015-04-27T09:54:52.0000000+00:00</time></trkpt><trkpt lat="35.0671709" lon="32.6018085"><ele>797.0</ele><time>2015-04-27T09:55:30.0000000+00:00</time></trkpt><trkpt lat="35.0674336" lon="32.6034802"><ele>791.8</ele><time>2015-04-27T09:56:02.0000000+00:00</time></trkpt><trkpt lat="35.066708" lon="32.6043468"><ele>792.2</ele><time>2015-04-27T09:57:23.0000000+00:00</time></trkpt><trkpt lat="35.0666176" lon="32.6052269"><ele>784.1</ele><time>2015-04-27T09:58:42.0000000+00:00</time></trkpt><trkpt lat="35.0658659" lon="32.6056722"><ele>800.7</ele><time>2015-04-27T09:59:15.0000000+00:00</time></trkpt><trkpt lat="35.0665916" lon="32.6063777"><ele>803.3</ele><time>2015-04-27T09:59:45.0000000+00:00</time></trkpt><trkpt lat="35.0672772" lon="32.6066459"><ele>795.3</ele><time>2015-04-27T10:00:16.0000000+00:00</time></trkpt><trkpt lat="35.06731" lon="32.6072224"><ele>792.5</ele><time>2015-04-27T10:00:42.0000000+00:00</time></trkpt><trkpt lat="35.0666767" lon="32.6075089"><ele>798.9</ele><time>2015-04-27T10:01:08.0000000+00:00</time></trkpt><trkpt lat="35.0662119" lon="32.6081557"><ele>791.6</ele><time>2015-04-27T10:01:32.0000000+00:00</time></trkpt><trkpt lat="35.0650958" lon="32.6087427"><ele>805.1</ele><time>2015-04-27T10:02:17.0000000+00:00</time></trkpt><trkpt lat="35.065257" lon="32.6092522"><ele>805.7</ele><time>2015-04-27T10:02:31.0000000+00:00</time></trkpt><trkpt lat="35.0661322" lon="32.6096994"><ele>807.6</ele><time>2015-04-27T10:03:03.0000000+00:00</time></trkpt><trkpt lat="35.0664065" lon="32.6101612"><ele>807.9</ele><time>2015-04-27T10:03:23.0000000+00:00</time></trkpt><trkpt lat="35.0662105" lon="32.6111394"><ele>811.5</ele><time>2015-04-27T10:03:51.0000000+00:00</time></trkpt><trkpt lat="35.0664582" lon="32.6112386"><ele>805.5</ele><time>2015-04-27T10:04:02.0000000+00:00</time></trkpt><trkpt lat="35.0667252" lon="32.6117987"><ele>813.5</ele><time>2015-04-27T10:04:20.0000000+00:00</time></trkpt><trkpt lat="35.0671323" lon="32.6117675"><ele>806.7</ele><time>2015-04-27T10:04:45.0000000+00:00</time></trkpt><trkpt lat="35.0672996" lon="32.6119277"><ele>807.6</ele><time>2015-04-27T10:04:59.0000000+00:00</time></trkpt><trkpt lat="35.0669877" lon="32.6127585"><ele>815.5</ele><time>2015-04-27T10:05:17.0000000+00:00</time></trkpt><trkpt lat="35.0669897" lon="32.6134177"><ele>817.2</ele><time>2015-04-27T10:05:30.0000000+00:00</time></trkpt><trkpt lat="35.0677266" lon="32.6139644"><ele>812.9</ele><time>2015-04-27T10:05:51.0000000+00:00</time></trkpt><trkpt lat="35.0681156" lon="32.6138948"><ele>806.2</ele><time>2015-04-27T10:06:02.0000000+00:00</time></trkpt><trkpt lat="35.0681892" lon="32.614103"><ele>807.4</ele><time>2015-04-27T10:06:08.0000000+00:00</time></trkpt><trkpt lat="35.067838" lon="32.6146828"><ele>816.5</ele><time>2015-04-27T10:06:26.0000000+00:00</time></trkpt><trkpt lat="35.067836" lon="32.615286"><ele>808.7</ele><time>2015-04-27T10:06:51.0000000+00:00</time></trkpt><trkpt lat="35.0670591" lon="32.6152133"><ele>814.6</ele><time>2015-04-27T10:22:58.0000000+00:00</time></trkpt><trkpt lat="35.0669058" lon="32.6145503"><ele>813.5</ele><time>2015-04-27T10:23:39.0000000+00:00</time></trkpt><trkpt lat="35.0662237" lon="32.6139383"><ele>819.7</ele><time>2015-04-27T10:24:17.0000000+00:00</time></trkpt><trkpt lat="35.0660883" lon="32.6132798"><ele>833.6</ele><time>2015-04-27T10:24:47.0000000+00:00</time></trkpt><trkpt lat="35.0652374" lon="32.6136704"><ele>845.1</ele><time>2015-04-27T10:25:44.0000000+00:00</time></trkpt><trkpt lat="35.0643332" lon="32.6149088"><ele>842.6</ele><time>2015-04-27T10:27:03.0000000+00:00</time></trkpt><trkpt lat="35.0635022" lon="32.6149605"><ele>844.2</ele><time>2015-04-27T10:27:51.0000000+00:00</time></trkpt><trkpt lat="35.0631004" lon="32.614655"><ele>852.3</ele><time>2015-04-27T10:28:15.0000000+00:00</time></trkpt><trkpt lat="35.0627574" lon="32.614716"><ele>862.0</ele><time>2015-04-27T10:28:34.0000000+00:00</time></trkpt><trkpt lat="35.0629512" lon="32.6151244"><ele>865.0</ele><time>2015-04-27T10:28:58.0000000+00:00</time></trkpt><trkpt lat="35.0629214" lon="32.6156686"><ele>868.1</ele><time>2015-04-27T10:29:26.0000000+00:00</time></trkpt><trkpt lat="35.0635357" lon="32.6159019"><ele>870.6</ele><time>2015-04-27T10:30:04.0000000+00:00</time></trkpt><trkpt lat="35.0637952" lon="32.6165758"><ele>874.5</ele><time>2015-04-27T10:30:36.0000000+00:00</time></trkpt><trkpt lat="35.0643414" lon="32.6164787"><ele>870.5</ele><time>2015-04-27T10:31:13.0000000+00:00</time></trkpt><trkpt lat="35.064474" lon="32.6167087"><ele>872.2</ele><time>2015-04-27T10:31:30.0000000+00:00</time></trkpt><trkpt lat="35.0640905" lon="32.6171916"><ele>871.9</ele><time>2015-04-27T10:32:10.0000000+00:00</time></trkpt><trkpt lat="35.0633513" lon="32.617453"><ele>884.0</ele><time>2015-04-27T10:33:03.0000000+00:00</time></trkpt><trkpt lat="35.0628752" lon="32.6179243"><ele>893.1</ele><time>2015-04-27T10:33:36.0000000+00:00</time></trkpt><trkpt lat="35.0629336" lon="32.6181409"><ele>898.3</ele><time>2015-04-27T10:33:45.0000000+00:00</time></trkpt><trkpt lat="35.0634412" lon="32.6185633"><ele>891.5</ele><time>2015-04-27T10:34:50.0000000+00:00</time></trkpt><trkpt lat="35.0629457" lon="32.6190042"><ele>902.5</ele><time>2015-04-27T10:35:21.0000000+00:00</time></trkpt><trkpt lat="35.0623747" lon="32.6203775"><ele>916.8</ele><time>2015-04-27T10:36:40.0000000+00:00</time></trkpt><trkpt lat="35.0631193" lon="32.6203522"><ele>909.2</ele><time>2015-04-27T10:37:34.0000000+00:00</time></trkpt><trkpt lat="35.063842" lon="32.6207758"><ele>918.4</ele><time>2015-04-27T10:38:13.0000000+00:00</time></trkpt><trkpt lat="35.0645734" lon="32.6208291"><ele>919.1</ele><time>2015-04-27T10:38:35.0000000+00:00</time></trkpt><trkpt lat="35.0649217" lon="32.6210992"><ele>926.6</ele><time>2015-04-27T10:38:51.0000000+00:00</time></trkpt><trkpt lat="35.06534" lon="32.6210559"><ele>924.5</ele><time>2015-04-27T10:39:13.0000000+00:00</time></trkpt><trkpt lat="35.0657923" lon="32.6216405"><ele>925.8</ele><time>2015-04-27T10:39:44.0000000+00:00</time></trkpt><trkpt lat="35.065527" lon="32.6220112"><ele>933.9</ele><time>2015-04-27T10:40:00.0000000+00:00</time></trkpt><trkpt lat="35.0654877" lon="32.6224624"><ele>926.8</ele><time>2015-04-27T10:40:14.0000000+00:00</time></trkpt><trkpt lat="35.0643479" lon="32.6225808"><ele>942.8</ele><time>2015-04-27T10:40:51.0000000+00:00</time></trkpt><trkpt lat="35.0641965" lon="32.6232918"><ele>936.0</ele><time>2015-04-27T10:41:25.0000000+00:00</time></trkpt><trkpt lat="35.0634726" lon="32.6232892"><ele>949.3</ele><time>2015-04-27T10:42:04.0000000+00:00</time></trkpt><trkpt lat="35.0630166" lon="32.6239857"><ele>941.7</ele><time>2015-04-27T10:42:36.0000000+00:00</time></trkpt><trkpt lat="35.0615922" lon="32.6235964"><ele>950.8</ele><time>2015-04-27T10:44:01.0000000+00:00</time></trkpt><trkpt lat="35.0607602" lon="32.6228208"><ele>963.2</ele><time>2015-04-27T10:45:11.0000000+00:00</time></trkpt><trkpt lat="35.0602478" lon="32.6231177"><ele>959.9</ele><time>2015-04-27T10:45:43.0000000+00:00</time></trkpt><trkpt lat="35.0599222" lon="32.6229522"><ele>970.5</ele><time>2015-04-27T10:48:06.0000000+00:00</time></trkpt><trkpt lat="35.0590132" lon="32.6234741"><ele>968.8</ele><time>2015-04-27T10:48:53.0000000+00:00</time></trkpt><trkpt lat="35.0588565" lon="32.6232632"><ele>964.6</ele><time>2015-04-27T10:49:01.0000000+00:00</time></trkpt><trkpt lat="35.0588704" lon="32.6226859"><ele>971.2</ele><time>2015-04-27T10:49:15.0000000+00:00</time></trkpt><trkpt lat="35.0583337" lon="32.6219364"><ele>964.0</ele><time>2015-04-27T10:50:02.0000000+00:00</time></trkpt><trkpt lat="35.0581802" lon="32.6212472"><ele>967.4</ele><time>2015-04-27T10:50:20.0000000+00:00</time></trkpt><trkpt lat="35.0574191" lon="32.6210101"><ele>966.4</ele><time>2015-04-27T10:50:35.0000000+00:00</time></trkpt><trkpt lat="35.0569336" lon="32.6203137"><ele>972.8</ele><time>2015-04-27T10:50:50.0000000+00:00</time></trkpt><trkpt lat="35.0565707" lon="32.6202069"><ele>980.1</ele><time>2015-04-27T10:50:57.0000000+00:00</time></trkpt><trkpt lat="35.0558103" lon="32.6209098"><ele>986.5</ele><time>2015-04-27T10:51:18.0000000+00:00</time></trkpt><trkpt lat="35.0541785" lon="32.6239562"><ele>978.4</ele><time>2015-04-27T10:52:48.0000000+00:00</time></trkpt><trkpt lat="35.0533981" lon="32.623898"><ele>972.7</ele><time>2015-04-27T10:53:10.0000000+00:00</time></trkpt><trkpt lat="35.0528489" lon="32.6235715"><ele>980.3</ele><time>2015-04-27T10:53:28.0000000+00:00</time></trkpt><trkpt lat="35.0523564" lon="32.6238183"><ele>975.0</ele><time>2015-04-27T10:53:42.0000000+00:00</time></trkpt><trkpt lat="35.0513967" lon="32.6235006"><ele>988.4</ele><time>2015-04-27T10:54:13.0000000+00:00</time></trkpt><trkpt lat="35.0511094" lon="32.6237632"><ele>980.4</ele><time>2015-04-27T10:54:54.0000000+00:00</time></trkpt><trkpt lat="35.0505883" lon="32.6238621"><ele>992.9</ele><time>2015-04-27T10:55:08.0000000+00:00</time></trkpt><trkpt lat="35.0505226" lon="32.6241227"><ele>997.0</ele><time>2015-04-27T10:55:12.0000000+00:00</time></trkpt><trkpt lat="35.0507304" lon="32.625232"><ele>992.1</ele><time>2015-04-27T10:55:30.0000000+00:00</time></trkpt><trkpt lat="35.0502105" lon="32.6259504"><ele>993.2</ele><time>2015-04-27T10:55:48.0000000+00:00</time></trkpt><trkpt lat="35.0498594" lon="32.6261871"><ele>997.4</ele><time>2015-04-27T10:55:58.0000000+00:00</time></trkpt><trkpt lat="35.0497354" lon="32.6268324"><ele>998.6</ele><time>2015-04-27T10:56:22.0000000+00:00</time></trkpt><trkpt lat="35.0484879" lon="32.6284385"><ele>1005.1</ele><time>2015-04-27T10:57:50.0000000+00:00</time></trkpt><trkpt lat="35.0482343" lon="32.6285158"><ele>996.4</ele><time>2015-04-27T10:58:07.0000000+00:00</time></trkpt><trkpt lat="35.0475362" lon="32.6277935"><ele>1002.1</ele><time>2015-04-27T10:58:55.0000000+00:00</time></trkpt><trkpt lat="35.0468522" lon="32.6274819"><ele>1018.4</ele><time>2015-04-27T10:59:34.0000000+00:00</time></trkpt><trkpt lat="35.0461607" lon="32.628193"><ele>1014.4</ele><time>2015-04-27T11:00:15.0000000+00:00</time></trkpt><trkpt lat="35.0455117" lon="32.6280349"><ele>1021.9</ele><time>2015-04-27T11:00:43.0000000+00:00</time></trkpt><trkpt lat="35.0447512" lon="32.6284007"><ele>1021.4</ele><time>2015-04-27T11:01:05.0000000+00:00</time></trkpt><trkpt lat="35.0434938" lon="32.6283872"><ele>1030.2</ele><time>2015-04-27T11:01:43.0000000+00:00</time></trkpt><trkpt lat="35.0420899" lon="32.6294864"><ele>1026.8</ele><time>2015-04-27T11:02:35.0000000+00:00</time></trkpt><trkpt lat="35.0416834" lon="32.6289828"><ele>1031.3</ele><time>2015-04-27T11:03:04.0000000+00:00</time></trkpt><trkpt lat="35.0414087" lon="32.628925"><ele>1035.4</ele><time>2015-04-27T11:03:12.0000000+00:00</time></trkpt><trkpt lat="35.0394175" lon="32.6297745"><ele>1043.4</ele><time>2015-04-27T11:04:48.0000000+00:00</time></trkpt><trkpt lat="35.0388328" lon="32.6306393"><ele>1038.6</ele><time>2015-04-27T11:05:11.0000000+00:00</time></trkpt><trkpt lat="35.0382201" lon="32.6308384"><ele>1035.9</ele><time>2015-04-27T11:05:25.0000000+00:00</time></trkpt><trkpt lat="35.0375382" lon="32.6306546"><ele>1044.7</ele><time>2015-04-27T11:05:43.0000000+00:00</time></trkpt><trkpt lat="35.0369282" lon="32.6315397"><ele>1043.8</ele><time>2015-04-27T11:06:01.0000000+00:00</time></trkpt><trkpt lat="35.0365102" lon="32.6317634"><ele>1055.5</ele><time>2015-04-27T11:06:08.0000000+00:00</time></trkpt><trkpt lat="35.0363959" lon="32.6325342"><ele>1034.6</ele><time>2015-04-27T11:06:17.0000000+00:00</time></trkpt><trkpt lat="35.0354036" lon="32.6325262"><ele>1040.3</ele><time>2015-04-27T11:06:32.0000000+00:00</time></trkpt><trkpt lat="35.0351557" lon="32.6332314"><ele>1029.8</ele><time>2015-04-27T11:06:41.0000000+00:00</time></trkpt><trkpt lat="35.0340358" lon="32.6336696"><ele>1042.4</ele><time>2015-04-27T11:06:56.0000000+00:00</time></trkpt><trkpt lat="35.0338684" lon="32.6349521"><ele>1028.1</ele><time>2015-04-27T11:07:13.0000000+00:00</time></trkpt><trkpt lat="35.0330483" lon="32.6350808"><ele>1032.7</ele><time>2015-04-27T11:09:53.0000000+00:00</time></trkpt><trkpt lat="35.033171" lon="32.6366375"><ele>1047.8</ele><time>2015-04-27T11:21:46.0000000+00:00</time></trkpt><trkpt lat="35.0328971" lon="32.6376933"><ele>1063.4</ele><time>2015-04-27T11:22:55.0000000+00:00</time></trkpt><trkpt lat="35.0332027" lon="32.638251"><ele>1063.8</ele><time>2015-04-27T11:23:44.0000000+00:00</time></trkpt><trkpt lat="35.0338066" lon="32.6382735"><ele>1061.9</ele><time>2015-04-27T11:24:33.0000000+00:00</time></trkpt><trkpt lat="35.0344196" lon="32.6388334"><ele>1079.4</ele><time>2015-04-27T11:25:29.0000000+00:00</time></trkpt><trkpt lat="35.0351305" lon="32.6389957"><ele>1079.1</ele><time>2015-04-27T11:26:27.0000000+00:00</time></trkpt><trkpt lat="35.0354471" lon="32.6397196"><ele>1080.2</ele><time>2015-04-27T11:27:15.0000000+00:00</time></trkpt><trkpt lat="35.0345908" lon="32.6405079"><ele>1096.2</ele><time>2015-04-27T11:28:31.0000000+00:00</time></trkpt><trkpt lat="35.0344546" lon="32.6413472"><ele>1100.5</ele><time>2015-04-27T11:29:16.0000000+00:00</time></trkpt><trkpt lat="35.0340125" lon="32.6424287"><ele>1100.6</ele><time>2015-04-27T11:30:25.0000000+00:00</time></trkpt><trkpt lat="35.0331597" lon="32.6426367"><ele>1117.0</ele><time>2015-04-27T11:31:31.0000000+00:00</time></trkpt><trkpt lat="35.0331454" lon="32.6434482"><ele>1124.2</ele><time>2015-04-27T11:32:23.0000000+00:00</time></trkpt><trkpt lat="35.0327001" lon="32.6447992"><ele>1135.6</ele><time>2015-04-27T11:33:58.0000000+00:00</time></trkpt><trkpt lat="35.0337023" lon="32.6459149"><ele>1137.4</ele><time>2015-04-27T11:35:53.0000000+00:00</time></trkpt><trkpt lat="35.0331174" lon="32.6468103"><ele>1147.2</ele><time>2015-04-27T11:42:00.0000000+00:00</time></trkpt><trkpt lat="35.0329038" lon="32.6482614"><ele>1164.6</ele><time>2015-04-27T11:43:31.0000000+00:00</time></trkpt><trkpt lat="35.0336805" lon="32.6490094"><ele>1165.3</ele><time>2015-04-27T11:44:52.0000000+00:00</time></trkpt><trkpt lat="35.0336276" lon="32.6499418"><ele>1170.0</ele><time>2015-04-27T11:45:28.0000000+00:00</time></trkpt><trkpt lat="35.0333065" lon="32.6504853"><ele>1178.3</ele><time>2015-04-27T11:45:59.0000000+00:00</time></trkpt><trkpt lat="35.0335206" lon="32.6511289"><ele>1184.2</ele><time>2015-04-27T11:46:36.0000000+00:00</time></trkpt><trkpt lat="35.0343842" lon="32.6520438"><ele>1180.1</ele><time>2015-04-27T11:48:21.0000000+00:00</time></trkpt><trkpt lat="35.0342603" lon="32.652345"><ele>1174.2</ele><time>2015-04-27T11:50:02.0000000+00:00</time></trkpt><trkpt lat="35.033267" lon="32.6524754"><ele>1169.1</ele><time>2015-04-27T11:51:08.0000000+00:00</time></trkpt><trkpt lat="35.0325196" lon="32.6520732"><ele>1189.8</ele><time>2015-04-27T11:52:01.0000000+00:00</time></trkpt><trkpt lat="35.0320968" lon="32.6522726"><ele>1182.8</ele><time>2015-04-27T11:52:41.0000000+00:00</time></trkpt><trkpt lat="35.0313295" lon="32.6521892"><ele>1193.8</ele><time>2015-04-27T11:53:41.0000000+00:00</time></trkpt><trkpt lat="35.029481" lon="32.6527495"><ele>1212.6</ele><time>2015-04-27T11:57:30.0000000+00:00</time></trkpt><trkpt lat="35.0280044" lon="32.6539378"><ele>1217.1</ele><time>2015-04-27T12:03:00.0000000+00:00</time></trkpt><trkpt lat="35.0280886" lon="32.6542106"><ele>1223.2</ele><time>2015-04-27T12:05:11.0000000+00:00</time></trkpt><trkpt lat="35.027918" lon="32.6549743"><ele>1230.3</ele><time>2015-04-27T12:05:40.0000000+00:00</time></trkpt><trkpt lat="35.0268446" lon="32.6557076"><ele>1233.7</ele><time>2015-04-27T12:06:28.0000000+00:00</time></trkpt><trkpt lat="35.0264935" lon="32.6561537"><ele>1233.6</ele><time>2015-04-27T12:06:45.0000000+00:00</time></trkpt><trkpt lat="35.02625" lon="32.6568956"><ele>1232.3</ele><time>2015-04-27T12:07:05.0000000+00:00</time></trkpt><trkpt lat="35.0262658" lon="32.6577793"><ele>1234.7</ele><time>2015-04-27T12:07:20.0000000+00:00</time></trkpt><trkpt lat="35.0260524" lon="32.658197"><ele>1241.2</ele><time>2015-04-27T12:07:27.0000000+00:00</time></trkpt><trkpt lat="35.025767" lon="32.6582585"><ele>1246.6</ele><time>2015-04-27T12:07:32.0000000+00:00</time></trkpt><trkpt lat="35.0248526" lon="32.6578982"><ele>1239.2</ele><time>2015-04-27T12:07:52.0000000+00:00</time></trkpt><trkpt lat="35.0243028" lon="32.6589533"><ele>1248.9</ele><time>2015-04-27T12:08:16.0000000+00:00</time></trkpt><trkpt lat="35.0234426" lon="32.6591378"><ele>1248.5</ele><time>2015-04-27T12:08:48.0000000+00:00</time></trkpt><trkpt lat="35.0231779" lon="32.6596842"><ele>1258.6</ele><time>2015-04-27T12:09:04.0000000+00:00</time></trkpt><trkpt lat="35.0214853" lon="32.6592586"><ele>1245.2</ele><time>2015-04-27T12:09:53.0000000+00:00</time></trkpt><trkpt lat="35.0204228" lon="32.6595882"><ele>1231.5</ele><time>2015-04-27T12:11:11.0000000+00:00</time></trkpt><trkpt lat="35.0171596" lon="32.6624301"><ele>1214.5</ele><time>2015-04-27T12:11:48.0000000+00:00</time></trkpt><trkpt lat="35.0158684" lon="32.6618833"><ele>1214.6</ele><time>2015-04-27T12:12:08.0000000+00:00</time></trkpt><trkpt lat="35.0154922" lon="32.6621486"><ele>1209.1</ele><time>2015-04-27T12:12:14.0000000+00:00</time></trkpt><trkpt lat="35.0150111" lon="32.663015"><ele>1216.6</ele><time>2015-04-27T12:12:26.0000000+00:00</time></trkpt><trkpt lat="35.0142651" lon="32.6632046"><ele>1220.7</ele><time>2015-04-27T12:12:35.0000000+00:00</time></trkpt><trkpt lat="35.0139659" lon="32.6629057"><ele>1209.1</ele><time>2015-04-27T12:12:40.0000000+00:00</time></trkpt><trkpt lat="35.0137318" lon="32.6628951"><ele>1203.8</ele><time>2015-04-27T12:12:43.0000000+00:00</time></trkpt><trkpt lat="35.0123268" lon="32.6635153"><ele>1205.1</ele><time>2015-04-27T12:12:59.0000000+00:00</time></trkpt><trkpt lat="35.0108297" lon="32.6637282"><ele>1171.9</ele><time>2015-04-27T12:13:16.0000000+00:00</time></trkpt><trkpt lat="35.0115052" lon="32.6644537"><ele>1174.4</ele><time>2015-04-27T12:13:32.0000000+00:00</time></trkpt><trkpt lat="35.0111939" lon="32.6653334"><ele>1173.9</ele><time>2015-04-27T12:13:43.0000000+00:00</time></trkpt><trkpt lat="35.0107733" lon="32.6659792"><ele>1159.9</ele><time>2015-04-27T12:13:53.0000000+00:00</time></trkpt><trkpt lat="35.0112605" lon="32.6675014"><ele>1161.1</ele><time>2015-04-27T12:14:11.0000000+00:00</time></trkpt><trkpt lat="35.011247" lon="32.6688382"><ele>1168.0</ele><time>2015-04-27T12:17:23.0000000+00:00</time></trkpt><trkpt lat="35.0114644" lon="32.6692944"><ele>1165.3</ele><time>2015-04-27T12:17:34.0000000+00:00</time></trkpt><trkpt lat="35.0113052" lon="32.6700843"><ele>1168.9</ele><time>2015-04-27T12:17:45.0000000+00:00</time></trkpt><trkpt lat="35.0116947" lon="32.6703335"><ele>1163.5</ele><time>2015-04-27T12:17:52.0000000+00:00</time></trkpt><trkpt lat="35.0121989" lon="32.6711166"><ele>1156.8</ele><time>2015-04-27T12:18:01.0000000+00:00</time></trkpt><trkpt lat="35.0122263" lon="32.6713626"><ele>1151.4</ele><time>2015-04-27T12:18:04.0000000+00:00</time></trkpt><trkpt lat="35.0119477" lon="32.6719315"><ele>1161.1</ele><time>2015-04-27T12:18:12.0000000+00:00</time></trkpt><trkpt lat="35.0122874" lon="32.6725211"><ele>1149.7</ele><time>2015-04-27T12:18:21.0000000+00:00</time></trkpt><trkpt lat="35.011795" lon="32.6731463"><ele>1146.8</ele><time>2015-04-27T12:18:31.0000000+00:00</time></trkpt><trkpt lat="35.0109965" lon="32.6736886"><ele>1155.4</ele><time>2015-04-27T12:18:44.0000000+00:00</time></trkpt><trkpt lat="35.0109611" lon="32.674177"><ele>1145.6</ele><time>2015-04-27T12:18:50.0000000+00:00</time></trkpt><trkpt lat="35.0105491" lon="32.6746352"><ele>1156.7</ele><time>2015-04-27T12:19:00.0000000+00:00</time></trkpt><trkpt lat="35.0107126" lon="32.6749132"><ele>1158.3</ele><time>2015-04-27T12:19:07.0000000+00:00</time></trkpt><trkpt lat="35.0115525" lon="32.6755082"><ele>1151.3</ele><time>2015-04-27T12:19:22.0000000+00:00</time></trkpt><trkpt lat="35.0116108" lon="32.6761905"><ele>1152.5</ele><time>2015-04-27T12:19:30.0000000+00:00</time></trkpt><trkpt lat="35.0113302" lon="32.6771386"><ele>1162.0</ele><time>2015-04-27T12:19:42.0000000+00:00</time></trkpt><trkpt lat="35.0117132" lon="32.6779267"><ele>1159.8</ele><time>2015-04-27T12:19:53.0000000+00:00</time></trkpt><trkpt lat="35.0120961" lon="32.6783468"><ele>1153.1</ele><time>2015-04-27T12:20:01.0000000+00:00</time></trkpt><trkpt lat="35.012155" lon="32.6790663"><ele>1158.3</ele><time>2015-04-27T12:20:10.0000000+00:00</time></trkpt><trkpt lat="35.0126122" lon="32.6795899"><ele>1140.6</ele><time>2015-04-27T12:21:20.0000000+00:00</time></trkpt><trkpt lat="35.0121932" lon="32.6801012"><ele>1149.8</ele><time>2015-04-27T12:23:04.0000000+00:00</time></trkpt><trkpt lat="35.0120849" lon="32.6809658"><ele>1140.2</ele><time>2015-04-27T12:23:23.0000000+00:00</time></trkpt><trkpt lat="35.0112791" lon="32.6814316"><ele>1147.2</ele><time>2015-04-27T12:23:47.0000000+00:00</time></trkpt><trkpt lat="35.0107218" lon="32.6826171"><ele>1141.9</ele><time>2015-04-27T12:24:12.0000000+00:00</time></trkpt><trkpt lat="35.0102591" lon="32.6830637"><ele>1134.4</ele><time>2015-04-27T12:24:23.0000000+00:00</time></trkpt><trkpt lat="35.0091755" lon="32.6830123"><ele>1136.1</ele><time>2015-04-27T12:24:47.0000000+00:00</time></trkpt><trkpt lat="35.0088679" lon="32.6831535"><ele>1128.7</ele><time>2015-04-27T12:24:55.0000000+00:00</time></trkpt><trkpt lat="35.0084542" lon="32.6827578"><ele>1130.6</ele><time>2015-04-27T12:25:15.0000000+00:00</time></trkpt><trkpt lat="35.0084082" lon="32.6817058"><ele>1142.7</ele><time>2015-04-27T12:25:40.0000000+00:00</time></trkpt><trkpt lat="35.0076614" lon="32.6810998"><ele>1149.6</ele><time>2015-04-27T12:26:19.0000000+00:00</time></trkpt><trkpt lat="35.0072198" lon="32.6812645"><ele>1140.3</ele><time>2015-04-27T12:26:36.0000000+00:00</time></trkpt><trkpt lat="35.0064686" lon="32.6800684"><ele>1159.1</ele><time>2015-04-27T12:27:22.0000000+00:00</time></trkpt><trkpt lat="35.0060152" lon="32.6809543"><ele>1150.3</ele><time>2015-04-27T12:27:45.0000000+00:00</time></trkpt><trkpt lat="35.0056421" lon="32.6812639"><ele>1161.4</ele><time>2015-04-27T12:27:54.0000000+00:00</time></trkpt><trkpt lat="35.0054507" lon="32.6819219"><ele>1158.3</ele><time>2015-04-27T12:28:06.0000000+00:00</time></trkpt><trkpt lat="35.0050688" lon="32.6824365"><ele>1146.2</ele><time>2015-04-27T12:28:16.0000000+00:00</time></trkpt><trkpt lat="35.0043444" lon="32.6825834"><ele>1134.6</ele><time>2015-04-27T12:28:31.0000000+00:00</time></trkpt><trkpt lat="35.0040014" lon="32.6820769"><ele>1135.1</ele><time>2015-04-27T12:28:45.0000000+00:00</time></trkpt><trkpt lat="35.0039574" lon="32.6817518"><ele>1144.3</ele><time>2015-04-27T12:33:48.0000000+00:00</time></trkpt><trkpt lat="35.0035283" lon="32.681318"><ele>1155.7</ele><time>2015-04-27T12:34:01.0000000+00:00</time></trkpt><trkpt lat="35.0030846" lon="32.683353"><ele>1140.7</ele><time>2015-04-27T12:34:26.0000000+00:00</time></trkpt><trkpt lat="35.001758" lon="32.6839808"><ele>1153.0</ele><time>2015-04-27T12:34:46.0000000+00:00</time></trkpt><trkpt lat="35.002182" lon="32.6851634"><ele>1141.8</ele><time>2015-04-27T12:35:04.0000000+00:00</time></trkpt><trkpt lat="35.0020078" lon="32.6857346"><ele>1150.5</ele><time>2015-04-27T12:35:12.0000000+00:00</time></trkpt><trkpt lat="35.0026292" lon="32.6864741"><ele>1143.2</ele><time>2015-04-27T12:35:25.0000000+00:00</time></trkpt><trkpt lat="35.0026142" lon="32.6873338"><ele>1146.7</ele><time>2015-04-27T12:35:35.0000000+00:00</time></trkpt><trkpt lat="35.002743" lon="32.6876992"><ele>1148.7</ele><time>2015-04-27T12:35:40.0000000+00:00</time></trkpt><trkpt lat="35.0034432" lon="32.6885226"><ele>1139.8</ele><time>2015-04-27T12:35:54.0000000+00:00</time></trkpt><trkpt lat="35.0036678" lon="32.6893194"><ele>1140.6</ele><time>2015-04-27T12:36:03.0000000+00:00</time></trkpt><trkpt lat="35.0042594" lon="32.6900172"><ele>1133.8</ele><time>2015-04-27T12:36:15.0000000+00:00</time></trkpt><trkpt lat="35.0044668" lon="32.6907526"><ele>1139.5</ele><time>2015-04-27T12:36:24.0000000+00:00</time></trkpt><trkpt lat="35.0061184" lon="32.6925147"><ele>1126.5</ele><time>2015-04-27T12:36:58.0000000+00:00</time></trkpt><trkpt lat="35.006101" lon="32.6929297"><ele>1117.1</ele><time>2015-04-27T12:37:03.0000000+00:00</time></trkpt><trkpt lat="35.0053649" lon="32.6934754"><ele>1104.2</ele><time>2015-04-27T12:37:16.0000000+00:00</time></trkpt><trkpt lat="35.0041906" lon="32.6928139"><ele>1108.1</ele><time>2015-04-27T12:37:37.0000000+00:00</time></trkpt><trkpt lat="35.0032459" lon="32.6931696"><ele>1110.1</ele><time>2015-04-27T12:37:51.0000000+00:00</time></trkpt><trkpt lat="35.0027289" lon="32.6938688"><ele>1091.2</ele><time>2015-04-27T12:38:02.0000000+00:00</time></trkpt><trkpt lat="35.0020238" lon="32.6930863"><ele>1092.8</ele><time>2015-04-27T12:38:19.0000000+00:00</time></trkpt><trkpt lat="35.0008901" lon="32.6925906"><ele>1100.0</ele><time>2015-04-27T12:38:41.0000000+00:00</time></trkpt><trkpt lat="35.0004121" lon="32.6928022"><ele>1109.5</ele><time>2015-04-27T12:38:51.0000000+00:00</time></trkpt><trkpt lat="34.9998534" lon="32.6936388"><ele>1100.0</ele><time>2015-04-27T12:39:07.0000000+00:00</time></trkpt><trkpt lat="34.9995193" lon="32.6936721"><ele>1096.3</ele><time>2015-04-27T12:39:12.0000000+00:00</time></trkpt><trkpt lat="34.9989345" lon="32.6932863"><ele>1107.1</ele><time>2015-04-27T12:39:23.0000000+00:00</time></trkpt><trkpt lat="34.9980741" lon="32.693652"><ele>1110.9</ele><time>2015-04-27T12:39:38.0000000+00:00</time></trkpt><trkpt lat="34.9978873" lon="32.6939588"><ele>1119.2</ele><time>2015-04-27T12:39:43.0000000+00:00</time></trkpt><trkpt lat="34.9980784" lon="32.6949334"><ele>1112.0</ele><time>2015-04-27T12:39:55.0000000+00:00</time></trkpt><trkpt lat="34.9978277" lon="32.6958918"><ele>1119.6</ele><time>2015-04-27T12:40:07.0000000+00:00</time></trkpt><trkpt lat="34.9980759" lon="32.6965235"><ele>1113.4</ele><time>2015-04-27T12:40:15.0000000+00:00</time></trkpt><trkpt lat="34.9980634" lon="32.6968759"><ele>1102.6</ele><time>2015-04-27T12:40:19.0000000+00:00</time></trkpt><trkpt lat="34.9968208" lon="32.6974935"><ele>1104.7</ele><time>2015-04-27T12:40:41.0000000+00:00</time></trkpt><trkpt lat="34.9964946" lon="32.6977848"><ele>1114.3</ele><time>2015-04-27T12:40:50.0000000+00:00</time></trkpt><trkpt lat="34.9964863" lon="32.6980442"><ele>1118.3</ele><time>2015-04-27T12:40:54.0000000+00:00</time></trkpt><trkpt lat="34.996964" lon="32.6987918"><ele>1112.6</ele><time>2015-04-27T12:41:06.0000000+00:00</time></trkpt><trkpt lat="34.996996" lon="32.6994453"><ele>1114.0</ele><time>2015-04-27T12:41:14.0000000+00:00</time></trkpt><trkpt lat="34.9972477" lon="32.7002018"><ele>1114.3</ele><time>2015-04-27T12:41:24.0000000+00:00</time></trkpt><trkpt lat="34.997967" lon="32.7015956"><ele>1102.1</ele><time>2015-04-27T12:41:42.0000000+00:00</time></trkpt><trkpt lat="34.9979804" lon="32.7032076"><ele>1105.2</ele><time>2015-04-27T12:42:02.0000000+00:00</time></trkpt><trkpt lat="34.9986752" lon="32.7041048"><ele>1103.1</ele><time>2015-04-27T12:42:16.0000000+00:00</time></trkpt><trkpt lat="34.9999452" lon="32.7042962"><ele>1087.1</ele><time>2015-04-27T12:42:32.0000000+00:00</time></trkpt><trkpt lat="35.0002742" lon="32.7050273"><ele>1095.0</ele><time>2015-04-27T12:42:41.0000000+00:00</time></trkpt><trkpt lat="35.0006859" lon="32.705148"><ele>1087.5</ele><time>2015-04-27T12:42:46.0000000+00:00</time></trkpt><trkpt lat="35.001324" lon="32.7051197"><ele>1081.4</ele><time>2015-04-27T12:42:53.0000000+00:00</time></trkpt><trkpt lat="35.0023062" lon="32.7040412"><ele>1068.2</ele><time>2015-04-27T12:43:09.0000000+00:00</time></trkpt><trkpt lat="35.0038389" lon="32.7051122"><ele>1068.7</ele><time>2015-04-27T12:43:30.0000000+00:00</time></trkpt><trkpt lat="35.0049958" lon="32.7051324"><ele>1056.0</ele><time>2015-04-27T12:43:44.0000000+00:00</time></trkpt><trkpt lat="35.0058802" lon="32.7056265"><ele>1050.3</ele><time>2015-04-27T12:43:57.0000000+00:00</time></trkpt><trkpt lat="35.0057943" lon="32.7059145"><ele>1043.8</ele><time>2015-04-27T12:44:01.0000000+00:00</time></trkpt><trkpt lat="35.0043438" lon="32.7062451"><ele>1045.9</ele><time>2015-04-27T12:44:29.0000000+00:00</time></trkpt><trkpt lat="35.0037052" lon="32.7066146"><ele>1053.6</ele><time>2015-04-27T12:44:42.0000000+00:00</time></trkpt><trkpt lat="35.0032769" lon="32.7071815"><ele>1054.7</ele><time>2015-04-27T12:44:54.0000000+00:00</time></trkpt><trkpt lat="35.0026458" lon="32.7085181"><ele>1058.4</ele><time>2015-04-27T12:45:20.0000000+00:00</time></trkpt><trkpt lat="35.002713" lon="32.7098962"><ele>1062.9</ele><time>2015-04-27T12:45:38.0000000+00:00</time></trkpt><trkpt lat="35.0029126" lon="32.7105456"><ele>1051.1</ele><time>2015-04-27T12:45:46.0000000+00:00</time></trkpt><trkpt lat="35.0027642" lon="32.7111948"><ele>1054.9</ele><time>2015-04-27T12:45:54.0000000+00:00</time></trkpt><trkpt lat="35.0028356" lon="32.7124218"><ele>1042.9</ele><time>2015-04-27T12:46:11.0000000+00:00</time></trkpt><trkpt lat="35.0027082" lon="32.7138632"><ele>1036.1</ele><time>2015-04-27T12:46:38.0000000+00:00</time></trkpt><trkpt lat="35.0036408" lon="32.7149763"><ele>1055.0</ele><time>2015-04-27T12:47:06.0000000+00:00</time></trkpt><trkpt lat="35.0049283" lon="32.7157991"><ele>1040.1</ele><time>2015-04-27T12:47:44.0000000+00:00</time></trkpt><trkpt lat="35.0038129" lon="32.7167943"><ele>1050.7</ele><time>2015-04-27T12:48:31.0000000+00:00</time></trkpt><trkpt lat="35.0036251" lon="32.7171367"><ele>1056.4</ele><time>2015-04-27T12:48:43.0000000+00:00</time></trkpt><trkpt lat="35.0035308" lon="32.7179288"><ele>1047.6</ele><time>2015-04-27T12:49:03.0000000+00:00</time></trkpt><trkpt lat="35.0028912" lon="32.7191309"><ele>1061.0</ele><time>2015-04-27T12:49:35.0000000+00:00</time></trkpt><trkpt lat="35.003018" lon="32.7198913"><ele>1064.9</ele><time>2015-04-27T12:49:51.0000000+00:00</time></trkpt><trkpt lat="35.0034958" lon="32.7211708"><ele>1059.6</ele><time>2015-04-27T12:50:18.0000000+00:00</time></trkpt><trkpt lat="35.0033253" lon="32.7226076"><ele>1063.5</ele><time>2015-04-27T12:50:45.0000000+00:00</time></trkpt><trkpt lat="35.0034672" lon="32.7234229"><ele>1068.4</ele><time>2015-04-27T12:51:00.0000000+00:00</time></trkpt><trkpt lat="35.0042724" lon="32.7241754"><ele>1063.2</ele><time>2015-04-27T12:51:21.0000000+00:00</time></trkpt><trkpt lat="35.004647" lon="32.7251089"><ele>1064.1</ele><time>2015-04-27T12:51:34.0000000+00:00</time></trkpt><trkpt lat="35.0056992" lon="32.7263263"><ele>1054.7</ele><time>2015-04-27T12:51:53.0000000+00:00</time></trkpt><trkpt lat="35.0064815" lon="32.7264986"><ele>1045.4</ele><time>2015-04-27T12:52:03.0000000+00:00</time></trkpt><trkpt lat="35.0066719" lon="32.7271668"><ele>1052.9</ele><time>2015-04-27T12:52:12.0000000+00:00</time></trkpt><trkpt lat="35.0075257" lon="32.7279784"><ele>1048.2</ele><time>2015-04-27T12:52:27.0000000+00:00</time></trkpt><trkpt lat="35.0082079" lon="32.7279947"><ele>1042.6</ele><time>2015-04-27T12:52:36.0000000+00:00</time></trkpt><trkpt lat="35.0087506" lon="32.728215"><ele>1041.9</ele><time>2015-04-27T12:52:43.0000000+00:00</time></trkpt><trkpt lat="35.0095441" lon="32.7281184"><ele>1036.7</ele><time>2015-04-27T12:52:53.0000000+00:00</time></trkpt><trkpt lat="35.0101362" lon="32.7278111"><ele>1032.9</ele><time>2015-04-27T12:53:01.0000000+00:00</time></trkpt><trkpt lat="35.0109383" lon="32.726676"><ele>1021.0</ele><time>2015-04-27T12:53:15.0000000+00:00</time></trkpt><trkpt lat="35.0123594" lon="32.7276674"><ele>1024.9</ele><time>2015-04-27T12:53:34.0000000+00:00</time></trkpt><trkpt lat="35.0135874" lon="32.7274571"><ele>1018.8</ele><time>2015-04-27T12:53:53.0000000+00:00</time></trkpt><trkpt lat="35.0136004" lon="32.7282641"><ele>1019.5</ele><time>2015-04-27T12:56:16.0000000+00:00</time></trkpt><trkpt lat="35.0132108" lon="32.7287085"><ele>1010.5</ele><time>2015-04-27T12:56:25.0000000+00:00</time></trkpt><trkpt lat="35.0124924" lon="32.7286451"><ele>1011.6</ele><time>2015-04-27T12:56:35.0000000+00:00</time></trkpt><trkpt lat="35.0114024" lon="32.7290184"><ele>1006.7</ele><time>2015-04-27T12:56:49.0000000+00:00</time></trkpt><trkpt lat="35.011263" lon="32.7297804"><ele>996.4</ele><time>2015-04-27T12:56:57.0000000+00:00</time></trkpt><trkpt lat="35.0106575" lon="32.7311701"><ele>974.2</ele><time>2015-04-27T12:57:15.0000000+00:00</time></trkpt><trkpt lat="35.0094112" lon="32.7308364"><ele>957.7</ele><time>2015-04-27T12:57:38.0000000+00:00</time></trkpt><trkpt lat="35.009006" lon="32.7302382"><ele>962.9</ele><time>2015-04-27T12:57:49.0000000+00:00</time></trkpt><trkpt lat="35.0084728" lon="32.7304625"><ele>962.6</ele><time>2015-04-27T12:58:07.0000000+00:00</time></trkpt><trkpt lat="35.0066611" lon="32.7302047"><ele>978.8</ele><time>2015-04-27T12:59:24.0000000+00:00</time></trkpt><trkpt lat="35.0065301" lon="32.7304934"><ele>987.3</ele><time>2015-04-27T12:59:32.0000000+00:00</time></trkpt><trkpt lat="35.0066527" lon="32.7318646"><ele>983.1</ele><time>2015-04-27T13:00:14.0000000+00:00</time></trkpt><trkpt lat="35.0062012" lon="32.7328346"><ele>983.5</ele><time>2015-04-27T13:00:57.0000000+00:00</time></trkpt><trkpt lat="35.0059485" lon="32.7328591"><ele>977.1</ele><time>2015-04-27T13:01:11.0000000+00:00</time></trkpt><trkpt lat="35.0052763" lon="32.732108"><ele>991.2</ele><time>2015-04-27T13:02:24.0000000+00:00</time></trkpt><trkpt lat="35.005085" lon="32.7321087"><ele>994.1</ele><time>2015-04-27T13:14:52.0000000+00:00</time></trkpt><trkpt lat="35.0039587" lon="32.7330552"><ele>1001.1</ele><time>2015-04-27T13:16:47.0000000+00:00</time></trkpt><trkpt lat="35.003421" lon="32.7331442"><ele>1002.6</ele><time>2015-04-27T13:17:38.0000000+00:00</time></trkpt><trkpt lat="35.0025235" lon="32.7329027"><ele>1021.0</ele><time>2015-04-27T13:19:06.0000000+00:00</time></trkpt><trkpt lat="35.0016634" lon="32.7335899"><ele>1018.9</ele><time>2015-04-27T13:20:32.0000000+00:00</time></trkpt><trkpt lat="35.0008761" lon="32.7336962"><ele>1035.6</ele><time>2015-04-27T13:21:28.0000000+00:00</time></trkpt><trkpt lat="35.0006862" lon="32.7340635"><ele>1047.3</ele><time>2015-04-27T13:21:53.0000000+00:00</time></trkpt><trkpt lat="35.0007967" lon="32.7346007"><ele>1040.8</ele><time>2015-04-27T13:22:34.0000000+00:00</time></trkpt><trkpt lat="35.0003022" lon="32.7351922"><ele>1050.7</ele><time>2015-04-27T13:23:39.0000000+00:00</time></trkpt><trkpt lat="35.0001711" lon="32.735742"><ele>1048.4</ele><time>2015-04-27T13:24:21.0000000+00:00</time></trkpt><trkpt lat="34.9999346" lon="32.7359564"><ele>1047.6</ele><time>2015-04-27T13:24:47.0000000+00:00</time></trkpt><trkpt lat="34.999644" lon="32.7358892"><ele>1047.4</ele><time>2015-04-27T13:25:09.0000000+00:00</time></trkpt><trkpt lat="34.9984987" lon="32.7345942"><ele>1064.0</ele><time>2015-04-27T13:27:06.0000000+00:00</time></trkpt><trkpt lat="34.9981336" lon="32.7346044"><ele>1067.3</ele><time>2015-04-27T13:27:24.0000000+00:00</time></trkpt><trkpt lat="34.9975288" lon="32.7349257"><ele>1073.9</ele><time>2015-04-27T13:27:48.0000000+00:00</time></trkpt><trkpt lat="34.9968674" lon="32.7358584"><ele>1068.6</ele><time>2015-04-27T13:28:47.0000000+00:00</time></trkpt><trkpt lat="34.9959716" lon="32.7350753"><ele>1084.7</ele><time>2015-04-27T13:30:01.0000000+00:00</time></trkpt><trkpt lat="34.9956598" lon="32.7351024"><ele>1090.9</ele><time>2015-04-27T13:30:20.0000000+00:00</time></trkpt><trkpt lat="34.9947506" lon="32.7360486"><ele>1095.3</ele><time>2015-04-27T13:31:36.0000000+00:00</time></trkpt><trkpt lat="34.9938552" lon="32.7362152"><ele>1106.9</ele><time>2015-04-27T13:32:34.0000000+00:00</time></trkpt><trkpt lat="34.9932442" lon="32.7375829"><ele>1109.0</ele><time>2015-04-27T13:33:33.0000000+00:00</time></trkpt><trkpt lat="34.9929637" lon="32.7379001"><ele>1102.3</ele><time>2015-04-27T13:33:51.0000000+00:00</time></trkpt><trkpt lat="34.9916637" lon="32.7375346"><ele>1106.9</ele><time>2015-04-27T13:43:15.0000000+00:00</time></trkpt><trkpt lat="34.989454" lon="32.7386874"><ele>1113.0</ele><time>2015-04-27T13:44:20.0000000+00:00</time></trkpt><trkpt lat="34.987957" lon="32.739913"><ele>1112.3</ele><time>2015-04-27T13:45:02.0000000+00:00</time></trkpt><trkpt lat="34.9873477" lon="32.7407214"><ele>1118.3</ele><time>2015-04-27T13:45:20.0000000+00:00</time></trkpt><trkpt lat="34.986537" lon="32.7434948"><ele>1121.0</ele><time>2015-04-27T13:46:09.0000000+00:00</time></trkpt><trkpt lat="34.9857776" lon="32.7440569"><ele>1117.7</ele><time>2015-04-27T13:46:35.0000000+00:00</time></trkpt><trkpt lat="34.9854118" lon="32.7441179"><ele>1117.1</ele><time>2015-04-27T13:46:45.0000000+00:00</time></trkpt><trkpt lat="34.9852537" lon="32.7439642"><ele>1112.8</ele><time>2015-04-27T13:46:51.0000000+00:00</time></trkpt><trkpt lat="34.9850811" lon="32.7433577"><ele>1117.4</ele><time>2015-04-27T13:47:07.0000000+00:00</time></trkpt><trkpt lat="34.9845982" lon="32.7426805"><ele>1114.7</ele><time>2015-04-27T13:47:31.0000000+00:00</time></trkpt><trkpt lat="34.9845217" lon="32.7416847"><ele>1123.8</ele><time>2015-04-27T13:48:09.0000000+00:00</time></trkpt><trkpt lat="34.9843204" lon="32.7414982"><ele>1126.2</ele><time>2015-04-27T13:48:27.0000000+00:00</time></trkpt><trkpt lat="34.9839292" lon="32.7415653"><ele>1130.2</ele><time>2015-04-27T13:48:52.0000000+00:00</time></trkpt><trkpt lat="34.9839306" lon="32.7414545"><ele>1131.8</ele><time>2015-04-27T13:54:44.0000000+00:00</time></trkpt><trkpt lat="34.9832468" lon="32.7423902"><ele>1133.5</ele><time>2015-04-27T13:55:55.0000000+00:00</time></trkpt><trkpt lat="34.9828249" lon="32.7434199"><ele>1131.9</ele><time>2015-04-27T13:56:45.0000000+00:00</time></trkpt><trkpt lat="34.9823788" lon="32.7431834"><ele>1127.2</ele><time>2015-04-27T13:57:22.0000000+00:00</time></trkpt><trkpt lat="34.9818696" lon="32.7423598"><ele>1121.3</ele><time>2015-04-27T13:57:49.0000000+00:00</time></trkpt><trkpt lat="34.98107" lon="32.7421055"><ele>1115.2</ele><time>2015-04-27T13:58:14.0000000+00:00</time></trkpt><trkpt lat="34.9793135" lon="32.7423315"><ele>1101.4</ele><time>2015-04-27T13:58:38.0000000+00:00</time></trkpt><trkpt lat="34.9785867" lon="32.7427848"><ele>1090.5</ele><time>2015-04-27T13:58:51.0000000+00:00</time></trkpt><trkpt lat="34.9780099" lon="32.7428755"><ele>1088.3</ele><time>2015-04-27T13:59:02.0000000+00:00</time></trkpt><trkpt lat="34.9788046" lon="32.7430762"><ele>1082.2</ele><time>2015-04-27T13:59:32.0000000+00:00</time></trkpt><trkpt lat="34.9798832" lon="32.7427786"><ele>1086.0</ele><time>2015-04-27T13:59:48.0000000+00:00</time></trkpt><trkpt lat="34.9810311" lon="32.7430088"><ele>1073.5</ele><time>2015-04-27T14:00:00.0000000+00:00</time></trkpt><trkpt lat="34.9813894" lon="32.7432851"><ele>1069.1</ele><time>2015-04-27T14:00:05.0000000+00:00</time></trkpt><trkpt lat="34.9814792" lon="32.74426"><ele>1069.7</ele><time>2015-04-27T14:00:15.0000000+00:00</time></trkpt><trkpt lat="34.9810943" lon="32.7451215"><ele>1068.6</ele><time>2015-04-27T14:00:24.0000000+00:00</time></trkpt><trkpt lat="34.9798941" lon="32.7463118"><ele>1053.0</ele><time>2015-04-27T14:00:40.0000000+00:00</time></trkpt><trkpt lat="34.9795283" lon="32.7479252"><ele>1042.9</ele><time>2015-04-27T14:00:54.0000000+00:00</time></trkpt><trkpt lat="34.9796487" lon="32.7481752"><ele>1043.3</ele><time>2015-04-27T14:00:57.0000000+00:00</time></trkpt><trkpt lat="34.9800344" lon="32.7481688"><ele>1045.3</ele><time>2015-04-27T14:01:02.0000000+00:00</time></trkpt><trkpt lat="34.9807203" lon="32.7468815"><ele>1046.5</ele><time>2015-04-27T14:01:17.0000000+00:00</time></trkpt><trkpt lat="34.9810694" lon="32.7466806"><ele>1039.7</ele><time>2015-04-27T14:01:22.0000000+00:00</time></trkpt><trkpt lat="34.9812409" lon="32.7468067"><ele>1034.5</ele><time>2015-04-27T14:01:25.0000000+00:00</time></trkpt><trkpt lat="34.9818747" lon="32.7485184"><ele>1024.5</ele><time>2015-04-27T14:01:43.0000000+00:00</time></trkpt><trkpt lat="34.9834552" lon="32.7492858"><ele>1019.2</ele><time>2015-04-27T14:02:02.0000000+00:00</time></trkpt><trkpt lat="34.9841864" lon="32.7490512"><ele>1015.0</ele><time>2015-04-27T14:02:11.0000000+00:00</time></trkpt><trkpt lat="34.9848818" lon="32.7493665"><ele>1008.0</ele><time>2015-04-27T14:02:20.0000000+00:00</time></trkpt><trkpt lat="34.9851593" lon="32.7490311"><ele>1010.3</ele><time>2015-04-27T14:02:25.0000000+00:00</time></trkpt><trkpt lat="34.9853065" lon="32.7473961"><ele>1008.9</ele><time>2015-04-27T14:02:40.0000000+00:00</time></trkpt><trkpt lat="34.9852082" lon="32.7468391"><ele>1007.9</ele><time>2015-04-27T14:02:46.0000000+00:00</time></trkpt><trkpt lat="34.9854363" lon="32.7467537"><ele>999.0</ele><time>2015-04-27T14:02:51.0000000+00:00</time></trkpt><trkpt lat="34.9859029" lon="32.7471853"><ele>988.2</ele><time>2015-04-27T14:02:59.0000000+00:00</time></trkpt><trkpt lat="34.9863267" lon="32.7499014"><ele>969.9</ele><time>2015-04-27T14:03:21.0000000+00:00</time></trkpt><trkpt lat="34.9861514" lon="32.7505604"><ele>966.4</ele><time>2015-04-27T14:03:29.0000000+00:00</time></trkpt><trkpt lat="34.9852244" lon="32.752353"><ele>974.5</ele><time>2015-04-27T14:03:59.0000000+00:00</time></trkpt><trkpt lat="34.9842851" lon="32.7525246"><ele>978.4</ele><time>2015-04-27T14:04:31.0000000+00:00</time></trkpt><trkpt lat="34.9826358" lon="32.7533172"><ele>986.0</ele><time>2015-04-27T14:05:16.0000000+00:00</time></trkpt><trkpt lat="34.9808944" lon="32.7546123"><ele>991.4</ele><time>2015-04-27T14:06:46.0000000+00:00</time></trkpt><trkpt lat="34.98069" lon="32.7550813"><ele>1002.0</ele><time>2015-04-27T14:07:06.0000000+00:00</time></trkpt><trkpt lat="34.9807401" lon="32.7557915"><ele>1004.1</ele><time>2015-04-27T14:07:35.0000000+00:00</time></trkpt><trkpt lat="34.9803136" lon="32.7575537"><ele>1010.8</ele><time>2015-04-27T14:08:47.0000000+00:00</time></trkpt><trkpt lat="34.9801769" lon="32.7590953"><ele>1014.5</ele><time>2015-04-27T14:09:47.0000000+00:00</time></trkpt><trkpt lat="34.9804801" lon="32.7598231"><ele>1019.2</ele><time>2015-04-27T14:10:22.0000000+00:00</time></trkpt><trkpt lat="34.981145" lon="32.7603504"><ele>1016.3</ele><time>2015-04-27T14:11:01.0000000+00:00</time></trkpt><trkpt lat="34.9822476" lon="32.7625834"><ele>1009.4</ele><time>2015-04-27T14:12:22.0000000+00:00</time></trkpt><trkpt lat="34.9821378" lon="32.762723"><ele>1005.3</ele><time>2015-04-27T14:12:32.0000000+00:00</time></trkpt><trkpt lat="34.9811285" lon="32.7627086"><ele>996.1</ele><time>2015-04-27T14:15:06.0000000+00:00</time></trkpt><trkpt lat="34.9806241" lon="32.7615637"><ele>993.5</ele><time>2015-04-27T14:15:19.0000000+00:00</time></trkpt><trkpt lat="34.9801366" lon="32.7613237"><ele>995.5</ele><time>2015-04-27T14:15:25.0000000+00:00</time></trkpt><trkpt lat="34.9798113" lon="32.761545"><ele>1001.5</ele><time>2015-04-27T14:15:29.0000000+00:00</time></trkpt><trkpt lat="34.9792358" lon="32.762613"><ele>987.4</ele><time>2015-04-27T14:15:40.0000000+00:00</time></trkpt><trkpt lat="34.9785493" lon="32.7630299"><ele>1004.7</ele><time>2015-04-27T14:15:48.0000000+00:00</time></trkpt><trkpt lat="34.9792806" lon="32.763945"><ele>986.5</ele><time>2015-04-27T14:16:00.0000000+00:00</time></trkpt><trkpt lat="34.9788162" lon="32.7657056"><ele>989.1</ele><time>2015-04-27T14:16:18.0000000+00:00</time></trkpt><trkpt lat="34.9788771" lon="32.7664011"><ele>984.8</ele><time>2015-04-27T14:16:24.0000000+00:00</time></trkpt><trkpt lat="34.9791897" lon="32.7667965"><ele>981.3</ele><time>2015-04-27T14:16:29.0000000+00:00</time></trkpt><trkpt lat="34.9793155" lon="32.7674589"><ele>970.7</ele><time>2015-04-27T14:16:35.0000000+00:00</time></trkpt><trkpt lat="34.9789924" lon="32.7684086"><ele>976.5</ele><time>2015-04-27T14:16:43.0000000+00:00</time></trkpt><trkpt lat="34.9788505" lon="32.769411"><ele>965.7</ele><time>2015-04-27T14:16:51.0000000+00:00</time></trkpt><trkpt lat="34.9789461" lon="32.7704007"><ele>960.5</ele><time>2015-04-27T14:16:59.0000000+00:00</time></trkpt><trkpt lat="34.9787922" lon="32.7711042"><ele>960.7</ele><time>2015-04-27T14:17:05.0000000+00:00</time></trkpt><trkpt lat="34.9790423" lon="32.7724413"><ele>947.6</ele><time>2015-04-27T14:17:16.0000000+00:00</time></trkpt><trkpt lat="34.978733" lon="32.774043"><ele>944.9</ele><time>2015-04-27T14:17:30.0000000+00:00</time></trkpt><trkpt lat="34.9789311" lon="32.7747553"><ele>935.7</ele><time>2015-04-27T14:17:36.0000000+00:00</time></trkpt><trkpt lat="34.9778997" lon="32.7761888"><ele>935.6</ele><time>2015-04-27T14:17:55.0000000+00:00</time></trkpt><trkpt lat="34.9784979" lon="32.7767481"><ele>933.0</ele><time>2015-04-27T14:18:04.0000000+00:00</time></trkpt><trkpt lat="34.9787507" lon="32.7776276"><ele>923.4</ele><time>2015-04-27T14:18:17.0000000+00:00</time></trkpt><trkpt lat="34.9790677" lon="32.7779571"><ele>919.2</ele><time>2015-04-27T14:18:24.0000000+00:00</time></trkpt><trkpt lat="34.9793235" lon="32.779494"><ele>918.3</ele><time>2015-04-27T14:18:43.0000000+00:00</time></trkpt><trkpt lat="34.9793456" lon="32.7812832"><ele>925.3</ele><time>2015-04-27T14:19:29.0000000+00:00</time></trkpt><trkpt lat="34.9799806" lon="32.7812303"><ele>924.9</ele><time>2015-04-27T14:20:01.0000000+00:00</time></trkpt><trkpt lat="34.9801368" lon="32.7816895"><ele>937.0</ele><time>2015-04-27T14:20:22.0000000+00:00</time></trkpt><trkpt lat="34.9804708" lon="32.781935"><ele>938.0</ele><time>2015-04-27T14:20:38.0000000+00:00</time></trkpt><trkpt lat="34.9809456" lon="32.7827128"><ele>936.6</ele><time>2015-04-27T14:21:12.0000000+00:00</time></trkpt><trkpt lat="34.9811261" lon="32.7835062"><ele>931.8</ele><time>2015-04-27T14:21:54.0000000+00:00</time></trkpt><trkpt lat="34.9824136" lon="32.7842826"><ele>935.2</ele><time>2015-04-27T14:23:07.0000000+00:00</time></trkpt><trkpt lat="34.9831096" lon="32.7851322"><ele>940.9</ele><time>2015-04-27T14:23:52.0000000+00:00</time></trkpt><trkpt lat="34.9830539" lon="32.7854857"><ele>947.0</ele><time>2015-04-27T14:24:04.0000000+00:00</time></trkpt><trkpt lat="34.982369" lon="32.7863562"><ele>945.6</ele><time>2015-04-27T14:24:52.0000000+00:00</time></trkpt><trkpt lat="34.9824278" lon="32.7869747"><ele>945.9</ele><time>2015-04-27T14:25:16.0000000+00:00</time></trkpt><trkpt lat="34.9827376" lon="32.7870276"><ele>947.9</ele><time>2015-04-27T14:25:35.0000000+00:00</time></trkpt><trkpt lat="34.9834053" lon="32.786629"><ele>956.2</ele><time>2015-04-27T14:26:14.0000000+00:00</time></trkpt><trkpt lat="34.9837442" lon="32.7860508"><ele>963.4</ele><time>2015-04-27T14:26:51.0000000+00:00</time></trkpt><trkpt lat="34.9846001" lon="32.785882"><ele>963.0</ele><time>2015-04-27T14:27:37.0000000+00:00</time></trkpt><trkpt lat="34.9850664" lon="32.7860682"><ele>962.8</ele><time>2015-04-27T14:28:00.0000000+00:00</time></trkpt><trkpt lat="34.9853479" lon="32.786906"><ele>964.7</ele><time>2015-04-27T14:28:46.0000000+00:00</time></trkpt><trkpt lat="34.9860038" lon="32.7869089"><ele>974.2</ele><time>2015-04-27T14:29:48.0000000+00:00</time></trkpt><trkpt lat="34.9864438" lon="32.7873874"><ele>975.2</ele><time>2015-04-27T14:30:29.0000000+00:00</time></trkpt><trkpt lat="34.9867613" lon="32.7870536"><ele>986.5</ele><time>2015-04-27T14:30:55.0000000+00:00</time></trkpt><trkpt lat="34.9870459" lon="32.7870103"><ele>986.2</ele><time>2015-04-27T14:31:06.0000000+00:00</time></trkpt><trkpt lat="34.9887125" lon="32.7884379"><ele>990.1</ele><time>2015-04-27T14:32:46.0000000+00:00</time></trkpt><trkpt lat="34.9895963" lon="32.7884871"><ele>996.2</ele><time>2015-04-27T14:33:27.0000000+00:00</time></trkpt><trkpt lat="34.990432" lon="32.7890144"><ele>996.5</ele><time>2015-04-27T14:34:06.0000000+00:00</time></trkpt><trkpt lat="34.9903543" lon="32.7893686"><ele>999.9</ele><time>2015-04-27T14:34:23.0000000+00:00</time></trkpt><trkpt lat="34.989377" lon="32.7898236"><ele>1002.4</ele><time>2015-04-27T14:35:09.0000000+00:00</time></trkpt><trkpt lat="34.9890426" lon="32.7907723"><ele>1006.8</ele><time>2015-04-27T14:35:51.0000000+00:00</time></trkpt><trkpt lat="34.9887346" lon="32.7908621"><ele>1013.0</ele><time>2015-04-27T14:36:05.0000000+00:00</time></trkpt><trkpt lat="34.9882392" lon="32.7905634"><ele>1009.3</ele><time>2015-04-27T14:36:26.0000000+00:00</time></trkpt><trkpt lat="34.9879648" lon="32.7907349"><ele>1004.8</ele><time>2015-04-27T14:40:32.0000000+00:00</time></trkpt><trkpt lat="34.9878353" lon="32.7910791"><ele>998.8</ele><time>2015-04-27T14:40:55.0000000+00:00</time></trkpt><trkpt lat="34.9881888" lon="32.7924883"><ele>1004.3</ele><time>2015-04-27T14:41:53.0000000+00:00</time></trkpt><trkpt lat="34.988774" lon="32.7930556"><ele>1007.8</ele><time>2015-04-27T14:42:17.0000000+00:00</time></trkpt><trkpt lat="34.9890275" lon="32.7940407"><ele>1010.2</ele><time>2015-04-27T14:42:41.0000000+00:00</time></trkpt><trkpt lat="34.9893402" lon="32.7944752"><ele>1011.7</ele><time>2015-04-27T14:42:57.0000000+00:00</time></trkpt><trkpt lat="34.9892845" lon="32.7952636"><ele>1009.0</ele><time>2015-04-27T14:43:17.0000000+00:00</time></trkpt><trkpt lat="34.9899077" lon="32.7967118"><ele>1021.3</ele><time>2015-04-27T14:44:02.0000000+00:00</time></trkpt><trkpt lat="34.9890393" lon="32.7975948"><ele>1030.7</ele><time>2015-04-27T14:44:42.0000000+00:00</time></trkpt><trkpt lat="34.9885094" lon="32.7969695"><ele>1028.0</ele><time>2015-04-27T14:45:12.0000000+00:00</time></trkpt><trkpt lat="34.9877753" lon="32.7971861"><ele>1038.2</ele><time>2015-04-27T14:45:41.0000000+00:00</time></trkpt><trkpt lat="34.9873122" lon="32.7968448"><ele>1037.0</ele><time>2015-04-27T14:46:10.0000000+00:00</time></trkpt><trkpt lat="34.9868864" lon="32.7969578"><ele>1043.0</ele><time>2015-04-27T14:46:35.0000000+00:00</time></trkpt><trkpt lat="34.9858296" lon="32.7958818"><ele>1042.0</ele><time>2015-04-27T14:47:58.0000000+00:00</time></trkpt><trkpt lat="34.9855157" lon="32.7959453"><ele>1035.7</ele><time>2015-04-27T14:48:45.0000000+00:00</time></trkpt><trkpt lat="34.9856306" lon="32.7963138"><ele>1036.8</ele><time>2015-04-27T14:49:06.0000000+00:00</time></trkpt><trkpt lat="34.9866435" lon="32.7972991"><ele>1045.5</ele><time>2015-04-27T14:50:14.0000000+00:00</time></trkpt><trkpt lat="34.9870751" lon="32.7984256"><ele>1050.6</ele><time>2015-04-27T14:51:09.0000000+00:00</time></trkpt><trkpt lat="34.9883058" lon="32.7992944"><ele>1059.3</ele><time>2015-04-27T14:52:17.0000000+00:00</time></trkpt><trkpt lat="34.9889221" lon="32.8000857"><ele>1064.6</ele><time>2015-04-27T14:53:04.0000000+00:00</time></trkpt><trkpt lat="34.9889723" lon="32.8004264"><ele>1068.6</ele><time>2015-04-27T14:53:20.0000000+00:00</time></trkpt><trkpt lat="34.9887578" lon="32.8010033"><ele>1067.4</ele><time>2015-04-27T14:53:50.0000000+00:00</time></trkpt><trkpt lat="34.9888517" lon="32.8015939"><ele>1076.3</ele><time>2015-04-27T14:54:16.0000000+00:00</time></trkpt><trkpt lat="34.9884011" lon="32.8019307"><ele>1080.1</ele><time>2015-04-27T14:54:34.0000000+00:00</time></trkpt><trkpt lat="34.9878184" lon="32.8030508"><ele>1087.1</ele><time>2015-04-27T14:55:36.0000000+00:00</time></trkpt><trkpt lat="34.9869502" lon="32.8035963"><ele>1097.5</ele><time>2015-04-27T14:56:28.0000000+00:00</time></trkpt><trkpt lat="34.9863846" lon="32.8036556"><ele>1087.0</ele><time>2015-04-27T14:56:58.0000000+00:00</time></trkpt><trkpt lat="34.9859207" lon="32.804812"><ele>1093.5</ele><time>2015-04-27T15:11:11.0000000+00:00</time></trkpt><trkpt lat="34.9830654" lon="32.8073252"><ele>1091.9</ele><time>2015-04-27T15:12:35.0000000+00:00</time></trkpt><trkpt lat="34.9819972" lon="32.8087471"><ele>1095.4</ele><time>2015-04-27T15:13:25.0000000+00:00</time></trkpt><trkpt lat="34.9812493" lon="32.8089023"><ele>1092.9</ele><time>2015-04-27T15:13:47.0000000+00:00</time></trkpt><trkpt lat="34.9804922" lon="32.8094468"><ele>1084.6</ele><time>2015-04-27T15:14:13.0000000+00:00</time></trkpt><trkpt lat="34.9794615" lon="32.8096603"><ele>1082.2</ele><time>2015-04-27T15:14:43.0000000+00:00</time></trkpt><trkpt lat="34.9781164" lon="32.8094423"><ele>1078.1</ele><time>2015-04-27T15:16:55.0000000+00:00</time></trkpt><trkpt lat="34.9767731" lon="32.8098115"><ele>1079.3</ele><time>2015-04-27T15:17:22.0000000+00:00</time></trkpt><trkpt lat="34.9751774" lon="32.8093372"><ele>1090.4</ele><time>2015-04-27T15:18:29.0000000+00:00</time></trkpt><trkpt lat="34.9747686" lon="32.8098133"><ele>1092.3</ele><time>2015-04-27T15:19:00.0000000+00:00</time></trkpt><trkpt lat="34.973902" lon="32.8103449"><ele>1098.4</ele><time>2015-04-27T15:19:46.0000000+00:00</time></trkpt><trkpt lat="34.9736709" lon="32.8110915"><ele>1093.9</ele><time>2015-04-27T15:20:28.0000000+00:00</time></trkpt><trkpt lat="34.9726254" lon="32.8113012"><ele>1102.4</ele><time>2015-04-27T15:21:39.0000000+00:00</time></trkpt><trkpt lat="34.9719516" lon="32.8118321"><ele>1101.5</ele><time>2015-04-27T15:22:24.0000000+00:00</time></trkpt><trkpt lat="34.9710784" lon="32.8121726"><ele>1108.4</ele><time>2015-04-27T15:23:15.0000000+00:00</time></trkpt><trkpt lat="34.9709623" lon="32.812382"><ele>1113.9</ele><time>2015-04-27T15:23:26.0000000+00:00</time></trkpt><trkpt lat="34.9711654" lon="32.8137054"><ele>1107.8</ele><time>2015-04-27T15:24:12.0000000+00:00</time></trkpt><trkpt lat="34.9708901" lon="32.8140608"><ele>1102.7</ele><time>2015-04-27T15:24:27.0000000+00:00</time></trkpt><trkpt lat="34.9706447" lon="32.8140654"><ele>1101.4</ele><time>2015-04-27T15:24:35.0000000+00:00</time></trkpt><trkpt lat="34.9698999" lon="32.8135866"><ele>1108.4</ele><time>2015-04-27T15:25:07.0000000+00:00</time></trkpt><trkpt lat="34.9693934" lon="32.8138954"><ele>1108.1</ele><time>2015-04-27T15:25:25.0000000+00:00</time></trkpt><trkpt lat="34.9681993" lon="32.8137426"><ele>1112.9</ele><time>2015-04-27T15:25:48.0000000+00:00</time></trkpt><trkpt lat="34.9675928" lon="32.8143135"><ele>1114.6</ele><time>2015-04-27T15:26:00.0000000+00:00</time></trkpt><trkpt lat="34.9675374" lon="32.8151197"><ele>1115.8</ele><time>2015-04-27T15:26:13.0000000+00:00</time></trkpt><trkpt lat="34.96778" lon="32.8158829"><ele>1113.7</ele><time>2015-04-27T15:26:24.0000000+00:00</time></trkpt><trkpt lat="34.9676342" lon="32.8170796"><ele>1115.6</ele><time>2015-04-27T15:26:40.0000000+00:00</time></trkpt><trkpt lat="34.9682512" lon="32.8188874"><ele>1116.4</ele><time>2015-04-27T15:27:10.0000000+00:00</time></trkpt><trkpt lat="34.967708" lon="32.8199575"><ele>1119.7</ele><time>2015-04-27T15:28:06.0000000+00:00</time></trkpt><trkpt lat="34.9673914" lon="32.8201615"><ele>1121.1</ele><time>2015-04-27T15:28:31.0000000+00:00</time></trkpt><trkpt lat="34.9671475" lon="32.8200867"><ele>1123.1</ele><time>2015-04-27T15:28:47.0000000+00:00</time></trkpt><trkpt lat="34.9664395" lon="32.8192758"><ele>1127.9</ele><time>2015-04-27T15:29:41.0000000+00:00</time></trkpt><trkpt lat="34.9662323" lon="32.8193161"><ele>1130.3</ele><time>2015-04-27T15:29:52.0000000+00:00</time></trkpt><trkpt lat="34.9658948" lon="32.8203521"><ele>1145.9</ele><time>2015-04-27T15:30:26.0000000+00:00</time></trkpt><trkpt lat="34.9661253" lon="32.8220234"><ele>1139.8</ele><time>2015-04-27T15:31:16.0000000+00:00</time></trkpt><trkpt lat="34.9662674" lon="32.8222405"><ele>1139.1</ele><time>2015-04-27T15:31:20.0000000+00:00</time></trkpt><trkpt lat="34.9669481" lon="32.8225591"><ele>1141.5</ele><time>2015-04-27T15:31:34.0000000+00:00</time></trkpt><trkpt lat="34.967465" lon="32.8224674"><ele>1140.0</ele><time>2015-04-27T15:31:52.0000000+00:00</time></trkpt><trkpt lat="34.968101" lon="32.8226707"><ele>1142.6</ele><time>2015-04-27T15:32:39.0000000+00:00</time></trkpt><trkpt lat="34.9685015" lon="32.8240342"><ele>1156.3</ele><time>2015-04-27T15:34:02.0000000+00:00</time></trkpt><trkpt lat="34.9694779" lon="32.8241739"><ele>1155.8</ele><time>2015-04-27T15:35:05.0000000+00:00</time></trkpt><trkpt lat="34.9695296" lon="32.8245291"><ele>1152.4</ele><time>2015-04-27T15:36:40.0000000+00:00</time></trkpt><trkpt lat="34.9696632" lon="32.824454"><ele>1152.2</ele><time>2015-04-27T15:37:50.0000000+00:00</time></trkpt><trkpt lat="34.96864" lon="32.8255181"><ele>1155.8</ele><time>2015-04-27T15:40:27.0000000+00:00</time></trkpt><trkpt lat="34.967469" lon="32.8260084"><ele>1160.5</ele><time>2015-04-27T15:41:17.0000000+00:00</time></trkpt><trkpt lat="34.9653745" lon="32.827776"><ele>1169.4</ele><time>2015-04-27T15:42:53.0000000+00:00</time></trkpt><trkpt lat="34.9646885" lon="32.8281814"><ele>1170.8</ele><time>2015-04-27T15:43:29.0000000+00:00</time></trkpt><trkpt lat="34.9617573" lon="32.8288451"><ele>1160.9</ele><time>2015-04-27T15:44:49.0000000+00:00</time></trkpt><trkpt lat="34.9642102" lon="32.828927"><ele>1137.2</ele><time>2015-04-27T15:45:18.0000000+00:00</time></trkpt><trkpt lat="34.9650112" lon="32.8291328"><ele>1129.7</ele><time>2015-04-27T15:45:29.0000000+00:00</time></trkpt><trkpt lat="34.9670227" lon="32.827453"><ele>1118.1</ele><time>2015-04-27T15:46:06.0000000+00:00</time></trkpt><trkpt lat="34.9674617" lon="32.8274473"><ele>1110.1</ele><time>2015-04-27T15:46:17.0000000+00:00</time></trkpt><trkpt lat="34.9679543" lon="32.8277807"><ele>1106.9</ele><time>2015-04-27T15:47:37.0000000+00:00</time></trkpt></trkseg><trkseg><trkpt lat="34.96763949" lon="32.82751028"><ele>1107.9</ele><time>2015-04-28T07:44:53.0000000+00:00</time></trkpt><trkpt lat="34.96830108" lon="32.82800649"><ele>1105.7</ele><time>2015-04-28T07:47:38.0000000+00:00</time></trkpt><trkpt lat="34.96854315" lon="32.82784925"><ele>1108.6</ele><time>2015-04-28T07:47:50.0000000+00:00</time></trkpt><trkpt lat="34.96868514" lon="32.82699195"><ele>1110.2</ele><time>2015-04-28T07:48:12.0000000+00:00</time></trkpt><trkpt lat="34.96931202" lon="32.8268451"><ele>1098.1</ele><time>2015-04-28T07:48:38.0000000+00:00</time></trkpt><trkpt lat="34.96946583" lon="32.82616775"><ele>1101.9</ele><time>2015-04-28T07:48:52.0000000+00:00</time></trkpt><trkpt lat="34.96972994" lon="32.825922"><ele>1093.8</ele><time>2015-04-28T07:49:03.0000000+00:00</time></trkpt><trkpt lat="34.97067659" lon="32.8263276"><ele>1081.8</ele><time>2015-04-28T07:49:23.0000000+00:00</time></trkpt><trkpt lat="34.97131026" lon="32.82579811"><ele>1083.3</ele><time>2015-04-28T07:51:07.0000000+00:00</time></trkpt><trkpt lat="34.97193287" lon="32.82601655"><ele>1073.3</ele><time>2015-04-28T07:51:18.0000000+00:00</time></trkpt><trkpt lat="34.97260393" lon="32.82563265"><ele>1071.1</ele><time>2015-04-28T07:51:28.0000000+00:00</time></trkpt><trkpt lat="34.97333642" lon="32.82579317"><ele>1061.7</ele><time>2015-04-28T07:51:37.0000000+00:00</time></trkpt><trkpt lat="34.97390429" lon="32.82525312"><ele>1061.0</ele><time>2015-04-28T07:51:45.0000000+00:00</time></trkpt><trkpt lat="34.97462891" lon="32.82540358"><ele>1050.2</ele><time>2015-04-28T07:51:53.0000000+00:00</time></trkpt><trkpt lat="34.97498078" lon="32.82433731"><ele>1052.1</ele><time>2015-04-28T07:52:04.0000000+00:00</time></trkpt><trkpt lat="34.97579215" lon="32.82354908"><ele>1037.6</ele><time>2015-04-28T07:52:19.0000000+00:00</time></trkpt><trkpt lat="34.97519486" lon="32.82465524"><ele>1035.3</ele><time>2015-04-28T07:52:45.0000000+00:00</time></trkpt><trkpt lat="34.97522855" lon="32.82570734"><ele>1024.4</ele><time>2015-04-28T07:52:55.0000000+00:00</time></trkpt><trkpt lat="34.97509201" lon="32.82600531"><ele>1018.1</ele><time>2015-04-28T07:52:59.0000000+00:00</time></trkpt><trkpt lat="34.97418551" lon="32.82609165"><ele>1016.3</ele><time>2015-04-28T07:53:10.0000000+00:00</time></trkpt><trkpt lat="34.97360322" lon="32.82711944"><ele>1002.1</ele><time>2015-04-28T07:53:23.0000000+00:00</time></trkpt><trkpt lat="34.97289738" lon="32.82694585"><ele>1001.6</ele><time>2015-04-28T07:53:33.0000000+00:00</time></trkpt><trkpt lat="34.97198492" lon="32.82743812"><ele>1003.2</ele><time>2015-04-28T07:53:46.0000000+00:00</time></trkpt><trkpt lat="34.97154202" lon="32.8285462"><ele>987.4</ele><time>2015-04-28T07:53:58.0000000+00:00</time></trkpt><trkpt lat="34.97115" lon="32.82892347"><ele>988.5</ele><time>2015-04-28T07:54:04.0000000+00:00</time></trkpt><trkpt lat="34.97081263" lon="32.82980802"><ele>989.5</ele><time>2015-04-28T07:54:14.0000000+00:00</time></trkpt><trkpt lat="34.97142744" lon="32.83074922"><ele>973.8</ele><time>2015-04-28T07:54:28.0000000+00:00</time></trkpt><trkpt lat="34.97117473" lon="32.83145003"><ele>974.1</ele><time>2015-04-28T07:54:37.0000000+00:00</time></trkpt><trkpt lat="34.97146935" lon="32.83244513"><ele>965.2</ele><time>2015-04-28T07:54:50.0000000+00:00</time></trkpt><trkpt lat="34.97130247" lon="32.83152689"><ele>967.4</ele><time>2015-04-28T07:55:22.0000000+00:00</time></trkpt><trkpt lat="34.97181159" lon="32.83084352"><ele>953.7</ele><time>2015-04-28T07:56:22.0000000+00:00</time></trkpt><trkpt lat="34.97153171" lon="32.82992578"><ele>952.8</ele><time>2015-04-28T07:56:33.0000000+00:00</time></trkpt><trkpt lat="34.97278657" lon="32.82889833"><ele>935.3</ele><time>2015-04-28T07:56:51.0000000+00:00</time></trkpt><trkpt lat="34.97390924" lon="32.82940292"><ele>921.5</ele><time>2015-04-28T07:57:06.0000000+00:00</time></trkpt><trkpt lat="34.97431677" lon="32.82883756"><ele>921.1</ele><time>2015-04-28T07:57:14.0000000+00:00</time></trkpt><trkpt lat="34.97491247" lon="32.82883144"><ele>912.3</ele><time>2015-04-28T07:57:21.0000000+00:00</time></trkpt><trkpt lat="34.9753801" lon="32.82831662"><ele>908.7</ele><time>2015-04-28T07:57:29.0000000+00:00</time></trkpt><trkpt lat="34.97627755" lon="32.8289114"><ele>896.5</ele><time>2015-04-28T07:57:40.0000000+00:00</time></trkpt><trkpt lat="34.97682061" lon="32.82854687"><ele>898.6</ele><time>2015-04-28T07:57:48.0000000+00:00</time></trkpt><trkpt lat="34.97761915" lon="32.82883144"><ele>886.4</ele><time>2015-04-28T07:57:58.0000000+00:00</time></trkpt><trkpt lat="34.97785544" lon="32.82789753"><ele>890.0</ele><time>2015-04-28T07:58:07.0000000+00:00</time></trkpt><trkpt lat="34.97777749" lon="32.82696982"><ele>885.2</ele><time>2015-04-28T07:58:15.0000000+00:00</time></trkpt><trkpt lat="34.97808963" lon="32.82661082"><ele>875.2</ele><time>2015-04-28T07:58:21.0000000+00:00</time></trkpt><trkpt lat="34.97918255" lon="32.82724206"><ele>862.2</ele><time>2015-04-28T07:58:35.0000000+00:00</time></trkpt><trkpt lat="34.97977138" lon="32.82726335"><ele>860.3</ele><time>2015-04-28T07:58:42.0000000+00:00</time></trkpt><trkpt lat="34.98016072" lon="32.82800314"><ele>852.9</ele><time>2015-04-28T07:58:51.0000000+00:00</time></trkpt><trkpt lat="34.98108264" lon="32.82803038"><ele>842.7</ele><time>2015-04-28T07:59:01.0000000+00:00</time></trkpt><trkpt lat="34.98153225" lon="32.82835702"><ele>838.0</ele><time>2015-04-28T07:59:08.0000000+00:00</time></trkpt><trkpt lat="34.98220523" lon="32.82802192"><ele>840.2</ele><time>2015-04-28T07:59:17.0000000+00:00</time></trkpt><trkpt lat="34.98231947" lon="32.82730937"><ele>837.9</ele><time>2015-04-28T07:59:26.0000000+00:00</time></trkpt><trkpt lat="34.9831658" lon="32.82691659"><ele>826.8</ele><time>2015-04-28T07:59:41.0000000+00:00</time></trkpt><trkpt lat="34.98319798" lon="32.82593591"><ele>825.9</ele><time>2015-04-28T07:59:54.0000000+00:00</time></trkpt><trkpt lat="34.98371682" lon="32.82555286"><ele>818.8</ele><time>2015-04-28T08:00:07.0000000+00:00</time></trkpt><trkpt lat="34.98362454" lon="32.82502539"><ele>822.6</ele><time>2015-04-28T08:00:17.0000000+00:00</time></trkpt><trkpt lat="34.98319144" lon="32.82451065"><ele>828.2</ele><time>2015-04-28T08:01:48.0000000+00:00</time></trkpt><trkpt lat="34.98324852" lon="32.82381143"><ele>816.5</ele><time>2015-04-28T08:02:35.0000000+00:00</time></trkpt><trkpt lat="34.98146134" lon="32.82270452"><ele>849.1</ele><time>2015-04-28T08:05:17.0000000+00:00</time></trkpt><trkpt lat="34.982712" lon="32.82426314"><ele>848.8</ele><time>2015-04-28T08:10:54.0000000+00:00</time></trkpt><trkpt lat="34.98140627" lon="32.82265834"><ele>850.3</ele><time>2015-04-28T08:16:29.0000000+00:00</time></trkpt><trkpt lat="34.98093193" lon="32.82170238"><ele>844.3</ele><time>2015-04-28T08:17:28.0000000+00:00</time></trkpt><trkpt lat="34.98064041" lon="32.82143382"><ele>846.6</ele><time>2015-04-28T08:17:53.0000000+00:00</time></trkpt><trkpt lat="34.98006709" lon="32.82146995"><ele>852.5</ele><time>2015-04-28T08:18:42.0000000+00:00</time></trkpt><trkpt lat="34.97995242" lon="32.82025432"><ele>856.2</ele><time>2015-04-28T08:19:42.0000000+00:00</time></trkpt><trkpt lat="34.97965101" lon="32.8201332"><ele>860.4</ele><time>2015-04-28T08:19:57.0000000+00:00</time></trkpt><trkpt lat="34.9795138" lon="32.81970296"><ele>865.1</ele><time>2015-04-28T08:20:21.0000000+00:00</time></trkpt><trkpt lat="34.97852658" lon="32.81827385"><ele>887.3</ele><time>2015-04-28T08:22:08.0000000+00:00</time></trkpt><trkpt lat="34.97815233" lon="32.81817041"><ele>891.7</ele><time>2015-04-28T08:22:35.0000000+00:00</time></trkpt><trkpt lat="34.97749183" lon="32.81843453"><ele>904.1</ele><time>2015-04-28T08:23:23.0000000+00:00</time></trkpt><trkpt lat="34.97477425" lon="32.81763598"><ele>927.0</ele><time>2015-04-28T08:28:52.0000000+00:00</time></trkpt><trkpt lat="34.97311355" lon="32.81757245"><ele>937.3</ele><time>2015-04-28T08:31:06.0000000+00:00</time></trkpt><trkpt lat="34.97305295" lon="32.81718948"><ele>934.8</ele><time>2015-04-28T08:31:13.0000000+00:00</time></trkpt><trkpt lat="34.97349911" lon="32.81677424"><ele>941.3</ele><time>2015-04-28T08:34:01.0000000+00:00</time></trkpt><trkpt lat="34.97304448" lon="32.81720918"><ele>934.7</ele><time>2015-04-28T08:36:59.0000000+00:00</time></trkpt><trkpt lat="34.97319208" lon="32.81759282"><ele>936.7</ele><time>2015-04-28T08:37:05.0000000+00:00</time></trkpt><trkpt lat="34.97495681" lon="32.81766146"><ele>926.4</ele><time>2015-04-28T08:37:28.0000000+00:00</time></trkpt><trkpt lat="34.97750206" lon="32.81841047"><ele>902.9</ele><time>2015-04-28T08:37:54.0000000+00:00</time></trkpt><trkpt lat="34.97818007" lon="32.81816958"><ele>891.8</ele><time>2015-04-28T08:38:03.0000000+00:00</time></trkpt><trkpt lat="34.97855474" lon="32.81831534"><ele>887.1</ele><time>2015-04-28T08:38:08.0000000+00:00</time></trkpt><trkpt lat="34.97945638" lon="32.81959651"><ele>868.8</ele><time>2015-04-28T08:38:24.0000000+00:00</time></trkpt><trkpt lat="34.97965244" lon="32.82012742"><ele>860.3</ele><time>2015-04-28T08:38:30.0000000+00:00</time></trkpt><trkpt lat="34.98006156" lon="32.82036278"><ele>854.2</ele><time>2015-04-28T08:38:37.0000000+00:00</time></trkpt><trkpt lat="34.98011503" lon="32.8215505"><ele>851.9</ele><time>2015-04-28T08:38:53.0000000+00:00</time></trkpt><trkpt lat="34.98063555" lon="32.82144145"><ele>847.0</ele><time>2015-04-28T08:39:04.0000000+00:00</time></trkpt><trkpt lat="34.98096379" lon="32.82171805"><ele>843.0</ele><time>2015-04-28T08:39:10.0000000+00:00</time></trkpt><trkpt lat="34.98104584" lon="32.82218509"><ele>848.6</ele><time>2015-04-28T08:39:24.0000000+00:00</time></trkpt><trkpt lat="34.98136603" lon="32.82251107"><ele>846.4</ele><time>2015-04-28T08:41:12.0000000+00:00</time></trkpt><trkpt lat="34.98261024" lon="32.82349317"><ele>824.5</ele><time>2015-04-28T08:41:41.0000000+00:00</time></trkpt><trkpt lat="34.98328054" lon="32.8237878"><ele>814.7</ele><time>2015-04-28T08:42:01.0000000+00:00</time></trkpt><trkpt lat="34.98325137" lon="32.82453295"><ele>825.4</ele><time>2015-04-28T08:43:00.0000000+00:00</time></trkpt><trkpt lat="34.98334064" lon="32.82379836"><ele>811.9</ele><time>2015-04-28T08:43:18.0000000+00:00</time></trkpt><trkpt lat="34.98266498" lon="32.82288465"><ele>802.6</ele><time>2015-04-28T08:43:43.0000000+00:00</time></trkpt><trkpt lat="34.98267529" lon="32.82255842"><ele>796.8</ele><time>2015-04-28T08:43:54.0000000+00:00</time></trkpt><trkpt lat="34.98292875" lon="32.82242381"><ele>790.3</ele><time>2015-04-28T08:44:06.0000000+00:00</time></trkpt><trkpt lat="34.98371305" lon="32.82264233"><ele>786.2</ele><time>2015-04-28T08:44:33.0000000+00:00</time></trkpt><trkpt lat="34.98459726" lon="32.82321255"><ele>781.5</ele><time>2015-04-28T08:44:57.0000000+00:00</time></trkpt><trkpt lat="34.98503848" lon="32.82300166"><ele>783.7</ele><time>2015-04-28T08:45:10.0000000+00:00</time></trkpt><trkpt lat="34.98590056" lon="32.82416146"><ele>771.4</ele><time>2015-04-28T08:45:34.0000000+00:00</time></trkpt><trkpt lat="34.98597952" lon="32.82452666"><ele>767.8</ele><time>2015-04-28T08:46:43.0000000+00:00</time></trkpt><trkpt lat="34.98613399" lon="32.82456203"><ele>773.5</ele><time>2015-04-28T08:50:52.0000000+00:00</time></trkpt><trkpt lat="34.98602277" lon="32.8246104"><ele>767.3</ele><time>2015-04-28T09:09:40.0000000+00:00</time></trkpt><trkpt lat="34.98610089" lon="32.82445081"><ele>774.6</ele><time>2015-04-28T09:22:04.0000000+00:00</time></trkpt><trkpt lat="34.98636642" lon="32.82484911"><ele>769.6</ele><time>2015-04-28T09:22:32.0000000+00:00</time></trkpt><trkpt lat="34.98770032" lon="32.8244648"><ele>765.7</ele><time>2015-04-28T09:23:01.0000000+00:00</time></trkpt><trkpt lat="34.98837322" lon="32.82522144"><ele>756.4</ele><time>2015-04-28T09:23:16.0000000+00:00</time></trkpt><trkpt lat="34.98835503" lon="32.82694241"><ele>745.7</ele><time>2015-04-28T09:23:51.0000000+00:00</time></trkpt><trkpt lat="34.98903304" lon="32.8274905"><ele>740.7</ele><time>2015-04-28T09:24:15.0000000+00:00</time></trkpt><trkpt lat="34.98931702" lon="32.8275299"><ele>742.6</ele><time>2015-04-28T09:24:21.0000000+00:00</time></trkpt><trkpt lat="34.98966378" lon="32.82730342"><ele>743.4</ele><time>2015-04-28T09:25:33.0000000+00:00</time></trkpt><trkpt lat="34.98983435" lon="32.82671451"><ele>746.7</ele><time>2015-04-28T09:27:23.0000000+00:00</time></trkpt><trkpt lat="34.99046425" lon="32.82645802"><ele>736.2</ele><time>2015-04-28T09:28:22.0000000+00:00</time></trkpt><trkpt lat="34.99053491" lon="32.82756971"><ele>720.4</ele><time>2015-04-28T09:28:49.0000000+00:00</time></trkpt><trkpt lat="34.99196176" lon="32.82849968"><ele>714.6</ele><time>2015-04-28T09:30:59.0000000+00:00</time></trkpt><trkpt lat="34.99250223" lon="32.82834663"><ele>716.1</ele><time>2015-04-28T09:31:39.0000000+00:00</time></trkpt><trkpt lat="34.99213862" lon="32.82852684"><ele>712.7</ele><time>2015-04-28T09:32:00.0000000+00:00</time></trkpt><trkpt lat="34.99130907" lon="32.82823607"><ele>714.3</ele><time>2015-04-28T09:32:52.0000000+00:00</time></trkpt><trkpt lat="34.99154753" lon="32.82840849"><ele>710.9</ele><time>2015-04-28T09:33:13.0000000+00:00</time></trkpt><trkpt lat="34.99136824" lon="32.82837982"><ele>709.9</ele><time>2015-04-28T09:33:27.0000000+00:00</time></trkpt><trkpt lat="34.99134184" lon="32.8286255"><ele>702.1</ele><time>2015-04-28T09:33:49.0000000+00:00</time></trkpt><trkpt lat="34.99167133" lon="32.82934089"><ele>685.1</ele><time>2015-04-28T09:35:52.0000000+00:00</time></trkpt><trkpt lat="34.99219562" lon="32.82906949"><ele>679.8</ele><time>2015-04-28T09:38:31.0000000+00:00</time></trkpt><trkpt lat="34.99247356" lon="32.8292554"><ele>667.0</ele><time>2015-04-28T09:38:43.0000000+00:00</time></trkpt><trkpt lat="34.99235571" lon="32.82983392"><ele>669.2</ele><time>2015-04-28T09:43:05.0000000+00:00</time></trkpt><trkpt lat="34.99186495" lon="32.83024346"><ele>670.4</ele><time>2015-04-28T09:43:30.0000000+00:00</time></trkpt><trkpt lat="34.99111444" lon="32.8302059"><ele>674.6</ele><time>2015-04-28T09:45:33.0000000+00:00</time></trkpt><trkpt lat="34.99167318" lon="32.83032409"><ele>674.6</ele><time>2015-04-28T09:59:09.0000000+00:00</time></trkpt><trkpt lat="34.99224264" lon="32.82998228"><ele>670.8</ele><time>2015-04-28T10:00:02.0000000+00:00</time></trkpt><trkpt lat="34.99305275" lon="32.83045426"><ele>672.2</ele><time>2015-04-28T10:01:14.0000000+00:00</time></trkpt><trkpt lat="34.99275754" lon="32.8303204"><ele>678.4</ele><time>2015-04-28T10:01:37.0000000+00:00</time></trkpt><trkpt lat="34.99283834" lon="32.83062366"><ele>680.3</ele><time>2015-04-28T10:01:59.0000000+00:00</time></trkpt><trkpt lat="34.99254573" lon="32.83119338"><ele>692.9</ele><time>2015-04-28T10:02:48.0000000+00:00</time></trkpt><trkpt lat="34.99235747" lon="32.83206627"><ele>702.6</ele><time>2015-04-28T10:03:55.0000000+00:00</time></trkpt><trkpt lat="34.99271831" lon="32.83322037"><ele>692.9</ele><time>2015-04-28T10:05:21.0000000+00:00</time></trkpt><trkpt lat="34.99240693" lon="32.83261428"><ele>706.8</ele><time>2015-04-28T10:06:09.0000000+00:00</time></trkpt><trkpt lat="34.99238086" lon="32.83213349"><ele>702.0</ele><time>2015-04-28T10:06:59.0000000+00:00</time></trkpt><trkpt lat="34.99269971" lon="32.83089238"><ele>687.4</ele><time>2015-04-28T10:07:16.0000000+00:00</time></trkpt><trkpt lat="34.99261455" lon="32.83221697"><ele>691.0</ele><time>2015-04-28T10:08:03.0000000+00:00</time></trkpt><trkpt lat="34.99303909" lon="32.83297059"><ele>687.3</ele><time>2015-04-28T10:08:29.0000000+00:00</time></trkpt><trkpt lat="34.99343086" lon="32.8331415"><ele>677.2</ele><time>2015-04-28T10:08:37.0000000+00:00</time></trkpt><trkpt lat="34.99349071" lon="32.83293455"><ele>674.7</ele><time>2015-04-28T10:08:41.0000000+00:00</time></trkpt><trkpt lat="34.99326331" lon="32.83256851"><ele>673.7</ele><time>2015-04-28T10:08:53.0000000+00:00</time></trkpt><trkpt lat="34.99323766" lon="32.83210038"><ele>672.0</ele><time>2015-04-28T10:09:05.0000000+00:00</time></trkpt><trkpt lat="34.99328401" lon="32.83166762"><ele>670.5</ele><time>2015-04-28T10:09:18.0000000+00:00</time></trkpt><trkpt lat="34.99346833" lon="32.83142991"><ele>675.0</ele><time>2015-04-28T10:09:34.0000000+00:00</time></trkpt><trkpt lat="34.99412471" lon="32.83102741"><ele>672.1</ele><time>2015-04-28T10:09:59.0000000+00:00</time></trkpt><trkpt lat="34.9946371" lon="32.83116689"><ele>678.7</ele><time>2015-04-28T10:10:17.0000000+00:00</time></trkpt><trkpt lat="34.99480918" lon="32.83050396"><ele>655.7</ele><time>2015-04-28T10:10:29.0000000+00:00</time></trkpt><trkpt lat="34.9953587" lon="32.8299179"><ele>653.7</ele><time>2015-04-28T10:10:39.0000000+00:00</time></trkpt><trkpt lat="34.99691103" lon="32.82914157"><ele>645.6</ele><time>2015-04-28T10:11:00.0000000+00:00</time></trkpt><trkpt lat="34.99792683" lon="32.82929446"><ele>650.4</ele><time>2015-04-28T10:11:25.0000000+00:00</time></trkpt><trkpt lat="34.99794074" lon="32.82953275"><ele>661.8</ele><time>2015-04-28T10:15:25.0000000+00:00</time></trkpt><trkpt lat="34.99865698" lon="32.83050254"><ele>657.8</ele><time>2015-04-28T10:16:58.0000000+00:00</time></trkpt><trkpt lat="34.99896116" lon="32.83016332"><ele>648.5</ele><time>2015-04-28T10:17:17.0000000+00:00</time></trkpt><trkpt lat="34.99879704" lon="32.82948364"><ele>638.1</ele><time>2015-04-28T10:17:49.0000000+00:00</time></trkpt><trkpt lat="34.99922988" lon="32.82917812"><ele>646.9</ele><time>2015-04-28T10:18:00.0000000+00:00</time></trkpt><trkpt lat="34.99975995" lon="32.82917409"><ele>648.4</ele><time>2015-04-28T10:18:44.0000000+00:00</time></trkpt><trkpt lat="34.9998493" lon="32.82987608"><ele>651.0</ele><time>2015-04-28T10:19:14.0000000+00:00</time></trkpt><trkpt lat="35.00029254" lon="32.83024915"><ele>638.8</ele><time>2015-04-28T10:19:27.0000000+00:00</time></trkpt><trkpt lat="35.00026706" lon="32.82959134"><ele>627.4</ele><time>2015-04-28T10:19:43.0000000+00:00</time></trkpt><trkpt lat="35.00072437" lon="32.8274201"><ele>600.3</ele><time>2015-04-28T10:20:11.0000000+00:00</time></trkpt><trkpt lat="35.00185132" lon="32.82640236"><ele>601.2</ele><time>2015-04-28T10:20:31.0000000+00:00</time></trkpt><trkpt lat="35.00236077" lon="32.82647923"><ele>593.7</ele><time>2015-04-28T10:20:43.0000000+00:00</time></trkpt><trkpt lat="35.00385351" lon="32.82720862"><ele>592.1</ele><time>2015-04-28T10:21:21.0000000+00:00</time></trkpt><trkpt lat="35.00483293" lon="32.82675616"><ele>596.3</ele><time>2015-04-28T10:21:52.0000000+00:00</time></trkpt><trkpt lat="35.00595091" lon="32.82662373"><ele>591.6</ele><time>2015-04-28T10:22:29.0000000+00:00</time></trkpt><trkpt lat="35.00808159" lon="32.82587858"><ele>571.5</ele><time>2015-04-28T10:23:05.0000000+00:00</time></trkpt><trkpt lat="35.01331156" lon="32.82631318"><ele>530.1</ele><time>2015-04-28T10:23:47.0000000+00:00</time></trkpt><trkpt lat="35.01410943" lon="32.82609827"><ele>516.7</ele><time>2015-04-28T10:23:54.0000000+00:00</time></trkpt><trkpt lat="35.0155699" lon="32.82529403"><ele>505.6</ele><time>2015-04-28T10:24:08.0000000+00:00</time></trkpt><trkpt lat="35.01614071" lon="32.82521205"><ele>501.5</ele><time>2015-04-28T10:24:14.0000000+00:00</time></trkpt><trkpt lat="35.0191431" lon="32.82574363"><ele>500.7</ele><time>2015-04-28T10:27:54.0000000+00:00</time></trkpt><trkpt lat="35.02124025" lon="32.82574589"><ele>524.5</ele><time>2015-04-28T10:30:49.0000000+00:00</time></trkpt><trkpt lat="35.021987" lon="32.82532169"><ele>540.9</ele><time>2015-04-28T10:31:51.0000000+00:00</time></trkpt><trkpt lat="35.02184073" lon="32.82398854"><ele>568.1</ele><time>2015-04-28T10:33:22.0000000+00:00</time></trkpt><trkpt lat="35.02223401" lon="32.82423941"><ele>551.8</ele><time>2015-04-28T10:34:04.0000000+00:00</time></trkpt><trkpt lat="35.02287833" lon="32.82421988"><ele>563.1</ele><time>2015-04-28T10:34:57.0000000+00:00</time></trkpt><trkpt lat="35.02296257" lon="32.82458793"><ele>558.6</ele><time>2015-04-28T10:35:22.0000000+00:00</time></trkpt><trkpt lat="35.02316021" lon="32.82465499"><ele>566.8</ele><time>2015-04-28T10:35:35.0000000+00:00</time></trkpt><trkpt lat="35.02370143" lon="32.82449087"><ele>576.4</ele><time>2015-04-28T10:36:13.0000000+00:00</time></trkpt><trkpt lat="35.02451138" lon="32.82386407"><ele>581.7</ele><time>2015-04-28T10:36:59.0000000+00:00</time></trkpt><trkpt lat="35.02491253" lon="32.8240406"><ele>571.6</ele><time>2015-04-28T10:37:10.0000000+00:00</time></trkpt><trkpt lat="35.02525359" lon="32.82354372"><ele>580.1</ele><time>2015-04-28T10:37:22.0000000+00:00</time></trkpt><trkpt lat="35.02642572" lon="32.82279555"><ele>580.5</ele><time>2015-04-28T10:38:06.0000000+00:00</time></trkpt><trkpt lat="35.02678765" lon="32.8218955"><ele>595.0</ele><time>2015-04-28T10:39:08.0000000+00:00</time></trkpt><trkpt lat="35.02663476" lon="32.82133047"><ele>608.5</ele><time>2015-04-28T10:39:44.0000000+00:00</time></trkpt><trkpt lat="35.0264994" lon="32.82161605"><ele>614.1</ele><time>2015-04-28T10:42:45.0000000+00:00</time></trkpt><trkpt lat="35.0266061" lon="32.82159786"><ele>609.5</ele><time>2015-04-28T10:56:20.0000000+00:00</time></trkpt><trkpt lat="35.02658322" lon="32.8218504"><ele>604.5</ele><time>2015-04-28T10:58:00.0000000+00:00</time></trkpt><trkpt lat="35.02621349" lon="32.8220825"><ele>608.9</ele><time>2015-04-28T10:58:49.0000000+00:00</time></trkpt><trkpt lat="35.02612523" lon="32.82205392"><ele>611.8</ele><time>2015-04-28T10:59:02.0000000+00:00</time></trkpt><trkpt lat="35.02634358" lon="32.82159593"><ele>619.6</ele><time>2015-04-28T10:59:54.0000000+00:00</time></trkpt><trkpt lat="35.02522409" lon="32.82212709"><ele>627.3</ele><time>2015-04-28T11:01:59.0000000+00:00</time></trkpt><trkpt lat="35.02470282" lon="32.82213748"><ele>639.5</ele><time>2015-04-28T11:02:46.0000000+00:00</time></trkpt><trkpt lat="35.02457751" lon="32.82247595"><ele>634.3</ele><time>2015-04-28T11:03:01.0000000+00:00</time></trkpt><trkpt lat="35.02362063" lon="32.82297417"><ele>628.3</ele><time>2015-04-28T11:03:58.0000000+00:00</time></trkpt><trkpt lat="35.0224185" lon="32.82274048"><ele>625.6</ele><time>2015-04-28T11:05:02.0000000+00:00</time></trkpt><trkpt lat="35.0216156" lon="32.82170238"><ele>641.6</ele><time>2015-04-28T11:05:39.0000000+00:00</time></trkpt><trkpt lat="35.02097975" lon="32.82270569"><ele>635.2</ele><time>2015-04-28T11:06:09.0000000+00:00</time></trkpt><trkpt lat="35.02051706" lon="32.82379031"><ele>620.8</ele><time>2015-04-28T11:06:32.0000000+00:00</time></trkpt><trkpt lat="35.02028137" lon="32.82383381"><ele>616.8</ele><time>2015-04-28T11:06:43.0000000+00:00</time></trkpt><trkpt lat="35.01924461" lon="32.82346208"><ele>612.0</ele><time>2015-04-28T11:11:14.0000000+00:00</time></trkpt><trkpt lat="35.01794885" lon="32.82249422"><ele>615.6</ele><time>2015-04-28T11:12:18.0000000+00:00</time></trkpt><trkpt lat="35.0175233" lon="32.8205114"><ele>642.8</ele><time>2015-04-28T11:14:39.0000000+00:00</time></trkpt><trkpt lat="35.01706246" lon="32.82112537"><ele>632.4</ele><time>2015-04-28T11:15:04.0000000+00:00</time></trkpt><trkpt lat="35.01609385" lon="32.82183909"><ele>631.1</ele><time>2015-04-28T11:15:39.0000000+00:00</time></trkpt><trkpt lat="35.01576981" lon="32.82174102"><ele>631.3</ele><time>2015-04-28T11:16:05.0000000+00:00</time></trkpt><trkpt lat="35.01515499" lon="32.82068406"><ele>651.2</ele><time>2015-04-28T11:17:18.0000000+00:00</time></trkpt><trkpt lat="35.0147224" lon="32.82101666"><ele>660.6</ele><time>2015-04-28T11:17:43.0000000+00:00</time></trkpt><trkpt lat="35.01478611" lon="32.8214733"><ele>645.4</ele><time>2015-04-28T11:18:03.0000000+00:00</time></trkpt><trkpt lat="35.0144142" lon="32.82152418"><ele>651.6</ele><time>2015-04-28T11:19:52.0000000+00:00</time></trkpt><trkpt lat="35.01444647" lon="32.82133634"><ele>661.4</ele><time>2015-04-28T11:45:32.0000000+00:00</time></trkpt><trkpt lat="35.01377257" lon="32.82218643"><ele>641.7</ele><time>2015-04-28T11:49:04.0000000+00:00</time></trkpt><trkpt lat="35.01351633" lon="32.82219825"><ele>638.0</ele><time>2015-04-28T11:49:18.0000000+00:00</time></trkpt><trkpt lat="35.01301962" lon="32.82152846"><ele>647.4</ele><time>2015-04-28T11:50:08.0000000+00:00</time></trkpt><trkpt lat="35.01260882" lon="32.82131321"><ele>644.8</ele><time>2015-04-28T11:50:40.0000000+00:00</time></trkpt><trkpt lat="35.0124675" lon="32.82080317"><ele>663.3</ele><time>2015-04-28T11:51:11.0000000+00:00</time></trkpt><trkpt lat="35.01158925" lon="32.82122444"><ele>657.6</ele><time>2015-04-28T11:52:53.0000000+00:00</time></trkpt><trkpt lat="35.01133394" lon="32.82110156"><ele>655.4</ele><time>2015-04-28T11:53:11.0000000+00:00</time></trkpt><trkpt lat="35.01130535" lon="32.82073896"><ele>664.0</ele><time>2015-04-28T11:54:51.0000000+00:00</time></trkpt><trkpt lat="35.01114333" lon="32.82059723"><ele>669.6</ele><time>2015-04-28T11:55:07.0000000+00:00</time></trkpt><trkpt lat="35.01048242" lon="32.82068138"><ele>664.8</ele><time>2015-04-28T11:55:43.0000000+00:00</time></trkpt><trkpt lat="35.01039332" lon="32.81988543"><ele>670.7</ele><time>2015-04-28T11:56:15.0000000+00:00</time></trkpt><trkpt lat="35.01164901" lon="32.81888539"><ele>686.6</ele><time>2015-04-28T11:57:37.0000000+00:00</time></trkpt><trkpt lat="35.01155748" lon="32.81827485"><ele>675.3</ele><time>2015-04-28T11:58:30.0000000+00:00</time></trkpt><trkpt lat="35.01172478" lon="32.8177944"><ele>681.1</ele><time>2015-04-28T11:58:39.0000000+00:00</time></trkpt><trkpt lat="35.01149554" lon="32.81752031"><ele>682.5</ele><time>2015-04-28T11:58:50.0000000+00:00</time></trkpt><trkpt lat="35.01097586" lon="32.81797319"><ele>675.1</ele><time>2015-04-28T11:59:14.0000000+00:00</time></trkpt><trkpt lat="35.010597" lon="32.8177136"><ele>671.2</ele><time>2015-04-28T11:59:25.0000000+00:00</time></trkpt><trkpt lat="35.01035895" lon="32.8170946"><ele>681.1</ele><time>2015-04-28T12:03:50.0000000+00:00</time></trkpt><trkpt lat="35.00933812" lon="32.81795894"><ele>670.1</ele><time>2015-04-28T12:05:15.0000000+00:00</time></trkpt><trkpt lat="35.00892665" lon="32.81804997"><ele>656.2</ele><time>2015-04-28T12:05:25.0000000+00:00</time></trkpt><trkpt lat="35.00849063" lon="32.81745393"><ele>648.4</ele><time>2015-04-28T12:05:36.0000000+00:00</time></trkpt><trkpt lat="35.00848032" lon="32.81681539"><ele>655.5</ele><time>2015-04-28T12:05:45.0000000+00:00</time></trkpt><trkpt lat="35.00792879" lon="32.81662529"><ele>643.3</ele><time>2015-04-28T12:05:56.0000000+00:00</time></trkpt><trkpt lat="35.00723535" lon="32.81502033"><ele>649.4</ele><time>2015-04-28T12:06:35.0000000+00:00</time></trkpt><trkpt lat="35.00704885" lon="32.81569197"><ele>656.6</ele><time>2015-04-28T12:07:25.0000000+00:00</time></trkpt><trkpt lat="35.00703209" lon="32.81701732"><ele>663.0</ele><time>2015-04-28T12:08:11.0000000+00:00</time></trkpt><trkpt lat="35.0073708" lon="32.81923659"><ele>658.9</ele><time>2015-04-28T12:09:23.0000000+00:00</time></trkpt><trkpt lat="35.00685406" lon="32.81996054"><ele>667.4</ele><time>2015-04-28T12:09:50.0000000+00:00</time></trkpt><trkpt lat="35.00755881" lon="32.82034862"><ele>650.8</ele><time>2015-04-28T12:10:13.0000000+00:00</time></trkpt><trkpt lat="35.00727014" lon="32.82076537"><ele>659.4</ele><time>2015-04-28T12:10:28.0000000+00:00</time></trkpt><trkpt lat="35.00734985" lon="32.82201972"><ele>651.9</ele><time>2015-04-28T12:11:00.0000000+00:00</time></trkpt><trkpt lat="35.00719671" lon="32.82226791"><ele>645.0</ele><time>2015-04-28T12:11:07.0000000+00:00</time></trkpt><trkpt lat="35.00616247" lon="32.82267217"><ele>651.1</ele><time>2015-04-28T12:11:42.0000000+00:00</time></trkpt><trkpt lat="35.00556903" lon="32.8231698"><ele>652.0</ele><time>2015-04-28T12:12:06.0000000+00:00</time></trkpt><trkpt lat="35.00542721" lon="32.82368671"><ele>639.8</ele><time>2015-04-28T12:12:22.0000000+00:00</time></trkpt><trkpt lat="35.00481818" lon="32.82369979"><ele>634.5</ele><time>2015-04-28T12:12:37.0000000+00:00</time></trkpt><trkpt lat="35.00452691" lon="32.82352217"><ele>640.5</ele><time>2015-04-28T12:12:45.0000000+00:00</time></trkpt><trkpt lat="35.00404285" lon="32.82386365"><ele>646.1</ele><time>2015-04-28T12:12:56.0000000+00:00</time></trkpt><trkpt lat="35.00372887" lon="32.82439934"><ele>639.1</ele><time>2015-04-28T12:13:11.0000000+00:00</time></trkpt><trkpt lat="35.00335663" lon="32.82443773"><ele>633.2</ele><time>2015-04-28T12:13:24.0000000+00:00</time></trkpt><trkpt lat="35.00280602" lon="32.82405426"><ele>629.3</ele><time>2015-04-28T12:13:44.0000000+00:00</time></trkpt><trkpt lat="35.00172752" lon="32.82227579"><ele>619.2</ele><time>2015-04-28T12:14:40.0000000+00:00</time></trkpt><trkpt lat="35.00142233" lon="32.82209859"><ele>629.2</ele><time>2015-04-28T12:14:49.0000000+00:00</time></trkpt><trkpt lat="35.00117498" lon="32.82310274"><ele>634.1</ele><time>2015-04-28T12:16:07.0000000+00:00</time></trkpt><trkpt lat="35.00077617" lon="32.82328606"><ele>644.4</ele><time>2015-04-28T12:16:51.0000000+00:00</time></trkpt><trkpt lat="35.00100173" lon="32.82372049"><ele>645.8</ele><time>2015-04-28T12:17:27.0000000+00:00</time></trkpt><trkpt lat="35.00088095" lon="32.82407572"><ele>646.0</ele><time>2015-04-28T12:17:53.0000000+00:00</time></trkpt><trkpt lat="35.00042388" lon="32.82426557"><ele>652.2</ele><time>2015-04-28T12:18:24.0000000+00:00</time></trkpt><trkpt lat="34.99977596" lon="32.82500418"><ele>648.7</ele><time>2015-04-28T12:19:20.0000000+00:00</time></trkpt><trkpt lat="34.99869218" lon="32.8251403"><ele>663.9</ele><time>2015-04-28T12:20:19.0000000+00:00</time></trkpt><trkpt lat="34.99844726" lon="32.82566803"><ele>661.5</ele><time>2015-04-28T12:20:59.0000000+00:00</time></trkpt><trkpt lat="34.99806706" lon="32.82580976"><ele>673.0</ele><time>2015-04-28T12:24:19.0000000+00:00</time></trkpt><trkpt lat="34.99772047" lon="32.82631695"><ele>664.9</ele><time>2015-04-28T12:25:28.0000000+00:00</time></trkpt><trkpt lat="34.99714446" lon="32.82601202"><ele>685.8</ele><time>2015-04-28T12:26:17.0000000+00:00</time></trkpt><trkpt lat="34.99703458" lon="32.82660613"><ele>682.0</ele><time>2015-04-28T12:27:08.0000000+00:00</time></trkpt><trkpt lat="34.99677641" lon="32.82678802"><ele>677.9</ele><time>2015-04-28T12:28:55.0000000+00:00</time></trkpt><trkpt lat="34.99641306" lon="32.82656682"><ele>689.7</ele><time>2015-04-28T12:29:31.0000000+00:00</time></trkpt><trkpt lat="34.99576028" lon="32.82709043"><ele>692.2</ele><time>2015-04-28T12:30:39.0000000+00:00</time></trkpt><trkpt lat="34.99531394" lon="32.82694233"><ele>698.7</ele><time>2015-04-28T12:31:24.0000000+00:00</time></trkpt><trkpt lat="34.99505485" lon="32.82703009"><ele>703.3</ele><time>2015-04-28T12:31:45.0000000+00:00</time></trkpt><trkpt lat="34.99391156" lon="32.8282608"><ele>706.8</ele><time>2015-04-28T12:33:53.0000000+00:00</time></trkpt><trkpt lat="34.99325878" lon="32.82790449"><ele>711.8</ele><time>2015-04-28T12:34:36.0000000+00:00</time></trkpt><trkpt lat="34.99197308" lon="32.82853346"><ele>713.1</ele><time>2015-04-28T12:36:21.0000000+00:00</time></trkpt><trkpt lat="34.99052226" lon="32.82754457"><ele>720.4</ele><time>2015-04-28T12:38:28.0000000+00:00</time></trkpt><trkpt lat="34.99046886" lon="32.82637211"><ele>738.0</ele><time>2015-04-28T12:39:48.0000000+00:00</time></trkpt><trkpt lat="34.99065863" lon="32.82602493"><ele>745.6</ele><time>2015-04-28T12:49:00.0000000+00:00</time></trkpt><trkpt lat="34.99108393" lon="32.82561312"><ele>753.8</ele><time>2015-04-28T12:54:06.0000000+00:00</time></trkpt><trkpt lat="34.99128635" lon="32.82578537"><ele>756.4</ele><time>2015-04-28T12:54:40.0000000+00:00</time></trkpt><trkpt lat="34.99126724" lon="32.82639004"><ele>758.3</ele><time>2015-04-28T12:55:20.0000000+00:00</time></trkpt><trkpt lat="34.99134695" lon="32.82628929"><ele>760.7</ele><time>2015-04-28T12:55:34.0000000+00:00</time></trkpt><trkpt lat="34.99152314" lon="32.82561195"><ele>764.9</ele><time>2015-04-28T12:56:31.0000000+00:00</time></trkpt><trkpt lat="34.99152264" lon="32.82506621"><ele>769.7</ele><time>2015-04-28T12:57:12.0000000+00:00</time></trkpt><trkpt lat="34.99137579" lon="32.82482749"><ele>771.1</ele><time>2015-04-28T12:57:32.0000000+00:00</time></trkpt><trkpt lat="34.99104076" lon="32.8246689"><ele>780.5</ele><time>2015-04-28T12:57:50.0000000+00:00</time></trkpt><trkpt lat="34.99048739" lon="32.82527491"><ele>779.2</ele><time>2015-04-28T12:58:30.0000000+00:00</time></trkpt><trkpt lat="34.98993762" lon="32.82550458"><ele>786.8</ele><time>2015-04-28T12:59:01.0000000+00:00</time></trkpt><trkpt lat="34.98969337" lon="32.8257909"><ele>783.9</ele><time>2015-04-28T12:59:21.0000000+00:00</time></trkpt><trkpt lat="34.98915601" lon="32.8258883"><ele>784.6</ele><time>2015-04-28T12:59:46.0000000+00:00</time></trkpt><trkpt lat="34.98878779" lon="32.82532948"><ele>783.4</ele><time>2015-04-28T13:00:28.0000000+00:00</time></trkpt><trkpt lat="34.98889013" lon="32.82494701"><ele>791.6</ele><time>2015-04-28T13:00:55.0000000+00:00</time></trkpt><trkpt lat="34.98837288" lon="32.82333224"><ele>803.7</ele><time>2015-04-28T13:02:10.0000000+00:00</time></trkpt><trkpt lat="34.98711811" lon="32.82336116"><ele>817.3</ele><time>2015-04-28T13:03:39.0000000+00:00</time></trkpt><trkpt lat="34.98638202" lon="32.82367104"><ele>809.7</ele><time>2015-04-28T13:04:33.0000000+00:00</time></trkpt><trkpt lat="34.98626794" lon="32.82326284"><ele>823.2</ele><time>2015-04-28T13:14:17.0000000+00:00</time></trkpt><trkpt lat="34.98622687" lon="32.82339569"><ele>814.4</ele><time>2015-04-28T13:24:12.0000000+00:00</time></trkpt><trkpt lat="34.98602059" lon="32.82322353"><ele>815.0</ele><time>2015-04-28T13:25:12.0000000+00:00</time></trkpt><trkpt lat="34.98526982" lon="32.82207286"><ele>818.2</ele><time>2015-04-28T13:26:02.0000000+00:00</time></trkpt><trkpt lat="34.98470136" lon="32.82223019"><ele>813.3</ele><time>2015-04-28T13:26:33.0000000+00:00</time></trkpt><trkpt lat="34.98363401" lon="32.82169861"><ele>825.0</ele><time>2015-04-28T13:27:57.0000000+00:00</time></trkpt><trkpt lat="34.98331399" lon="32.8219509"><ele>813.9</ele><time>2015-04-28T13:28:11.0000000+00:00</time></trkpt><trkpt lat="34.98228125" lon="32.82207102"><ele>806.6</ele><time>2015-04-28T13:29:01.0000000+00:00</time></trkpt><trkpt lat="34.98147634" lon="32.82118538"><ele>811.6</ele><time>2015-04-28T13:29:41.0000000+00:00</time></trkpt><trkpt lat="34.98107526" lon="32.82196976"><ele>840.8</ele><time>2015-04-28T13:32:46.0000000+00:00</time></trkpt><trkpt lat="34.98099497" lon="32.82166625"><ele>840.2</ele><time>2015-04-28T13:33:05.0000000+00:00</time></trkpt><trkpt lat="34.98064863" lon="32.82142276"><ele>846.1</ele><time>2015-04-28T13:33:34.0000000+00:00</time></trkpt><trkpt lat="34.98016105" lon="32.82157389"><ele>852.1</ele><time>2015-04-28T13:34:20.0000000+00:00</time></trkpt><trkpt lat="34.98002459" lon="32.82029481"><ele>854.6</ele><time>2015-04-28T13:35:42.0000000+00:00</time></trkpt><trkpt lat="34.97962193" lon="32.82010412"><ele>860.8</ele><time>2015-04-28T13:36:12.0000000+00:00</time></trkpt><trkpt lat="34.97941598" lon="32.81950892"><ele>869.4</ele><time>2015-04-28T13:36:57.0000000+00:00</time></trkpt><trkpt lat="34.97846204" lon="32.8182114"><ele>887.8</ele><time>2015-04-28T13:39:06.0000000+00:00</time></trkpt><trkpt lat="34.97819725" lon="32.81814476"><ele>891.1</ele><time>2015-04-28T13:39:29.0000000+00:00</time></trkpt><trkpt lat="34.97752586" lon="32.81841801"><ele>902.9</ele><time>2015-04-28T13:40:27.0000000+00:00</time></trkpt><trkpt lat="34.97483871" lon="32.81760455"><ele>925.4</ele><time>2015-04-28T13:44:19.0000000+00:00</time></trkpt><trkpt lat="34.97328999" lon="32.81761813"><ele>937.0</ele><time>2015-04-28T13:45:43.0000000+00:00</time></trkpt><trkpt lat="34.97305378" lon="32.81743364"><ele>934.2</ele><time>2015-04-28T13:45:55.0000000+00:00</time></trkpt><trkpt lat="34.97304398" lon="32.81720717"><ele>934.7</ele><time>2015-04-28T13:46:04.0000000+00:00</time></trkpt><trkpt lat="34.97337439" lon="32.81684347"><ele>940.5</ele><time>2015-04-28T14:02:21.0000000+00:00</time></trkpt><trkpt lat="34.97193463" lon="32.8173686"><ele>961.4</ele><time>2015-04-28T14:11:27.0000000+00:00</time></trkpt><trkpt lat="34.97148771" lon="32.81698018"><ele>977.7</ele><time>2015-04-28T14:13:54.0000000+00:00</time></trkpt><trkpt lat="34.97114967" lon="32.81690869"><ele>986.5</ele><time>2015-04-28T14:16:43.0000000+00:00</time></trkpt><trkpt lat="34.97058179" lon="32.816315"><ele>1007.6</ele><time>2015-04-28T14:22:06.0000000+00:00</time></trkpt><trkpt lat="34.97102151" lon="32.81643704"><ele>1006.6</ele><time>2015-04-28T14:22:47.0000000+00:00</time></trkpt><trkpt lat="34.97119795" lon="32.81632958"><ele>1012.4</ele><time>2015-04-28T14:23:06.0000000+00:00</time></trkpt><trkpt lat="34.97109041" lon="32.81644693"><ele>1006.9</ele><time>2015-04-28T14:23:23.0000000+00:00</time></trkpt><trkpt lat="34.97017125" lon="32.81627233"><ele>1015.7</ele><time>2015-04-28T14:23:58.0000000+00:00</time></trkpt><trkpt lat="34.97008827" lon="32.81652354"><ele>1018.8</ele><time>2015-04-28T14:24:06.0000000+00:00</time></trkpt><trkpt lat="34.97037786" lon="32.81688329"><ele>1011.0</ele><time>2015-04-28T14:24:17.0000000+00:00</time></trkpt><trkpt lat="34.97025884" lon="32.81727179"><ele>1016.1</ele><time>2015-04-28T14:24:30.0000000+00:00</time></trkpt><trkpt lat="34.97106551" lon="32.81773807"><ele>1006.0</ele><time>2015-04-28T14:24:50.0000000+00:00</time></trkpt><trkpt lat="34.97115193" lon="32.81830201"><ele>1002.5</ele><time>2015-04-28T14:25:04.0000000+00:00</time></trkpt><trkpt lat="34.97103802" lon="32.81938738"><ele>999.0</ele><time>2015-04-28T14:26:07.0000000+00:00</time></trkpt><trkpt lat="34.97017728" lon="32.82073963"><ele>1016.4</ele><time>2015-04-28T14:36:51.0000000+00:00</time></trkpt><trkpt lat="34.97033645" lon="32.82097257"><ele>1016.7</ele><time>2015-04-28T14:37:04.0000000+00:00</time></trkpt><trkpt lat="34.97072353" lon="32.82073662"><ele>1010.4</ele><time>2015-04-28T14:37:26.0000000+00:00</time></trkpt><trkpt lat="34.97033729" lon="32.82095622"><ele>1016.4</ele><time>2015-04-28T14:38:15.0000000+00:00</time></trkpt><trkpt lat="34.97005843" lon="32.82070979"><ele>1019.0</ele><time>2015-04-28T14:43:23.0000000+00:00</time></trkpt><trkpt lat="34.96999724" lon="32.82096125"><ele>1022.6</ele><time>2015-04-28T14:44:51.0000000+00:00</time></trkpt><trkpt lat="34.97020989" lon="32.82110835"><ele>1022.9</ele><time>2015-04-28T14:45:18.0000000+00:00</time></trkpt><trkpt lat="34.97194326" lon="32.82091339"><ele>1038.5</ele><time>2015-04-28T14:47:53.0000000+00:00</time></trkpt><trkpt lat="34.97075438" lon="32.82150976"><ele>1047.7</ele><time>2015-04-28T14:51:10.0000000+00:00</time></trkpt><trkpt lat="34.97054122" lon="32.82197085"><ele>1063.5</ele><time>2015-04-28T14:54:36.0000000+00:00</time></trkpt><trkpt lat="34.96997025" lon="32.82240696"><ele>1076.6</ele><time>2015-04-28T14:56:18.0000000+00:00</time></trkpt><trkpt lat="34.96979289" lon="32.82221301"><ele>1070.3</ele><time>2015-04-28T14:56:42.0000000+00:00</time></trkpt><trkpt lat="34.96949382" lon="32.82222818"><ele>1076.9</ele><time>2015-04-28T15:00:01.0000000+00:00</time></trkpt><trkpt lat="34.96893039" lon="32.82146601"><ele>1077.5</ele><time>2015-04-28T15:00:45.0000000+00:00</time></trkpt><trkpt lat="34.96673869" lon="32.8216463"><ele>1109.1</ele><time>2015-04-28T15:06:15.0000000+00:00</time></trkpt><trkpt lat="34.9665625" lon="32.82141664"><ele>1109.8</ele><time>2015-04-28T15:06:49.0000000+00:00</time></trkpt><trkpt lat="34.96658756" lon="32.82101347"><ele>1105.9</ele><time>2015-04-28T15:07:07.0000000+00:00</time></trkpt><trkpt lat="34.96695268" lon="32.82105303"><ele>1100.1</ele><time>2015-04-28T15:07:34.0000000+00:00</time></trkpt><trkpt lat="34.96780043" lon="32.82034803"><ele>1102.5</ele><time>2015-04-28T15:08:24.0000000+00:00</time></trkpt><trkpt lat="34.96838188" lon="32.81924472"><ele>1106.3</ele><time>2015-04-28T15:09:11.0000000+00:00</time></trkpt><trkpt lat="34.96875898" lon="32.81909703"><ele>1106.6</ele><time>2015-04-28T15:09:31.0000000+00:00</time></trkpt><trkpt lat="34.96813159" lon="32.81914875"><ele>1116.1</ele><time>2015-04-28T15:10:21.0000000+00:00</time></trkpt><trkpt lat="34.96769456" lon="32.8199623"><ele>1120.0</ele><time>2015-04-28T15:11:25.0000000+00:00</time></trkpt><trkpt lat="34.96722274" lon="32.82019439"><ele>1121.1</ele><time>2015-04-28T15:11:55.0000000+00:00</time></trkpt><trkpt lat="34.96651858" lon="32.81938688"><ele>1125.6</ele><time>2015-04-28T15:12:50.0000000+00:00</time></trkpt><trkpt lat="34.96625757" lon="32.81928915"><ele>1129.6</ele><time>2015-04-28T15:13:02.0000000+00:00</time></trkpt><trkpt lat="34.96587485" lon="32.82028802"><ele>1146.4</ele><time>2015-04-28T15:13:38.0000000+00:00</time></trkpt><trkpt lat="34.96610904" lon="32.82207772"><ele>1141.2</ele><time>2015-04-28T15:14:16.0000000+00:00</time></trkpt><trkpt lat="34.96697732" lon="32.82256689"><ele>1141.6</ele><time>2015-04-28T15:14:38.0000000+00:00</time></trkpt><trkpt lat="34.9675405" lon="32.82249464"><ele>1142.4</ele><time>2015-04-28T15:15:05.0000000+00:00</time></trkpt><trkpt lat="34.96809564" lon="32.82265808"><ele>1142.3</ele><time>2015-04-28T15:15:34.0000000+00:00</time></trkpt><trkpt lat="34.96843603" lon="32.82398025"><ele>1157.6</ele><time>2015-04-28T15:16:46.0000000+00:00</time></trkpt><trkpt lat="34.9695763" lon="32.82428987"><ele>1156.1</ele><time>2015-04-28T15:17:57.0000000+00:00</time></trkpt><trkpt lat="34.96942517" lon="32.82461694"><ele>1153.4</ele><time>2015-04-28T15:19:00.0000000+00:00</time></trkpt><trkpt lat="34.96966666" lon="32.82448878"><ele>1151.4</ele><time>2015-04-28T15:19:21.0000000+00:00</time></trkpt><trkpt lat="34.97043435" lon="32.82477644"><ele>1147.5</ele><time>2015-04-28T15:19:54.0000000+00:00</time></trkpt><trkpt lat="34.97134161" lon="32.82433555"><ele>1146.0</ele><time>2015-04-28T15:20:08.0000000+00:00</time></trkpt><trkpt lat="34.97214778" lon="32.82426573"><ele>1137.0</ele><time>2015-04-28T15:20:22.0000000+00:00</time></trkpt><trkpt lat="34.9706144" lon="32.82518816"><ele>1126.5</ele><time>2015-04-28T15:20:55.0000000+00:00</time></trkpt><trkpt lat="34.96958619" lon="32.8252387"><ele>1125.1</ele><time>2015-04-28T15:21:12.0000000+00:00</time></trkpt><trkpt lat="34.96911597" lon="32.82581982"><ele>1129.3</ele><time>2015-04-28T15:21:22.0000000+00:00</time></trkpt><trkpt lat="34.96892033" lon="32.82635501"><ele>1122.3</ele><time>2015-04-28T15:21:30.0000000+00:00</time></trkpt><trkpt lat="34.96852697" lon="32.82673731"><ele>1120.3</ele><time>2015-04-28T15:21:45.0000000+00:00</time></trkpt><trkpt lat="34.96861548" lon="32.82779519"><ele>1108.3</ele><time>2015-04-28T15:22:06.0000000+00:00</time></trkpt><trkpt lat="34.96849311" lon="32.82804036"><ele>1104.8</ele><time>2015-04-28T15:22:16.0000000+00:00</time></trkpt><trkpt lat="34.96810779" lon="32.827935"><ele>1105.7</ele><time>2015-04-28T15:22:39.0000000+00:00</time></trkpt><trkpt lat="34.96775868" lon="32.82758472"><ele>1108.5</ele><time>2015-04-28T15:23:05.0000000+00:00</time></trkpt></trkseg><trkseg><trkpt lat="34.9676974" lon="32.8275838"><ele>1107.5</ele><time>2015-04-29T07:16:00.0000000+00:00</time></trkpt><trkpt lat="34.9678277" lon="32.8277035"><ele>1106.8</ele><time>2015-04-29T07:16:04.0000000+00:00</time></trkpt><trkpt lat="34.9673442" lon="32.8274366"><ele>1111.5</ele><time>2015-04-29T07:17:08.0000000+00:00</time></trkpt><trkpt lat="34.9668739" lon="32.8275366"><ele>1119.6</ele><time>2015-04-29T07:17:37.0000000+00:00</time></trkpt><trkpt lat="34.9649737" lon="32.8291194"><ele>1130.5</ele><time>2015-04-29T07:20:18.0000000+00:00</time></trkpt><trkpt lat="34.9642739" lon="32.8289322"><ele>1136.8</ele><time>2015-04-29T07:21:04.0000000+00:00</time></trkpt><trkpt lat="34.9619502" lon="32.8289705"><ele>1155.0</ele><time>2015-04-29T07:23:26.0000000+00:00</time></trkpt><trkpt lat="34.9617781" lon="32.8287776"><ele>1162.3</ele><time>2015-04-29T07:23:54.0000000+00:00</time></trkpt><trkpt lat="34.9622965" lon="32.828519"><ele>1166.3</ele><time>2015-04-29T07:24:29.0000000+00:00</time></trkpt><trkpt lat="34.9639068" lon="32.8282972"><ele>1171.7</ele><time>2015-04-29T07:26:00.0000000+00:00</time></trkpt><trkpt lat="34.9615512" lon="32.8279203"><ele>1192.0</ele><time>2015-04-29T07:28:48.0000000+00:00</time></trkpt><trkpt lat="34.9605726" lon="32.8271144"><ele>1205.5</ele><time>2015-04-29T07:30:09.0000000+00:00</time></trkpt><trkpt lat="34.9598185" lon="32.8270144"><ele>1217.0</ele><time>2015-04-29T07:31:03.0000000+00:00</time></trkpt><trkpt lat="34.9595723" lon="32.8271372"><ele>1224.5</ele><time>2015-04-29T07:31:20.0000000+00:00</time></trkpt><trkpt lat="34.9596074" lon="32.8278511"><ele>1224.9</ele><time>2015-04-29T07:31:56.0000000+00:00</time></trkpt><trkpt lat="34.9591353" lon="32.8283919"><ele>1236.8</ele><time>2015-04-29T07:32:38.0000000+00:00</time></trkpt><trkpt lat="34.9591627" lon="32.8289839"><ele>1230.7</ele><time>2015-04-29T07:33:17.0000000+00:00</time></trkpt><trkpt lat="34.9580516" lon="32.8293784"><ele>1243.5</ele><time>2015-04-29T07:34:32.0000000+00:00</time></trkpt><trkpt lat="34.9579998" lon="32.8297888"><ele>1256.1</ele><time>2015-04-29T07:34:55.0000000+00:00</time></trkpt><trkpt lat="34.9582825" lon="32.8303202"><ele>1254.3</ele><time>2015-04-29T07:35:29.0000000+00:00</time></trkpt><trkpt lat="34.9582905" lon="32.8307286"><ele>1250.9</ele><time>2015-04-29T07:35:52.0000000+00:00</time></trkpt><trkpt lat="34.9576491" lon="32.8311955"><ele>1262.1</ele><time>2015-04-29T07:36:40.0000000+00:00</time></trkpt><trkpt lat="34.9574329" lon="32.8319624"><ele>1273.9</ele><time>2015-04-29T07:41:58.0000000+00:00</time></trkpt><trkpt lat="34.9575174" lon="32.8321136"><ele>1272.7</ele><time>2015-04-29T07:42:21.0000000+00:00</time></trkpt><trkpt lat="34.9580565" lon="32.8321295"><ele>1267.7</ele><time>2015-04-29T07:42:54.0000000+00:00</time></trkpt><trkpt lat="34.9588517" lon="32.8330833"><ele>1282.5</ele><time>2015-04-29T07:43:53.0000000+00:00</time></trkpt><trkpt lat="34.9590502" lon="32.8342684"><ele>1285.3</ele><time>2015-04-29T07:44:50.0000000+00:00</time></trkpt><trkpt lat="34.9585566" lon="32.8354981"><ele>1298.2</ele><time>2015-04-29T07:46:07.0000000+00:00</time></trkpt><trkpt lat="34.9593406" lon="32.8360122"><ele>1304.0</ele><time>2015-04-29T07:47:06.0000000+00:00</time></trkpt><trkpt lat="34.9595276" lon="32.8367805"><ele>1306.8</ele><time>2015-04-29T07:47:52.0000000+00:00</time></trkpt><trkpt lat="34.9593346" lon="32.8372676"><ele>1308.3</ele><time>2015-04-29T07:48:31.0000000+00:00</time></trkpt><trkpt lat="34.9597507" lon="32.8376616"><ele>1305.9</ele><time>2015-04-29T07:49:14.0000000+00:00</time></trkpt><trkpt lat="34.9592589" lon="32.8372552"><ele>1308.7</ele><time>2015-04-29T07:50:24.0000000+00:00</time></trkpt><trkpt lat="34.9581748" lon="32.8370957"><ele>1315.3</ele><time>2015-04-29T07:51:28.0000000+00:00</time></trkpt><trkpt lat="34.9570288" lon="32.8365756"><ele>1336.1</ele><time>2015-04-29T07:53:02.0000000+00:00</time></trkpt><trkpt lat="34.9571854" lon="32.8359543"><ele>1337.5</ele><time>2015-04-29T07:55:51.0000000+00:00</time></trkpt><trkpt lat="34.9571019" lon="32.8352582"><ele>1347.4</ele><time>2015-04-29T07:56:21.0000000+00:00</time></trkpt><trkpt lat="34.9576328" lon="32.834474"><ele>1336.3</ele><time>2015-04-29T07:56:55.0000000+00:00</time></trkpt><trkpt lat="34.9574502" lon="32.8341798"><ele>1341.2</ele><time>2015-04-29T07:57:13.0000000+00:00</time></trkpt><trkpt lat="34.9562405" lon="32.8338585"><ele>1354.7</ele><time>2015-04-29T07:58:26.0000000+00:00</time></trkpt><trkpt lat="34.9548757" lon="32.8348583"><ele>1368.1</ele><time>2015-04-29T07:59:58.0000000+00:00</time></trkpt><trkpt lat="34.9543413" lon="32.834976"><ele>1377.8</ele><time>2015-04-29T08:00:25.0000000+00:00</time></trkpt><trkpt lat="34.9537737" lon="32.834686"><ele>1385.0</ele><time>2015-04-29T08:00:58.0000000+00:00</time></trkpt><trkpt lat="34.9535161" lon="32.8339258"><ele>1382.4</ele><time>2015-04-29T08:01:36.0000000+00:00</time></trkpt><trkpt lat="34.9526824" lon="32.8336466"><ele>1394.1</ele><time>2015-04-29T08:02:32.0000000+00:00</time></trkpt><trkpt lat="34.9525911" lon="32.8329974"><ele>1386.7</ele><time>2015-04-29T08:03:14.0000000+00:00</time></trkpt><trkpt lat="34.9507473" lon="32.8336076"><ele>1403.8</ele><time>2015-04-29T08:07:19.0000000+00:00</time></trkpt><trkpt lat="34.9504573" lon="32.8334105"><ele>1409.6</ele><time>2015-04-29T08:07:29.0000000+00:00</time></trkpt><trkpt lat="34.9499973" lon="32.8326281"><ele>1398.9</ele><time>2015-04-29T08:07:57.0000000+00:00</time></trkpt><trkpt lat="34.9494729" lon="32.8329275"><ele>1388.9</ele><time>2015-04-29T08:09:59.0000000+00:00</time></trkpt><trkpt lat="34.9498565" lon="32.8325954"><ele>1398.9</ele><time>2015-04-29T08:13:05.0000000+00:00</time></trkpt><trkpt lat="34.9503135" lon="32.8336728"><ele>1417.8</ele><time>2015-04-29T08:13:59.0000000+00:00</time></trkpt><trkpt lat="34.949553" lon="32.8357636"><ele>1421.0</ele><time>2015-04-29T08:15:55.0000000+00:00</time></trkpt><trkpt lat="34.9497124" lon="32.8369168"><ele>1428.4</ele><time>2015-04-29T08:16:23.0000000+00:00</time></trkpt><trkpt lat="34.9489972" lon="32.8373119"><ele>1434.6</ele><time>2015-04-29T08:16:39.0000000+00:00</time></trkpt><trkpt lat="34.9488436" lon="32.8369503"><ele>1432.8</ele><time>2015-04-29T08:16:49.0000000+00:00</time></trkpt><trkpt lat="34.9477694" lon="32.83627"><ele>1424.1</ele><time>2015-04-29T08:17:23.0000000+00:00</time></trkpt><trkpt lat="34.9471472" lon="32.836656"><ele>1415.7</ele><time>2015-04-29T08:17:42.0000000+00:00</time></trkpt><trkpt lat="34.9464919" lon="32.837448"><ele>1416.1</ele><time>2015-04-29T08:17:56.0000000+00:00</time></trkpt><trkpt lat="34.9458444" lon="32.8377916"><ele>1410.1</ele><time>2015-04-29T08:18:07.0000000+00:00</time></trkpt><trkpt lat="34.9456454" lon="32.8381883"><ele>1416.4</ele><time>2015-04-29T08:18:56.0000000+00:00</time></trkpt><trkpt lat="34.9459064" lon="32.8378209"><ele>1413.2</ele><time>2015-04-29T08:19:23.0000000+00:00</time></trkpt><trkpt lat="34.9463226" lon="32.8376004"><ele>1415.1</ele><time>2015-04-29T08:19:36.0000000+00:00</time></trkpt><trkpt lat="34.9460784" lon="32.8384192"><ele>1432.2</ele><time>2015-04-29T08:22:05.0000000+00:00</time></trkpt><trkpt lat="34.9453925" lon="32.8389525"><ele>1436.7</ele><time>2015-04-29T08:22:48.0000000+00:00</time></trkpt><trkpt lat="34.9449068" lon="32.8386819"><ele>1432.1</ele><time>2015-04-29T08:23:22.0000000+00:00</time></trkpt><trkpt lat="34.9429775" lon="32.8391325"><ele>1436.8</ele><time>2015-04-29T08:24:26.0000000+00:00</time></trkpt><trkpt lat="34.9425937" lon="32.8402571"><ele>1455.0</ele><time>2015-04-29T08:25:35.0000000+00:00</time></trkpt><trkpt lat="34.9420515" lon="32.8407482"><ele>1463.3</ele><time>2015-04-29T08:26:21.0000000+00:00</time></trkpt><trkpt lat="34.9413559" lon="32.84101"><ele>1450.0</ele><time>2015-04-29T08:27:09.0000000+00:00</time></trkpt><trkpt lat="34.9415694" lon="32.8421296"><ele>1458.5</ele><time>2015-04-29T08:27:58.0000000+00:00</time></trkpt><trkpt lat="34.9414544" lon="32.8430278"><ele>1472.2</ele><time>2015-04-29T08:28:44.0000000+00:00</time></trkpt><trkpt lat="34.9403021" lon="32.8424254"><ele>1462.3</ele><time>2015-04-29T08:30:03.0000000+00:00</time></trkpt><trkpt lat="34.9398124" lon="32.8427692"><ele>1463.1</ele><time>2015-04-29T08:30:17.0000000+00:00</time></trkpt><trkpt lat="34.9392671" lon="32.8428566"><ele>1459.7</ele><time>2015-04-29T08:30:29.0000000+00:00</time></trkpt><trkpt lat="34.9385191" lon="32.8422632"><ele>1448.7</ele><time>2015-04-29T08:30:51.0000000+00:00</time></trkpt><trkpt lat="34.9379243" lon="32.8426298"><ele>1446.8</ele><time>2015-04-29T08:31:10.0000000+00:00</time></trkpt><trkpt lat="34.9376949" lon="32.8425895"><ele>1453.2</ele><time>2015-04-29T08:31:15.0000000+00:00</time></trkpt><trkpt lat="34.9371556" lon="32.8410239"><ele>1444.3</ele><time>2015-04-29T08:31:42.0000000+00:00</time></trkpt><trkpt lat="34.9357339" lon="32.8397588"><ele>1452.1</ele><time>2015-04-29T08:32:41.0000000+00:00</time></trkpt><trkpt lat="34.9351372" lon="32.8395945"><ele>1443.3</ele><time>2015-04-29T08:33:06.0000000+00:00</time></trkpt><trkpt lat="34.9342485" lon="32.8407358"><ele>1456.9</ele><time>2015-04-29T08:35:19.0000000+00:00</time></trkpt><trkpt lat="34.9339227" lon="32.8406638"><ele>1456.4</ele><time>2015-04-29T08:35:31.0000000+00:00</time></trkpt><trkpt lat="34.9336623" lon="32.8408406"><ele>1463.2</ele><time>2015-04-29T08:35:41.0000000+00:00</time></trkpt><trkpt lat="34.9330945" lon="32.8407031"><ele>1458.9</ele><time>2015-04-29T08:35:59.0000000+00:00</time></trkpt><trkpt lat="34.93263" lon="32.840917"><ele>1448.9</ele><time>2015-04-29T08:36:10.0000000+00:00</time></trkpt><trkpt lat="34.9322819" lon="32.841277"><ele>1437.2</ele><time>2015-04-29T08:36:19.0000000+00:00</time></trkpt><trkpt lat="34.9318955" lon="32.8427241"><ele>1450.4</ele><time>2015-04-29T08:36:49.0000000+00:00</time></trkpt><trkpt lat="34.9307485" lon="32.8415668"><ele>1433.9</ele><time>2015-04-29T08:43:42.0000000+00:00</time></trkpt><trkpt lat="34.9299675" lon="32.841638"><ele>1442.2</ele><time>2015-04-29T08:44:12.0000000+00:00</time></trkpt><trkpt lat="34.9299702" lon="32.8410773"><ele>1436.8</ele><time>2015-04-29T08:44:32.0000000+00:00</time></trkpt><trkpt lat="34.9297914" lon="32.8406967"><ele>1443.2</ele><time>2015-04-29T08:44:42.0000000+00:00</time></trkpt><trkpt lat="34.9300047" lon="32.8402316"><ele>1436.5</ele><time>2015-04-29T08:44:54.0000000+00:00</time></trkpt><trkpt lat="34.9298524" lon="32.8392892"><ele>1446.5</ele><time>2015-04-29T08:45:24.0000000+00:00</time></trkpt><trkpt lat="34.9300174" lon="32.8382109"><ele>1443.7</ele><time>2015-04-29T08:46:02.0000000+00:00</time></trkpt><trkpt lat="34.9295093" lon="32.8373017"><ele>1441.9</ele><time>2015-04-29T08:46:20.0000000+00:00</time></trkpt><trkpt lat="34.9293873" lon="32.8365209"><ele>1430.9</ele><time>2015-04-29T08:46:33.0000000+00:00</time></trkpt><trkpt lat="34.9283826" lon="32.8362089"><ele>1417.8</ele><time>2015-04-29T08:46:58.0000000+00:00</time></trkpt><trkpt lat="34.9277898" lon="32.8368299"><ele>1411.8</ele><time>2015-04-29T08:47:14.0000000+00:00</time></trkpt><trkpt lat="34.9274358" lon="32.8368593"><ele>1410.3</ele><time>2015-04-29T08:47:20.0000000+00:00</time></trkpt><trkpt lat="34.9264239" lon="32.8361953"><ele>1396.0</ele><time>2015-04-29T08:48:25.0000000+00:00</time></trkpt><trkpt lat="34.9272641" lon="32.835857"><ele>1386.6</ele><time>2015-04-29T08:48:53.0000000+00:00</time></trkpt><trkpt lat="34.927432" lon="32.8356426"><ele>1383.2</ele><time>2015-04-29T08:48:58.0000000+00:00</time></trkpt><trkpt lat="34.9266652" lon="32.8347676"><ele>1367.0</ele><time>2015-04-29T08:49:20.0000000+00:00</time></trkpt><trkpt lat="34.9272021" lon="32.8345939"><ele>1359.6</ele><time>2015-04-29T08:49:33.0000000+00:00</time></trkpt><trkpt lat="34.9268686" lon="32.8341084"><ele>1350.1</ele><time>2015-04-29T08:49:46.0000000+00:00</time></trkpt><trkpt lat="34.927161" lon="32.8333885"><ele>1334.2</ele><time>2015-04-29T08:50:00.0000000+00:00</time></trkpt><trkpt lat="34.9271787" lon="32.8325818"><ele>1325.8</ele><time>2015-04-29T08:50:14.0000000+00:00</time></trkpt><trkpt lat="34.9266203" lon="32.8316809"><ele>1321.3</ele><time>2015-04-29T08:51:04.0000000+00:00</time></trkpt><trkpt lat="34.9254816" lon="32.8310812"><ele>1319.6</ele><time>2015-04-29T08:51:23.0000000+00:00</time></trkpt><trkpt lat="34.9243107" lon="32.8317783"><ele>1323.6</ele><time>2015-04-29T08:52:01.0000000+00:00</time></trkpt><trkpt lat="34.9242644" lon="32.8322874"><ele>1324.0</ele><time>2015-04-29T08:52:20.0000000+00:00</time></trkpt><trkpt lat="34.924463" lon="32.8329013"><ele>1335.8</ele><time>2015-04-29T08:52:41.0000000+00:00</time></trkpt><trkpt lat="34.9243692" lon="32.8332221"><ele>1338.9</ele><time>2015-04-29T08:52:53.0000000+00:00</time></trkpt><trkpt lat="34.9231975" lon="32.8345673"><ele>1348.4</ele><time>2015-04-29T08:53:52.0000000+00:00</time></trkpt><trkpt lat="34.922842" lon="32.8346468"><ele>1354.0</ele><time>2015-04-29T08:54:29.0000000+00:00</time></trkpt><trkpt lat="34.9222829" lon="32.8344306"><ele>1357.1</ele><time>2015-04-29T08:54:52.0000000+00:00</time></trkpt><trkpt lat="34.9216791" lon="32.8333374"><ele>1367.1</ele><time>2015-04-29T08:55:28.0000000+00:00</time></trkpt><trkpt lat="34.9199084" lon="32.8313457"><ele>1365.0</ele><time>2015-04-29T08:57:02.0000000+00:00</time></trkpt><trkpt lat="34.9196912" lon="32.8313262"><ele>1357.3</ele><time>2015-04-29T08:59:29.0000000+00:00</time></trkpt><trkpt lat="34.9195086" lon="32.832433"><ele>1368.8</ele><time>2015-04-29T09:00:07.0000000+00:00</time></trkpt><trkpt lat="34.9191387" lon="32.833"><ele>1380.3</ele><time>2015-04-29T09:00:27.0000000+00:00</time></trkpt><trkpt lat="34.9183969" lon="32.8331809"><ele>1390.2</ele><time>2015-04-29T09:00:51.0000000+00:00</time></trkpt><trkpt lat="34.9177573" lon="32.8325989"><ele>1385.2</ele><time>2015-04-29T09:01:24.0000000+00:00</time></trkpt><trkpt lat="34.9172732" lon="32.8329424"><ele>1401.7</ele><time>2015-04-29T09:01:42.0000000+00:00</time></trkpt><trkpt lat="34.9164476" lon="32.8329439"><ele>1405.2</ele><time>2015-04-29T09:02:06.0000000+00:00</time></trkpt><trkpt lat="34.9155739" lon="32.831784"><ele>1412.1</ele><time>2015-04-29T09:02:48.0000000+00:00</time></trkpt><trkpt lat="34.9154209" lon="32.8297422"><ele>1395.4</ele><time>2015-04-29T09:16:19.0000000+00:00</time></trkpt><trkpt lat="34.9146937" lon="32.8306607"><ele>1397.7</ele><time>2015-04-29T09:17:02.0000000+00:00</time></trkpt><trkpt lat="34.9146887" lon="32.8317125"><ele>1399.6</ele><time>2015-04-29T09:17:23.0000000+00:00</time></trkpt><trkpt lat="34.9140344" lon="32.8329256"><ele>1398.4</ele><time>2015-04-29T09:17:38.0000000+00:00</time></trkpt><trkpt lat="34.9127971" lon="32.8330689"><ele>1398.8</ele><time>2015-04-29T09:17:52.0000000+00:00</time></trkpt><trkpt lat="34.9115108" lon="32.8323438"><ele>1378.4</ele><time>2015-04-29T09:18:08.0000000+00:00</time></trkpt><trkpt lat="34.9108416" lon="32.8333263"><ele>1376.0</ele><time>2015-04-29T09:18:21.0000000+00:00</time></trkpt><trkpt lat="34.9101667" lon="32.8339722"><ele>1365.9</ele><time>2015-04-29T09:18:31.0000000+00:00</time></trkpt><trkpt lat="34.9103372" lon="32.8347667"><ele>1362.9</ele><time>2015-04-29T09:18:41.0000000+00:00</time></trkpt><trkpt lat="34.9100266" lon="32.8360419"><ele>1351.0</ele><time>2015-04-29T09:18:54.0000000+00:00</time></trkpt><trkpt lat="34.9120222" lon="32.8362376"><ele>1339.3</ele><time>2015-04-29T09:19:19.0000000+00:00</time></trkpt><trkpt lat="34.9121679" lon="32.8364518"><ele>1336.3</ele><time>2015-04-29T09:19:22.0000000+00:00</time></trkpt><trkpt lat="34.9122254" lon="32.8372395"><ele>1325.0</ele><time>2015-04-29T09:19:40.0000000+00:00</time></trkpt><trkpt lat="34.9118958" lon="32.8365707"><ele>1328.1</ele><time>2015-04-29T09:24:10.0000000+00:00</time></trkpt><trkpt lat="34.9112768" lon="32.836672"><ele>1323.4</ele><time>2015-04-29T09:24:23.0000000+00:00</time></trkpt><trkpt lat="34.9108102" lon="32.8370847"><ele>1310.3</ele><time>2015-04-29T09:24:34.0000000+00:00</time></trkpt><trkpt lat="34.9102972" lon="32.8369895"><ele>1313.0</ele><time>2015-04-29T09:24:47.0000000+00:00</time></trkpt><trkpt lat="34.9099642" lon="32.8373978"><ele>1301.8</ele><time>2015-04-29T09:24:59.0000000+00:00</time></trkpt><trkpt lat="34.9093242" lon="32.8377064"><ele>1293.7</ele><time>2015-04-29T09:25:09.0000000+00:00</time></trkpt><trkpt lat="34.9091167" lon="32.8376434"><ele>1288.0</ele><time>2015-04-29T09:25:21.0000000+00:00</time></trkpt><trkpt lat="34.9097772" lon="32.8376048"><ele>1296.0</ele><time>2015-04-29T09:26:00.0000000+00:00</time></trkpt><trkpt lat="34.9113771" lon="32.8370074"><ele>1308.2</ele><time>2015-04-29T09:27:29.0000000+00:00</time></trkpt><trkpt lat="34.911635" lon="32.8371636"><ele>1304.7</ele><time>2015-04-29T09:27:40.0000000+00:00</time></trkpt><trkpt lat="34.9118926" lon="32.8377451"><ele>1300.3</ele><time>2015-04-29T09:27:54.0000000+00:00</time></trkpt><trkpt lat="34.9133259" lon="32.8380417"><ele>1309.6</ele><time>2015-04-29T09:28:25.0000000+00:00</time></trkpt><trkpt lat="34.9119988" lon="32.8378424"><ele>1300.2</ele><time>2015-04-29T09:29:04.0000000+00:00</time></trkpt><trkpt lat="34.9116482" lon="32.8371526"><ele>1305.6</ele><time>2015-04-29T09:29:23.0000000+00:00</time></trkpt><trkpt lat="34.911359" lon="32.8370418"><ele>1306.8</ele><time>2015-04-29T09:29:30.0000000+00:00</time></trkpt><trkpt lat="34.9092006" lon="32.8377656"><ele>1288.2</ele><time>2015-04-29T09:30:17.0000000+00:00</time></trkpt><trkpt lat="34.9088023" lon="32.8372927"><ele>1281.3</ele><time>2015-04-29T09:31:38.0000000+00:00</time></trkpt><trkpt lat="34.9086121" lon="32.8362146"><ele>1269.3</ele><time>2015-04-29T09:31:54.0000000+00:00</time></trkpt><trkpt lat="34.9086691" lon="32.8357934"><ele>1275.5</ele><time>2015-04-29T09:32:01.0000000+00:00</time></trkpt><trkpt lat="34.9079973" lon="32.8354448"><ele>1263.2</ele><time>2015-04-29T09:32:15.0000000+00:00</time></trkpt><trkpt lat="34.9074789" lon="32.8349208"><ele>1250.9</ele><time>2015-04-29T09:32:27.0000000+00:00</time></trkpt><trkpt lat="34.9074753" lon="32.8337127"><ele>1252.4</ele><time>2015-04-29T09:32:45.0000000+00:00</time></trkpt><trkpt lat="34.9072318" lon="32.833208"><ele>1243.5</ele><time>2015-04-29T09:32:53.0000000+00:00</time></trkpt><trkpt lat="34.9073243" lon="32.8326759"><ele>1247.2</ele><time>2015-04-29T09:33:01.0000000+00:00</time></trkpt><trkpt lat="34.906828" lon="32.8322808"><ele>1238.7</ele><time>2015-04-29T09:33:13.0000000+00:00</time></trkpt><trkpt lat="34.9071878" lon="32.8318041"><ele>1235.7</ele><time>2015-04-29T09:33:32.0000000+00:00</time></trkpt><trkpt lat="34.9085131" lon="32.831086"><ele>1225.2</ele><time>2015-04-29T09:34:16.0000000+00:00</time></trkpt><trkpt lat="34.9079977" lon="32.8303479"><ele>1203.0</ele><time>2015-04-29T09:34:32.0000000+00:00</time></trkpt><trkpt lat="34.9086134" lon="32.8290491"><ele>1203.3</ele><time>2015-04-29T09:34:51.0000000+00:00</time></trkpt><trkpt lat="34.908271" lon="32.828399"><ele>1189.8</ele><time>2015-04-29T09:35:07.0000000+00:00</time></trkpt><trkpt lat="34.9081771" lon="32.8287092"><ele>1183.5</ele><time>2015-04-29T09:35:24.0000000+00:00</time></trkpt><trkpt lat="34.9082775" lon="32.8290298"><ele>1187.4</ele><time>2015-04-29T09:35:32.0000000+00:00</time></trkpt><trkpt lat="34.9075132" lon="32.8299233"><ele>1174.4</ele><time>2015-04-29T09:35:53.0000000+00:00</time></trkpt><trkpt lat="34.907428" lon="32.830415"><ele>1182.1</ele><time>2015-04-29T09:36:03.0000000+00:00</time></trkpt><trkpt lat="34.906503" lon="32.8304941"><ele>1175.0</ele><time>2015-04-29T09:36:23.0000000+00:00</time></trkpt><trkpt lat="34.9055561" lon="32.8297256"><ele>1146.4</ele><time>2015-04-29T09:36:41.0000000+00:00</time></trkpt><trkpt lat="34.905233" lon="32.8303947"><ele>1146.8</ele><time>2015-04-29T09:36:53.0000000+00:00</time></trkpt><trkpt lat="34.9045898" lon="32.8307288"><ele>1133.8</ele><time>2015-04-29T09:37:04.0000000+00:00</time></trkpt><trkpt lat="34.9040244" lon="32.8318569"><ele>1120.4</ele><time>2015-04-29T09:37:22.0000000+00:00</time></trkpt><trkpt lat="34.9044427" lon="32.8330696"><ele>1116.9</ele><time>2015-04-29T09:37:42.0000000+00:00</time></trkpt><trkpt lat="34.904578" lon="32.8337855"><ele>1117.4</ele><time>2015-04-29T09:37:55.0000000+00:00</time></trkpt><trkpt lat="34.9045001" lon="32.8342357"><ele>1128.9</ele><time>2015-04-29T09:38:07.0000000+00:00</time></trkpt><trkpt lat="34.9044415" lon="32.833011"><ele>1118.0</ele><time>2015-04-29T09:46:08.0000000+00:00</time></trkpt><trkpt lat="34.9042779" lon="32.8328456"><ele>1112.6</ele><time>2015-04-29T09:46:17.0000000+00:00</time></trkpt><trkpt lat="34.9040708" lon="32.8318765"><ele>1123.0</ele><time>2015-04-29T09:46:57.0000000+00:00</time></trkpt><trkpt lat="34.9041629" lon="32.8315567"><ele>1129.1</ele><time>2015-04-29T09:47:12.0000000+00:00</time></trkpt><trkpt lat="34.9044461" lon="32.8312805"><ele>1138.5</ele><time>2015-04-29T09:47:27.0000000+00:00</time></trkpt><trkpt lat="34.9046144" lon="32.8306774"><ele>1134.4</ele><time>2015-04-29T09:47:48.0000000+00:00</time></trkpt><trkpt lat="34.9052978" lon="32.8303571"><ele>1147.7</ele><time>2015-04-29T09:48:23.0000000+00:00</time></trkpt><trkpt lat="34.9055583" lon="32.8295625"><ele>1145.4</ele><time>2015-04-29T09:49:08.0000000+00:00</time></trkpt><trkpt lat="34.9058998" lon="32.8298323"><ele>1156.0</ele><time>2015-04-29T09:52:36.0000000+00:00</time></trkpt><trkpt lat="34.9064901" lon="32.8297603"><ele>1148.3</ele><time>2015-04-29T09:52:49.0000000+00:00</time></trkpt><trkpt lat="34.9066391" lon="32.8293213"><ele>1137.8</ele><time>2015-04-29T09:52:58.0000000+00:00</time></trkpt><trkpt lat="34.9065271" lon="32.8288329"><ele>1130.2</ele><time>2015-04-29T09:53:06.0000000+00:00</time></trkpt><trkpt lat="34.9069462" lon="32.8283769"><ele>1128.3</ele><time>2015-04-29T09:53:17.0000000+00:00</time></trkpt><trkpt lat="34.9067874" lon="32.8281285"><ele>1117.6</ele><time>2015-04-29T09:53:23.0000000+00:00</time></trkpt><trkpt lat="34.9068872" lon="32.827837"><ele>1118.7</ele><time>2015-04-29T09:53:30.0000000+00:00</time></trkpt><trkpt lat="34.906355" lon="32.8270353"><ele>1097.1</ele><time>2015-04-29T09:53:45.0000000+00:00</time></trkpt><trkpt lat="34.9063181" lon="32.8263813"><ele>1098.1</ele><time>2015-04-29T09:53:55.0000000+00:00</time></trkpt><trkpt lat="34.9060262" lon="32.8257712"><ele>1094.5</ele><time>2015-04-29T09:54:04.0000000+00:00</time></trkpt><trkpt lat="34.9050726" lon="32.8255196"><ele>1076.2</ele><time>2015-04-29T09:54:36.0000000+00:00</time></trkpt><trkpt lat="34.9045581" lon="32.8251648"><ele>1076.1</ele><time>2015-04-29T09:54:50.0000000+00:00</time></trkpt><trkpt lat="34.9049983" lon="32.824173"><ele>1073.2</ele><time>2015-04-29T09:55:09.0000000+00:00</time></trkpt><trkpt lat="34.9049846" lon="32.8238857"><ele>1067.0</ele><time>2015-04-29T09:55:14.0000000+00:00</time></trkpt><trkpt lat="34.9047951" lon="32.8237466"><ele>1056.4</ele><time>2015-04-29T09:55:20.0000000+00:00</time></trkpt><trkpt lat="34.9048425" lon="32.8233893"><ele>1062.2</ele><time>2015-04-29T09:55:27.0000000+00:00</time></trkpt><trkpt lat="34.904188" lon="32.8232657"><ele>1042.7</ele><time>2015-04-29T09:55:41.0000000+00:00</time></trkpt><trkpt lat="34.9037972" lon="32.8227848"><ele>1033.9</ele><time>2015-04-29T09:55:53.0000000+00:00</time></trkpt><trkpt lat="34.9043525" lon="32.8237912"><ele>1034.5</ele><time>2015-04-29T09:56:36.0000000+00:00</time></trkpt><trkpt lat="34.904344" lon="32.8240617"><ele>1037.1</ele><time>2015-04-29T09:56:40.0000000+00:00</time></trkpt><trkpt lat="34.9037166" lon="32.824941"><ele>1020.4</ele><time>2015-04-29T09:56:57.0000000+00:00</time></trkpt><trkpt lat="34.9035218" lon="32.8258126"><ele>1007.7</ele><time>2015-04-29T09:57:17.0000000+00:00</time></trkpt><trkpt lat="34.9034173" lon="32.8246204"><ele>1000.8</ele><time>2015-04-29T09:57:39.0000000+00:00</time></trkpt><trkpt lat="34.9032925" lon="32.8245225"><ele>997.8</ele><time>2015-04-29T09:57:44.0000000+00:00</time></trkpt><trkpt lat="34.9028345" lon="32.8258156"><ele>978.8</ele><time>2015-04-29T09:58:10.0000000+00:00</time></trkpt><trkpt lat="34.9031114" lon="32.8266877"><ele>982.9</ele><time>2015-04-29T09:58:24.0000000+00:00</time></trkpt><trkpt lat="34.9017519" lon="32.8275081"><ele>961.0</ele><time>2015-04-29T09:58:49.0000000+00:00</time></trkpt><trkpt lat="34.9015989" lon="32.8279184"><ele>965.1</ele><time>2015-04-29T09:58:58.0000000+00:00</time></trkpt><trkpt lat="34.9008716" lon="32.8274207"><ele>949.0</ele><time>2015-04-29T09:59:14.0000000+00:00</time></trkpt><trkpt lat="34.9001966" lon="32.8277147"><ele>949.1</ele><time>2015-04-29T09:59:27.0000000+00:00</time></trkpt><trkpt lat="34.8996132" lon="32.8269936"><ele>929.1</ele><time>2015-04-29T09:59:44.0000000+00:00</time></trkpt><trkpt lat="34.8991684" lon="32.8273088"><ele>931.8</ele><time>2015-04-29T09:59:55.0000000+00:00</time></trkpt><trkpt lat="34.8988394" lon="32.8270927"><ele>931.8</ele><time>2015-04-29T10:00:06.0000000+00:00</time></trkpt><trkpt lat="34.8984726" lon="32.8265023"><ele>917.4</ele><time>2015-04-29T10:00:14.0000000+00:00</time></trkpt><trkpt lat="34.8980715" lon="32.8263729"><ele>906.7</ele><time>2015-04-29T10:00:20.0000000+00:00</time></trkpt><trkpt lat="34.8979144" lon="32.8265342"><ele>900.4</ele><time>2015-04-29T10:00:24.0000000+00:00</time></trkpt><trkpt lat="34.8978857" lon="32.8270684"><ele>904.4</ele><time>2015-04-29T10:00:31.0000000+00:00</time></trkpt><trkpt lat="34.8975629" lon="32.8274792"><ele>900.2</ele><time>2015-04-29T10:00:39.0000000+00:00</time></trkpt><trkpt lat="34.8975796" lon="32.8279477"><ele>902.1</ele><time>2015-04-29T10:00:46.0000000+00:00</time></trkpt><trkpt lat="34.8968624" lon="32.8279235"><ele>902.5</ele><time>2015-04-29T10:01:06.0000000+00:00</time></trkpt><trkpt lat="34.8966618" lon="32.8284337"><ele>899.9</ele><time>2015-04-29T10:01:19.0000000+00:00</time></trkpt><trkpt lat="34.8960827" lon="32.8282267"><ele>894.3</ele><time>2015-04-29T10:01:34.0000000+00:00</time></trkpt><trkpt lat="34.8953732" lon="32.8286732"><ele>890.9</ele><time>2015-04-29T10:01:56.0000000+00:00</time></trkpt><trkpt lat="34.8952258" lon="32.8297633"><ele>890.3</ele><time>2015-04-29T10:02:15.0000000+00:00</time></trkpt><trkpt lat="34.8949017" lon="32.8303265"><ele>888.2</ele><time>2015-04-29T10:02:26.0000000+00:00</time></trkpt><trkpt lat="34.8947215" lon="32.8303648"><ele>881.6</ele><time>2015-04-29T10:02:38.0000000+00:00</time></trkpt><trkpt lat="34.8945664" lon="32.830813"><ele>882.8</ele><time>2015-04-29T10:03:04.0000000+00:00</time></trkpt><trkpt lat="34.8943275" lon="32.8319311"><ele>887.9</ele><time>2015-04-29T10:03:32.0000000+00:00</time></trkpt><trkpt lat="34.8944259" lon="32.8327368"><ele>897.7</ele><time>2015-04-29T10:03:58.0000000+00:00</time></trkpt><trkpt lat="34.8941483" lon="32.8332507"><ele>902.8</ele><time>2015-04-29T10:04:24.0000000+00:00</time></trkpt><trkpt lat="34.8934283" lon="32.8332664"><ele>898.8</ele><time>2015-04-29T10:04:48.0000000+00:00</time></trkpt><trkpt lat="34.8932369" lon="32.8345025"><ele>895.9</ele><time>2015-04-29T10:05:18.0000000+00:00</time></trkpt><trkpt lat="34.893406" lon="32.834863"><ele>896.9</ele><time>2015-04-29T10:05:28.0000000+00:00</time></trkpt><trkpt lat="34.8939051" lon="32.835154"><ele>899.2</ele><time>2015-04-29T10:05:38.0000000+00:00</time></trkpt><trkpt lat="34.8942853" lon="32.8356677"><ele>898.3</ele><time>2015-04-29T10:05:47.0000000+00:00</time></trkpt><trkpt lat="34.894737" lon="32.835901"><ele>898.5</ele><time>2015-04-29T10:05:55.0000000+00:00</time></trkpt><trkpt lat="34.8952392" lon="32.8358054"><ele>900.4</ele><time>2015-04-29T10:06:05.0000000+00:00</time></trkpt><trkpt lat="34.895281" lon="32.8360269"><ele>902.5</ele><time>2015-04-29T10:06:13.0000000+00:00</time></trkpt><trkpt lat="34.8949812" lon="32.8363587"><ele>911.8</ele><time>2015-04-29T10:27:00.0000000+00:00</time></trkpt><trkpt lat="34.8952288" lon="32.8358733"><ele>900.4</ele><time>2015-04-29T10:29:40.0000000+00:00</time></trkpt><trkpt lat="34.8956186" lon="32.8361859"><ele>909.4</ele><time>2015-04-29T10:35:34.0000000+00:00</time></trkpt><trkpt lat="34.8952089" lon="32.8360588"><ele>903.0</ele><time>2015-04-29T10:44:34.0000000+00:00</time></trkpt><trkpt lat="34.8949006" lon="32.836473"><ele>915.1</ele><time>2015-04-29T10:46:55.0000000+00:00</time></trkpt><trkpt lat="34.8939375" lon="32.8364664"><ele>908.2</ele><time>2015-04-29T10:48:03.0000000+00:00</time></trkpt><trkpt lat="34.8941337" lon="32.8372966"><ele>913.1</ele><time>2015-04-29T10:48:49.0000000+00:00</time></trkpt><trkpt lat="34.8939566" lon="32.8374361"><ele>915.7</ele><time>2015-04-29T10:48:57.0000000+00:00</time></trkpt><trkpt lat="34.8935258" lon="32.8373354"><ele>914.5</ele><time>2015-04-29T10:49:10.0000000+00:00</time></trkpt><trkpt lat="34.8927929" lon="32.8360821"><ele>910.2</ele><time>2015-04-29T10:49:49.0000000+00:00</time></trkpt><trkpt lat="34.8925258" lon="32.8360924"><ele>907.1</ele><time>2015-04-29T10:49:57.0000000+00:00</time></trkpt><trkpt lat="34.8924317" lon="32.8363541"><ele>908.8</ele><time>2015-04-29T10:50:05.0000000+00:00</time></trkpt><trkpt lat="34.8926147" lon="32.8369115"><ele>917.9</ele><time>2015-04-29T10:50:35.0000000+00:00</time></trkpt><trkpt lat="34.8924564" lon="32.8370974"><ele>922.6</ele><time>2015-04-29T10:50:58.0000000+00:00</time></trkpt><trkpt lat="34.8926493" lon="32.8371234"><ele>923.0</ele><time>2015-04-29T10:51:37.0000000+00:00</time></trkpt><trkpt lat="34.8923" lon="32.8370567"><ele>920.1</ele><time>2015-04-29T10:52:19.0000000+00:00</time></trkpt><trkpt lat="34.8921578" lon="32.8373942"><ele>917.5</ele><time>2015-04-29T10:52:37.0000000+00:00</time></trkpt><trkpt lat="34.8921885" lon="32.8384866"><ele>932.9</ele><time>2015-04-29T10:53:25.0000000+00:00</time></trkpt><trkpt lat="34.8923081" lon="32.8381365"><ele>927.1</ele><time>2015-04-29T10:54:35.0000000+00:00</time></trkpt><trkpt lat="34.8924078" lon="32.8385312"><ele>933.4</ele><time>2015-04-29T10:55:00.0000000+00:00</time></trkpt><trkpt lat="34.8922342" lon="32.8392072"><ele>945.9</ele><time>2015-04-29T10:55:37.0000000+00:00</time></trkpt><trkpt lat="34.8918915" lon="32.8391968"><ele>948.7</ele><time>2015-04-29T10:55:59.0000000+00:00</time></trkpt><trkpt lat="34.8914395" lon="32.8384257"><ele>949.6</ele><time>2015-04-29T10:56:45.0000000+00:00</time></trkpt><trkpt lat="34.8908034" lon="32.8389074"><ele>959.8</ele><time>2015-04-29T10:57:31.0000000+00:00</time></trkpt><trkpt lat="34.890436" lon="32.8389577"><ele>959.4</ele><time>2015-04-29T10:57:49.0000000+00:00</time></trkpt><trkpt lat="34.8901966" lon="32.8392723"><ele>966.3</ele><time>2015-04-29T10:58:10.0000000+00:00</time></trkpt><trkpt lat="34.8891155" lon="32.8388906"><ele>981.8</ele><time>2015-04-29T10:59:23.0000000+00:00</time></trkpt><trkpt lat="34.8888058" lon="32.8389596"><ele>983.9</ele><time>2015-04-29T10:59:44.0000000+00:00</time></trkpt><trkpt lat="34.888327" lon="32.8394199"><ele>986.0</ele><time>2015-04-29T11:00:30.0000000+00:00</time></trkpt><trkpt lat="34.8873002" lon="32.8392521"><ele>978.4</ele><time>2015-04-29T11:01:11.0000000+00:00</time></trkpt><trkpt lat="34.8858504" lon="32.8398308"><ele>971.5</ele><time>2015-04-29T11:01:33.0000000+00:00</time></trkpt><trkpt lat="34.884453" lon="32.8401348"><ele>960.1</ele><time>2015-04-29T11:01:48.0000000+00:00</time></trkpt><trkpt lat="34.8832936" lon="32.8411915"><ele>944.3</ele><time>2015-04-29T11:02:01.0000000+00:00</time></trkpt><trkpt lat="34.8811161" lon="32.8412234"><ele>930.5</ele><time>2015-04-29T11:02:24.0000000+00:00</time></trkpt><trkpt lat="34.8804265" lon="32.8416622"><ele>928.8</ele><time>2015-04-29T11:02:43.0000000+00:00</time></trkpt><trkpt lat="34.8801866" lon="32.8415825"><ele>922.7</ele><time>2015-04-29T11:02:52.0000000+00:00</time></trkpt><trkpt lat="34.8798913" lon="32.8418705"><ele>916.5</ele><time>2015-04-29T11:03:02.0000000+00:00</time></trkpt><trkpt lat="34.8798804" lon="32.8426514"><ele>920.9</ele><time>2015-04-29T11:17:20.0000000+00:00</time></trkpt><trkpt lat="34.8805161" lon="32.8439961"><ele>931.3</ele><time>2015-04-29T11:18:29.0000000+00:00</time></trkpt><trkpt lat="34.8805811" lon="32.8451637"><ele>938.2</ele><time>2015-04-29T11:19:20.0000000+00:00</time></trkpt><trkpt lat="34.8810446" lon="32.8463133"><ele>944.2</ele><time>2015-04-29T11:20:20.0000000+00:00</time></trkpt><trkpt lat="34.8811332" lon="32.849858"><ele>966.2</ele><time>2015-04-29T11:23:07.0000000+00:00</time></trkpt><trkpt lat="34.881361" lon="32.8511748"><ele>975.4</ele><time>2015-04-29T11:24:07.0000000+00:00</time></trkpt><trkpt lat="34.8807457" lon="32.8539772"><ele>988.7</ele><time>2015-04-29T11:25:42.0000000+00:00</time></trkpt><trkpt lat="34.8819789" lon="32.8560079"><ele>1005.2</ele><time>2015-04-29T11:27:23.0000000+00:00</time></trkpt><trkpt lat="34.8819803" lon="32.857439"><ele>1011.7</ele><time>2015-04-29T11:28:10.0000000+00:00</time></trkpt><trkpt lat="34.881569" lon="32.8587236"><ele>1020.2</ele><time>2015-04-29T11:28:50.0000000+00:00</time></trkpt><trkpt lat="34.8816623" lon="32.8592408"><ele>1022.1</ele><time>2015-04-29T11:29:11.0000000+00:00</time></trkpt><trkpt lat="34.8825609" lon="32.8599754"><ele>1028.2</ele><time>2015-04-29T11:30:21.0000000+00:00</time></trkpt><trkpt lat="34.883459" lon="32.8596685"><ele>1033.1</ele><time>2015-04-29T11:31:06.0000000+00:00</time></trkpt><trkpt lat="34.8837362" lon="32.8605464"><ele>1038.8</ele><time>2015-04-29T11:32:43.0000000+00:00</time></trkpt><trkpt lat="34.8848913" lon="32.8621737"><ele>1056.4</ele><time>2015-04-29T11:34:49.0000000+00:00</time></trkpt><trkpt lat="34.885009" lon="32.8630562"><ele>1059.5</ele><time>2015-04-29T11:35:45.0000000+00:00</time></trkpt><trkpt lat="34.8848995" lon="32.8634268"><ele>1051.5</ele><time>2015-04-29T11:35:59.0000000+00:00</time></trkpt><trkpt lat="34.8862092" lon="32.8638582"><ele>1067.0</ele><time>2015-04-29T11:37:28.0000000+00:00</time></trkpt><trkpt lat="34.887758" lon="32.8640564"><ele>1087.3</ele><time>2015-04-29T11:39:22.0000000+00:00</time></trkpt><trkpt lat="34.8881975" lon="32.8644237"><ele>1093.0</ele><time>2015-04-29T11:39:58.0000000+00:00</time></trkpt><trkpt lat="34.8886699" lon="32.8645483"><ele>1101.6</ele><time>2015-04-29T11:41:03.0000000+00:00</time></trkpt><trkpt lat="34.8890312" lon="32.8651532"><ele>1106.1</ele><time>2015-04-29T11:43:07.0000000+00:00</time></trkpt><trkpt lat="34.8899837" lon="32.865823"><ele>1116.8</ele><time>2015-04-29T11:45:52.0000000+00:00</time></trkpt><trkpt lat="34.8897462" lon="32.8657368"><ele>1112.5</ele><time>2015-04-29T11:54:07.0000000+00:00</time></trkpt><trkpt lat="34.892388" lon="32.8674584"><ele>1137.3</ele><time>2015-04-29T11:59:49.0000000+00:00</time></trkpt><trkpt lat="34.8924848" lon="32.8674462"><ele>1140.2</ele><time>2015-04-29T11:59:59.0000000+00:00</time></trkpt><trkpt lat="34.8920309" lon="32.8671716"><ele>1133.0</ele><time>2015-04-29T12:00:26.0000000+00:00</time></trkpt><trkpt lat="34.8919356" lon="32.8668718"><ele>1136.0</ele><time>2015-04-29T12:00:32.0000000+00:00</time></trkpt><trkpt lat="34.8925839" lon="32.8658106"><ele>1159.0</ele><time>2015-04-29T12:01:51.0000000+00:00</time></trkpt><trkpt lat="34.8926703" lon="32.8659701"><ele>1157.4</ele><time>2015-04-29T12:01:57.0000000+00:00</time></trkpt><trkpt lat="34.8923393" lon="32.8666415"><ele>1155.7</ele><time>2015-04-29T12:02:34.0000000+00:00</time></trkpt><trkpt lat="34.8924285" lon="32.8668952"><ele>1154.2</ele><time>2015-04-29T12:02:49.0000000+00:00</time></trkpt><trkpt lat="34.8947232" lon="32.8674004"><ele>1178.7</ele><time>2015-04-29T12:04:30.0000000+00:00</time></trkpt><trkpt lat="34.8956944" lon="32.8686191"><ele>1193.9</ele><time>2015-04-29T12:06:23.0000000+00:00</time></trkpt><trkpt lat="34.8959403" lon="32.8691974"><ele>1203.9</ele><time>2015-04-29T12:07:10.0000000+00:00</time></trkpt><trkpt lat="34.8957958" lon="32.8688761"><ele>1195.1</ele><time>2015-04-29T12:12:38.0000000+00:00</time></trkpt><trkpt lat="34.8958402" lon="32.8685075"><ele>1196.9</ele><time>2015-04-29T12:12:50.0000000+00:00</time></trkpt><trkpt lat="34.8968928" lon="32.8687754"><ele>1197.9</ele><time>2015-04-29T12:14:33.0000000+00:00</time></trkpt><trkpt lat="34.8959523" lon="32.8685189"><ele>1199.2</ele><time>2015-04-29T12:15:17.0000000+00:00</time></trkpt><trkpt lat="34.8957705" lon="32.8687957"><ele>1194.6</ele><time>2015-04-29T12:15:25.0000000+00:00</time></trkpt><trkpt lat="34.8959838" lon="32.8691444"><ele>1202.9</ele><time>2015-04-29T12:15:35.0000000+00:00</time></trkpt><trkpt lat="34.8951519" lon="32.8696673"><ele>1214.9</ele><time>2015-04-29T12:19:28.0000000+00:00</time></trkpt><trkpt lat="34.8942578" lon="32.8690263"><ele>1219.7</ele><time>2015-04-29T12:20:20.0000000+00:00</time></trkpt><trkpt lat="34.8939058" lon="32.8691059"><ele>1217.6</ele><time>2015-04-29T12:20:34.0000000+00:00</time></trkpt><trkpt lat="34.8927048" lon="32.8705937"><ele>1222.8</ele><time>2015-04-29T12:21:22.0000000+00:00</time></trkpt><trkpt lat="34.8920976" lon="32.8705213"><ele>1217.7</ele><time>2015-04-29T12:21:41.0000000+00:00</time></trkpt><trkpt lat="34.891944" lon="32.8709154"><ele>1211.8</ele><time>2015-04-29T12:21:53.0000000+00:00</time></trkpt><trkpt lat="34.8920165" lon="32.8718193"><ele>1216.6</ele><time>2015-04-29T12:22:09.0000000+00:00</time></trkpt><trkpt lat="34.8911824" lon="32.8717047"><ele>1207.6</ele><time>2015-04-29T12:22:27.0000000+00:00</time></trkpt><trkpt lat="34.8907768" lon="32.8718901"><ele>1201.2</ele><time>2015-04-29T12:22:40.0000000+00:00</time></trkpt><trkpt lat="34.8910855" lon="32.8727845"><ele>1208.8</ele><time>2015-04-29T12:23:32.0000000+00:00</time></trkpt><trkpt lat="34.8906841" lon="32.8743737"><ele>1194.0</ele><time>2015-04-29T12:23:57.0000000+00:00</time></trkpt><trkpt lat="34.8910479" lon="32.8751448"><ele>1206.7</ele><time>2015-04-29T12:24:13.0000000+00:00</time></trkpt><trkpt lat="34.8902465" lon="32.875427"><ele>1198.6</ele><time>2015-04-29T12:24:33.0000000+00:00</time></trkpt><trkpt lat="34.8899777" lon="32.8761633"><ele>1201.8</ele><time>2015-04-29T12:24:53.0000000+00:00</time></trkpt><trkpt lat="34.8893732" lon="32.8765438"><ele>1190.3</ele><time>2015-04-29T12:25:07.0000000+00:00</time></trkpt><trkpt lat="34.8893896" lon="32.8767499"><ele>1183.0</ele><time>2015-04-29T12:25:19.0000000+00:00</time></trkpt><trkpt lat="34.8900794" lon="32.87701"><ele>1194.0</ele><time>2015-04-29T12:25:43.0000000+00:00</time></trkpt><trkpt lat="34.890202" lon="32.8773506"><ele>1190.1</ele><time>2015-04-29T12:25:49.0000000+00:00</time></trkpt><trkpt lat="34.8900036" lon="32.8778457"><ele>1182.5</ele><time>2015-04-29T12:25:57.0000000+00:00</time></trkpt><trkpt lat="34.8900373" lon="32.8792089"><ele>1175.1</ele><time>2015-04-29T12:26:14.0000000+00:00</time></trkpt><trkpt lat="34.890704" lon="32.880012"><ele>1179.3</ele><time>2015-04-29T12:26:31.0000000+00:00</time></trkpt><trkpt lat="34.8903951" lon="32.8814294"><ele>1159.0</ele><time>2015-04-29T12:26:50.0000000+00:00</time></trkpt><trkpt lat="34.8904527" lon="32.8809859"><ele>1166.3</ele><time>2015-04-29T12:27:37.0000000+00:00</time></trkpt><trkpt lat="34.8903813" lon="32.8812366"><ele>1161.7</ele><time>2015-04-29T12:27:48.0000000+00:00</time></trkpt><trkpt lat="34.8904356" lon="32.881571"><ele>1157.5</ele><time>2015-04-29T12:27:53.0000000+00:00</time></trkpt><trkpt lat="34.8911195" lon="32.8820055"><ele>1160.5</ele><time>2015-04-29T12:31:41.0000000+00:00</time></trkpt><trkpt lat="34.8926323" lon="32.881899"><ele>1159.7</ele><time>2015-04-29T12:32:07.0000000+00:00</time></trkpt><trkpt lat="34.8927661" lon="32.8820709"><ele>1157.7</ele><time>2015-04-29T12:32:11.0000000+00:00</time></trkpt><trkpt lat="34.8927476" lon="32.8824032"><ele>1156.6</ele><time>2015-04-29T12:32:18.0000000+00:00</time></trkpt><trkpt lat="34.8925488" lon="32.8831674"><ele>1154.6</ele><time>2015-04-29T12:32:39.0000000+00:00</time></trkpt><trkpt lat="34.8930498" lon="32.8836282"><ele>1164.0</ele><time>2015-04-29T12:33:17.0000000+00:00</time></trkpt><trkpt lat="34.8920922" lon="32.885111"><ele>1155.8</ele><time>2015-04-29T12:37:54.0000000+00:00</time></trkpt><trkpt lat="34.8920087" lon="32.8856508"><ele>1153.8</ele><time>2015-04-29T12:38:05.0000000+00:00</time></trkpt><trkpt lat="34.8922157" lon="32.8861704"><ele>1160.2</ele><time>2015-04-29T12:39:12.0000000+00:00</time></trkpt><trkpt lat="34.8919438" lon="32.8867659"><ele>1167.8</ele><time>2015-04-29T12:39:28.0000000+00:00</time></trkpt><trkpt lat="34.8917338" lon="32.8868975"><ele>1170.3</ele><time>2015-04-29T12:39:36.0000000+00:00</time></trkpt><trkpt lat="34.8912095" lon="32.8866897"><ele>1159.1</ele><time>2015-04-29T12:39:52.0000000+00:00</time></trkpt><trkpt lat="34.8908867" lon="32.8867522"><ele>1153.0</ele><time>2015-04-29T12:39:59.0000000+00:00</time></trkpt><trkpt lat="34.8911294" lon="32.887711"><ele>1164.3</ele><time>2015-04-29T12:40:20.0000000+00:00</time></trkpt><trkpt lat="34.8906195" lon="32.8883323"><ele>1154.7</ele><time>2015-04-29T12:40:36.0000000+00:00</time></trkpt><trkpt lat="34.8906682" lon="32.8887754"><ele>1157.2</ele><time>2015-04-29T12:40:44.0000000+00:00</time></trkpt><trkpt lat="34.8903508" lon="32.8894069"><ele>1155.2</ele><time>2015-04-29T12:40:57.0000000+00:00</time></trkpt><trkpt lat="34.8903372" lon="32.8897314"><ele>1151.8</ele><time>2015-04-29T12:41:03.0000000+00:00</time></trkpt><trkpt lat="34.8906632" lon="32.8901192"><ele>1154.3</ele><time>2015-04-29T12:41:11.0000000+00:00</time></trkpt><trkpt lat="34.890791" lon="32.8906747"><ele>1153.0</ele><time>2015-04-29T12:41:22.0000000+00:00</time></trkpt><trkpt lat="34.891102" lon="32.8908766"><ele>1150.8</ele><time>2015-04-29T12:41:33.0000000+00:00</time></trkpt><trkpt lat="34.8919512" lon="32.8910427"><ele>1155.0</ele><time>2015-04-29T12:41:51.0000000+00:00</time></trkpt><trkpt lat="34.8924672" lon="32.8914533"><ele>1152.9</ele><time>2015-04-29T12:42:07.0000000+00:00</time></trkpt><trkpt lat="34.8938837" lon="32.8914461"><ele>1155.2</ele><time>2015-04-29T12:42:41.0000000+00:00</time></trkpt><trkpt lat="34.8941071" lon="32.8918622"><ele>1156.5</ele><time>2015-04-29T12:42:53.0000000+00:00</time></trkpt><trkpt lat="34.8942436" lon="32.8927449"><ele>1152.4</ele><time>2015-04-29T12:43:08.0000000+00:00</time></trkpt><trkpt lat="34.8941121" lon="32.893195"><ele>1153.4</ele><time>2015-04-29T12:43:16.0000000+00:00</time></trkpt><trkpt lat="34.8936166" lon="32.89378"><ele>1146.3</ele><time>2015-04-29T12:43:35.0000000+00:00</time></trkpt><trkpt lat="34.8935862" lon="32.8940944"><ele>1143.3</ele><time>2015-04-29T12:43:40.0000000+00:00</time></trkpt><trkpt lat="34.8942508" lon="32.8946621"><ele>1147.7</ele><time>2015-04-29T12:43:56.0000000+00:00</time></trkpt><trkpt lat="34.8940165" lon="32.895752"><ele>1146.0</ele><time>2015-04-29T12:44:15.0000000+00:00</time></trkpt><trkpt lat="34.8936338" lon="32.8963726"><ele>1137.1</ele><time>2015-04-29T12:44:25.0000000+00:00</time></trkpt><trkpt lat="34.8935028" lon="32.8970338"><ele>1138.8</ele><time>2015-04-29T12:44:33.0000000+00:00</time></trkpt><trkpt lat="34.8929067" lon="32.8976167"><ele>1133.1</ele><time>2015-04-29T12:44:46.0000000+00:00</time></trkpt><trkpt lat="34.8932274" lon="32.8980116"><ele>1133.0</ele><time>2015-04-29T12:44:56.0000000+00:00</time></trkpt><trkpt lat="34.8934091" lon="32.8987272"><ele>1131.5</ele><time>2015-04-29T12:45:08.0000000+00:00</time></trkpt><trkpt lat="34.8929406" lon="32.8994692"><ele>1124.5</ele><time>2015-04-29T12:45:26.0000000+00:00</time></trkpt><trkpt lat="34.8931765" lon="32.9000722"><ele>1129.8</ele><time>2015-04-29T12:45:38.0000000+00:00</time></trkpt><trkpt lat="34.893048" lon="32.9004569"><ele>1131.9</ele><time>2015-04-29T12:45:45.0000000+00:00</time></trkpt><trkpt lat="34.891654" lon="32.9014106"><ele>1115.1</ele><time>2015-04-29T12:46:20.0000000+00:00</time></trkpt><trkpt lat="34.8915371" lon="32.902025"><ele>1115.9</ele><time>2015-04-29T12:46:40.0000000+00:00</time></trkpt><trkpt lat="34.8910757" lon="32.902978"><ele>1114.3</ele><time>2015-04-29T12:47:00.0000000+00:00</time></trkpt><trkpt lat="34.8901115" lon="32.9034479"><ele>1107.1</ele><time>2015-04-29T12:47:14.0000000+00:00</time></trkpt><trkpt lat="34.8893535" lon="32.9035242"><ele>1098.9</ele><time>2015-04-29T12:47:24.0000000+00:00</time></trkpt><trkpt lat="34.8886748" lon="32.904132"><ele>1082.1</ele><time>2015-04-29T12:49:37.0000000+00:00</time></trkpt><trkpt lat="34.889239" lon="32.9050717"><ele>1077.7</ele><time>2015-04-29T12:50:34.0000000+00:00</time></trkpt><trkpt lat="34.8896771" lon="32.9046747"><ele>1084.3</ele><time>2015-04-29T12:50:42.0000000+00:00</time></trkpt><trkpt lat="34.8905532" lon="32.904927"><ele>1072.9</ele><time>2015-04-29T12:50:53.0000000+00:00</time></trkpt><trkpt lat="34.8908029" lon="32.9059826"><ele>1062.9</ele><time>2015-04-29T12:51:05.0000000+00:00</time></trkpt><trkpt lat="34.89099" lon="32.9062241"><ele>1059.1</ele><time>2015-04-29T12:51:08.0000000+00:00</time></trkpt><trkpt lat="34.8912716" lon="32.9062079"><ele>1058.0</ele><time>2015-04-29T12:51:11.0000000+00:00</time></trkpt><trkpt lat="34.8918294" lon="32.9058068"><ele>1056.0</ele><time>2015-04-29T12:51:17.0000000+00:00</time></trkpt><trkpt lat="34.892011" lon="32.904974"><ele>1058.5</ele><time>2015-04-29T12:51:25.0000000+00:00</time></trkpt><trkpt lat="34.8922398" lon="32.9047706"><ele>1049.1</ele><time>2015-04-29T12:51:29.0000000+00:00</time></trkpt><trkpt lat="34.8941173" lon="32.9049524"><ele>1035.5</ele><time>2015-04-29T12:51:48.0000000+00:00</time></trkpt><trkpt lat="34.8950498" lon="32.9053455"><ele>1037.9</ele><time>2015-04-29T12:53:10.0000000+00:00</time></trkpt><trkpt lat="34.8949337" lon="32.9057578"><ele>1037.7</ele><time>2015-04-29T12:53:25.0000000+00:00</time></trkpt><trkpt lat="34.8943818" lon="32.9061103"><ele>1031.7</ele><time>2015-04-29T12:53:44.0000000+00:00</time></trkpt><trkpt lat="34.8940745" lon="32.906631"><ele>1032.6</ele><time>2015-04-29T12:53:58.0000000+00:00</time></trkpt><trkpt lat="34.8946737" lon="32.9071163"><ele>1031.3</ele><time>2015-04-29T12:54:18.0000000+00:00</time></trkpt><trkpt lat="34.8948555" lon="32.9077282"><ele>1036.9</ele><time>2015-04-29T12:54:32.0000000+00:00</time></trkpt><trkpt lat="34.8947205" lon="32.9083488"><ele>1034.3</ele><time>2015-04-29T12:54:48.0000000+00:00</time></trkpt><trkpt lat="34.8955642" lon="32.9091118"><ele>1044.1</ele><time>2015-04-29T12:55:10.0000000+00:00</time></trkpt><trkpt lat="34.8955269" lon="32.9097622"><ele>1032.8</ele><time>2015-04-29T12:55:30.0000000+00:00</time></trkpt><trkpt lat="34.8956592" lon="32.9101506"><ele>1042.3</ele><time>2015-04-29T12:55:56.0000000+00:00</time></trkpt><trkpt lat="34.8950284" lon="32.9105942"><ele>1040.3</ele><time>2015-04-29T12:56:19.0000000+00:00</time></trkpt><trkpt lat="34.8945835" lon="32.9114049"><ele>1047.1</ele><time>2015-04-29T12:56:48.0000000+00:00</time></trkpt><trkpt lat="34.8932733" lon="32.9114495"><ele>1042.9</ele><time>2015-04-29T12:57:54.0000000+00:00</time></trkpt><trkpt lat="34.893273" lon="32.9116583"><ele>1042.1</ele><time>2015-04-29T12:58:00.0000000+00:00</time></trkpt><trkpt lat="34.8936276" lon="32.9120052"><ele>1051.8</ele><time>2015-04-29T12:58:14.0000000+00:00</time></trkpt><trkpt lat="34.8936628" lon="32.9129366"><ele>1060.7</ele><time>2015-04-29T12:58:37.0000000+00:00</time></trkpt><trkpt lat="34.8934222" lon="32.913245"><ele>1068.2</ele><time>2015-04-29T12:58:49.0000000+00:00</time></trkpt><trkpt lat="34.8928909" lon="32.9132776"><ele>1061.7</ele><time>2015-04-29T12:59:14.0000000+00:00</time></trkpt><trkpt lat="34.8927375" lon="32.9134719"><ele>1063.9</ele><time>2015-04-29T12:59:26.0000000+00:00</time></trkpt><trkpt lat="34.8928953" lon="32.9139497"><ele>1060.7</ele><time>2015-04-29T12:59:40.0000000+00:00</time></trkpt><trkpt lat="34.8935827" lon="32.9142661"><ele>1065.1</ele><time>2015-04-29T13:00:06.0000000+00:00</time></trkpt><trkpt lat="34.8938201" lon="32.9148388"><ele>1065.1</ele><time>2015-04-29T13:00:25.0000000+00:00</time></trkpt><trkpt lat="34.8937624" lon="32.915647"><ele>1068.0</ele><time>2015-04-29T13:00:45.0000000+00:00</time></trkpt><trkpt lat="34.8934465" lon="32.9166397"><ele>1062.4</ele><time>2015-04-29T13:01:11.0000000+00:00</time></trkpt><trkpt lat="34.8939046" lon="32.9173675"><ele>1064.6</ele><time>2015-04-29T13:01:33.0000000+00:00</time></trkpt><trkpt lat="34.8938016" lon="32.9177946"><ele>1061.0</ele><time>2015-04-29T13:01:45.0000000+00:00</time></trkpt><trkpt lat="34.8945223" lon="32.9186691"><ele>1061.2</ele><time>2015-04-29T13:02:26.0000000+00:00</time></trkpt><trkpt lat="34.8957134" lon="32.9187443"><ele>1052.4</ele><time>2015-04-29T13:02:42.0000000+00:00</time></trkpt><trkpt lat="34.8958049" lon="32.9193586"><ele>1049.8</ele><time>2015-04-29T13:02:50.0000000+00:00</time></trkpt><trkpt lat="34.8963785" lon="32.9199661"><ele>1050.9</ele><time>2015-04-29T13:03:02.0000000+00:00</time></trkpt><trkpt lat="34.8964626" lon="32.9206975"><ele>1052.7</ele><time>2015-04-29T13:03:12.0000000+00:00</time></trkpt><trkpt lat="34.8962787" lon="32.9213067"><ele>1050.6</ele><time>2015-04-29T13:03:22.0000000+00:00</time></trkpt><trkpt lat="34.8967643" lon="32.9219588"><ele>1040.9</ele><time>2015-04-29T13:03:33.0000000+00:00</time></trkpt><trkpt lat="34.8975273" lon="32.9216443"><ele>1040.8</ele><time>2015-04-29T13:03:43.0000000+00:00</time></trkpt><trkpt lat="34.8985471" lon="32.9200635"><ele>1039.4</ele><time>2015-04-29T13:04:00.0000000+00:00</time></trkpt><trkpt lat="34.8988796" lon="32.9201637"><ele>1032.3</ele><time>2015-04-29T13:04:07.0000000+00:00</time></trkpt><trkpt lat="34.8998227" lon="32.9215741"><ele>1034.2</ele><time>2015-04-29T13:04:25.0000000+00:00</time></trkpt><trkpt lat="34.9000458" lon="32.9222368"><ele>1039.7</ele><time>2015-04-29T13:04:36.0000000+00:00</time></trkpt><trkpt lat="34.9002208" lon="32.9235161"><ele>1044.6</ele><time>2015-04-29T13:05:45.0000000+00:00</time></trkpt><trkpt lat="34.9006524" lon="32.9244812"><ele>1042.6</ele><time>2015-04-29T13:06:24.0000000+00:00</time></trkpt><trkpt lat="34.9003855" lon="32.9253315"><ele>1043.1</ele><time>2015-04-29T13:06:59.0000000+00:00</time></trkpt><trkpt lat="34.9004305" lon="32.9256124"><ele>1041.7</ele><time>2015-04-29T13:07:10.0000000+00:00</time></trkpt><trkpt lat="34.9020528" lon="32.9273467"><ele>1047.7</ele><time>2015-04-29T13:08:24.0000000+00:00</time></trkpt><trkpt lat="34.9020276" lon="32.9277315"><ele>1055.3</ele><time>2015-04-29T13:08:28.0000000+00:00</time></trkpt><trkpt lat="34.901545" lon="32.9282839"><ele>1051.9</ele><time>2015-04-29T13:08:37.0000000+00:00</time></trkpt><trkpt lat="34.9015562" lon="32.9286959"><ele>1055.1</ele><time>2015-04-29T13:08:44.0000000+00:00</time></trkpt><trkpt lat="34.9020485" lon="32.9290763"><ele>1049.4</ele><time>2015-04-29T13:08:55.0000000+00:00</time></trkpt><trkpt lat="34.9028318" lon="32.9287304"><ele>1042.9</ele><time>2015-04-29T13:09:04.0000000+00:00</time></trkpt><trkpt lat="34.9041666" lon="32.9289729"><ele>1033.7</ele><time>2015-04-29T13:09:19.0000000+00:00</time></trkpt><trkpt lat="34.9042376" lon="32.9291127"><ele>1036.3</ele><time>2015-04-29T13:09:21.0000000+00:00</time></trkpt><trkpt lat="34.9037446" lon="32.9301477"><ele>1030.7</ele><time>2015-04-29T13:09:36.0000000+00:00</time></trkpt><trkpt lat="34.9037534" lon="32.9304059"><ele>1030.4</ele><time>2015-04-29T13:09:39.0000000+00:00</time></trkpt><trkpt lat="34.9043971" lon="32.931238"><ele>1027.5</ele><time>2015-04-29T13:09:52.0000000+00:00</time></trkpt><trkpt lat="34.9056269" lon="32.9314648"><ele>1034.1</ele><time>2015-04-29T13:10:14.0000000+00:00</time></trkpt><trkpt lat="34.9055178" lon="32.932339"><ele>1031.5</ele><time>2015-04-29T13:10:32.0000000+00:00</time></trkpt><trkpt lat="34.9060398" lon="32.9342868"><ele>1042.1</ele><time>2015-04-29T13:11:25.0000000+00:00</time></trkpt><trkpt lat="34.906829" lon="32.9348322"><ele>1043.1</ele><time>2015-04-29T13:11:48.0000000+00:00</time></trkpt><trkpt lat="34.9087883" lon="32.9348196"><ele>1034.0</ele><time>2015-04-29T13:12:20.0000000+00:00</time></trkpt><trkpt lat="34.908962" lon="32.9356762"><ele>1028.7</ele><time>2015-04-29T13:12:31.0000000+00:00</time></trkpt><trkpt lat="34.9095115" lon="32.9362021"><ele>1029.8</ele><time>2015-04-29T13:12:40.0000000+00:00</time></trkpt><trkpt lat="34.9102293" lon="32.9363894"><ele>1028.4</ele><time>2015-04-29T13:12:48.0000000+00:00</time></trkpt><trkpt lat="34.910671" lon="32.9367556"><ele>1025.6</ele><time>2015-04-29T13:12:53.0000000+00:00</time></trkpt><trkpt lat="34.9110202" lon="32.937306"><ele>1017.1</ele><time>2015-04-29T13:12:58.0000000+00:00</time></trkpt><trkpt lat="34.9112141" lon="32.937971"><ele>1009.8</ele><time>2015-04-29T13:13:03.0000000+00:00</time></trkpt><trkpt lat="34.911176" lon="32.9395425"><ele>999.5</ele><time>2015-04-29T13:13:14.0000000+00:00</time></trkpt><trkpt lat="34.9113182" lon="32.9399229"><ele>996.0</ele><time>2015-04-29T13:13:18.0000000+00:00</time></trkpt><trkpt lat="34.9119882" lon="32.9396997"><ele>998.0</ele><time>2015-04-29T13:13:27.0000000+00:00</time></trkpt><trkpt lat="34.9126506" lon="32.9386102"><ele>994.1</ele><time>2015-04-29T13:13:39.0000000+00:00</time></trkpt><trkpt lat="34.913939" lon="32.9389592"><ele>986.1</ele><time>2015-04-29T13:14:08.0000000+00:00</time></trkpt><trkpt lat="34.9146443" lon="32.9385143"><ele>981.7</ele><time>2015-04-29T13:14:20.0000000+00:00</time></trkpt><trkpt lat="34.914628" lon="32.9379452"><ele>985.3</ele><time>2015-04-29T13:14:28.0000000+00:00</time></trkpt><trkpt lat="34.9148594" lon="32.9372542"><ele>980.8</ele><time>2015-04-29T13:14:38.0000000+00:00</time></trkpt><trkpt lat="34.9154722" lon="32.9370418"><ele>972.9</ele><time>2015-04-29T13:15:11.0000000+00:00</time></trkpt><trkpt lat="34.9156694" lon="32.9366176"><ele>971.7</ele><time>2015-04-29T13:15:18.0000000+00:00</time></trkpt><trkpt lat="34.9158793" lon="32.9366349"><ele>969.0</ele><time>2015-04-29T13:15:24.0000000+00:00</time></trkpt><trkpt lat="34.9164532" lon="32.9372761"><ele>963.5</ele><time>2015-04-29T13:15:46.0000000+00:00</time></trkpt><trkpt lat="34.9172852" lon="32.9369872"><ele>965.2</ele><time>2015-04-29T13:16:08.0000000+00:00</time></trkpt><trkpt lat="34.9175654" lon="32.93704"><ele>964.0</ele><time>2015-04-29T13:17:11.0000000+00:00</time></trkpt><trkpt lat="34.9174002" lon="32.9370004"><ele>964.4</ele><time>2015-04-29T13:17:21.0000000+00:00</time></trkpt><trkpt lat="34.9174251" lon="32.9367669"><ele>967.7</ele><time>2015-04-29T13:17:31.0000000+00:00</time></trkpt><trkpt lat="34.9186921" lon="32.9351155"><ele>980.2</ele><time>2015-04-29T13:19:46.0000000+00:00</time></trkpt><trkpt lat="34.9190289" lon="32.9347833"><ele>984.1</ele><time>2015-04-29T13:20:10.0000000+00:00</time></trkpt><trkpt lat="34.9191345" lon="32.9349433"><ele>982.1</ele><time>2015-04-29T13:49:45.0000000+00:00</time></trkpt><trkpt lat="34.9190207" lon="32.9348313"><ele>983.5</ele><time>2015-04-29T13:50:46.0000000+00:00</time></trkpt><trkpt lat="34.9191686" lon="32.9346736"><ele>985.4</ele><time>2015-04-29T13:53:08.0000000+00:00</time></trkpt><trkpt lat="34.9196876" lon="32.9344628"><ele>985.1</ele><time>2015-04-29T13:53:31.0000000+00:00</time></trkpt><trkpt lat="34.9200121" lon="32.9345107"><ele>981.8</ele><time>2015-04-29T13:53:39.0000000+00:00</time></trkpt><trkpt lat="34.9205425" lon="32.934996"><ele>977.2</ele><time>2015-04-29T13:53:54.0000000+00:00</time></trkpt><trkpt lat="34.9207186" lon="32.9356828"><ele>982.7</ele><time>2015-04-29T13:54:18.0000000+00:00</time></trkpt><trkpt lat="34.9223186" lon="32.9362502"><ele>996.7</ele><time>2015-04-29T13:56:07.0000000+00:00</time></trkpt><trkpt lat="34.9226188" lon="32.9361421"><ele>1002.2</ele><time>2015-04-29T13:56:33.0000000+00:00</time></trkpt><trkpt lat="34.9232426" lon="32.935461"><ele>1013.7</ele><time>2015-04-29T13:57:48.0000000+00:00</time></trkpt><trkpt lat="34.9246745" lon="32.9347801"><ele>1028.5</ele><time>2015-04-29T13:59:53.0000000+00:00</time></trkpt><trkpt lat="34.9261736" lon="32.9343602"><ele>1039.1</ele><time>2015-04-29T14:01:46.0000000+00:00</time></trkpt><trkpt lat="34.9277233" lon="32.9345783"><ele>1051.6</ele><time>2015-04-29T14:03:32.0000000+00:00</time></trkpt><trkpt lat="34.9294027" lon="32.9352862"><ele>1062.1</ele><time>2015-04-29T14:05:30.0000000+00:00</time></trkpt><trkpt lat="34.9305537" lon="32.9352636"><ele>1070.5</ele><time>2015-04-29T14:06:54.0000000+00:00</time></trkpt><trkpt lat="34.9314954" lon="32.9349958"><ele>1082.3</ele><time>2015-04-29T14:07:56.0000000+00:00</time></trkpt><trkpt lat="34.9323858" lon="32.9344409"><ele>1092.1</ele><time>2015-04-29T14:09:03.0000000+00:00</time></trkpt><trkpt lat="34.9340407" lon="32.9329324"><ele>1101.8</ele><time>2015-04-29T14:11:40.0000000+00:00</time></trkpt><trkpt lat="34.935405" lon="32.9328532"><ele>1119.9</ele><time>2015-04-29T14:13:36.0000000+00:00</time></trkpt><trkpt lat="34.9392407" lon="32.931526"><ele>1154.6</ele><time>2015-04-29T14:19:01.0000000+00:00</time></trkpt><trkpt lat="34.9411322" lon="32.9305429"><ele>1175.0</ele><time>2015-04-29T14:25:43.0000000+00:00</time></trkpt><trkpt lat="34.9426382" lon="32.9303908"><ele>1184.4</ele><time>2015-04-29T14:27:14.0000000+00:00</time></trkpt><trkpt lat="34.9428245" lon="32.92906"><ele>1177.0</ele><time>2015-04-29T14:27:29.0000000+00:00</time></trkpt><trkpt lat="34.9445131" lon="32.9279922"><ele>1164.3</ele><time>2015-04-29T14:27:47.0000000+00:00</time></trkpt><trkpt lat="34.9454231" lon="32.9264482"><ele>1155.5</ele><time>2015-04-29T14:27:59.0000000+00:00</time></trkpt><trkpt lat="34.945814" lon="32.9261189"><ele>1151.8</ele><time>2015-04-29T14:28:03.0000000+00:00</time></trkpt><trkpt lat="34.9462999" lon="32.9262006"><ele>1144.1</ele><time>2015-04-29T14:28:07.0000000+00:00</time></trkpt><trkpt lat="34.9465516" lon="32.9266593"><ele>1137.3</ele><time>2015-04-29T14:28:12.0000000+00:00</time></trkpt><trkpt lat="34.9458548" lon="32.9287326"><ele>1133.8</ele><time>2015-04-29T14:29:00.0000000+00:00</time></trkpt><trkpt lat="34.9459717" lon="32.9293067"><ele>1132.1</ele><time>2015-04-29T14:29:08.0000000+00:00</time></trkpt><trkpt lat="34.9464466" lon="32.9297633"><ele>1128.7</ele><time>2015-04-29T14:29:15.0000000+00:00</time></trkpt><trkpt lat="34.9469968" lon="32.9297937"><ele>1119.4</ele><time>2015-04-29T14:29:21.0000000+00:00</time></trkpt><trkpt lat="34.9489032" lon="32.9286268"><ele>1093.6</ele><time>2015-04-29T14:29:41.0000000+00:00</time></trkpt><trkpt lat="34.9495469" lon="32.9277993"><ele>1089.9</ele><time>2015-04-29T14:29:48.0000000+00:00</time></trkpt><trkpt lat="34.9505557" lon="32.9259551"><ele>1080.4</ele><time>2015-04-29T14:30:03.0000000+00:00</time></trkpt><trkpt lat="34.951212" lon="32.9255954"><ele>1069.9</ele><time>2015-04-29T14:30:09.0000000+00:00</time></trkpt><trkpt lat="34.9517686" lon="32.9257275"><ele>1063.6</ele><time>2015-04-29T14:30:17.0000000+00:00</time></trkpt><trkpt lat="34.9517958" lon="32.9252207"><ele>1064.9</ele><time>2015-04-29T14:31:25.0000000+00:00</time></trkpt><trkpt lat="34.9521434" lon="32.9251112"><ele>1059.9</ele><time>2015-04-29T14:31:40.0000000+00:00</time></trkpt><trkpt lat="34.9523558" lon="32.9247918"><ele>1061.6</ele><time>2015-04-29T14:31:52.0000000+00:00</time></trkpt><trkpt lat="34.9522192" lon="32.9243971"><ele>1069.7</ele><time>2015-04-29T14:32:04.0000000+00:00</time></trkpt><trkpt lat="34.9524336" lon="32.923447"><ele>1069.8</ele><time>2015-04-29T14:32:33.0000000+00:00</time></trkpt><trkpt lat="34.9529212" lon="32.9235012"><ele>1065.9</ele><time>2015-04-29T14:32:56.0000000+00:00</time></trkpt><trkpt lat="34.9536475" lon="32.9229848"><ele>1065.7</ele><time>2015-04-29T14:33:21.0000000+00:00</time></trkpt><trkpt lat="34.9534853" lon="32.9224314"><ele>1066.2</ele><time>2015-04-29T14:33:35.0000000+00:00</time></trkpt><trkpt lat="34.9530831" lon="32.9222233"><ele>1074.1</ele><time>2015-04-29T14:33:46.0000000+00:00</time></trkpt><trkpt lat="34.9534693" lon="32.9217626"><ele>1060.8</ele><time>2015-04-29T14:34:00.0000000+00:00</time></trkpt><trkpt lat="34.9531497" lon="32.9209647"><ele>1073.8</ele><time>2015-04-29T14:34:20.0000000+00:00</time></trkpt><trkpt lat="34.9536543" lon="32.9200964"><ele>1061.1</ele><time>2015-04-29T14:34:37.0000000+00:00</time></trkpt><trkpt lat="34.9534495" lon="32.9193639"><ele>1063.7</ele><time>2015-04-29T14:34:51.0000000+00:00</time></trkpt><trkpt lat="34.9535248" lon="32.9191888"><ele>1058.6</ele><time>2015-04-29T14:35:28.0000000+00:00</time></trkpt><trkpt lat="34.9541843" lon="32.9197665"><ele>1051.2</ele><time>2015-04-29T14:44:24.0000000+00:00</time></trkpt><trkpt lat="34.9542325" lon="32.9208362"><ele>1043.0</ele><time>2015-04-29T14:44:42.0000000+00:00</time></trkpt><trkpt lat="34.9555237" lon="32.9213584"><ele>1038.0</ele><time>2015-04-29T14:45:01.0000000+00:00</time></trkpt><trkpt lat="34.9560429" lon="32.9221954"><ele>1025.1</ele><time>2015-04-29T14:45:13.0000000+00:00</time></trkpt><trkpt lat="34.9565562" lon="32.9224057"><ele>1022.8</ele><time>2015-04-29T14:45:20.0000000+00:00</time></trkpt><trkpt lat="34.9580443" lon="32.9218648"><ele>1017.7</ele><time>2015-04-29T14:45:41.0000000+00:00</time></trkpt><trkpt lat="34.9592831" lon="32.9208143"><ele>1016.6</ele><time>2015-04-29T14:46:15.0000000+00:00</time></trkpt><trkpt lat="34.9597874" lon="32.9213418"><ele>999.4</ele><time>2015-04-29T14:46:32.0000000+00:00</time></trkpt><trkpt lat="34.9604151" lon="32.9214064"><ele>994.5</ele><time>2015-04-29T14:46:43.0000000+00:00</time></trkpt><trkpt lat="34.9606771" lon="32.9211446"><ele>1003.1</ele><time>2015-04-29T14:46:51.0000000+00:00</time></trkpt><trkpt lat="34.9610837" lon="32.9211218"><ele>998.2</ele><time>2015-04-29T14:47:00.0000000+00:00</time></trkpt><trkpt lat="34.9617884" lon="32.920616"><ele>996.4</ele><time>2015-04-29T14:47:14.0000000+00:00</time></trkpt><trkpt lat="34.9620054" lon="32.9202143"><ele>997.1</ele><time>2015-04-29T14:47:22.0000000+00:00</time></trkpt><trkpt lat="34.9622971" lon="32.9201729"><ele>987.5</ele><time>2015-04-29T14:47:34.0000000+00:00</time></trkpt><trkpt lat="34.9622409" lon="32.9196745"><ele>995.1</ele><time>2015-04-29T14:47:44.0000000+00:00</time></trkpt><trkpt lat="34.9624922" lon="32.9190485"><ele>990.5</ele><time>2015-04-29T14:47:56.0000000+00:00</time></trkpt><trkpt lat="34.9628897" lon="32.9192707"><ele>980.0</ele><time>2015-04-29T14:48:05.0000000+00:00</time></trkpt><trkpt lat="34.9632806" lon="32.9188162"><ele>985.1</ele><time>2015-04-29T14:48:16.0000000+00:00</time></trkpt><trkpt lat="34.963754" lon="32.9190784"><ele>972.7</ele><time>2015-04-29T14:48:27.0000000+00:00</time></trkpt><trkpt lat="34.964406" lon="32.9188842"><ele>971.6</ele><time>2015-04-29T14:48:42.0000000+00:00</time></trkpt><trkpt lat="34.964607" lon="32.9186013"><ele>974.7</ele><time>2015-04-29T14:48:50.0000000+00:00</time></trkpt><trkpt lat="34.9645457" lon="32.9183392"><ele>983.7</ele><time>2015-04-29T14:49:00.0000000+00:00</time></trkpt><trkpt lat="34.9647235" lon="32.9177049"><ele>979.0</ele><time>2015-04-29T14:49:18.0000000+00:00</time></trkpt><trkpt lat="34.9644935" lon="32.9172677"><ele>978.2</ele><time>2015-04-29T14:49:32.0000000+00:00</time></trkpt><trkpt lat="34.9640043" lon="32.9171702"><ele>985.9</ele><time>2015-04-29T14:49:48.0000000+00:00</time></trkpt><trkpt lat="34.963623" lon="32.9159651"><ele>985.5</ele><time>2015-04-29T14:50:28.0000000+00:00</time></trkpt><trkpt lat="34.9638715" lon="32.9156413"><ele>986.1</ele><time>2015-04-29T14:50:40.0000000+00:00</time></trkpt><trkpt lat="34.9645693" lon="32.9154119"><ele>983.0</ele><time>2015-04-29T14:50:58.0000000+00:00</time></trkpt><trkpt lat="34.9649245" lon="32.915549"><ele>977.7</ele><time>2015-04-29T14:51:08.0000000+00:00</time></trkpt><trkpt lat="34.9655242" lon="32.9150708"><ele>976.2</ele><time>2015-04-29T14:51:26.0000000+00:00</time></trkpt><trkpt lat="34.9656518" lon="32.91404"><ele>982.4</ele><time>2015-04-29T14:51:52.0000000+00:00</time></trkpt><trkpt lat="34.9654069" lon="32.9133579"><ele>990.0</ele><time>2015-04-29T14:52:08.0000000+00:00</time></trkpt><trkpt lat="34.9655831" lon="32.9132014"><ele>982.9</ele><time>2015-04-29T14:52:14.0000000+00:00</time></trkpt><trkpt lat="34.9662123" lon="32.9131639"><ele>974.7</ele><time>2015-04-29T14:52:30.0000000+00:00</time></trkpt><trkpt lat="34.9663881" lon="32.9128118"><ele>979.5</ele><time>2015-04-29T14:52:40.0000000+00:00</time></trkpt><trkpt lat="34.9662759" lon="32.9121557"><ele>986.6</ele><time>2015-04-29T14:52:54.0000000+00:00</time></trkpt><trkpt lat="34.9660694" lon="32.9118133"><ele>989.7</ele><time>2015-04-29T14:53:04.0000000+00:00</time></trkpt><trkpt lat="34.9664038" lon="32.911275"><ele>982.7</ele><time>2015-04-29T14:53:20.0000000+00:00</time></trkpt><trkpt lat="34.9663966" lon="32.9102563"><ele>983.6</ele><time>2015-04-29T14:53:42.0000000+00:00</time></trkpt><trkpt lat="34.9667893" lon="32.9102716"><ele>979.2</ele><time>2015-04-29T14:53:52.0000000+00:00</time></trkpt><trkpt lat="34.9672379" lon="32.910753"><ele>972.6</ele><time>2015-04-29T14:54:05.0000000+00:00</time></trkpt><trkpt lat="34.9674763" lon="32.9113372"><ele>969.8</ele><time>2015-04-29T14:54:19.0000000+00:00</time></trkpt><trkpt lat="34.967735" lon="32.9114831"><ele>973.0</ele><time>2015-04-29T14:54:27.0000000+00:00</time></trkpt><trkpt lat="34.9681834" lon="32.9102302"><ele>987.3</ele><time>2015-04-29T14:54:54.0000000+00:00</time></trkpt><trkpt lat="34.9682386" lon="32.9096636"><ele>992.5</ele><time>2015-04-29T14:55:06.0000000+00:00</time></trkpt><trkpt lat="34.9688198" lon="32.9096513"><ele>983.8</ele><time>2015-04-29T14:55:30.0000000+00:00</time></trkpt><trkpt lat="34.96909" lon="32.9093134"><ele>985.7</ele><time>2015-04-29T14:58:20.0000000+00:00</time></trkpt><trkpt lat="34.969108" lon="32.9087062"><ele>992.4</ele><time>2015-04-29T14:58:34.0000000+00:00</time></trkpt><trkpt lat="34.9695023" lon="32.9083719"><ele>984.1</ele><time>2015-04-29T14:58:46.0000000+00:00</time></trkpt><trkpt lat="34.9697772" lon="32.9084108"><ele>980.1</ele><time>2015-04-29T14:58:59.0000000+00:00</time></trkpt><trkpt lat="34.9693469" lon="32.9076605"><ele>997.0</ele><time>2015-04-29T15:02:21.0000000+00:00</time></trkpt><trkpt lat="34.9695703" lon="32.9071547"><ele>995.2</ele><time>2015-04-29T15:02:34.0000000+00:00</time></trkpt><trkpt lat="34.9703027" lon="32.9067721"><ele>988.2</ele><time>2015-04-29T15:02:54.0000000+00:00</time></trkpt><trkpt lat="34.9705614" lon="32.9062429"><ele>991.1</ele><time>2015-04-29T15:03:06.0000000+00:00</time></trkpt><trkpt lat="34.9699251" lon="32.905978"><ele>995.2</ele><time>2015-04-29T15:03:25.0000000+00:00</time></trkpt><trkpt lat="34.9701802" lon="32.9056114"><ele>990.9</ele><time>2015-04-29T15:03:36.0000000+00:00</time></trkpt><trkpt lat="34.9701247" lon="32.9051754"><ele>993.4</ele><time>2015-04-29T15:03:46.0000000+00:00</time></trkpt><trkpt lat="34.970719" lon="32.9050165"><ele>986.7</ele><time>2015-04-29T15:04:00.0000000+00:00</time></trkpt><trkpt lat="34.9708781" lon="32.9041459"><ele>991.7</ele><time>2015-04-29T15:04:17.0000000+00:00</time></trkpt><trkpt lat="34.9712788" lon="32.9038279"><ele>980.9</ele><time>2015-04-29T15:04:27.0000000+00:00</time></trkpt><trkpt lat="34.9708125" lon="32.9030571"><ele>979.9</ele><time>2015-04-29T15:04:45.0000000+00:00</time></trkpt><trkpt lat="34.9704934" lon="32.9029419"><ele>977.5</ele><time>2015-04-29T15:04:52.0000000+00:00</time></trkpt><trkpt lat="34.970615" lon="32.9022781"><ele>978.7</ele><time>2015-04-29T15:05:05.0000000+00:00</time></trkpt><trkpt lat="34.9702982" lon="32.9018661"><ele>978.5</ele><time>2015-04-29T15:05:15.0000000+00:00</time></trkpt><trkpt lat="34.9703184" lon="32.9016859"><ele>976.6</ele><time>2015-04-29T15:05:18.0000000+00:00</time></trkpt><trkpt lat="34.9709336" lon="32.9014754"><ele>968.5</ele><time>2015-04-29T15:05:30.0000000+00:00</time></trkpt><trkpt lat="34.9713739" lon="32.9016049"><ele>961.9</ele><time>2015-04-29T15:05:38.0000000+00:00</time></trkpt><trkpt lat="34.971506" lon="32.9014683"><ele>966.0</ele><time>2015-04-29T15:05:42.0000000+00:00</time></trkpt><trkpt lat="34.9712025" lon="32.9007316"><ele>971.7</ele><time>2015-04-29T15:05:57.0000000+00:00</time></trkpt><trkpt lat="34.9715914" lon="32.9001008"><ele>961.5</ele><time>2015-04-29T15:06:16.0000000+00:00</time></trkpt><trkpt lat="34.9711209" lon="32.8998136"><ele>967.4</ele><time>2015-04-29T15:07:28.0000000+00:00</time></trkpt><trkpt lat="34.9711106" lon="32.8994576"><ele>966.0</ele><time>2015-04-29T15:07:36.0000000+00:00</time></trkpt><trkpt lat="34.972022" lon="32.8989412"><ele>958.9</ele><time>2015-04-29T15:08:00.0000000+00:00</time></trkpt><trkpt lat="34.9721478" lon="32.8985681"><ele>959.2</ele><time>2015-04-29T15:08:34.0000000+00:00</time></trkpt><trkpt lat="34.9718751" lon="32.8978123"><ele>960.5</ele><time>2015-04-29T15:08:50.0000000+00:00</time></trkpt><trkpt lat="34.9726856" lon="32.8974342"><ele>954.4</ele><time>2015-04-29T15:09:11.0000000+00:00</time></trkpt><trkpt lat="34.9730831" lon="32.8968546"><ele>952.7</ele><time>2015-04-29T15:09:22.0000000+00:00</time></trkpt><trkpt lat="34.9730786" lon="32.8964789"><ele>957.4</ele><time>2015-04-29T15:09:30.0000000+00:00</time></trkpt><trkpt lat="34.9727738" lon="32.8959362"><ele>965.5</ele><time>2015-04-29T15:09:44.0000000+00:00</time></trkpt><trkpt lat="34.9729159" lon="32.895197"><ele>965.1</ele><time>2015-04-29T15:10:10.0000000+00:00</time></trkpt><trkpt lat="34.9732572" lon="32.8948599"><ele>957.3</ele><time>2015-04-29T15:10:26.0000000+00:00</time></trkpt><trkpt lat="34.9731093" lon="32.8943077"><ele>967.5</ele><time>2015-04-29T15:10:48.0000000+00:00</time></trkpt><trkpt lat="34.973367" lon="32.8937208"><ele>954.3</ele><time>2015-04-29T15:11:08.0000000+00:00</time></trkpt><trkpt lat="34.972748" lon="32.8939653"><ele>959.2</ele><time>2015-04-29T15:12:36.0000000+00:00</time></trkpt><trkpt lat="34.9721653" lon="32.8939475"><ele>945.4</ele><time>2015-04-29T15:12:50.0000000+00:00</time></trkpt><trkpt lat="34.9712812" lon="32.8944504"><ele>943.4</ele><time>2015-04-29T15:13:18.0000000+00:00</time></trkpt><trkpt lat="34.971165" lon="32.8935472"><ele>930.5</ele><time>2015-04-29T15:13:37.0000000+00:00</time></trkpt><trkpt lat="34.9715053" lon="32.8937897"><ele>926.1</ele><time>2015-04-29T15:13:56.0000000+00:00</time></trkpt><trkpt lat="34.9718889" lon="32.8933089"><ele>912.9</ele><time>2015-04-29T15:14:06.0000000+00:00</time></trkpt><trkpt lat="34.9724613" lon="32.8930007"><ele>912.1</ele><time>2015-04-29T15:14:21.0000000+00:00</time></trkpt><trkpt lat="34.9721921" lon="32.8924056"><ele>891.3</ele><time>2015-04-29T15:14:38.0000000+00:00</time></trkpt><trkpt lat="34.972387" lon="32.8921199"><ele>893.9</ele><time>2015-04-29T15:14:43.0000000+00:00</time></trkpt><trkpt lat="34.9728149" lon="32.8919716"><ele>895.5</ele><time>2015-04-29T15:14:52.0000000+00:00</time></trkpt><trkpt lat="34.97378" lon="32.889914"><ele>866.1</ele><time>2015-04-29T15:15:24.0000000+00:00</time></trkpt><trkpt lat="34.974241" lon="32.889474"><ele>862.1</ele><time>2015-04-29T15:15:34.0000000+00:00</time></trkpt><trkpt lat="34.9744978" lon="32.8894748"><ele>860.1</ele><time>2015-04-29T15:15:39.0000000+00:00</time></trkpt><trkpt lat="34.9749407" lon="32.890019"><ele>851.6</ele><time>2015-04-29T15:15:47.0000000+00:00</time></trkpt><trkpt lat="34.975765" lon="32.8906133"><ele>841.3</ele><time>2015-04-29T15:16:01.0000000+00:00</time></trkpt><trkpt lat="34.9761748" lon="32.8902544"><ele>828.7</ele><time>2015-04-29T15:16:13.0000000+00:00</time></trkpt><trkpt lat="34.9772342" lon="32.8907385"><ele>822.8</ele><time>2015-04-29T15:16:33.0000000+00:00</time></trkpt><trkpt lat="34.9778901" lon="32.8899562"><ele>805.4</ele><time>2015-04-29T15:17:32.0000000+00:00</time></trkpt><trkpt lat="34.978811" lon="32.8901224"><ele>798.6</ele><time>2015-04-29T15:17:55.0000000+00:00</time></trkpt><trkpt lat="34.9791171" lon="32.8893368"><ele>792.6</ele><time>2015-04-29T15:19:00.0000000+00:00</time></trkpt><trkpt lat="34.9783967" lon="32.8886403"><ele>802.9</ele><time>2015-04-29T15:20:59.0000000+00:00</time></trkpt><trkpt lat="34.9782225" lon="32.8877152"><ele>812.7</ele><time>2015-04-29T15:22:03.0000000+00:00</time></trkpt><trkpt lat="34.978028" lon="32.8877722"><ele>819.2</ele><time>2015-04-29T15:22:23.0000000+00:00</time></trkpt><trkpt lat="34.9776815" lon="32.8882783"><ele>819.1</ele><time>2015-04-29T15:23:08.0000000+00:00</time></trkpt><trkpt lat="34.9771923" lon="32.8883861"><ele>827.1</ele><time>2015-04-29T15:23:49.0000000+00:00</time></trkpt><trkpt lat="34.9766218" lon="32.8888729"><ele>828.4</ele><time>2015-04-29T15:24:44.0000000+00:00</time></trkpt><trkpt lat="34.975712" lon="32.8886086"><ele>838.5</ele><time>2015-04-29T15:25:50.0000000+00:00</time></trkpt><trkpt lat="34.975794" lon="32.8883406"><ele>842.2</ele><time>2015-04-29T15:26:06.0000000+00:00</time></trkpt><trkpt lat="34.9763048" lon="32.8886096"><ele>834.7</ele><time>2015-04-29T15:26:39.0000000+00:00</time></trkpt><trkpt lat="34.9766075" lon="32.8884652"><ele>839.4</ele><time>2015-04-29T15:27:04.0000000+00:00</time></trkpt><trkpt lat="34.9778488" lon="32.8852574"><ele>870.1</ele><time>2015-04-29T15:30:43.0000000+00:00</time></trkpt><trkpt lat="34.9782227" lon="32.885204"><ele>864.4</ele><time>2015-04-29T15:31:07.0000000+00:00</time></trkpt><trkpt lat="34.9789539" lon="32.8858332"><ele>869.2</ele><time>2015-04-29T15:31:53.0000000+00:00</time></trkpt><trkpt lat="34.979612" lon="32.8851446"><ele>887.5</ele><time>2015-04-29T15:32:53.0000000+00:00</time></trkpt><trkpt lat="34.9805812" lon="32.8845828"><ele>892.2</ele><time>2015-04-29T15:33:59.0000000+00:00</time></trkpt><trkpt lat="34.9809281" lon="32.884634"><ele>886.0</ele><time>2015-04-29T15:34:17.0000000+00:00</time></trkpt><trkpt lat="34.9817621" lon="32.8851726"><ele>891.6</ele><time>2015-04-29T15:35:08.0000000+00:00</time></trkpt><trkpt lat="34.982638" lon="32.8853789"><ele>901.5</ele><time>2015-04-29T15:36:05.0000000+00:00</time></trkpt><trkpt lat="34.9830451" lon="32.8853891"><ele>902.7</ele><time>2015-04-29T15:36:29.0000000+00:00</time></trkpt><trkpt lat="34.9833559" lon="32.8850604"><ele>910.6</ele><time>2015-04-29T15:36:55.0000000+00:00</time></trkpt><trkpt lat="34.9831929" lon="32.8845959"><ele>922.5</ele><time>2015-04-29T15:45:41.0000000+00:00</time></trkpt><trkpt lat="34.9822878" lon="32.8840575"><ele>930.7</ele><time>2015-04-29T15:46:51.0000000+00:00</time></trkpt><trkpt lat="34.9810415" lon="32.8826373"><ele>943.9</ele><time>2015-04-29T15:48:32.0000000+00:00</time></trkpt><trkpt lat="34.9811515" lon="32.8821637"><ele>934.6</ele><time>2015-04-29T15:48:56.0000000+00:00</time></trkpt><trkpt lat="34.982328" lon="32.8807688"><ele>942.6</ele><time>2015-04-29T15:50:40.0000000+00:00</time></trkpt><trkpt lat="34.9824347" lon="32.8803749"><ele>952.2</ele><time>2015-04-29T15:51:04.0000000+00:00</time></trkpt><trkpt lat="34.9820803" lon="32.8794337"><ele>963.2</ele><time>2015-04-29T15:52:06.0000000+00:00</time></trkpt><trkpt lat="34.9823114" lon="32.8786313"><ele>962.5</ele><time>2015-04-29T15:52:57.0000000+00:00</time></trkpt><trkpt lat="34.9816239" lon="32.8770716"><ele>985.4</ele><time>2015-04-29T15:54:39.0000000+00:00</time></trkpt><trkpt lat="34.9814649" lon="32.8751963"><ele>994.4</ele><time>2015-04-29T15:56:53.0000000+00:00</time></trkpt><trkpt lat="34.9818202" lon="32.874558"><ele>989.6</ele><time>2015-04-29T15:57:46.0000000+00:00</time></trkpt><trkpt lat="34.9824056" lon="32.8745921"><ele>989.2</ele><time>2015-04-29T15:58:40.0000000+00:00</time></trkpt><trkpt lat="34.9828123" lon="32.8743835"><ele>999.3</ele><time>2015-04-29T15:59:21.0000000+00:00</time></trkpt><trkpt lat="34.9830842" lon="32.8725975"><ele>1019.0</ele><time>2015-04-29T16:01:28.0000000+00:00</time></trkpt><trkpt lat="34.9830346" lon="32.872358"><ele>1022.5</ele><time>2015-04-29T16:01:44.0000000+00:00</time></trkpt><trkpt lat="34.9826681" lon="32.8720312"><ele>1026.2</ele><time>2015-04-29T16:10:24.0000000+00:00</time></trkpt><trkpt lat="34.9826036" lon="32.871513"><ele>1027.4</ele><time>2015-04-29T16:11:03.0000000+00:00</time></trkpt><trkpt lat="34.9828278" lon="32.8703644"><ele>1037.1</ele><time>2015-04-29T16:12:27.0000000+00:00</time></trkpt><trkpt lat="34.9832846" lon="32.8696456"><ele>1045.2</ele><time>2015-04-29T16:13:42.0000000+00:00</time></trkpt><trkpt lat="34.9834054" lon="32.8691471"><ele>1048.5</ele><time>2015-04-29T16:14:29.0000000+00:00</time></trkpt><trkpt lat="34.9831391" lon="32.8683751"><ele>1058.6</ele><time>2015-04-29T16:15:34.0000000+00:00</time></trkpt><trkpt lat="34.9820801" lon="32.8679079"><ele>1068.2</ele><time>2015-04-29T16:17:08.0000000+00:00</time></trkpt><trkpt lat="34.9817435" lon="32.867409"><ele>1080.5</ele><time>2015-04-29T16:18:01.0000000+00:00</time></trkpt><trkpt lat="34.9818635" lon="32.8669796"><ele>1075.8</ele><time>2015-04-29T16:18:24.0000000+00:00</time></trkpt><trkpt lat="34.982742" lon="32.8659792"><ele>1085.0</ele><time>2015-04-29T16:19:41.0000000+00:00</time></trkpt><trkpt lat="34.9831644" lon="32.8650635"><ele>1091.5</ele><time>2015-04-29T16:20:57.0000000+00:00</time></trkpt><trkpt lat="34.9827496" lon="32.863267"><ele>1108.5</ele><time>2015-04-29T16:23:04.0000000+00:00</time></trkpt><trkpt lat="34.9829327" lon="32.8604733"><ele>1124.3</ele><time>2015-04-29T16:26:52.0000000+00:00</time></trkpt><trkpt lat="34.9825912" lon="32.8580301"><ele>1143.9</ele><time>2015-04-29T16:32:02.0000000+00:00</time></trkpt><trkpt lat="34.9818115" lon="32.8577556"><ele>1150.3</ele><time>2015-04-29T16:36:21.0000000+00:00</time></trkpt><trkpt lat="34.9809531" lon="32.8579061"><ele>1163.1</ele><time>2015-04-29T16:37:25.0000000+00:00</time></trkpt><trkpt lat="34.9807735" lon="32.8576233"><ele>1158.5</ele><time>2015-04-29T16:37:47.0000000+00:00</time></trkpt><trkpt lat="34.9807089" lon="32.8570246"><ele>1165.0</ele><time>2015-04-29T16:38:29.0000000+00:00</time></trkpt><trkpt lat="34.9797857" lon="32.8559138"><ele>1178.5</ele><time>2015-04-29T16:40:19.0000000+00:00</time></trkpt><trkpt lat="34.9795009" lon="32.8551913"><ele>1179.7</ele><time>2015-04-29T16:41:09.0000000+00:00</time></trkpt><trkpt lat="34.9789526" lon="32.8550571"><ele>1180.1</ele><time>2015-04-29T16:41:49.0000000+00:00</time></trkpt><trkpt lat="34.978646" lon="32.8554515"><ele>1176.8</ele><time>2015-04-29T16:42:57.0000000+00:00</time></trkpt><trkpt lat="34.9784262" lon="32.8567039"><ele>1190.2</ele><time>2015-04-29T16:44:06.0000000+00:00</time></trkpt><trkpt lat="34.9781125" lon="32.8568247"><ele>1201.2</ele><time>2015-04-29T16:44:24.0000000+00:00</time></trkpt><trkpt lat="34.9775147" lon="32.8564261"><ele>1199.9</ele><time>2015-04-29T16:45:19.0000000+00:00</time></trkpt><trkpt lat="34.9772964" lon="32.8565129"><ele>1202.6</ele><time>2015-04-29T16:45:41.0000000+00:00</time></trkpt><trkpt lat="34.9768948" lon="32.8581516"><ele>1215.0</ele><time>2015-04-29T16:47:39.0000000+00:00</time></trkpt><trkpt lat="34.9767208" lon="32.8583791"><ele>1219.8</ele><time>2015-04-29T16:47:54.0000000+00:00</time></trkpt><trkpt lat="34.9764181" lon="32.8585177"><ele>1219.4</ele><time>2015-04-29T16:48:15.0000000+00:00</time></trkpt><trkpt lat="34.9756713" lon="32.8580219"><ele>1228.2</ele><time>2015-04-29T16:49:02.0000000+00:00</time></trkpt><trkpt lat="34.9747553" lon="32.85796"><ele>1224.8</ele><time>2015-04-29T16:49:54.0000000+00:00</time></trkpt><trkpt lat="34.9733466" lon="32.8589493"><ele>1231.9</ele><time>2015-04-29T16:57:25.0000000+00:00</time></trkpt><trkpt lat="34.9731891" lon="32.8594333"><ele>1228.5</ele><time>2015-04-29T16:57:49.0000000+00:00</time></trkpt><trkpt lat="34.973422" lon="32.8603216"><ele>1235.7</ele><time>2015-04-29T16:58:22.0000000+00:00</time></trkpt><trkpt lat="34.973418" lon="32.8613962"><ele>1240.8</ele><time>2015-04-29T16:59:10.0000000+00:00</time></trkpt><trkpt lat="34.9729692" lon="32.8623753"><ele>1240.0</ele><time>2015-04-29T16:59:53.0000000+00:00</time></trkpt><trkpt lat="34.9730124" lon="32.8630335"><ele>1248.5</ele><time>2015-04-29T17:00:20.0000000+00:00</time></trkpt><trkpt lat="34.9727097" lon="32.8632774"><ele>1258.5</ele><time>2015-04-29T17:00:43.0000000+00:00</time></trkpt><trkpt lat="34.971759" lon="32.8629449"><ele>1263.0</ele><time>2015-04-29T17:01:36.0000000+00:00</time></trkpt><trkpt lat="34.9714882" lon="32.8627078"><ele>1272.0</ele><time>2015-04-29T17:01:54.0000000+00:00</time></trkpt><trkpt lat="34.9713563" lon="32.8620003"><ele>1269.7</ele><time>2015-04-29T17:02:26.0000000+00:00</time></trkpt><trkpt lat="34.9707922" lon="32.8617322"><ele>1277.3</ele><time>2015-04-29T17:02:56.0000000+00:00</time></trkpt><trkpt lat="34.9704336" lon="32.8611018"><ele>1277.1</ele><time>2015-04-29T17:03:25.0000000+00:00</time></trkpt><trkpt lat="34.9696607" lon="32.861148"><ele>1279.3</ele><time>2015-04-29T17:05:58.0000000+00:00</time></trkpt><trkpt lat="34.9686671" lon="32.8605627"><ele>1283.3</ele><time>2015-04-29T17:06:50.0000000+00:00</time></trkpt><trkpt lat="34.9688293" lon="32.8585497"><ele>1291.2</ele><time>2015-04-29T17:07:36.0000000+00:00</time></trkpt><trkpt lat="34.9684139" lon="32.8572035"><ele>1296.9</ele><time>2015-04-29T17:08:15.0000000+00:00</time></trkpt><trkpt lat="34.968667" lon="32.8568769"><ele>1286.0</ele><time>2015-04-29T17:08:27.0000000+00:00</time></trkpt><trkpt lat="34.9693448" lon="32.8566314"><ele>1288.4</ele><time>2015-04-29T17:08:47.0000000+00:00</time></trkpt><trkpt lat="34.9699003" lon="32.8553928"><ele>1299.0</ele><time>2015-04-29T17:09:21.0000000+00:00</time></trkpt><trkpt lat="34.9699862" lon="32.8548668"><ele>1305.8</ele><time>2015-04-29T17:09:35.0000000+00:00</time></trkpt><trkpt lat="34.9696988" lon="32.8544872"><ele>1308.5</ele><time>2015-04-29T17:09:47.0000000+00:00</time></trkpt><trkpt lat="34.9686628" lon="32.8540457"><ele>1313.2</ele><time>2015-04-29T17:10:27.0000000+00:00</time></trkpt><trkpt lat="34.9679938" lon="32.8532981"><ele>1312.6</ele><time>2015-04-29T17:11:03.0000000+00:00</time></trkpt><trkpt lat="34.9679626" lon="32.8528325"><ele>1311.3</ele><time>2015-04-29T17:11:18.0000000+00:00</time></trkpt><trkpt lat="34.9684839" lon="32.8520396"><ele>1310.1</ele><time>2015-04-29T17:11:46.0000000+00:00</time></trkpt><trkpt lat="34.9680887" lon="32.8512278"><ele>1323.0</ele><time>2015-04-29T17:12:10.0000000+00:00</time></trkpt><trkpt lat="34.9676618" lon="32.8497124"><ele>1319.3</ele><time>2015-04-29T17:12:48.0000000+00:00</time></trkpt><trkpt lat="34.9674588" lon="32.849553"><ele>1314.5</ele><time>2015-04-29T17:13:55.0000000+00:00</time></trkpt><trkpt lat="34.9673037" lon="32.8497446"><ele>1314.7</ele><time>2015-04-29T17:14:02.0000000+00:00</time></trkpt><trkpt lat="34.9666951" lon="32.8515516"><ele>1311.1</ele><time>2015-04-29T17:14:31.0000000+00:00</time></trkpt><trkpt lat="34.9662611" lon="32.8519203"><ele>1313.6</ele><time>2015-04-29T17:14:40.0000000+00:00</time></trkpt><trkpt lat="34.9658638" lon="32.8516765"><ele>1321.8</ele><time>2015-04-29T17:14:47.0000000+00:00</time></trkpt><trkpt lat="34.9653581" lon="32.8508439"><ele>1313.9</ele><time>2015-04-29T17:15:00.0000000+00:00</time></trkpt><trkpt lat="34.9646181" lon="32.8509724"><ele>1318.1</ele><time>2015-04-29T17:15:13.0000000+00:00</time></trkpt><trkpt lat="34.9640511" lon="32.8501816"><ele>1320.1</ele><time>2015-04-29T17:15:28.0000000+00:00</time></trkpt><trkpt lat="34.9625662" lon="32.8494417"><ele>1316.9</ele><time>2015-04-29T17:15:54.0000000+00:00</time></trkpt><trkpt lat="34.9619598" lon="32.8486137"><ele>1316.9</ele><time>2015-04-29T17:16:07.0000000+00:00</time></trkpt><trkpt lat="34.9613739" lon="32.8473324"><ele>1314.1</ele><time>2015-04-29T17:16:25.0000000+00:00</time></trkpt><trkpt lat="34.9614296" lon="32.846911"><ele>1314.9</ele><time>2015-04-29T17:16:30.0000000+00:00</time></trkpt><trkpt lat="34.9623401" lon="32.846115"><ele>1309.2</ele><time>2015-04-29T17:16:45.0000000+00:00</time></trkpt><trkpt lat="34.962787" lon="32.845468"><ele>1308.9</ele><time>2015-04-29T17:16:54.0000000+00:00</time></trkpt><trkpt lat="34.962836" lon="32.845168"><ele>1310.8</ele><time>2015-04-29T17:16:57.0000000+00:00</time></trkpt><trkpt lat="34.9627375" lon="32.8445914"><ele>1310.6</ele><time>2015-04-29T17:17:04.0000000+00:00</time></trkpt><trkpt lat="34.9619107" lon="32.8431185"><ele>1308.8</ele><time>2015-04-29T17:17:24.0000000+00:00</time></trkpt><trkpt lat="34.9612358" lon="32.842596"><ele>1306.6</ele><time>2015-04-29T17:17:37.0000000+00:00</time></trkpt><trkpt lat="34.959773" lon="32.8425557"><ele>1312.4</ele><time>2015-04-29T17:17:59.0000000+00:00</time></trkpt><trkpt lat="34.9587454" lon="32.8416546"><ele>1313.7</ele><time>2015-04-29T17:18:17.0000000+00:00</time></trkpt><trkpt lat="34.9577481" lon="32.8411931"><ele>1312.3</ele><time>2015-04-29T17:18:33.0000000+00:00</time></trkpt><trkpt lat="34.957858" lon="32.8407581"><ele>1308.4</ele><time>2015-04-29T17:18:43.0000000+00:00</time></trkpt><trkpt lat="34.9583928" lon="32.8403458"><ele>1306.0</ele><time>2015-04-29T17:18:58.0000000+00:00</time></trkpt><trkpt lat="34.9585238" lon="32.8399584"><ele>1309.7</ele><time>2015-04-29T17:19:07.0000000+00:00</time></trkpt><trkpt lat="34.9577184" lon="32.8380811"><ele>1321.7</ele><time>2015-04-29T17:20:05.0000000+00:00</time></trkpt><trkpt lat="34.9578576" lon="32.8370057"><ele>1318.0</ele><time>2015-04-29T17:20:38.0000000+00:00</time></trkpt><trkpt lat="34.9587684" lon="32.8372063"><ele>1313.1</ele><time>2015-04-29T17:21:07.0000000+00:00</time></trkpt><trkpt lat="34.9593475" lon="32.8371462"><ele>1308.6</ele><time>2015-04-29T17:21:16.0000000+00:00</time></trkpt><trkpt lat="34.9594663" lon="32.8362624"><ele>1307.6</ele><time>2015-04-29T17:21:28.0000000+00:00</time></trkpt><trkpt lat="34.9592721" lon="32.8359415"><ele>1302.9</ele><time>2015-04-29T17:21:32.0000000+00:00</time></trkpt><trkpt lat="34.9586482" lon="32.8357065"><ele>1301.8</ele><time>2015-04-29T17:21:39.0000000+00:00</time></trkpt><trkpt lat="34.9584782" lon="32.8354323"><ele>1298.6</ele><time>2015-04-29T17:21:43.0000000+00:00</time></trkpt><trkpt lat="34.958923" lon="32.8342301"><ele>1294.0</ele><time>2015-04-29T17:22:03.0000000+00:00</time></trkpt><trkpt lat="34.9587257" lon="32.8329329"><ele>1281.7</ele><time>2015-04-29T17:22:17.0000000+00:00</time></trkpt><trkpt lat="34.9580951" lon="32.8321814"><ele>1270.1</ele><time>2015-04-29T17:22:27.0000000+00:00</time></trkpt><trkpt lat="34.9574956" lon="32.8321798"><ele>1275.3</ele><time>2015-04-29T17:22:36.0000000+00:00</time></trkpt><trkpt lat="34.9574118" lon="32.831997"><ele>1275.2</ele><time>2015-04-29T17:22:40.0000000+00:00</time></trkpt><trkpt lat="34.9575892" lon="32.8311732"><ele>1267.1</ele><time>2015-04-29T17:22:50.0000000+00:00</time></trkpt><trkpt lat="34.9582432" lon="32.8305355"><ele>1255.6</ele><time>2015-04-29T17:23:01.0000000+00:00</time></trkpt><trkpt lat="34.9579628" lon="32.8297026"><ele>1255.1</ele><time>2015-04-29T17:23:11.0000000+00:00</time></trkpt><trkpt lat="34.9580053" lon="32.8293468"><ele>1243.8</ele><time>2015-04-29T17:23:15.0000000+00:00</time></trkpt><trkpt lat="34.9590897" lon="32.8289122"><ele>1233.1</ele><time>2015-04-29T17:23:32.0000000+00:00</time></trkpt><trkpt lat="34.9590648" lon="32.8284194"><ele>1238.2</ele><time>2015-04-29T17:23:39.0000000+00:00</time></trkpt><trkpt lat="34.9595287" lon="32.8279838"><ele>1226.5</ele><time>2015-04-29T17:23:47.0000000+00:00</time></trkpt><trkpt lat="34.959514" lon="32.8271182"><ele>1227.0</ele><time>2015-04-29T17:23:57.0000000+00:00</time></trkpt><trkpt lat="34.9598447" lon="32.8269633"><ele>1217.3</ele><time>2015-04-29T17:24:02.0000000+00:00</time></trkpt><trkpt lat="34.9606709" lon="32.8270656"><ele>1205.8</ele><time>2015-04-29T17:24:13.0000000+00:00</time></trkpt><trkpt lat="34.9612814" lon="32.8276764"><ele>1196.4</ele><time>2015-04-29T17:24:28.0000000+00:00</time></trkpt><trkpt lat="34.9617837" lon="32.8279401"><ele>1192.1</ele><time>2015-04-29T17:24:35.0000000+00:00</time></trkpt><trkpt lat="34.9640695" lon="32.8283048"><ele>1171.2</ele><time>2015-04-29T17:25:03.0000000+00:00</time></trkpt><trkpt lat="34.9647486" lon="32.8281434"><ele>1172.0</ele><time>2015-04-29T17:25:14.0000000+00:00</time></trkpt><trkpt lat="34.9652575" lon="32.8278047"><ele>1172.8</ele><time>2015-04-29T17:25:21.0000000+00:00</time></trkpt><trkpt lat="34.9669875" lon="32.8262873"><ele>1165.1</ele><time>2015-04-29T17:26:15.0000000+00:00</time></trkpt><trkpt lat="34.9678861" lon="32.8256523"><ele>1163.8</ele><time>2015-04-29T17:26:34.0000000+00:00</time></trkpt><trkpt lat="34.9686012" lon="32.8254269"><ele>1159.4</ele><time>2015-04-29T17:26:46.0000000+00:00</time></trkpt><trkpt lat="34.969475" lon="32.8244765"><ele>1154.9</ele><time>2015-04-29T17:27:05.0000000+00:00</time></trkpt><trkpt lat="34.9704122" lon="32.824764"><ele>1148.2</ele><time>2015-04-29T17:27:28.0000000+00:00</time></trkpt><trkpt lat="34.9713335" lon="32.8243091"><ele>1147.3</ele><time>2015-04-29T17:27:43.0000000+00:00</time></trkpt><trkpt lat="34.9717085" lon="32.8243951"><ele>1139.2</ele><time>2015-04-29T17:27:50.0000000+00:00</time></trkpt><trkpt lat="34.9721088" lon="32.8242023"><ele>1140.6</ele><time>2015-04-29T17:27:59.0000000+00:00</time></trkpt><trkpt lat="34.9718234" lon="32.824561"><ele>1132.2</ele><time>2015-04-29T17:28:13.0000000+00:00</time></trkpt><trkpt lat="34.9713635" lon="32.8245961"><ele>1134.4</ele><time>2015-04-29T17:28:24.0000000+00:00</time></trkpt><trkpt lat="34.9706096" lon="32.8251858"><ele>1126.5</ele><time>2015-04-29T17:28:45.0000000+00:00</time></trkpt><trkpt lat="34.9697258" lon="32.8251629"><ele>1124.8</ele><time>2015-04-29T17:29:03.0000000+00:00</time></trkpt><trkpt lat="34.9694325" lon="32.825365"><ele>1126.2</ele><time>2015-04-29T17:29:11.0000000+00:00</time></trkpt><trkpt lat="34.9689631" lon="32.8262255"><ele>1126.2</ele><time>2015-04-29T17:29:31.0000000+00:00</time></trkpt><trkpt lat="34.9684508" lon="32.8267378"><ele>1122.5</ele><time>2015-04-29T17:29:50.0000000+00:00</time></trkpt><trkpt lat="34.968606" lon="32.8277688"><ele>1108.8</ele><time>2015-04-29T17:30:07.0000000+00:00</time></trkpt><trkpt lat="34.9683897" lon="32.827986"><ele>1106.4</ele><time>2015-04-29T17:30:17.0000000+00:00</time></trkpt><trkpt lat="34.967714" lon="32.8275815"><ele>1107.8</ele><time>2015-04-29T17:30:54.0000000+00:00</time></trkpt></trkseg><trkseg><trkpt lat="34.9674327" lon="32.8275817"><ele>1105.0</ele><time>2015-04-30T07:00:25.0000000+00:00</time></trkpt><trkpt lat="34.9675771" lon="32.8275279"><ele>1107.4</ele><time>2015-04-30T07:00:28.0000000+00:00</time></trkpt><trkpt lat="34.9672665" lon="32.8273987"><ele>1114.8</ele><time>2015-04-30T07:09:53.0000000+00:00</time></trkpt><trkpt lat="34.9668878" lon="32.8275474"><ele>1118.9</ele><time>2015-04-30T07:10:24.0000000+00:00</time></trkpt><trkpt lat="34.9648727" lon="32.8291446"><ele>1130.3</ele><time>2015-04-30T07:13:25.0000000+00:00</time></trkpt><trkpt lat="34.9642765" lon="32.8289493"><ele>1135.9</ele><time>2015-04-30T07:14:08.0000000+00:00</time></trkpt><trkpt lat="34.9625251" lon="32.828882"><ele>1151.7</ele><time>2015-04-30T07:15:51.0000000+00:00</time></trkpt><trkpt lat="34.9617526" lon="32.8290115"><ele>1157.0</ele><time>2015-04-30T07:16:37.0000000+00:00</time></trkpt><trkpt lat="34.9616637" lon="32.828763"><ele>1164.3</ele><time>2015-04-30T07:16:57.0000000+00:00</time></trkpt><trkpt lat="34.9620217" lon="32.8287974"><ele>1158.6</ele><time>2015-04-30T07:17:22.0000000+00:00</time></trkpt><trkpt lat="34.9623957" lon="32.8285027"><ele>1166.1</ele><time>2015-04-30T07:17:49.0000000+00:00</time></trkpt><trkpt lat="34.9638888" lon="32.8282836"><ele>1172.2</ele><time>2015-04-30T07:19:06.0000000+00:00</time></trkpt><trkpt lat="34.9616687" lon="32.8279792"><ele>1190.0</ele><time>2015-04-30T07:21:25.0000000+00:00</time></trkpt><trkpt lat="34.9605901" lon="32.8270515"><ele>1206.9</ele><time>2015-04-30T07:22:55.0000000+00:00</time></trkpt><trkpt lat="34.9596309" lon="32.8271007"><ele>1222.2</ele><time>2015-04-30T07:24:05.0000000+00:00</time></trkpt><trkpt lat="34.9594924" lon="32.8274403"><ele>1230.9</ele><time>2015-04-30T07:24:24.0000000+00:00</time></trkpt><trkpt lat="34.9595857" lon="32.827924"><ele>1224.8</ele><time>2015-04-30T07:24:50.0000000+00:00</time></trkpt><trkpt lat="34.9591909" lon="32.8283211"><ele>1236.2</ele><time>2015-04-30T07:25:23.0000000+00:00</time></trkpt><trkpt lat="34.959154" lon="32.828976"><ele>1231.0</ele><time>2015-04-30T07:26:02.0000000+00:00</time></trkpt><trkpt lat="34.9581321" lon="32.8292877"><ele>1241.3</ele><time>2015-04-30T07:27:14.0000000+00:00</time></trkpt><trkpt lat="34.9580639" lon="32.8297255"><ele>1250.7</ele><time>2015-04-30T07:27:39.0000000+00:00</time></trkpt><trkpt lat="34.9583085" lon="32.8305697"><ele>1253.0</ele><time>2015-04-30T07:28:33.0000000+00:00</time></trkpt><trkpt lat="34.957635" lon="32.8312197"><ele>1262.5</ele><time>2015-04-30T07:29:34.0000000+00:00</time></trkpt><trkpt lat="34.9575399" lon="32.8319994"><ele>1269.4</ele><time>2015-04-30T07:30:54.0000000+00:00</time></trkpt><trkpt lat="34.957432" lon="32.831972"><ele>1274.0</ele><time>2015-04-30T07:33:37.0000000+00:00</time></trkpt><trkpt lat="34.9574412" lon="32.8316804"><ele>1273.1</ele><time>2015-04-30T07:35:07.0000000+00:00</time></trkpt><trkpt lat="34.9573903" lon="32.8317754"><ele>1275.0</ele><time>2015-04-30T07:35:31.0000000+00:00</time></trkpt><trkpt lat="34.9574592" lon="32.8320981"><ele>1274.6</ele><time>2015-04-30T07:37:49.0000000+00:00</time></trkpt><trkpt lat="34.9581498" lon="32.8321734"><ele>1269.7</ele><time>2015-04-30T07:38:32.0000000+00:00</time></trkpt><trkpt lat="34.9588564" lon="32.833127"><ele>1283.7</ele><time>2015-04-30T07:39:30.0000000+00:00</time></trkpt><trkpt lat="34.9590162" lon="32.8344241"><ele>1286.5</ele><time>2015-04-30T07:40:41.0000000+00:00</time></trkpt><trkpt lat="34.9585221" lon="32.8353981"><ele>1296.8</ele><time>2015-04-30T07:41:53.0000000+00:00</time></trkpt><trkpt lat="34.9587152" lon="32.8356657"><ele>1298.1</ele><time>2015-04-30T07:42:17.0000000+00:00</time></trkpt><trkpt lat="34.9592394" lon="32.8358619"><ele>1300.4</ele><time>2015-04-30T07:42:53.0000000+00:00</time></trkpt><trkpt lat="34.9594397" lon="32.8361933"><ele>1307.0</ele><time>2015-04-30T07:43:16.0000000+00:00</time></trkpt><trkpt lat="34.9595411" lon="32.8369832"><ele>1306.6</ele><time>2015-04-30T07:44:00.0000000+00:00</time></trkpt><trkpt lat="34.9592657" lon="32.8372556"><ele>1308.6</ele><time>2015-04-30T07:44:26.0000000+00:00</time></trkpt><trkpt lat="34.9583029" lon="32.8371302"><ele>1314.1</ele><time>2015-04-30T07:45:20.0000000+00:00</time></trkpt><trkpt lat="34.9570241" lon="32.8365402"><ele>1336.4</ele><time>2015-04-30T07:46:47.0000000+00:00</time></trkpt><trkpt lat="34.9571913" lon="32.8359073"><ele>1337.6</ele><time>2015-04-30T07:47:26.0000000+00:00</time></trkpt><trkpt lat="34.9570847" lon="32.8352218"><ele>1348.5</ele><time>2015-04-30T07:48:05.0000000+00:00</time></trkpt><trkpt lat="34.9575354" lon="32.8345092"><ele>1339.0</ele><time>2015-04-30T07:48:57.0000000+00:00</time></trkpt><trkpt lat="34.957445" lon="32.8341736"><ele>1341.2</ele><time>2015-04-30T07:49:20.0000000+00:00</time></trkpt><trkpt lat="34.9561737" lon="32.8338888"><ele>1355.1</ele><time>2015-04-30T07:51:00.0000000+00:00</time></trkpt><trkpt lat="34.9547267" lon="32.8348681"><ele>1370.2</ele><time>2015-04-30T07:53:22.0000000+00:00</time></trkpt><trkpt lat="34.9541498" lon="32.8349517"><ele>1381.3</ele><time>2015-04-30T07:54:04.0000000+00:00</time></trkpt><trkpt lat="34.9538171" lon="32.8348049"><ele>1386.1</ele><time>2015-04-30T07:54:33.0000000+00:00</time></trkpt><trkpt lat="34.9535491" lon="32.8339562"><ele>1382.1</ele><time>2015-04-30T07:55:20.0000000+00:00</time></trkpt><trkpt lat="34.9527174" lon="32.8336771"><ele>1393.5</ele><time>2015-04-30T07:56:32.0000000+00:00</time></trkpt><trkpt lat="34.9524471" lon="32.8330909"><ele>1388.6</ele><time>2015-04-30T07:57:16.0000000+00:00</time></trkpt><trkpt lat="34.950723" lon="32.8335522"><ele>1402.8</ele><time>2015-04-30T07:59:11.0000000+00:00</time></trkpt><trkpt lat="34.9497818" lon="32.832363"><ele>1397.3</ele><time>2015-04-30T08:08:20.0000000+00:00</time></trkpt><trkpt lat="34.9503339" lon="32.833634"><ele>1416.7</ele><time>2015-04-30T08:12:32.0000000+00:00</time></trkpt><trkpt lat="34.9499307" lon="32.8348592"><ele>1419.5</ele><time>2015-04-30T08:14:12.0000000+00:00</time></trkpt><trkpt lat="34.9499795" lon="32.8352584"><ele>1424.4</ele><time>2015-04-30T08:14:37.0000000+00:00</time></trkpt><trkpt lat="34.9503439" lon="32.8353596"><ele>1427.9</ele><time>2015-04-30T08:15:13.0000000+00:00</time></trkpt><trkpt lat="34.9511815" lon="32.8350089"><ele>1433.3</ele><time>2015-04-30T08:16:37.0000000+00:00</time></trkpt><trkpt lat="34.9516388" lon="32.8351482"><ele>1440.4</ele><time>2015-04-30T08:17:10.0000000+00:00</time></trkpt><trkpt lat="34.9518919" lon="32.835463"><ele>1443.7</ele><time>2015-04-30T08:17:37.0000000+00:00</time></trkpt><trkpt lat="34.9517872" lon="32.8357824"><ele>1456.3</ele><time>2015-04-30T08:18:01.0000000+00:00</time></trkpt><trkpt lat="34.9514529" lon="32.8357133"><ele>1449.5</ele><time>2015-04-30T08:18:29.0000000+00:00</time></trkpt><trkpt lat="34.9511742" lon="32.8358799"><ele>1454.9</ele><time>2015-04-30T08:18:54.0000000+00:00</time></trkpt><trkpt lat="34.9504715" lon="32.8369242"><ele>1453.2</ele><time>2015-04-30T08:20:23.0000000+00:00</time></trkpt><trkpt lat="34.9506114" lon="32.837018"><ele>1456.6</ele><time>2015-04-30T08:20:41.0000000+00:00</time></trkpt><trkpt lat="34.9511697" lon="32.836505"><ele>1462.4</ele><time>2015-04-30T08:21:46.0000000+00:00</time></trkpt><trkpt lat="34.9516891" lon="32.8365067"><ele>1467.8</ele><time>2015-04-30T08:22:27.0000000+00:00</time></trkpt><trkpt lat="34.952047" lon="32.837161"><ele>1480.8</ele><time>2015-04-30T08:23:15.0000000+00:00</time></trkpt><trkpt lat="34.9522602" lon="32.8386912"><ele>1497.6</ele><time>2015-04-30T08:25:07.0000000+00:00</time></trkpt><trkpt lat="34.9522354" lon="32.8398175"><ele>1498.5</ele><time>2015-04-30T08:26:24.0000000+00:00</time></trkpt><trkpt lat="34.9516243" lon="32.840444"><ele>1510.3</ele><time>2015-04-30T08:27:30.0000000+00:00</time></trkpt><trkpt lat="34.9514936" lon="32.8407812"><ele>1516.6</ele><time>2015-04-30T08:27:56.0000000+00:00</time></trkpt><trkpt lat="34.952326" lon="32.8423365"><ele>1518.4</ele><time>2015-04-30T08:29:57.0000000+00:00</time></trkpt><trkpt lat="34.9520498" lon="32.8430526"><ele>1523.5</ele><time>2015-04-30T08:30:46.0000000+00:00</time></trkpt><trkpt lat="34.951609" lon="32.8432878"><ele>1525.5</ele><time>2015-04-30T08:40:29.0000000+00:00</time></trkpt><trkpt lat="34.9509483" lon="32.8433534"><ele>1539.4</ele><time>2015-04-30T08:41:26.0000000+00:00</time></trkpt><trkpt lat="34.9506641" lon="32.843593"><ele>1550.2</ele><time>2015-04-30T08:42:01.0000000+00:00</time></trkpt><trkpt lat="34.9506492" lon="32.8440952"><ele>1555.6</ele><time>2015-04-30T08:42:36.0000000+00:00</time></trkpt><trkpt lat="34.9510636" lon="32.8454253"><ele>1556.5</ele><time>2015-04-30T08:44:16.0000000+00:00</time></trkpt><trkpt lat="34.950062" lon="32.8479558"><ele>1571.0</ele><time>2015-04-30T08:46:54.0000000+00:00</time></trkpt><trkpt lat="34.9498657" lon="32.847832"><ele>1577.8</ele><time>2015-04-30T08:47:10.0000000+00:00</time></trkpt><trkpt lat="34.9498846" lon="32.8470895"><ele>1582.8</ele><time>2015-04-30T08:47:54.0000000+00:00</time></trkpt><trkpt lat="34.9492404" lon="32.8464432"><ele>1591.3</ele><time>2015-04-30T08:48:57.0000000+00:00</time></trkpt><trkpt lat="34.9487306" lon="32.8463698"><ele>1593.7</ele><time>2015-04-30T08:49:36.0000000+00:00</time></trkpt><trkpt lat="34.9479528" lon="32.8472085"><ele>1600.8</ele><time>2015-04-30T08:50:56.0000000+00:00</time></trkpt><trkpt lat="34.9474802" lon="32.8473409"><ele>1607.0</ele><time>2015-04-30T08:51:31.0000000+00:00</time></trkpt><trkpt lat="34.9470587" lon="32.8470795"><ele>1614.0</ele><time>2015-04-30T08:51:54.0000000+00:00</time></trkpt><trkpt lat="34.9467384" lon="32.8465307"><ele>1608.7</ele><time>2015-04-30T08:52:30.0000000+00:00</time></trkpt><trkpt lat="34.9457162" lon="32.8474728"><ele>1626.9</ele><time>2015-04-30T08:54:19.0000000+00:00</time></trkpt><trkpt lat="34.9440398" lon="32.847205"><ele>1641.5</ele><time>2015-04-30T08:56:53.0000000+00:00</time></trkpt><trkpt lat="34.9432" lon="32.8478912"><ele>1646.7</ele><time>2015-04-30T09:08:02.0000000+00:00</time></trkpt><trkpt lat="34.9425806" lon="32.848927"><ele>1650.7</ele><time>2015-04-30T09:09:39.0000000+00:00</time></trkpt><trkpt lat="34.9426557" lon="32.8495045"><ele>1653.6</ele><time>2015-04-30T09:10:23.0000000+00:00</time></trkpt><trkpt lat="34.9430722" lon="32.8500717"><ele>1664.0</ele><time>2015-04-30T09:11:15.0000000+00:00</time></trkpt><trkpt lat="34.9430803" lon="32.8511234"><ele>1671.5</ele><time>2015-04-30T09:12:25.0000000+00:00</time></trkpt><trkpt lat="34.9438474" lon="32.8529607"><ele>1683.5</ele><time>2015-04-30T09:14:52.0000000+00:00</time></trkpt><trkpt lat="34.9447498" lon="32.8539362"><ele>1697.9</ele><time>2015-04-30T09:16:34.0000000+00:00</time></trkpt><trkpt lat="34.9451668" lon="32.8546901"><ele>1710.2</ele><time>2015-04-30T09:17:29.0000000+00:00</time></trkpt><trkpt lat="34.9449832" lon="32.8550044"><ele>1722.2</ele><time>2015-04-30T09:18:02.0000000+00:00</time></trkpt><trkpt lat="34.9441723" lon="32.8547363"><ele>1723.1</ele><time>2015-04-30T09:19:22.0000000+00:00</time></trkpt><trkpt lat="34.9438971" lon="32.8548713"><ele>1722.8</ele><time>2015-04-30T09:19:53.0000000+00:00</time></trkpt><trkpt lat="34.9437749" lon="32.8568507"><ele>1740.7</ele><time>2015-04-30T09:29:13.0000000+00:00</time></trkpt><trkpt lat="34.9430191" lon="32.8578694"><ele>1751.5</ele><time>2015-04-30T09:31:06.0000000+00:00</time></trkpt><trkpt lat="34.9426092" lon="32.8587413"><ele>1756.9</ele><time>2015-04-30T09:32:25.0000000+00:00</time></trkpt><trkpt lat="34.9426126" lon="32.8594764"><ele>1762.9</ele><time>2015-04-30T09:33:15.0000000+00:00</time></trkpt><trkpt lat="34.9428738" lon="32.8602512"><ele>1770.2</ele><time>2015-04-30T09:34:17.0000000+00:00</time></trkpt><trkpt lat="34.9430335" lon="32.8618952"><ele>1782.7</ele><time>2015-04-30T09:36:07.0000000+00:00</time></trkpt><trkpt lat="34.9429247" lon="32.8626608"><ele>1788.8</ele><time>2015-04-30T09:36:56.0000000+00:00</time></trkpt><trkpt lat="34.9412057" lon="32.8640474"><ele>1810.0</ele><time>2015-04-30T09:39:42.0000000+00:00</time></trkpt><trkpt lat="34.9409925" lon="32.8644104"><ele>1809.1</ele><time>2015-04-30T09:43:10.0000000+00:00</time></trkpt><trkpt lat="34.9399795" lon="32.8647532"><ele>1811.1</ele><time>2015-04-30T09:43:52.0000000+00:00</time></trkpt><trkpt lat="34.9397273" lon="32.8650323"><ele>1807.2</ele><time>2015-04-30T09:43:57.0000000+00:00</time></trkpt><trkpt lat="34.9396635" lon="32.8653622"><ele>1804.3</ele><time>2015-04-30T09:44:01.0000000+00:00</time></trkpt><trkpt lat="34.9401513" lon="32.8660953"><ele>1806.5</ele><time>2015-04-30T09:44:16.0000000+00:00</time></trkpt><trkpt lat="34.9402043" lon="32.8668647"><ele>1804.1</ele><time>2015-04-30T09:44:29.0000000+00:00</time></trkpt><trkpt lat="34.9390728" lon="32.8691573"><ele>1797.6</ele><time>2015-04-30T09:45:07.0000000+00:00</time></trkpt><trkpt lat="34.9364526" lon="32.8707862"><ele>1789.7</ele><time>2015-04-30T09:45:37.0000000+00:00</time></trkpt><trkpt lat="34.9355091" lon="32.8710981"><ele>1795.4</ele><time>2015-04-30T09:45:59.0000000+00:00</time></trkpt><trkpt lat="34.9354582" lon="32.8714264"><ele>1800.4</ele><time>2015-04-30T09:46:07.0000000+00:00</time></trkpt><trkpt lat="34.9360076" lon="32.8719225"><ele>1800.9</ele><time>2015-04-30T09:46:25.0000000+00:00</time></trkpt><trkpt lat="34.9360629" lon="32.8725366"><ele>1798.7</ele><time>2015-04-30T09:46:45.0000000+00:00</time></trkpt><trkpt lat="34.9356964" lon="32.8733181"><ele>1795.5</ele><time>2015-04-30T09:48:34.0000000+00:00</time></trkpt><trkpt lat="34.9347075" lon="32.873779"><ele>1796.6</ele><time>2015-04-30T09:49:48.0000000+00:00</time></trkpt><trkpt lat="34.9346326" lon="32.8748775"><ele>1793.6</ele><time>2015-04-30T09:50:04.0000000+00:00</time></trkpt><trkpt lat="34.9336157" lon="32.8748115"><ele>1791.8</ele><time>2015-04-30T09:50:32.0000000+00:00</time></trkpt><trkpt lat="34.9329334" lon="32.8759958"><ele>1781.1</ele><time>2015-04-30T09:50:49.0000000+00:00</time></trkpt><trkpt lat="34.9314822" lon="32.8767781"><ele>1771.3</ele><time>2015-04-30T09:51:05.0000000+00:00</time></trkpt><trkpt lat="34.930185" lon="32.8766499"><ele>1761.4</ele><time>2015-04-30T09:51:17.0000000+00:00</time></trkpt><trkpt lat="34.9287373" lon="32.8770361"><ele>1752.8</ele><time>2015-04-30T09:51:30.0000000+00:00</time></trkpt><trkpt lat="34.9275379" lon="32.8779522"><ele>1744.2</ele><time>2015-04-30T09:51:44.0000000+00:00</time></trkpt><trkpt lat="34.9270046" lon="32.8786748"><ele>1740.2</ele><time>2015-04-30T09:51:53.0000000+00:00</time></trkpt><trkpt lat="34.9265779" lon="32.8786053"><ele>1741.1</ele><time>2015-04-30T09:51:59.0000000+00:00</time></trkpt><trkpt lat="34.9256173" lon="32.8777716"><ele>1743.2</ele><time>2015-04-30T09:52:22.0000000+00:00</time></trkpt><trkpt lat="34.9252882" lon="32.8777742"><ele>1741.0</ele><time>2015-04-30T09:52:29.0000000+00:00</time></trkpt><trkpt lat="34.924424" lon="32.8789007"><ele>1734.4</ele><time>2015-04-30T09:52:48.0000000+00:00</time></trkpt><trkpt lat="34.9243519" lon="32.8793"><ele>1733.1</ele><time>2015-04-30T09:52:52.0000000+00:00</time></trkpt><trkpt lat="34.9245011" lon="32.88032"><ele>1729.5</ele><time>2015-04-30T09:53:01.0000000+00:00</time></trkpt><trkpt lat="34.9241201" lon="32.8813009"><ele>1725.0</ele><time>2015-04-30T09:53:23.0000000+00:00</time></trkpt><trkpt lat="34.9233553" lon="32.8804582"><ele>1722.6</ele><time>2015-04-30T09:54:12.0000000+00:00</time></trkpt><trkpt lat="34.9226099" lon="32.8803772"><ele>1720.3</ele><time>2015-04-30T09:57:07.0000000+00:00</time></trkpt><trkpt lat="34.9225638" lon="32.8802432"><ele>1721.4</ele><time>2015-04-30T10:04:42.0000000+00:00</time></trkpt><trkpt lat="34.922615" lon="32.8805202"><ele>1716.8</ele><time>2015-04-30T10:05:26.0000000+00:00</time></trkpt><trkpt lat="34.9225977" lon="32.8803793"><ele>1720.3</ele><time>2015-04-30T10:10:53.0000000+00:00</time></trkpt><trkpt lat="34.9227894" lon="32.8803377"><ele>1720.5</ele><time>2015-04-30T10:11:10.0000000+00:00</time></trkpt><trkpt lat="34.923229" lon="32.8804581"><ele>1721.7</ele><time>2015-04-30T10:11:28.0000000+00:00</time></trkpt><trkpt lat="34.9231105" lon="32.8810907"><ele>1713.3</ele><time>2015-04-30T10:11:50.0000000+00:00</time></trkpt><trkpt lat="34.9232386" lon="32.880917"><ele>1717.9</ele><time>2015-04-30T10:12:22.0000000+00:00</time></trkpt><trkpt lat="34.923172" lon="32.8805346"><ele>1720.3</ele><time>2015-04-30T10:12:43.0000000+00:00</time></trkpt><trkpt lat="34.9225827" lon="32.8802915"><ele>1721.0</ele><time>2015-04-30T10:54:02.0000000+00:00</time></trkpt><trkpt lat="34.923538" lon="32.8805415"><ele>1723.5</ele><time>2015-04-30T10:57:38.0000000+00:00</time></trkpt><trkpt lat="34.9240192" lon="32.8813175"><ele>1724.2</ele><time>2015-04-30T10:58:07.0000000+00:00</time></trkpt><trkpt lat="34.9241595" lon="32.8820359"><ele>1719.4</ele><time>2015-04-30T10:58:20.0000000+00:00</time></trkpt><trkpt lat="34.9245424" lon="32.8823251"><ele>1718.3</ele><time>2015-04-30T10:58:27.0000000+00:00</time></trkpt><trkpt lat="34.9248835" lon="32.8822506"><ele>1718.9</ele><time>2015-04-30T10:58:32.0000000+00:00</time></trkpt><trkpt lat="34.9254919" lon="32.8816431"><ele>1717.8</ele><time>2015-04-30T10:58:43.0000000+00:00</time></trkpt><trkpt lat="34.9274274" lon="32.8810774"><ele>1701.3</ele><time>2015-04-30T11:00:38.0000000+00:00</time></trkpt><trkpt lat="34.9284665" lon="32.881382"><ele>1692.5</ele><time>2015-04-30T11:00:49.0000000+00:00</time></trkpt><trkpt lat="34.9297853" lon="32.8821196"><ele>1679.1</ele><time>2015-04-30T11:01:01.0000000+00:00</time></trkpt><trkpt lat="34.9316454" lon="32.8840408"><ele>1658.3</ele><time>2015-04-30T11:01:24.0000000+00:00</time></trkpt><trkpt lat="34.9317355" lon="32.884708"><ele>1656.4</ele><time>2015-04-30T11:01:30.0000000+00:00</time></trkpt><trkpt lat="34.9313144" lon="32.8857519"><ele>1653.2</ele><time>2015-04-30T11:03:10.0000000+00:00</time></trkpt><trkpt lat="34.9312933" lon="32.8861877"><ele>1651.4</ele><time>2015-04-30T11:03:19.0000000+00:00</time></trkpt><trkpt lat="34.9325144" lon="32.8882574"><ele>1644.4</ele><time>2015-04-30T11:03:49.0000000+00:00</time></trkpt><trkpt lat="34.933932" lon="32.8894474"><ele>1658.6</ele><time>2015-04-30T11:04:29.0000000+00:00</time></trkpt><trkpt lat="34.9359703" lon="32.8901607"><ele>1674.5</ele><time>2015-04-30T11:06:11.0000000+00:00</time></trkpt><trkpt lat="34.9362947" lon="32.8905796"><ele>1677.0</ele><time>2015-04-30T11:06:34.0000000+00:00</time></trkpt><trkpt lat="34.9364597" lon="32.8911554"><ele>1674.2</ele><time>2015-04-30T11:06:49.0000000+00:00</time></trkpt><trkpt lat="34.9363913" lon="32.8925401"><ele>1664.6</ele><time>2015-04-30T11:07:07.0000000+00:00</time></trkpt><trkpt lat="34.9342257" lon="32.89768"><ele>1627.0</ele><time>2015-04-30T11:07:42.0000000+00:00</time></trkpt><trkpt lat="34.9333071" lon="32.8995032"><ele>1618.8</ele><time>2015-04-30T11:07:56.0000000+00:00</time></trkpt><trkpt lat="34.9318839" lon="32.900864"><ele>1607.7</ele><time>2015-04-30T11:08:11.0000000+00:00</time></trkpt><trkpt lat="34.9309712" lon="32.9021964"><ele>1598.7</ele><time>2015-04-30T11:08:23.0000000+00:00</time></trkpt><trkpt lat="34.9307106" lon="32.903841"><ele>1586.2</ele><time>2015-04-30T11:08:35.0000000+00:00</time></trkpt><trkpt lat="34.9308705" lon="32.9055721"><ele>1572.7</ele><time>2015-04-30T11:08:48.0000000+00:00</time></trkpt><trkpt lat="34.9322125" lon="32.9072442"><ele>1552.7</ele><time>2015-04-30T11:09:06.0000000+00:00</time></trkpt><trkpt lat="34.9331281" lon="32.9099537"><ele>1535.1</ele><time>2015-04-30T11:14:54.0000000+00:00</time></trkpt><trkpt lat="34.9337204" lon="32.9109299"><ele>1526.6</ele><time>2015-04-30T11:15:25.0000000+00:00</time></trkpt><trkpt lat="34.9336603" lon="32.911657"><ele>1524.1</ele><time>2015-04-30T11:15:32.0000000+00:00</time></trkpt><trkpt lat="34.9327967" lon="32.9128736"><ele>1510.5</ele><time>2015-04-30T11:15:45.0000000+00:00</time></trkpt><trkpt lat="34.932809" lon="32.9131929"><ele>1504.9</ele><time>2015-04-30T11:15:48.0000000+00:00</time></trkpt><trkpt lat="34.9333146" lon="32.9142903"><ele>1495.9</ele><time>2015-04-30T11:15:59.0000000+00:00</time></trkpt><trkpt lat="34.9328702" lon="32.9153022"><ele>1483.5</ele><time>2015-04-30T11:16:12.0000000+00:00</time></trkpt><trkpt lat="34.9330125" lon="32.9155986"><ele>1478.7</ele><time>2015-04-30T11:16:16.0000000+00:00</time></trkpt><trkpt lat="34.934008" lon="32.9163854"><ele>1480.3</ele><time>2015-04-30T11:16:28.0000000+00:00</time></trkpt><trkpt lat="34.9342365" lon="32.9168425"><ele>1479.1</ele><time>2015-04-30T11:16:32.0000000+00:00</time></trkpt><trkpt lat="34.934428" lon="32.9176687"><ele>1472.9</ele><time>2015-04-30T11:16:38.0000000+00:00</time></trkpt><trkpt lat="34.9343152" lon="32.9190965"><ele>1456.4</ele><time>2015-04-30T11:16:48.0000000+00:00</time></trkpt><trkpt lat="34.9339621" lon="32.9200827"><ele>1445.5</ele><time>2015-04-30T11:16:55.0000000+00:00</time></trkpt><trkpt lat="34.9332942" lon="32.9204489"><ele>1434.8</ele><time>2015-04-30T11:17:01.0000000+00:00</time></trkpt><trkpt lat="34.9326865" lon="32.9201882"><ele>1427.6</ele><time>2015-04-30T11:17:06.0000000+00:00</time></trkpt><trkpt lat="34.9318698" lon="32.9192752"><ele>1416.1</ele><time>2015-04-30T11:17:14.0000000+00:00</time></trkpt><trkpt lat="34.9310607" lon="32.9178396"><ele>1407.4</ele><time>2015-04-30T11:17:26.0000000+00:00</time></trkpt><trkpt lat="34.930725" lon="32.9145024"><ele>1387.2</ele><time>2015-04-30T11:17:50.0000000+00:00</time></trkpt><trkpt lat="34.9304689" lon="32.9144113"><ele>1383.8</ele><time>2015-04-30T11:17:55.0000000+00:00</time></trkpt><trkpt lat="34.9306153" lon="32.9160416"><ele>1376.0</ele><time>2015-04-30T11:18:17.0000000+00:00</time></trkpt><trkpt lat="34.9303527" lon="32.9177428"><ele>1366.6</ele><time>2015-04-30T11:18:31.0000000+00:00</time></trkpt><trkpt lat="34.9293994" lon="32.9192405"><ele>1354.5</ele><time>2015-04-30T11:18:45.0000000+00:00</time></trkpt><trkpt lat="34.9294791" lon="32.9209627"><ele>1342.7</ele><time>2015-04-30T11:18:56.0000000+00:00</time></trkpt><trkpt lat="34.9291845" lon="32.9219795"><ele>1331.4</ele><time>2015-04-30T11:19:05.0000000+00:00</time></trkpt><trkpt lat="34.9294247" lon="32.9227596"><ele>1325.4</ele><time>2015-04-30T11:19:12.0000000+00:00</time></trkpt><trkpt lat="34.9294452" lon="32.924169"><ele>1316.2</ele><time>2015-04-30T11:19:22.0000000+00:00</time></trkpt><trkpt lat="34.9296608" lon="32.9244953"><ele>1315.4</ele><time>2015-04-30T11:19:25.0000000+00:00</time></trkpt><trkpt lat="34.9299831" lon="32.9246079"><ele>1315.7</ele><time>2015-04-30T11:19:28.0000000+00:00</time></trkpt><trkpt lat="34.9310758" lon="32.9243569"><ele>1313.2</ele><time>2015-04-30T11:19:39.0000000+00:00</time></trkpt><trkpt lat="34.9333529" lon="32.9247778"><ele>1291.0</ele><time>2015-04-30T11:20:01.0000000+00:00</time></trkpt><trkpt lat="34.9348625" lon="32.9267665"><ele>1273.8</ele><time>2015-04-30T11:20:20.0000000+00:00</time></trkpt><trkpt lat="34.9352318" lon="32.9280811"><ele>1264.4</ele><time>2015-04-30T11:20:32.0000000+00:00</time></trkpt><trkpt lat="34.9355681" lon="32.9280227"><ele>1264.0</ele><time>2015-04-30T11:20:37.0000000+00:00</time></trkpt><trkpt lat="34.9357837" lon="32.9272524"><ele>1266.4</ele><time>2015-04-30T11:20:47.0000000+00:00</time></trkpt><trkpt lat="34.936314" lon="32.9269271"><ele>1259.3</ele><time>2015-04-30T11:20:57.0000000+00:00</time></trkpt><trkpt lat="34.9368179" lon="32.927073"><ele>1251.3</ele><time>2015-04-30T11:21:03.0000000+00:00</time></trkpt><trkpt lat="34.9374161" lon="32.9277692"><ele>1244.5</ele><time>2015-04-30T11:21:17.0000000+00:00</time></trkpt><trkpt lat="34.937746" lon="32.9279188"><ele>1240.7</ele><time>2015-04-30T11:21:22.0000000+00:00</time></trkpt><trkpt lat="34.938796" lon="32.927547"><ele>1228.5</ele><time>2015-04-30T11:21:37.0000000+00:00</time></trkpt><trkpt lat="34.9398245" lon="32.9283802"><ele>1219.9</ele><time>2015-04-30T11:21:55.0000000+00:00</time></trkpt><trkpt lat="34.9405966" lon="32.9279404"><ele>1212.3</ele><time>2015-04-30T11:22:07.0000000+00:00</time></trkpt><trkpt lat="34.9409648" lon="32.9279779"><ele>1206.1</ele><time>2015-04-30T11:22:12.0000000+00:00</time></trkpt><trkpt lat="34.9412064" lon="32.9283739"><ele>1207.0</ele><time>2015-04-30T11:22:18.0000000+00:00</time></trkpt><trkpt lat="34.9413692" lon="32.9294557"><ele>1196.6</ele><time>2015-04-30T11:22:32.0000000+00:00</time></trkpt><trkpt lat="34.9423749" lon="32.9304339"><ele>1183.9</ele><time>2015-04-30T11:22:54.0000000+00:00</time></trkpt><trkpt lat="34.9423334" lon="32.930594"><ele>1184.3</ele><time>2015-04-30T11:23:01.0000000+00:00</time></trkpt><trkpt lat="34.9412818" lon="32.9306649"><ele>1176.0</ele><time>2015-04-30T11:23:18.0000000+00:00</time></trkpt><trkpt lat="34.9393488" lon="32.9315995"><ele>1154.5</ele><time>2015-04-30T11:23:42.0000000+00:00</time></trkpt><trkpt lat="34.9355814" lon="32.9328911"><ele>1119.3</ele><time>2015-04-30T11:24:10.0000000+00:00</time></trkpt><trkpt lat="34.9340878" lon="32.9329999"><ele>1100.8</ele><time>2015-04-30T11:24:23.0000000+00:00</time></trkpt><trkpt lat="34.9322212" lon="32.9346951"><ele>1085.0</ele><time>2015-04-30T11:24:41.0000000+00:00</time></trkpt><trkpt lat="34.9308182" lon="32.9353107"><ele>1072.4</ele><time>2015-04-30T11:24:54.0000000+00:00</time></trkpt><trkpt lat="34.9294194" lon="32.9353144"><ele>1061.3</ele><time>2015-04-30T11:25:07.0000000+00:00</time></trkpt><trkpt lat="34.9277562" lon="32.9346622"><ele>1049.5</ele><time>2015-04-30T11:25:22.0000000+00:00</time></trkpt><trkpt lat="34.9261611" lon="32.9344652"><ele>1035.8</ele><time>2015-04-30T11:25:34.0000000+00:00</time></trkpt><trkpt lat="34.9236244" lon="32.9353824"><ele>1013.1</ele><time>2015-04-30T11:25:53.0000000+00:00</time></trkpt><trkpt lat="34.9226486" lon="32.936213"><ele>999.9</ele><time>2015-04-30T11:26:02.0000000+00:00</time></trkpt><trkpt lat="34.9222973" lon="32.936308"><ele>996.6</ele><time>2015-04-30T11:26:05.0000000+00:00</time></trkpt><trkpt lat="34.9207421" lon="32.9357439"><ele>982.4</ele><time>2015-04-30T11:26:20.0000000+00:00</time></trkpt><trkpt lat="34.9205342" lon="32.9350037"><ele>976.9</ele><time>2015-04-30T11:26:30.0000000+00:00</time></trkpt><trkpt lat="34.9199725" lon="32.9345244"><ele>982.0</ele><time>2015-04-30T11:26:53.0000000+00:00</time></trkpt><trkpt lat="34.919642" lon="32.9345306"><ele>984.5</ele><time>2015-04-30T11:27:08.0000000+00:00</time></trkpt><trkpt lat="34.9188282" lon="32.9350256"><ele>981.1</ele><time>2015-04-30T11:27:38.0000000+00:00</time></trkpt><trkpt lat="34.9176792" lon="32.9365055"><ele>969.4</ele><time>2015-04-30T11:28:00.0000000+00:00</time></trkpt><trkpt lat="34.9174156" lon="32.9369197"><ele>965.6</ele><time>2015-04-30T11:28:07.0000000+00:00</time></trkpt><trkpt lat="34.9174719" lon="32.9370751"><ele>963.4</ele><time>2015-04-30T11:28:17.0000000+00:00</time></trkpt><trkpt lat="34.9173229" lon="32.9370606"><ele>963.7</ele><time>2015-04-30T11:36:00.0000000+00:00</time></trkpt><trkpt lat="34.9167264" lon="32.9380972"><ele>952.0</ele><time>2015-04-30T11:36:21.0000000+00:00</time></trkpt><trkpt lat="34.9150826" lon="32.9394661"><ele>938.8</ele><time>2015-04-30T11:36:43.0000000+00:00</time></trkpt><trkpt lat="34.914327" lon="32.9405726"><ele>931.2</ele><time>2015-04-30T11:36:55.0000000+00:00</time></trkpt><trkpt lat="34.9130386" lon="32.941595"><ele>924.5</ele><time>2015-04-30T11:37:08.0000000+00:00</time></trkpt><trkpt lat="34.9114623" lon="32.9421345"><ele>916.0</ele><time>2015-04-30T11:37:22.0000000+00:00</time></trkpt><trkpt lat="34.9094718" lon="32.9431301"><ele>898.2</ele><time>2015-04-30T11:37:40.0000000+00:00</time></trkpt><trkpt lat="34.906015" lon="32.9431689"><ele>877.4</ele><time>2015-04-30T11:38:08.0000000+00:00</time></trkpt><trkpt lat="34.9054294" lon="32.9430403"><ele>874.3</ele><time>2015-04-30T11:38:13.0000000+00:00</time></trkpt><trkpt lat="34.903803" lon="32.9422378"><ele>866.7</ele><time>2015-04-30T11:38:28.0000000+00:00</time></trkpt><trkpt lat="34.9024051" lon="32.9422403"><ele>858.6</ele><time>2015-04-30T11:38:41.0000000+00:00</time></trkpt><trkpt lat="34.9015484" lon="32.9420305"><ele>861.6</ele><time>2015-04-30T11:38:50.0000000+00:00</time></trkpt><trkpt lat="34.8997723" lon="32.9399648"><ele>845.9</ele><time>2015-04-30T11:39:14.0000000+00:00</time></trkpt><trkpt lat="34.8994633" lon="32.9392848"><ele>849.3</ele><time>2015-04-30T11:39:20.0000000+00:00</time></trkpt><trkpt lat="34.8989154" lon="32.9370436"><ele>826.4</ele><time>2015-04-30T11:39:37.0000000+00:00</time></trkpt><trkpt lat="34.8984154" lon="32.9364292"><ele>819.6</ele><time>2015-04-30T11:39:45.0000000+00:00</time></trkpt><trkpt lat="34.8956482" lon="32.9354554"><ele>804.3</ele><time>2015-04-30T11:40:13.0000000+00:00</time></trkpt><trkpt lat="34.8941078" lon="32.9361278"><ele>794.9</ele><time>2015-04-30T11:40:32.0000000+00:00</time></trkpt><trkpt lat="34.8924826" lon="32.9356643"><ele>783.3</ele><time>2015-04-30T11:40:50.0000000+00:00</time></trkpt><trkpt lat="34.8903335" lon="32.9356596"><ele>776.0</ele><time>2015-04-30T11:41:18.0000000+00:00</time></trkpt><trkpt lat="34.8897956" lon="32.9348631"><ele>772.8</ele><time>2015-04-30T11:41:32.0000000+00:00</time></trkpt><trkpt lat="34.8897131" lon="32.9337603"><ele>771.1</ele><time>2015-04-30T11:41:44.0000000+00:00</time></trkpt><trkpt lat="34.8893202" lon="32.9331439"><ele>759.9</ele><time>2015-04-30T11:41:51.0000000+00:00</time></trkpt><trkpt lat="34.8886206" lon="32.9326377"><ele>756.0</ele><time>2015-04-30T11:41:58.0000000+00:00</time></trkpt><trkpt lat="34.8874999" lon="32.9323839"><ele>751.4</ele><time>2015-04-30T11:42:08.0000000+00:00</time></trkpt><trkpt lat="34.8857606" lon="32.9314382"><ele>731.4</ele><time>2015-04-30T11:42:24.0000000+00:00</time></trkpt><trkpt lat="34.8855032" lon="32.9307572"><ele>729.7</ele><time>2015-04-30T11:42:30.0000000+00:00</time></trkpt><trkpt lat="34.8851648" lon="32.928745"><ele>721.1</ele><time>2015-04-30T11:42:46.0000000+00:00</time></trkpt><trkpt lat="34.8845584" lon="32.927729"><ele>719.5</ele><time>2015-04-30T11:42:57.0000000+00:00</time></trkpt><trkpt lat="34.8834659" lon="32.927073"><ele>717.6</ele><time>2015-04-30T11:43:13.0000000+00:00</time></trkpt><trkpt lat="34.8824737" lon="32.9270191"><ele>712.1</ele><time>2015-04-30T11:43:28.0000000+00:00</time></trkpt><trkpt lat="34.880678" lon="32.9265061"><ele>705.6</ele><time>2015-04-30T11:44:05.0000000+00:00</time></trkpt><trkpt lat="34.8804534" lon="32.9260442"><ele>708.1</ele><time>2015-04-30T11:44:14.0000000+00:00</time></trkpt><trkpt lat="34.880477" lon="32.9249885"><ele>702.6</ele><time>2015-04-30T11:44:27.0000000+00:00</time></trkpt><trkpt lat="34.8802298" lon="32.9243563"><ele>692.8</ele><time>2015-04-30T11:44:33.0000000+00:00</time></trkpt><trkpt lat="34.8781904" lon="32.9231811"><ele>689.1</ele><time>2015-04-30T11:44:56.0000000+00:00</time></trkpt><trkpt lat="34.8773623" lon="32.922513"><ele>681.5</ele><time>2015-04-30T11:45:05.0000000+00:00</time></trkpt><trkpt lat="34.8757635" lon="32.9201815"><ele>664.3</ele><time>2015-04-30T11:45:24.0000000+00:00</time></trkpt><trkpt lat="34.8744699" lon="32.9189448"><ele>664.9</ele><time>2015-04-30T11:45:39.0000000+00:00</time></trkpt><trkpt lat="34.8738152" lon="32.9186319"><ele>660.8</ele><time>2015-04-30T11:45:47.0000000+00:00</time></trkpt><trkpt lat="34.8721193" lon="32.9188506"><ele>657.3</ele><time>2015-04-30T11:47:42.0000000+00:00</time></trkpt><trkpt lat="34.8708547" lon="32.9183858"><ele>647.2</ele><time>2015-04-30T11:47:58.0000000+00:00</time></trkpt><trkpt lat="34.8700192" lon="32.9176018"><ele>641.6</ele><time>2015-04-30T11:48:11.0000000+00:00</time></trkpt><trkpt lat="34.8685646" lon="32.9170095"><ele>632.4</ele><time>2015-04-30T11:48:38.0000000+00:00</time></trkpt><trkpt lat="34.8680358" lon="32.9162588"><ele>627.6</ele><time>2015-04-30T11:48:49.0000000+00:00</time></trkpt><trkpt lat="34.8666004" lon="32.915228"><ele>620.3</ele><time>2015-04-30T11:49:09.0000000+00:00</time></trkpt><trkpt lat="34.8655" lon="32.9139744"><ele>616.6</ele><time>2015-04-30T11:49:29.0000000+00:00</time></trkpt><trkpt lat="34.8652467" lon="32.9132701"><ele>616.5</ele><time>2015-04-30T11:49:41.0000000+00:00</time></trkpt><trkpt lat="34.8647769" lon="32.9127405"><ele>615.0</ele><time>2015-04-30T11:49:52.0000000+00:00</time></trkpt><trkpt lat="34.8640957" lon="32.9125794"><ele>616.1</ele><time>2015-04-30T11:50:05.0000000+00:00</time></trkpt><trkpt lat="34.863395" lon="32.9126793"><ele>609.3</ele><time>2015-04-30T11:50:19.0000000+00:00</time></trkpt><trkpt lat="34.8626128" lon="32.9123715"><ele>603.4</ele><time>2015-04-30T11:50:32.0000000+00:00</time></trkpt><trkpt lat="34.8622491" lon="32.9120462"><ele>600.5</ele><time>2015-04-30T11:50:45.0000000+00:00</time></trkpt><trkpt lat="34.861462" lon="32.9128174"><ele>594.3</ele><time>2015-04-30T11:51:22.0000000+00:00</time></trkpt><trkpt lat="34.8616033" lon="32.9130893"><ele>594.0</ele><time>2015-04-30T11:51:56.0000000+00:00</time></trkpt><trkpt lat="34.8612981" lon="32.9130346"><ele>591.9</ele><time>2015-04-30T11:56:19.0000000+00:00</time></trkpt><trkpt lat="34.8606057" lon="32.913639"><ele>592.4</ele><time>2015-04-30T11:56:46.0000000+00:00</time></trkpt><trkpt lat="34.8604132" lon="32.9133049"><ele>589.6</ele><time>2015-04-30T11:57:07.0000000+00:00</time></trkpt><trkpt lat="34.8600534" lon="32.9132155"><ele>584.8</ele><time>2015-04-30T11:57:39.0000000+00:00</time></trkpt><trkpt lat="34.8599989" lon="32.9135318"><ele>587.7</ele><time>2015-04-30T12:00:16.0000000+00:00</time></trkpt><trkpt lat="34.8596642" lon="32.9136391"><ele>589.1</ele><time>2015-04-30T12:00:28.0000000+00:00</time></trkpt><trkpt lat="34.8573286" lon="32.9131966"><ele>582.8</ele><time>2015-04-30T12:01:10.0000000+00:00</time></trkpt><trkpt lat="34.8560909" lon="32.9126438"><ele>574.7</ele><time>2015-04-30T12:01:36.0000000+00:00</time></trkpt><trkpt lat="34.8546032" lon="32.9130951"><ele>571.6</ele><time>2015-04-30T12:02:03.0000000+00:00</time></trkpt><trkpt lat="34.8534838" lon="32.9126175"><ele>568.5</ele><time>2015-04-30T12:02:20.0000000+00:00</time></trkpt><trkpt lat="34.8528195" lon="32.911782"><ele>563.8</ele><time>2015-04-30T12:02:40.0000000+00:00</time></trkpt><trkpt lat="34.8515886" lon="32.911733"><ele>559.2</ele><time>2015-04-30T12:03:08.0000000+00:00</time></trkpt><trkpt lat="34.8493378" lon="32.9111738"><ele>551.5</ele><time>2015-04-30T12:03:45.0000000+00:00</time></trkpt><trkpt lat="34.8485289" lon="32.9112366"><ele>548.7</ele><time>2015-04-30T12:03:55.0000000+00:00</time></trkpt><trkpt lat="34.8477895" lon="32.9105543"><ele>556.0</ele><time>2015-04-30T12:04:12.0000000+00:00</time></trkpt><trkpt lat="34.8473162" lon="32.9103342"><ele>556.1</ele><time>2015-04-30T12:04:26.0000000+00:00</time></trkpt><trkpt lat="34.8468683" lon="32.9105089"><ele>555.4</ele><time>2015-04-30T12:04:40.0000000+00:00</time></trkpt><trkpt lat="34.8461195" lon="32.9111859"><ele>559.1</ele><time>2015-04-30T12:05:21.0000000+00:00</time></trkpt><trkpt lat="34.8459782" lon="32.9107856"><ele>558.8</ele><time>2015-04-30T12:10:28.0000000+00:00</time></trkpt><trkpt lat="34.846192" lon="32.9111189"><ele>558.9</ele><time>2015-04-30T12:10:46.0000000+00:00</time></trkpt><trkpt lat="34.8459983" lon="32.9117697"><ele>558.6</ele><time>2015-04-30T12:11:07.0000000+00:00</time></trkpt><trkpt lat="34.8460148" lon="32.9126823"><ele>557.6</ele><time>2015-04-30T12:11:24.0000000+00:00</time></trkpt><trkpt lat="34.8454922" lon="32.9134497"><ele>555.1</ele><time>2015-04-30T12:11:38.0000000+00:00</time></trkpt><trkpt lat="34.843894" lon="32.9138268"><ele>560.9</ele><time>2015-04-30T12:12:07.0000000+00:00</time></trkpt><trkpt lat="34.8435744" lon="32.9136453"><ele>556.4</ele><time>2015-04-30T12:12:26.0000000+00:00</time></trkpt><trkpt lat="34.8438681" lon="32.9137278"><ele>557.9</ele><time>2015-04-30T12:12:45.0000000+00:00</time></trkpt><trkpt lat="34.8433193" lon="32.9139114"><ele>558.7</ele><time>2015-04-30T12:13:06.0000000+00:00</time></trkpt><trkpt lat="34.8427026" lon="32.9149852"><ele>559.1</ele><time>2015-04-30T12:13:35.0000000+00:00</time></trkpt><trkpt lat="34.842143" lon="32.9151902"><ele>561.2</ele><time>2015-04-30T12:13:51.0000000+00:00</time></trkpt><trkpt lat="34.8417134" lon="32.9148997"><ele>560.8</ele><time>2015-04-30T12:14:00.0000000+00:00</time></trkpt><trkpt lat="34.8398227" lon="32.9123218"><ele>564.6</ele><time>2015-04-30T12:14:56.0000000+00:00</time></trkpt><trkpt lat="34.839458" lon="32.9114695"><ele>567.2</ele><time>2015-04-30T12:15:15.0000000+00:00</time></trkpt><trkpt lat="34.8393454" lon="32.910017"><ele>566.8</ele><time>2015-04-30T12:15:45.0000000+00:00</time></trkpt><trkpt lat="34.8390215" lon="32.909414"><ele>566.1</ele><time>2015-04-30T12:15:57.0000000+00:00</time></trkpt><trkpt lat="34.8379003" lon="32.9086306"><ele>568.9</ele><time>2015-04-30T12:16:24.0000000+00:00</time></trkpt><trkpt lat="34.8366252" lon="32.9072658"><ele>567.5</ele><time>2015-04-30T12:17:08.0000000+00:00</time></trkpt><trkpt lat="34.8362954" lon="32.907128"><ele>564.5</ele><time>2015-04-30T12:17:18.0000000+00:00</time></trkpt><trkpt lat="34.8352824" lon="32.9076653"><ele>556.8</ele><time>2015-04-30T12:17:39.0000000+00:00</time></trkpt><trkpt lat="34.8348907" lon="32.9080585"><ele>554.4</ele><time>2015-04-30T12:17:46.0000000+00:00</time></trkpt><trkpt lat="34.8344148" lon="32.9101115"><ele>548.5</ele><time>2015-04-30T12:18:04.0000000+00:00</time></trkpt><trkpt lat="34.8341116" lon="32.910614"><ele>541.6</ele><time>2015-04-30T12:18:09.0000000+00:00</time></trkpt><trkpt lat="34.8322584" lon="32.9112484"><ele>549.3</ele><time>2015-04-30T12:18:35.0000000+00:00</time></trkpt><trkpt lat="34.8318442" lon="32.9115861"><ele>549.3</ele><time>2015-04-30T12:18:46.0000000+00:00</time></trkpt><trkpt lat="34.8316687" lon="32.9122132"><ele>546.5</ele><time>2015-04-30T12:18:58.0000000+00:00</time></trkpt><trkpt lat="34.83165" lon="32.9154548"><ele>538.7</ele><time>2015-04-30T12:19:42.0000000+00:00</time></trkpt><trkpt lat="34.8312441" lon="32.9161685"><ele>547.1</ele><time>2015-04-30T12:19:53.0000000+00:00</time></trkpt><trkpt lat="34.8306331" lon="32.9164704"><ele>540.8</ele><time>2015-04-30T12:20:04.0000000+00:00</time></trkpt><trkpt lat="34.8299004" lon="32.9163989"><ele>540.6</ele><time>2015-04-30T12:20:15.0000000+00:00</time></trkpt><trkpt lat="34.8292741" lon="32.9157887"><ele>546.5</ele><time>2015-04-30T12:20:27.0000000+00:00</time></trkpt><trkpt lat="34.8286275" lon="32.9124646"><ele>527.9</ele><time>2015-04-30T12:21:04.0000000+00:00</time></trkpt><trkpt lat="34.8276884" lon="32.9100653"><ele>517.8</ele><time>2015-04-30T12:21:35.0000000+00:00</time></trkpt><trkpt lat="34.827379" lon="32.9097279"><ele>515.0</ele><time>2015-04-30T12:21:42.0000000+00:00</time></trkpt><trkpt lat="34.8270147" lon="32.909627"><ele>512.3</ele><time>2015-04-30T12:21:48.0000000+00:00</time></trkpt><trkpt lat="34.8252483" lon="32.9100479"><ele>507.5</ele><time>2015-04-30T12:22:14.0000000+00:00</time></trkpt><trkpt lat="34.8244356" lon="32.9104068"><ele>508.5</ele><time>2015-04-30T12:22:26.0000000+00:00</time></trkpt><trkpt lat="34.8220652" lon="32.9132302"><ele>509.7</ele><time>2015-04-30T12:23:28.0000000+00:00</time></trkpt><trkpt lat="34.8217114" lon="32.9134922"><ele>510.8</ele><time>2015-04-30T12:23:40.0000000+00:00</time></trkpt><trkpt lat="34.8207841" lon="32.9136057"><ele>513.4</ele><time>2015-04-30T12:24:12.0000000+00:00</time></trkpt><trkpt lat="34.8198343" lon="32.915091"><ele>516.6</ele><time>2015-04-30T12:24:59.0000000+00:00</time></trkpt><trkpt lat="34.8193071" lon="32.9154375"><ele>519.6</ele><time>2015-04-30T12:25:10.0000000+00:00</time></trkpt><trkpt lat="34.8179768" lon="32.9155483"><ele>518.1</ele><time>2015-04-30T12:25:38.0000000+00:00</time></trkpt><trkpt lat="34.8165015" lon="32.916147"><ele>523.7</ele><time>2015-04-30T12:26:22.0000000+00:00</time></trkpt><trkpt lat="34.8163529" lon="32.9160036"><ele>521.2</ele><time>2015-04-30T12:26:34.0000000+00:00</time></trkpt><trkpt lat="34.8161506" lon="32.9163262"><ele>522.5</ele><time>2015-04-30T12:27:29.0000000+00:00</time></trkpt><trkpt lat="34.8153491" lon="32.9165041"><ele>529.9</ele><time>2015-04-30T12:28:04.0000000+00:00</time></trkpt><trkpt lat="34.813717" lon="32.9158874"><ele>535.8</ele><time>2015-04-30T12:29:12.0000000+00:00</time></trkpt><trkpt lat="34.8123678" lon="32.9150367"><ele>534.4</ele><time>2015-04-30T12:29:58.0000000+00:00</time></trkpt><trkpt lat="34.8119137" lon="32.9149794"><ele>533.7</ele><time>2015-04-30T12:30:08.0000000+00:00</time></trkpt><trkpt lat="34.8114678" lon="32.9152191"><ele>533.2</ele><time>2015-04-30T12:30:19.0000000+00:00</time></trkpt><trkpt lat="34.8103759" lon="32.9165732"><ele>537.7</ele><time>2015-04-30T12:31:02.0000000+00:00</time></trkpt><trkpt lat="34.8096836" lon="32.9168418"><ele>541.5</ele><time>2015-04-30T12:31:19.0000000+00:00</time></trkpt><trkpt lat="34.8085158" lon="32.91695"><ele>535.3</ele><time>2015-04-30T12:32:04.0000000+00:00</time></trkpt><trkpt lat="34.8073845" lon="32.9174973"><ele>529.3</ele><time>2015-04-30T12:32:25.0000000+00:00</time></trkpt><trkpt lat="34.8033487" lon="32.9162161"><ele>509.4</ele><time>2015-04-30T12:33:07.0000000+00:00</time></trkpt><trkpt lat="34.8002501" lon="32.9158952"><ele>501.8</ele><time>2015-04-30T12:33:44.0000000+00:00</time></trkpt><trkpt lat="34.7988882" lon="32.915078"><ele>500.4</ele><time>2015-04-30T12:34:06.0000000+00:00</time></trkpt><trkpt lat="34.7982017" lon="32.914939"><ele>500.1</ele><time>2015-04-30T12:34:17.0000000+00:00</time></trkpt><trkpt lat="34.7931561" lon="32.9158673"><ele>483.7</ele><time>2015-04-30T12:35:24.0000000+00:00</time></trkpt><trkpt lat="34.7897488" lon="32.9160878"><ele>467.6</ele><time>2015-04-30T12:36:08.0000000+00:00</time></trkpt><trkpt lat="34.789134" lon="32.9159114"><ele>477.2</ele><time>2015-04-30T12:36:15.0000000+00:00</time></trkpt><trkpt lat="34.7880799" lon="32.9152152"><ele>470.0</ele><time>2015-04-30T12:36:31.0000000+00:00</time></trkpt><trkpt lat="34.7875949" lon="32.9151339"><ele>464.9</ele><time>2015-04-30T12:36:38.0000000+00:00</time></trkpt><trkpt lat="34.785993" lon="32.9159544"><ele>459.8</ele><time>2015-04-30T12:37:01.0000000+00:00</time></trkpt><trkpt lat="34.7852739" lon="32.9161099"><ele>463.6</ele><time>2015-04-30T12:37:14.0000000+00:00</time></trkpt><trkpt lat="34.782402" lon="32.915377"><ele>441.1</ele><time>2015-04-30T12:38:44.0000000+00:00</time></trkpt><trkpt lat="34.7795625" lon="32.9155516"><ele>431.3</ele><time>2015-04-30T12:39:12.0000000+00:00</time></trkpt><trkpt lat="34.7784876" lon="32.9146384"><ele>428.7</ele><time>2015-04-30T12:39:33.0000000+00:00</time></trkpt><trkpt lat="34.7757484" lon="32.9153089"><ele>403.9</ele><time>2015-04-30T12:40:00.0000000+00:00</time></trkpt><trkpt lat="34.7742017" lon="32.9146333"><ele>395.7</ele><time>2015-04-30T12:40:17.0000000+00:00</time></trkpt><trkpt lat="34.7716287" lon="32.9147822"><ele>375.2</ele><time>2015-04-30T12:40:41.0000000+00:00</time></trkpt><trkpt lat="34.7706779" lon="32.9158101"><ele>361.3</ele><time>2015-04-30T12:40:52.0000000+00:00</time></trkpt><trkpt lat="34.7692894" lon="32.9167861"><ele>353.4</ele><time>2015-04-30T12:41:06.0000000+00:00</time></trkpt><trkpt lat="34.7684502" lon="32.9180741"><ele>338.7</ele><time>2015-04-30T12:41:17.0000000+00:00</time></trkpt><trkpt lat="34.7630841" lon="32.9231774"><ele>284.3</ele><time>2015-04-30T12:42:16.0000000+00:00</time></trkpt><trkpt lat="34.7620034" lon="32.9247639"><ele>268.7</ele><time>2015-04-30T12:42:34.0000000+00:00</time></trkpt><trkpt lat="34.7616885" lon="32.9260556"><ele>265.0</ele><time>2015-04-30T12:42:58.0000000+00:00</time></trkpt><trkpt lat="34.7618161" lon="32.927736"><ele>261.0</ele><time>2015-04-30T12:43:17.0000000+00:00</time></trkpt><trkpt lat="34.7622932" lon="32.9287615"><ele>261.3</ele><time>2015-04-30T12:43:31.0000000+00:00</time></trkpt><trkpt lat="34.7673008" lon="32.9352968"><ele>247.8</ele><time>2015-04-30T12:46:15.0000000+00:00</time></trkpt><trkpt lat="34.7681042" lon="32.9365265"><ele>249.9</ele><time>2015-04-30T12:46:32.0000000+00:00</time></trkpt><trkpt lat="34.7684777" lon="32.9374237"><ele>249.4</ele><time>2015-04-30T12:46:47.0000000+00:00</time></trkpt><trkpt lat="34.768908" lon="32.9393459"><ele>265.0</ele><time>2015-04-30T12:48:03.0000000+00:00</time></trkpt><trkpt lat="34.7689836" lon="32.9410568"><ele>280.9</ele><time>2015-04-30T12:50:01.0000000+00:00</time></trkpt><trkpt lat="34.768454" lon="32.943301"><ele>297.4</ele><time>2015-04-30T12:52:36.0000000+00:00</time></trkpt><trkpt lat="34.7677306" lon="32.9447314"><ele>309.3</ele><time>2015-04-30T12:54:20.0000000+00:00</time></trkpt><trkpt lat="34.7660221" lon="32.9472469"><ele>329.4</ele><time>2015-04-30T13:02:52.0000000+00:00</time></trkpt><trkpt lat="34.7599111" lon="32.952574"><ele>300.7</ele><time>2015-04-30T13:05:17.0000000+00:00</time></trkpt><trkpt lat="34.758646" lon="32.9541448"><ele>285.9</ele><time>2015-04-30T13:05:30.0000000+00:00</time></trkpt><trkpt lat="34.7556184" lon="32.9592927"><ele>260.6</ele><time>2015-04-30T13:06:08.0000000+00:00</time></trkpt><trkpt lat="34.751792" lon="32.9686736"><ele>222.8</ele><time>2015-04-30T13:07:20.0000000+00:00</time></trkpt><trkpt lat="34.7472496" lon="32.9737148"><ele>194.4</ele><time>2015-04-30T13:08:17.0000000+00:00</time></trkpt><trkpt lat="34.7459721" lon="32.9754321"><ele>189.2</ele><time>2015-04-30T13:08:32.0000000+00:00</time></trkpt><trkpt lat="34.7454756" lon="32.9767516"><ele>198.0</ele><time>2015-04-30T13:08:49.0000000+00:00</time></trkpt><trkpt lat="34.744422" lon="32.982959"><ele>218.6</ele><time>2015-04-30T13:12:35.0000000+00:00</time></trkpt><trkpt lat="34.7438751" lon="32.9842917"><ele>216.0</ele><time>2015-04-30T13:13:01.0000000+00:00</time></trkpt><trkpt lat="34.7428398" lon="32.9853026"><ele>208.9</ele><time>2015-04-30T13:13:25.0000000+00:00</time></trkpt><trkpt lat="34.7432244" lon="32.9852614"><ele>211.2</ele><time>2015-04-30T13:13:48.0000000+00:00</time></trkpt><trkpt lat="34.7418889" lon="32.9856328"><ele>204.3</ele><time>2015-04-30T13:17:36.0000000+00:00</time></trkpt><trkpt lat="34.7368159" lon="32.9863723"><ele>183.0</ele><time>2015-04-30T13:18:54.0000000+00:00</time></trkpt><trkpt lat="34.7335875" lon="32.9881634"><ele>162.8</ele><time>2015-04-30T13:19:31.0000000+00:00</time></trkpt><trkpt lat="34.7324958" lon="32.9885304"><ele>163.1</ele><time>2015-04-30T13:19:48.0000000+00:00</time></trkpt><trkpt lat="34.7311559" lon="32.9885315"><ele>161.9</ele><time>2015-04-30T13:20:07.0000000+00:00</time></trkpt><trkpt lat="34.7275408" lon="32.9875767"><ele>157.1</ele><time>2015-04-30T13:21:13.0000000+00:00</time></trkpt><trkpt lat="34.7247177" lon="32.9875328"><ele>157.0</ele><time>2015-04-30T13:21:58.0000000+00:00</time></trkpt><trkpt lat="34.7234334" lon="32.9877725"><ele>156.4</ele><time>2015-04-30T13:22:19.0000000+00:00</time></trkpt><trkpt lat="34.7221371" lon="32.9882612"><ele>148.7</ele><time>2015-04-30T13:22:42.0000000+00:00</time></trkpt><trkpt lat="34.7208497" lon="32.9889575"><ele>150.9</ele><time>2015-04-30T13:23:05.0000000+00:00</time></trkpt><trkpt lat="34.719489" lon="32.9903213"><ele>146.6</ele><time>2015-04-30T13:23:34.0000000+00:00</time></trkpt><trkpt lat="34.7175812" lon="32.9914369"><ele>138.5</ele><time>2015-04-30T13:24:09.0000000+00:00</time></trkpt><trkpt lat="34.7168107" lon="32.9926494"><ele>128.4</ele><time>2015-04-30T13:24:30.0000000+00:00</time></trkpt><trkpt lat="34.7157689" lon="32.9952777"><ele>117.3</ele><time>2015-04-30T13:24:55.0000000+00:00</time></trkpt><trkpt lat="34.7146232" lon="32.9965653"><ele>108.0</ele><time>2015-04-30T13:25:10.0000000+00:00</time></trkpt><trkpt lat="34.7093466" lon="33.0000325"><ele>89.5</ele><time>2015-04-30T13:26:34.0000000+00:00</time></trkpt><trkpt lat="34.7054161" lon="33.0032495"><ele>79.2</ele><time>2015-04-30T13:27:34.0000000+00:00</time></trkpt><trkpt lat="34.7028905" lon="33.0045597"><ele>75.7</ele><time>2015-04-30T13:28:17.0000000+00:00</time></trkpt><trkpt lat="34.7021438" lon="33.0051507"><ele>73.1</ele><time>2015-04-30T13:28:31.0000000+00:00</time></trkpt><trkpt lat="34.7001516" lon="33.0079003"><ele>64.8</ele><time>2015-04-30T13:30:00.0000000+00:00</time></trkpt><trkpt lat="34.698127" lon="33.009885"><ele>58.9</ele><time>2015-04-30T13:30:49.0000000+00:00</time></trkpt><trkpt lat="34.6970095" lon="33.0117922"><ele>54.4</ele><time>2015-04-30T13:31:18.0000000+00:00</time></trkpt><trkpt lat="34.6948552" lon="33.0134603"><ele>50.4</ele><time>2015-04-30T13:32:16.0000000+00:00</time></trkpt><trkpt lat="34.694378" lon="33.01421"><ele>52.4</ele><time>2015-04-30T13:32:41.0000000+00:00</time></trkpt><trkpt lat="34.6937882" lon="33.0144443"><ele>50.9</ele><time>2015-04-30T13:32:53.0000000+00:00</time></trkpt><trkpt lat="34.6929348" lon="33.0151898"><ele>50.5</ele><time>2015-04-30T13:34:01.0000000+00:00</time></trkpt><trkpt lat="34.6930935" lon="33.0145111"><ele>50.9</ele><time>2015-04-30T13:34:41.0000000+00:00</time></trkpt><trkpt lat="34.6926489" lon="33.0140331"><ele>47.5</ele><time>2015-04-30T13:34:57.0000000+00:00</time></trkpt><trkpt lat="34.6923159" lon="33.0140197"><ele>46.0</ele><time>2015-04-30T13:35:07.0000000+00:00</time></trkpt><trkpt lat="34.6918374" lon="33.014441"><ele>44.0</ele><time>2015-04-30T13:35:20.0000000+00:00</time></trkpt><trkpt lat="34.6885271" lon="33.0117796"><ele>47.3</ele><time>2015-04-30T13:38:21.0000000+00:00</time></trkpt><trkpt lat="34.6881723" lon="33.0119898"><ele>47.3</ele><time>2015-04-30T13:38:32.0000000+00:00</time></trkpt><trkpt lat="34.6877114" lon="33.0117011"><ele>45.3</ele><time>2015-04-30T13:38:50.0000000+00:00</time></trkpt><trkpt lat="34.686206" lon="33.0143061"><ele>40.9</ele><time>2015-04-30T13:39:56.0000000+00:00</time></trkpt><trkpt lat="34.6851684" lon="33.0165794"><ele>36.1</ele><time>2015-04-30T13:41:31.0000000+00:00</time></trkpt><trkpt lat="34.6837875" lon="33.0183635"><ele>35.1</ele><time>2015-04-30T13:42:45.0000000+00:00</time></trkpt><trkpt lat="34.683005" lon="33.019127"><ele>33.8</ele><time>2015-04-30T13:43:05.0000000+00:00</time></trkpt><trkpt lat="34.682594" lon="33.0202003"><ele>32.6</ele><time>2015-04-30T13:43:23.0000000+00:00</time></trkpt><trkpt lat="34.6822147" lon="33.0220973"><ele>31.3</ele><time>2015-04-30T13:43:53.0000000+00:00</time></trkpt><trkpt lat="34.6817697" lon="33.0232136"><ele>30.3</ele><time>2015-04-30T13:44:14.0000000+00:00</time></trkpt><trkpt lat="34.6783975" lon="33.0285462"><ele>22.2</ele><time>2015-04-30T13:47:23.0000000+00:00</time></trkpt><trkpt lat="34.6779157" lon="33.0288277"><ele>19.4</ele><time>2015-04-30T13:47:33.0000000+00:00</time></trkpt><trkpt lat="34.6740841" lon="33.0288702"><ele>14.3</ele><time>2015-04-30T13:49:41.0000000+00:00</time></trkpt><trkpt lat="34.6711566" lon="33.0297487"><ele>11.0</ele><time>2015-04-30T13:50:55.0000000+00:00</time></trkpt><trkpt lat="34.6713155" lon="33.030319"><ele>11.4</ele><time>2015-04-30T13:51:13.0000000+00:00</time></trkpt><trkpt lat="34.6705334" lon="33.0308664"><ele>8.4</ele><time>2015-04-30T13:51:37.0000000+00:00</time></trkpt><trkpt lat="34.6720016" lon="33.0340432"><ele>8.7</ele><time>2015-04-30T13:53:44.0000000+00:00</time></trkpt><trkpt lat="34.6718346" lon="33.0372475"><ele>5.8</ele><time>2015-04-30T13:54:41.0000000+00:00</time></trkpt><trkpt lat="34.6720164" lon="33.0383562"><ele>5.4</ele><time>2015-04-30T13:55:09.0000000+00:00</time></trkpt><trkpt lat="34.6715215" lon="33.0404903"><ele>2.9</ele><time>2015-04-30T13:56:01.0000000+00:00</time></trkpt><trkpt lat="34.671822" lon="33.0415093"><ele>5.9</ele><time>2015-04-30T13:56:44.0000000+00:00</time></trkpt><trkpt lat="34.6717011" lon="33.0420988"><ele>5.6</ele><time>2015-04-30T13:57:41.0000000+00:00</time></trkpt><trkpt lat="34.671792" lon="33.0422455"><ele>5.3</ele><time>2015-04-30T13:58:06.0000000+00:00</time></trkpt><trkpt lat="34.6725016" lon="33.04225"><ele>6.8</ele><time>2015-04-30T13:58:52.0000000+00:00</time></trkpt><trkpt lat="34.6732254" lon="33.0420747"><ele>6.9</ele><time>2015-04-30T13:59:56.0000000+00:00</time></trkpt><trkpt lat="34.6743162" lon="33.0451367"><ele>11.1</ele><time>2015-04-30T14:11:00.0000000+00:00</time></trkpt><trkpt lat="34.6740117" lon="33.0442623"><ele>9.4</ele><time>2015-04-30T14:26:28.0000000+00:00</time></trkpt><trkpt lat="34.6737655" lon="33.0440482"><ele>7.2</ele><time>2015-04-30T14:26:39.0000000+00:00</time></trkpt><trkpt lat="34.6726966" lon="33.0441636"><ele>3.2</ele><time>2015-04-30T14:27:52.0000000+00:00</time></trkpt><trkpt lat="34.6717852" lon="33.0425681"><ele>6.0</ele><time>2015-04-30T14:29:14.0000000+00:00</time></trkpt><trkpt lat="34.6718005" lon="33.0423553"><ele>4.9</ele><time>2015-04-30T14:29:38.0000000+00:00</time></trkpt><trkpt lat="34.6715793" lon="33.0422437"><ele>5.0</ele><time>2015-04-30T14:30:40.0000000+00:00</time></trkpt></trkseg><trkseg><trkpt lat="34.916645" lon="33.6365753"><ele>4.6</ele><time>2015-05-01T08:02:53.0000000+00:00</time></trkpt><trkpt lat="34.9165877" lon="33.6364599"><ele>4.8</ele><time>2015-05-01T08:02:57.0000000+00:00</time></trkpt><trkpt lat="34.9164901" lon="33.6380434"><ele>2.7</ele><time>2015-05-01T08:03:40.0000000+00:00</time></trkpt><trkpt lat="34.9149579" lon="33.6379447"><ele>1.4</ele><time>2015-05-01T08:04:51.0000000+00:00</time></trkpt><trkpt lat="34.9149646" lon="33.6365115"><ele>5.5</ele><time>2015-05-01T08:05:33.0000000+00:00</time></trkpt><trkpt lat="34.9138573" lon="33.6363537"><ele>9.5</ele><time>2015-05-01T08:06:47.0000000+00:00</time></trkpt><trkpt lat="34.9136988" lon="33.6365659"><ele>9.7</ele><time>2015-05-01T08:07:00.0000000+00:00</time></trkpt><trkpt lat="34.9131826" lon="33.6362927"><ele>8.9</ele><time>2015-05-01T08:07:49.0000000+00:00</time></trkpt><trkpt lat="34.9127493" lon="33.6363088"><ele>6.5</ele><time>2015-05-01T08:08:21.0000000+00:00</time></trkpt><trkpt lat="34.9123724" lon="33.6358107"><ele>4.7</ele><time>2015-05-01T08:09:09.0000000+00:00</time></trkpt><trkpt lat="34.9123057" lon="33.6354768"><ele>5.9</ele><time>2015-05-01T08:09:17.0000000+00:00</time></trkpt><trkpt lat="34.9116449" lon="33.6353204"><ele>7.1</ele><time>2015-05-01T08:09:31.0000000+00:00</time></trkpt><trkpt lat="34.9118858" lon="33.6346741"><ele>5.9</ele><time>2015-05-01T08:09:43.0000000+00:00</time></trkpt><trkpt lat="34.9131826" lon="33.6325737"><ele>5.2</ele><time>2015-05-01T08:10:21.0000000+00:00</time></trkpt><trkpt lat="34.9139377" lon="33.6304607"><ele>7.4</ele><time>2015-05-01T08:11:04.0000000+00:00</time></trkpt><trkpt lat="34.9138846" lon="33.6302121"><ele>8.6</ele><time>2015-05-01T08:11:14.0000000+00:00</time></trkpt><trkpt lat="34.9112352" lon="33.6299238"><ele>7.5</ele><time>2015-05-01T08:12:07.0000000+00:00</time></trkpt><trkpt lat="34.9111123" lon="33.6313262"><ele>4.7</ele><time>2015-05-01T08:12:29.0000000+00:00</time></trkpt><trkpt lat="34.9094968" lon="33.6312967"><ele>5.1</ele><time>2015-05-01T08:13:00.0000000+00:00</time></trkpt><trkpt lat="34.9094381" lon="33.6328482"><ele>6.6</ele><time>2015-05-01T08:13:24.0000000+00:00</time></trkpt><trkpt lat="34.908756" lon="33.6332337"><ele>5.8</ele><time>2015-05-01T08:13:40.0000000+00:00</time></trkpt><trkpt lat="34.9087907" lon="33.634055"><ele>3.3</ele><time>2015-05-01T08:14:03.0000000+00:00</time></trkpt><trkpt lat="34.9069698" lon="33.6342679"><ele>3.0</ele><time>2015-05-01T08:14:37.0000000+00:00</time></trkpt><trkpt lat="34.9066604" lon="33.6316566"><ele>3.3</ele><time>2015-05-01T08:15:27.0000000+00:00</time></trkpt><trkpt lat="34.9060718" lon="33.6299604"><ele>8.9</ele><time>2015-05-01T08:16:02.0000000+00:00</time></trkpt><trkpt lat="34.9033579" lon="33.6304086"><ele>10.3</ele><time>2015-05-01T08:16:59.0000000+00:00</time></trkpt><trkpt lat="34.8988657" lon="33.6303625"><ele>8.2</ele><time>2015-05-01T08:18:11.0000000+00:00</time></trkpt><trkpt lat="34.8969631" lon="33.6305263"><ele>2.8</ele><time>2015-05-01T08:18:34.0000000+00:00</time></trkpt><trkpt lat="34.8960948" lon="33.6308677"><ele>3.3</ele><time>2015-05-01T08:18:46.0000000+00:00</time></trkpt><trkpt lat="34.8942938" lon="33.6322943"><ele>2.6</ele><time>2015-05-01T08:19:20.0000000+00:00</time></trkpt><trkpt lat="34.8934041" lon="33.6325202"><ele>2.2</ele><time>2015-05-01T08:19:39.0000000+00:00</time></trkpt><trkpt lat="34.8924626" lon="33.6321491"><ele>1.9</ele><time>2015-05-01T08:19:57.0000000+00:00</time></trkpt><trkpt lat="34.8910426" lon="33.6308445"><ele>3.4</ele><time>2015-05-01T08:20:28.0000000+00:00</time></trkpt><trkpt lat="34.8898695" lon="33.6295749"><ele>6.9</ele><time>2015-05-01T08:20:59.0000000+00:00</time></trkpt><trkpt lat="34.8870467" lon="33.6255906"><ele>1.6</ele><time>2015-05-01T08:22:13.0000000+00:00</time></trkpt><trkpt lat="34.8857216" lon="33.6230998"><ele>-1.3</ele><time>2015-05-01T08:22:53.0000000+00:00</time></trkpt><trkpt lat="34.8848292" lon="33.6225712"><ele>1.2</ele><time>2015-05-01T08:23:10.0000000+00:00</time></trkpt><trkpt lat="34.8833409" lon="33.6226502"><ele>1.8</ele><time>2015-05-01T08:23:39.0000000+00:00</time></trkpt><trkpt lat="34.8830844" lon="33.6219638"><ele>0.3</ele><time>2015-05-01T08:23:52.0000000+00:00</time></trkpt><trkpt lat="34.8778835" lon="33.6155809"><ele>0.6</ele><time>2015-05-01T08:26:04.0000000+00:00</time></trkpt><trkpt lat="34.8769099" lon="33.6129638"><ele>2.1</ele><time>2015-05-01T08:26:50.0000000+00:00</time></trkpt><trkpt lat="34.877454" lon="33.6084907"><ele>7.8</ele><time>2015-05-01T08:28:10.0000000+00:00</time></trkpt><trkpt lat="34.8774658" lon="33.6061172"><ele>11.3</ele><time>2015-05-01T08:28:51.0000000+00:00</time></trkpt><trkpt lat="34.877067" lon="33.6046137"><ele>13.1</ele><time>2015-05-01T08:29:16.0000000+00:00</time></trkpt><trkpt lat="34.8764722" lon="33.6035209"><ele>12.9</ele><time>2015-05-01T08:29:37.0000000+00:00</time></trkpt><trkpt lat="34.8761483" lon="33.6031636"><ele>13.6</ele><time>2015-05-01T08:29:45.0000000+00:00</time></trkpt><trkpt lat="34.8753896" lon="33.60292"><ele>13.6</ele><time>2015-05-01T08:29:59.0000000+00:00</time></trkpt><trkpt lat="34.875136" lon="33.6018423"><ele>16.1</ele><time>2015-05-01T08:30:18.0000000+00:00</time></trkpt><trkpt lat="34.8740311" lon="33.6006846"><ele>17.8</ele><time>2015-05-01T08:30:58.0000000+00:00</time></trkpt><trkpt lat="34.8680417" lon="33.5976106"><ele>16.6</ele><time>2015-05-01T08:33:22.0000000+00:00</time></trkpt><trkpt lat="34.8680444" lon="33.5972664"><ele>16.5</ele><time>2015-05-01T08:34:04.0000000+00:00</time></trkpt><trkpt lat="34.869503" lon="33.5944058"><ele>21.2</ele><time>2015-05-01T08:35:13.0000000+00:00</time></trkpt><trkpt lat="34.8702254" lon="33.591919"><ele>23.7</ele><time>2015-05-01T08:35:54.0000000+00:00</time></trkpt><trkpt lat="34.8702619" lon="33.591362"><ele>24.9</ele><time>2015-05-01T08:36:06.0000000+00:00</time></trkpt><trkpt lat="34.8691613" lon="33.5908302"><ele>20.7</ele><time>2015-05-01T08:36:29.0000000+00:00</time></trkpt><trkpt lat="34.8673537" lon="33.5895345"><ele>23.5</ele><time>2015-05-01T08:37:12.0000000+00:00</time></trkpt><trkpt lat="34.8666901" lon="33.5909524"><ele>22.2</ele><time>2015-05-01T08:37:45.0000000+00:00</time></trkpt><trkpt lat="34.8654685" lon="33.59097"><ele>22.4</ele><time>2015-05-01T08:38:11.0000000+00:00</time></trkpt><trkpt lat="34.8639623" lon="33.5895497"><ele>19.3</ele><time>2015-05-01T08:38:48.0000000+00:00</time></trkpt><trkpt lat="34.8647906" lon="33.5876713"><ele>21.9</ele><time>2015-05-01T08:39:32.0000000+00:00</time></trkpt><trkpt lat="34.8622416" lon="33.5858457"><ele>24.9</ele><time>2015-05-01T08:40:44.0000000+00:00</time></trkpt><trkpt lat="34.8615339" lon="33.5867522"><ele>22.8</ele><time>2015-05-01T08:41:05.0000000+00:00</time></trkpt><trkpt lat="34.8602864" lon="33.5893054"><ele>20.7</ele><time>2015-05-01T08:41:48.0000000+00:00</time></trkpt><trkpt lat="34.8596304" lon="33.5903011"><ele>18.8</ele><time>2015-05-01T08:42:38.0000000+00:00</time></trkpt><trkpt lat="34.8583119" lon="33.5878856"><ele>17.5</ele><time>2015-05-01T08:43:21.0000000+00:00</time></trkpt><trkpt lat="34.8570078" lon="33.5864144"><ele>18.9</ele><time>2015-05-01T08:43:52.0000000+00:00</time></trkpt><trkpt lat="34.8542378" lon="33.582648"><ele>21.9</ele><time>2015-05-01T08:45:17.0000000+00:00</time></trkpt><trkpt lat="34.8523798" lon="33.5803917"><ele>22.8</ele><time>2015-05-01T08:46:10.0000000+00:00</time></trkpt><trkpt lat="34.84863" lon="33.5748054"><ele>25.5</ele><time>2015-05-01T08:48:13.0000000+00:00</time></trkpt><trkpt lat="34.8464912" lon="33.5726275"><ele>21.2</ele><time>2015-05-01T08:49:14.0000000+00:00</time></trkpt><trkpt lat="34.8464777" lon="33.572494"><ele>21.4</ele><time>2015-05-01T08:49:18.0000000+00:00</time></trkpt><trkpt lat="34.8479523" lon="33.5711534"><ele>24.5</ele><time>2015-05-01T08:51:09.0000000+00:00</time></trkpt><trkpt lat="34.8478418" lon="33.5706414"><ele>24.5</ele><time>2015-05-01T08:52:02.0000000+00:00</time></trkpt><trkpt lat="34.8474889" lon="33.5707352"><ele>25.1</ele><time>2015-05-01T08:52:47.0000000+00:00</time></trkpt><trkpt lat="34.8473868" lon="33.5711444"><ele>23.7</ele><time>2015-05-01T08:54:04.0000000+00:00</time></trkpt><trkpt lat="34.8475201" lon="33.5711313"><ele>24.5</ele><time>2015-05-01T08:54:18.0000000+00:00</time></trkpt><trkpt lat="34.8474733" lon="33.5714239"><ele>23.8</ele><time>2015-05-01T08:55:08.0000000+00:00</time></trkpt><trkpt lat="34.8473993" lon="33.5709785"><ele>24.4</ele><time>2015-05-01T08:56:13.0000000+00:00</time></trkpt><trkpt lat="34.8473285" lon="33.5710674"><ele>23.8</ele><time>2015-05-01T08:56:20.0000000+00:00</time></trkpt><trkpt lat="34.8474677" lon="33.5708665"><ele>24.9</ele><time>2015-05-01T09:01:16.0000000+00:00</time></trkpt><trkpt lat="34.8479741" lon="33.5711205"><ele>24.6</ele><time>2015-05-01T09:01:56.0000000+00:00</time></trkpt><trkpt lat="34.8484399" lon="33.5706615"><ele>25.0</ele><time>2015-05-01T09:02:35.0000000+00:00</time></trkpt><trkpt lat="34.8488787" lon="33.5688322"><ele>23.5</ele><time>2015-05-01T09:03:13.0000000+00:00</time></trkpt><trkpt lat="34.8487323" lon="33.5682507"><ele>24.6</ele><time>2015-05-01T09:03:25.0000000+00:00</time></trkpt><trkpt lat="34.8229744" lon="33.533865"><ele>18.7</ele><time>2015-05-01T09:17:43.0000000+00:00</time></trkpt><trkpt lat="34.8180463" lon="33.5276418"><ele>23.4</ele><time>2015-05-01T09:20:28.0000000+00:00</time></trkpt><trkpt lat="34.8153964" lon="33.5253429"><ele>22.4</ele><time>2015-05-01T09:21:48.0000000+00:00</time></trkpt><trkpt lat="34.8147917" lon="33.5260959"><ele>21.3</ele><time>2015-05-01T09:22:10.0000000+00:00</time></trkpt><trkpt lat="34.8126088" lon="33.527314"><ele>17.6</ele><time>2015-05-01T09:22:53.0000000+00:00</time></trkpt><trkpt lat="34.8109556" lon="33.5287009"><ele>14.0</ele><time>2015-05-01T09:23:34.0000000+00:00</time></trkpt><trkpt lat="34.8095646" lon="33.5292014"><ele>11.7</ele><time>2015-05-01T09:24:12.0000000+00:00</time></trkpt><trkpt lat="34.8088554" lon="33.5300245"><ele>10.3</ele><time>2015-05-01T09:24:44.0000000+00:00</time></trkpt><trkpt lat="34.8084414" lon="33.5295387"><ele>10.1</ele><time>2015-05-01T09:25:25.0000000+00:00</time></trkpt><trkpt lat="34.8088972" lon="33.5299593"><ele>10.5</ele><time>2015-05-01T09:34:15.0000000+00:00</time></trkpt><trkpt lat="34.8096016" lon="33.5290984"><ele>11.9</ele><time>2015-05-01T09:34:40.0000000+00:00</time></trkpt><trkpt lat="34.8109091" lon="33.5286655"><ele>13.9</ele><time>2015-05-01T09:35:08.0000000+00:00</time></trkpt><trkpt lat="34.812772" lon="33.5271384"><ele>18.0</ele><time>2015-05-01T09:37:04.0000000+00:00</time></trkpt><trkpt lat="34.8147919" lon="33.5260184"><ele>21.6</ele><time>2015-05-01T09:37:50.0000000+00:00</time></trkpt><trkpt lat="34.8153166" lon="33.5252806"><ele>22.4</ele><time>2015-05-01T09:38:09.0000000+00:00</time></trkpt><trkpt lat="34.8093401" lon="33.5200614"><ele>19.6</ele><time>2015-05-01T09:40:57.0000000+00:00</time></trkpt><trkpt lat="34.8056923" lon="33.5165004"><ele>14.6</ele><time>2015-05-01T09:42:31.0000000+00:00</time></trkpt><trkpt lat="34.804939" lon="33.5151948"><ele>17.3</ele><time>2015-05-01T09:42:55.0000000+00:00</time></trkpt><trkpt lat="34.8011499" lon="33.5066902"><ele>20.8</ele><time>2015-05-01T09:46:54.0000000+00:00</time></trkpt><trkpt lat="34.8018158" lon="33.5062313"><ele>21.5</ele><time>2015-05-01T09:47:16.0000000+00:00</time></trkpt><trkpt lat="34.8034079" lon="33.5031376"><ele>26.7</ele><time>2015-05-01T09:48:21.0000000+00:00</time></trkpt><trkpt lat="34.8037822" lon="33.50205"><ele>27.5</ele><time>2015-05-01T09:48:45.0000000+00:00</time></trkpt><trkpt lat="34.8032493" lon="33.4997833"><ele>25.9</ele><time>2015-05-01T09:49:29.0000000+00:00</time></trkpt><trkpt lat="34.8029827" lon="33.4978827"><ele>20.2</ele><time>2015-05-01T09:49:54.0000000+00:00</time></trkpt><trkpt lat="34.8022511" lon="33.4950548"><ele>20.0</ele><time>2015-05-01T09:50:52.0000000+00:00</time></trkpt><trkpt lat="34.8028387" lon="33.4926423"><ele>19.1</ele><time>2015-05-01T09:51:29.0000000+00:00</time></trkpt><trkpt lat="34.8035624" lon="33.4917663"><ele>24.7</ele><time>2015-05-01T09:52:04.0000000+00:00</time></trkpt><trkpt lat="34.8036662" lon="33.4913341"><ele>27.2</ele><time>2015-05-01T09:52:22.0000000+00:00</time></trkpt><trkpt lat="34.8035946" lon="33.4898998"><ele>26.4</ele><time>2015-05-01T09:53:00.0000000+00:00</time></trkpt><trkpt lat="34.8037193" lon="33.489038"><ele>27.1</ele><time>2015-05-01T09:53:30.0000000+00:00</time></trkpt><trkpt lat="34.8034828" lon="33.4876766"><ele>23.3</ele><time>2015-05-01T09:54:45.0000000+00:00</time></trkpt><trkpt lat="34.8035413" lon="33.4870257"><ele>22.4</ele><time>2015-05-01T09:55:01.0000000+00:00</time></trkpt><trkpt lat="34.803913" lon="33.4871596"><ele>24.8</ele><time>2015-05-01T09:55:35.0000000+00:00</time></trkpt><trkpt lat="34.8045253" lon="33.4863408"><ele>23.6</ele><time>2015-05-01T09:56:01.0000000+00:00</time></trkpt><trkpt lat="34.8046378" lon="33.4858666"><ele>23.6</ele><time>2015-05-01T09:56:10.0000000+00:00</time></trkpt><trkpt lat="34.8045488" lon="33.4849533"><ele>24.6</ele><time>2015-05-01T09:56:26.0000000+00:00</time></trkpt><trkpt lat="34.8048893" lon="33.483772"><ele>22.2</ele><time>2015-05-01T09:56:53.0000000+00:00</time></trkpt><trkpt lat="34.8048457" lon="33.4829978"><ele>22.0</ele><time>2015-05-01T09:57:07.0000000+00:00</time></trkpt><trkpt lat="34.8044647" lon="33.4819543"><ele>23.5</ele><time>2015-05-01T09:57:28.0000000+00:00</time></trkpt><trkpt lat="34.8046389" lon="33.4800831"><ele>26.4</ele><time>2015-05-01T09:58:06.0000000+00:00</time></trkpt><trkpt lat="34.8039606" lon="33.4772284"><ele>30.9</ele><time>2015-05-01T09:59:19.0000000+00:00</time></trkpt><trkpt lat="34.803694" lon="33.4740851"><ele>35.2</ele><time>2015-05-01T10:00:37.0000000+00:00</time></trkpt><trkpt lat="34.8041113" lon="33.4721667"><ele>36.6</ele><time>2015-05-01T10:01:28.0000000+00:00</time></trkpt><trkpt lat="34.8057206" lon="33.4679404"><ele>41.6</ele><time>2015-05-01T10:03:38.0000000+00:00</time></trkpt><trkpt lat="34.8060661" lon="33.4663764"><ele>43.7</ele><time>2015-05-01T10:04:21.0000000+00:00</time></trkpt><trkpt lat="34.8052509" lon="33.4664502"><ele>49.1</ele><time>2015-05-01T10:06:17.0000000+00:00</time></trkpt><trkpt lat="34.804897" lon="33.4667802"><ele>55.1</ele><time>2015-05-01T10:06:47.0000000+00:00</time></trkpt><trkpt lat="34.8047247" lon="33.4672033"><ele>59.8</ele><time>2015-05-01T10:07:19.0000000+00:00</time></trkpt><trkpt lat="34.8044783" lon="33.4672671"><ele>61.5</ele><time>2015-05-01T10:08:00.0000000+00:00</time></trkpt><trkpt lat="34.8047197" lon="33.4672015"><ele>59.8</ele><time>2015-05-01T10:08:13.0000000+00:00</time></trkpt><trkpt lat="34.8049416" lon="33.4667286"><ele>54.6</ele><time>2015-05-01T10:08:24.0000000+00:00</time></trkpt><trkpt lat="34.8052801" lon="33.4664482"><ele>48.8</ele><time>2015-05-01T10:08:30.0000000+00:00</time></trkpt><trkpt lat="34.8060463" lon="33.466333"><ele>43.8</ele><time>2015-05-01T10:08:45.0000000+00:00</time></trkpt><trkpt lat="34.8063452" lon="33.4653613"><ele>45.1</ele><time>2015-05-01T10:09:15.0000000+00:00</time></trkpt><trkpt lat="34.8074932" lon="33.4643711"><ele>46.4</ele><time>2015-05-01T10:09:49.0000000+00:00</time></trkpt><trkpt lat="34.8080291" lon="33.4618678"><ele>51.3</ele><time>2015-05-01T10:10:44.0000000+00:00</time></trkpt><trkpt lat="34.8081791" lon="33.4533941"><ele>61.8</ele><time>2015-05-01T10:13:46.0000000+00:00</time></trkpt><trkpt lat="34.8079299" lon="33.4521775"><ele>64.9</ele><time>2015-05-01T10:14:20.0000000+00:00</time></trkpt><trkpt lat="34.8064753" lon="33.4480778"><ele>58.7</ele><time>2015-05-01T10:16:26.0000000+00:00</time></trkpt><trkpt lat="34.806224" lon="33.4466167"><ele>61.9</ele><time>2015-05-01T10:17:02.0000000+00:00</time></trkpt><trkpt lat="34.8062388" lon="33.4447096"><ele>63.2</ele><time>2015-05-01T10:17:54.0000000+00:00</time></trkpt><trkpt lat="34.806575" lon="33.4412638"><ele>65.2</ele><time>2015-05-01T10:19:24.0000000+00:00</time></trkpt><trkpt lat="34.8065741" lon="33.4389436"><ele>67.2</ele><time>2015-05-01T10:20:16.0000000+00:00</time></trkpt><trkpt lat="34.8063395" lon="33.4375079"><ele>67.4</ele><time>2015-05-01T10:20:58.0000000+00:00</time></trkpt><trkpt lat="34.807091" lon="33.4367438"><ele>69.0</ele><time>2015-05-01T10:21:42.0000000+00:00</time></trkpt><trkpt lat="34.8072029" lon="33.4362048"><ele>67.9</ele><time>2015-05-01T10:21:55.0000000+00:00</time></trkpt><trkpt lat="34.8087963" lon="33.4347582"><ele>71.0</ele><time>2015-05-01T10:22:44.0000000+00:00</time></trkpt><trkpt lat="34.8096005" lon="33.4342658"><ele>69.4</ele><time>2015-05-01T10:23:01.0000000+00:00</time></trkpt><trkpt lat="34.8104874" lon="33.4331436"><ele>68.0</ele><time>2015-05-01T10:23:22.0000000+00:00</time></trkpt><trkpt lat="34.8106869" lon="33.4319608"><ele>70.4</ele><time>2015-05-01T10:23:53.0000000+00:00</time></trkpt><trkpt lat="34.8111916" lon="33.4304443"><ele>74.0</ele><time>2015-05-01T10:29:30.0000000+00:00</time></trkpt><trkpt lat="34.8121712" lon="33.4286144"><ele>73.9</ele><time>2015-05-01T10:30:18.0000000+00:00</time></trkpt><trkpt lat="34.8125473" lon="33.4275617"><ele>74.3</ele><time>2015-05-01T10:30:41.0000000+00:00</time></trkpt><trkpt lat="34.8138199" lon="33.4254604"><ele>75.5</ele><time>2015-05-01T10:31:33.0000000+00:00</time></trkpt><trkpt lat="34.815411" lon="33.4209529"><ele>93.9</ele><time>2015-05-01T10:34:44.0000000+00:00</time></trkpt><trkpt lat="34.816293" lon="33.4168469"><ele>103.9</ele><time>2015-05-01T10:36:21.0000000+00:00</time></trkpt><trkpt lat="34.8169948" lon="33.4117777"><ele>109.5</ele><time>2015-05-01T10:38:16.0000000+00:00</time></trkpt><trkpt lat="34.8185349" lon="33.4087534"><ele>112.9</ele><time>2015-05-01T10:39:40.0000000+00:00</time></trkpt><trkpt lat="34.8189876" lon="33.4058899"><ele>116.8</ele><time>2015-05-01T10:40:51.0000000+00:00</time></trkpt><trkpt lat="34.8203921" lon="33.4014681"><ele>124.0</ele><time>2015-05-01T10:42:36.0000000+00:00</time></trkpt><trkpt lat="34.8220388" lon="33.3990963"><ele>129.0</ele><time>2015-05-01T10:43:44.0000000+00:00</time></trkpt><trkpt lat="34.8247751" lon="33.3957771"><ele>139.1</ele><time>2015-05-01T10:45:29.0000000+00:00</time></trkpt><trkpt lat="34.8256726" lon="33.3908307"><ele>155.8</ele><time>2015-05-01T10:53:35.0000000+00:00</time></trkpt><trkpt lat="34.8255178" lon="33.3908294"><ele>154.6</ele><time>2015-05-01T10:54:03.0000000+00:00</time></trkpt><trkpt lat="34.8254008" lon="33.390522"><ele>156.1</ele><time>2015-05-01T10:54:21.0000000+00:00</time></trkpt><trkpt lat="34.8270558" lon="33.3918187"><ele>150.3</ele><time>2015-05-01T10:55:05.0000000+00:00</time></trkpt><trkpt lat="34.8276741" lon="33.3920123"><ele>150.6</ele><time>2015-05-01T10:55:20.0000000+00:00</time></trkpt><trkpt lat="34.82853" lon="33.391896"><ele>151.4</ele><time>2015-05-01T10:56:11.0000000+00:00</time></trkpt><trkpt lat="34.8288922" lon="33.392121"><ele>151.5</ele><time>2015-05-01T10:56:23.0000000+00:00</time></trkpt><trkpt lat="34.8316782" lon="33.3951945"><ele>149.1</ele><time>2015-05-01T10:57:54.0000000+00:00</time></trkpt><trkpt lat="34.832979" lon="33.3963904"><ele>148.0</ele><time>2015-05-01T10:58:17.0000000+00:00</time></trkpt><trkpt lat="34.8380236" lon="33.4000593"><ele>154.1</ele><time>2015-05-01T11:01:40.0000000+00:00</time></trkpt><trkpt lat="34.8381381" lon="33.4004657"><ele>153.5</ele><time>2015-05-01T11:01:51.0000000+00:00</time></trkpt><trkpt lat="34.8387962" lon="33.4007275"><ele>158.2</ele><time>2015-05-01T11:02:08.0000000+00:00</time></trkpt><trkpt lat="34.839427" lon="33.4016708"><ele>160.6</ele><time>2015-05-01T11:02:33.0000000+00:00</time></trkpt><trkpt lat="34.8401313" lon="33.4038204"><ele>151.3</ele><time>2015-05-01T11:03:06.0000000+00:00</time></trkpt><trkpt lat="34.8407044" lon="33.4047449"><ele>149.9</ele><time>2015-05-01T11:03:18.0000000+00:00</time></trkpt><trkpt lat="34.843733" lon="33.4076332"><ele>150.6</ele><time>2015-05-01T11:04:20.0000000+00:00</time></trkpt><trkpt lat="34.8445282" lon="33.4080078"><ele>152.0</ele><time>2015-05-01T11:04:40.0000000+00:00</time></trkpt><trkpt lat="34.84554" lon="33.4079153"><ele>157.1</ele><time>2015-05-01T11:05:10.0000000+00:00</time></trkpt><trkpt lat="34.8462378" lon="33.4073372"><ele>161.6</ele><time>2015-05-01T11:06:01.0000000+00:00</time></trkpt><trkpt lat="34.8479684" lon="33.4044108"><ele>187.4</ele><time>2015-05-01T11:11:12.0000000+00:00</time></trkpt><trkpt lat="34.8492113" lon="33.4028593"><ele>199.9</ele><time>2015-05-01T11:14:10.0000000+00:00</time></trkpt><trkpt lat="34.8513806" lon="33.3986169"><ele>227.2</ele><time>2015-05-01T11:17:22.0000000+00:00</time></trkpt><trkpt lat="34.8526841" lon="33.3970838"><ele>239.1</ele><time>2015-05-01T11:18:59.0000000+00:00</time></trkpt><trkpt lat="34.8539797" lon="33.3959966"><ele>247.9</ele><time>2015-05-01T11:20:14.0000000+00:00</time></trkpt><trkpt lat="34.8549954" lon="33.3954261"><ele>257.0</ele><time>2015-05-01T11:22:51.0000000+00:00</time></trkpt><trkpt lat="34.8564773" lon="33.3948335"><ele>266.6</ele><time>2015-05-01T11:23:48.0000000+00:00</time></trkpt><trkpt lat="34.857855" lon="33.3945481"><ele>274.0</ele><time>2015-05-01T11:24:40.0000000+00:00</time></trkpt><trkpt lat="34.86052" lon="33.3946004"><ele>284.2</ele><time>2015-05-01T11:26:11.0000000+00:00</time></trkpt><trkpt lat="34.8628707" lon="33.3952906"><ele>284.3</ele><time>2015-05-01T11:27:19.0000000+00:00</time></trkpt><trkpt lat="34.8668427" lon="33.3955897"><ele>281.9</ele><time>2015-05-01T11:28:32.0000000+00:00</time></trkpt><trkpt lat="34.8713988" lon="33.3973443"><ele>284.9</ele><time>2015-05-01T11:30:45.0000000+00:00</time></trkpt><trkpt lat="34.8729434" lon="33.3982829"><ele>284.8</ele><time>2015-05-01T11:31:28.0000000+00:00</time></trkpt><trkpt lat="34.874768" lon="33.3998141"><ele>292.5</ele><time>2015-05-01T11:32:29.0000000+00:00</time></trkpt><trkpt lat="34.876114" lon="33.4002775"><ele>297.5</ele><time>2015-05-01T11:33:15.0000000+00:00</time></trkpt><trkpt lat="34.8778605" lon="33.4002411"><ele>306.6</ele><time>2015-05-01T11:34:15.0000000+00:00</time></trkpt><trkpt lat="34.879839" lon="33.3992878"><ele>313.2</ele><time>2015-05-01T11:35:32.0000000+00:00</time></trkpt><trkpt lat="34.8818001" lon="33.3986974"><ele>317.3</ele><time>2015-05-01T11:36:27.0000000+00:00</time></trkpt><trkpt lat="34.8824042" lon="33.3987721"><ele>319.8</ele><time>2015-05-01T11:36:42.0000000+00:00</time></trkpt><trkpt lat="34.8857627" lon="33.4001307"><ele>338.3</ele><time>2015-05-01T11:44:28.0000000+00:00</time></trkpt><trkpt lat="34.8866429" lon="33.4003124"><ele>342.4</ele><time>2015-05-01T11:44:58.0000000+00:00</time></trkpt><trkpt lat="34.8890195" lon="33.3999518"><ele>354.3</ele><time>2015-05-01T11:46:25.0000000+00:00</time></trkpt><trkpt lat="34.8912308" lon="33.4004519"><ele>366.1</ele><time>2015-05-01T11:47:49.0000000+00:00</time></trkpt><trkpt lat="34.8960203" lon="33.3994947"><ele>374.1</ele><time>2015-05-01T11:50:11.0000000+00:00</time></trkpt><trkpt lat="34.8971885" lon="33.3994829"><ele>369.2</ele><time>2015-05-01T11:50:31.0000000+00:00</time></trkpt><trkpt lat="34.8981364" lon="33.4000209"><ele>364.2</ele><time>2015-05-01T11:50:44.0000000+00:00</time></trkpt><trkpt lat="34.8995572" lon="33.4016933"><ele>360.4</ele><time>2015-05-01T11:52:31.0000000+00:00</time></trkpt><trkpt lat="34.900212" lon="33.402082"><ele>357.9</ele><time>2015-05-01T11:52:47.0000000+00:00</time></trkpt><trkpt lat="34.9009431" lon="33.402231"><ele>353.7</ele><time>2015-05-01T11:52:58.0000000+00:00</time></trkpt><trkpt lat="34.9034612" lon="33.4021812"><ele>355.1</ele><time>2015-05-01T11:53:45.0000000+00:00</time></trkpt><trkpt lat="34.9031654" lon="33.4022977"><ele>357.4</ele><time>2015-05-01T11:54:01.0000000+00:00</time></trkpt><trkpt lat="34.9035434" lon="33.4023282"><ele>354.1</ele><time>2015-05-01T11:54:34.0000000+00:00</time></trkpt><trkpt lat="34.9032415" lon="33.4024876"><ele>356.9</ele><time>2015-05-01T11:54:44.0000000+00:00</time></trkpt><trkpt lat="34.9032647" lon="33.4026266"><ele>356.4</ele><time>2015-05-01T11:54:50.0000000+00:00</time></trkpt><trkpt lat="34.9032085" lon="33.4024547"><ele>357.4</ele><time>2015-05-01T11:55:13.0000000+00:00</time></trkpt><trkpt lat="34.9036786" lon="33.4021347"><ele>354.3</ele><time>2015-05-01T11:56:01.0000000+00:00</time></trkpt><trkpt lat="34.9046363" lon="33.40226"><ele>351.3</ele><time>2015-05-01T11:56:22.0000000+00:00</time></trkpt><trkpt lat="34.9118458" lon="33.4056818"><ele>324.7</ele><time>2015-05-01T12:00:00.0000000+00:00</time></trkpt><trkpt lat="34.9124984" lon="33.406133"><ele>323.1</ele><time>2015-05-01T12:00:08.0000000+00:00</time></trkpt><trkpt lat="34.9146283" lon="33.408495"><ele>318.5</ele><time>2015-05-01T12:00:46.0000000+00:00</time></trkpt><trkpt lat="34.9158454" lon="33.409601"><ele>315.7</ele><time>2015-05-01T12:01:15.0000000+00:00</time></trkpt><trkpt lat="34.9199508" lon="33.4116503"><ele>306.9</ele><time>2015-05-01T12:03:40.0000000+00:00</time></trkpt><trkpt lat="34.9223719" lon="33.4134221"><ele>299.1</ele><time>2015-05-01T12:04:25.0000000+00:00</time></trkpt><trkpt lat="34.9233514" lon="33.4138818"><ele>298.3</ele><time>2015-05-01T12:04:44.0000000+00:00</time></trkpt><trkpt lat="34.9252811" lon="33.4140396"><ele>294.4</ele><time>2015-05-01T12:05:21.0000000+00:00</time></trkpt><trkpt lat="34.9304748" lon="33.4120942"><ele>277.1</ele><time>2015-05-01T12:07:34.0000000+00:00</time></trkpt><trkpt lat="34.9313915" lon="33.4119711"><ele>277.0</ele><time>2015-05-01T12:07:53.0000000+00:00</time></trkpt><trkpt lat="34.9320123" lon="33.4121576"><ele>275.5</ele><time>2015-05-01T12:08:05.0000000+00:00</time></trkpt><trkpt lat="34.9332517" lon="33.4130762"><ele>275.1</ele><time>2015-05-01T12:08:29.0000000+00:00</time></trkpt><trkpt lat="34.933943" lon="33.4132681"><ele>273.8</ele><time>2015-05-01T12:08:41.0000000+00:00</time></trkpt><trkpt lat="34.9374336" lon="33.412535"><ele>268.7</ele><time>2015-05-01T12:10:29.0000000+00:00</time></trkpt><trkpt lat="34.94022" lon="33.4126422"><ele>262.7</ele><time>2015-05-01T12:11:24.0000000+00:00</time></trkpt><trkpt lat="34.9428565" lon="33.4139186"><ele>260.8</ele><time>2015-05-01T12:12:19.0000000+00:00</time></trkpt><trkpt lat="34.9425423" lon="33.4138615"><ele>260.7</ele><time>2015-05-01T12:12:59.0000000+00:00</time></trkpt><trkpt lat="34.9421353" lon="33.4145488"><ele>256.8</ele><time>2015-05-01T12:13:40.0000000+00:00</time></trkpt><trkpt lat="34.9425129" lon="33.4139318"><ele>260.7</ele><time>2015-05-01T12:14:24.0000000+00:00</time></trkpt><trkpt lat="34.9427165" lon="33.413919"><ele>261.3</ele><time>2015-05-01T12:14:32.0000000+00:00</time></trkpt><trkpt lat="34.9453494" lon="33.4150722"><ele>261.0</ele><time>2015-05-01T12:15:57.0000000+00:00</time></trkpt><trkpt lat="34.949323" lon="33.4179366"><ele>263.9</ele><time>2015-05-01T12:17:46.0000000+00:00</time></trkpt><trkpt lat="34.9508682" lon="33.4186334"><ele>259.4</ele><time>2015-05-01T12:18:42.0000000+00:00</time></trkpt><trkpt lat="34.9495026" lon="33.4188104"><ele>262.0</ele><time>2015-05-01T12:19:22.0000000+00:00</time></trkpt><trkpt lat="34.9475504" lon="33.4213334"><ele>250.7</ele><time>2015-05-01T12:20:38.0000000+00:00</time></trkpt><trkpt lat="34.9468879" lon="33.4224421"><ele>244.9</ele><time>2015-05-01T12:21:27.0000000+00:00</time></trkpt><trkpt lat="34.9461696" lon="33.422431"><ele>245.5</ele><time>2015-05-01T12:22:31.0000000+00:00</time></trkpt><trkpt lat="34.9451736" lon="33.422738"><ele>246.4</ele><time>2015-05-01T12:23:16.0000000+00:00</time></trkpt><trkpt lat="34.9440402" lon="33.4219871"><ele>251.9</ele><time>2015-05-01T12:23:58.0000000+00:00</time></trkpt><trkpt lat="34.9438051" lon="33.4224054"><ele>258.0</ele><time>2015-05-01T12:24:24.0000000+00:00</time></trkpt><trkpt lat="34.9438544" lon="33.4230656"><ele>258.8</ele><time>2015-05-01T12:25:05.0000000+00:00</time></trkpt><trkpt lat="34.9443137" lon="33.4237013"><ele>260.6</ele><time>2015-05-01T12:25:45.0000000+00:00</time></trkpt><trkpt lat="34.9442762" lon="33.4235893"><ele>258.5</ele><time>2015-05-01T12:26:01.0000000+00:00</time></trkpt><trkpt lat="34.9458163" lon="33.4238354"><ele>249.5</ele><time>2015-05-01T12:26:47.0000000+00:00</time></trkpt><trkpt lat="34.9468896" lon="33.4255831"><ele>248.2</ele><time>2015-05-01T12:27:37.0000000+00:00</time></trkpt><trkpt lat="34.9471038" lon="33.4265203"><ele>245.2</ele><time>2015-05-01T12:27:52.0000000+00:00</time></trkpt><trkpt lat="34.9483775" lon="33.426945"><ele>240.9</ele><time>2015-05-01T12:28:29.0000000+00:00</time></trkpt><trkpt lat="34.9487481" lon="33.4280908"><ele>243.7</ele><time>2015-05-01T12:29:00.0000000+00:00</time></trkpt><trkpt lat="34.9493251" lon="33.428104"><ele>244.6</ele><time>2015-05-01T12:29:42.0000000+00:00</time></trkpt><trkpt lat="34.9496347" lon="33.4283932"><ele>243.0</ele><time>2015-05-01T12:29:59.0000000+00:00</time></trkpt><trkpt lat="34.9501122" lon="33.428495"><ele>243.5</ele><time>2015-05-01T12:30:27.0000000+00:00</time></trkpt><trkpt lat="34.9497125" lon="33.4274435"><ele>248.5</ele><time>2015-05-01T12:31:43.0000000+00:00</time></trkpt><trkpt lat="34.9500047" lon="33.4270469"><ele>250.7</ele><time>2015-05-01T12:32:04.0000000+00:00</time></trkpt><trkpt lat="34.9499641" lon="33.4268888"><ele>251.7</ele><time>2015-05-01T12:32:14.0000000+00:00</time></trkpt><trkpt lat="34.9501385" lon="33.4271748"><ele>248.2</ele><time>2015-05-01T12:32:31.0000000+00:00</time></trkpt><trkpt lat="34.9504779" lon="33.4272682"><ele>246.7</ele><time>2015-05-01T12:32:42.0000000+00:00</time></trkpt><trkpt lat="34.9517671" lon="33.4226278"><ele>255.4</ele><time>2015-05-01T12:34:30.0000000+00:00</time></trkpt><trkpt lat="34.9514644" lon="33.4186692"><ele>259.0</ele><time>2015-05-01T12:36:02.0000000+00:00</time></trkpt><trkpt lat="34.9538726" lon="33.4193382"><ele>263.2</ele><time>2015-05-01T12:37:37.0000000+00:00</time></trkpt><trkpt lat="34.9549016" lon="33.4192088"><ele>262.8</ele><time>2015-05-01T12:38:02.0000000+00:00</time></trkpt><trkpt lat="34.9594098" lon="33.4162603"><ele>245.1</ele><time>2015-05-01T12:39:52.0000000+00:00</time></trkpt><trkpt lat="34.9615084" lon="33.4156532"><ele>242.9</ele><time>2015-05-01T12:40:38.0000000+00:00</time></trkpt><trkpt lat="34.9628074" lon="33.4148282"><ele>242.4</ele><time>2015-05-01T12:41:10.0000000+00:00</time></trkpt><trkpt lat="34.9633993" lon="33.4136166"><ele>246.4</ele><time>2015-05-01T12:41:55.0000000+00:00</time></trkpt><trkpt lat="34.9631896" lon="33.4134138"><ele>249.0</ele><time>2015-05-01T12:42:05.0000000+00:00</time></trkpt><trkpt lat="34.9627065" lon="33.4135749"><ele>247.4</ele><time>2015-05-01T12:42:34.0000000+00:00</time></trkpt><trkpt lat="34.9632487" lon="33.4134138"><ele>248.4</ele><time>2015-05-01T12:44:06.0000000+00:00</time></trkpt><trkpt lat="34.9634335" lon="33.4136772"><ele>245.5</ele><time>2015-05-01T12:44:14.0000000+00:00</time></trkpt><trkpt lat="34.9630279" lon="33.4143173"><ele>242.2</ele><time>2015-05-01T12:44:31.0000000+00:00</time></trkpt><trkpt lat="34.9630271" lon="33.4146746"><ele>241.7</ele><time>2015-05-01T12:44:45.0000000+00:00</time></trkpt><trkpt lat="34.9655295" lon="33.4128339"><ele>229.0</ele><time>2015-05-01T12:45:35.0000000+00:00</time></trkpt><trkpt lat="34.9663988" lon="33.4124363"><ele>226.9</ele><time>2015-05-01T12:45:48.0000000+00:00</time></trkpt><trkpt lat="34.9731219" lon="33.4121758"><ele>218.1</ele><time>2015-05-01T12:47:35.0000000+00:00</time></trkpt><trkpt lat="34.975775" lon="33.412652"><ele>216.0</ele><time>2015-05-01T12:48:34.0000000+00:00</time></trkpt><trkpt lat="34.977574" lon="33.4121969"><ele>220.2</ele><time>2015-05-01T12:49:16.0000000+00:00</time></trkpt><trkpt lat="34.98061" lon="33.4117322"><ele>226.2</ele><time>2015-05-01T12:50:45.0000000+00:00</time></trkpt><trkpt lat="34.9879379" lon="33.4076306"><ele>230.5</ele><time>2015-05-01T12:55:59.0000000+00:00</time></trkpt><trkpt lat="34.9902632" lon="33.4068679"><ele>231.3</ele><time>2015-05-01T12:56:48.0000000+00:00</time></trkpt><trkpt lat="34.9929702" lon="33.4054285"><ele>235.2</ele><time>2015-05-01T12:58:05.0000000+00:00</time></trkpt><trkpt lat="34.994553" lon="33.4045031"><ele>238.7</ele><time>2015-05-01T12:59:00.0000000+00:00</time></trkpt><trkpt lat="34.9972821" lon="33.4023967"><ele>244.2</ele><time>2015-05-01T13:00:34.0000000+00:00</time></trkpt><trkpt lat="34.9981734" lon="33.4013195"><ele>244.6</ele><time>2015-05-01T13:01:08.0000000+00:00</time></trkpt><trkpt lat="35.0012923" lon="33.3959208"><ele>252.6</ele><time>2015-05-01T13:03:15.0000000+00:00</time></trkpt><trkpt lat="35.0026414" lon="33.3942921"><ele>253.1</ele><time>2015-05-01T13:03:57.0000000+00:00</time></trkpt><trkpt lat="35.0053195" lon="33.3937916"><ele>255.1</ele><time>2015-05-01T13:05:20.0000000+00:00</time></trkpt><trkpt lat="35.0084733" lon="33.3939635"><ele>253.1</ele><time>2015-05-01T13:06:23.0000000+00:00</time></trkpt><trkpt lat="35.0088297" lon="33.3941197"><ele>252.7</ele><time>2015-05-01T13:06:38.0000000+00:00</time></trkpt><trkpt lat="35.0092331" lon="33.3938066"><ele>250.5</ele><time>2015-05-01T13:09:33.0000000+00:00</time></trkpt><trkpt lat="35.0115518" lon="33.3935229"><ele>246.5</ele><time>2015-05-01T13:10:24.0000000+00:00</time></trkpt><trkpt lat="35.0139427" lon="33.3939783"><ele>244.9</ele><time>2015-05-01T13:11:23.0000000+00:00</time></trkpt><trkpt lat="35.0131138" lon="33.3937937"><ele>244.4</ele><time>2015-05-01T13:12:25.0000000+00:00</time></trkpt><trkpt lat="35.012972" lon="33.3935192"><ele>244.5</ele><time>2015-05-01T13:13:09.0000000+00:00</time></trkpt><trkpt lat="35.0131539" lon="33.3938354"><ele>244.5</ele><time>2015-05-01T13:13:22.0000000+00:00</time></trkpt><trkpt lat="35.014249" lon="33.393987"><ele>242.0</ele><time>2015-05-01T13:13:53.0000000+00:00</time></trkpt><trkpt lat="35.0143588" lon="33.3936964"><ele>242.7</ele><time>2015-05-01T13:14:05.0000000+00:00</time></trkpt><trkpt lat="35.0140647" lon="33.3915455"><ele>245.5</ele><time>2015-05-01T13:14:44.0000000+00:00</time></trkpt><trkpt lat="35.0135321" lon="33.389977"><ele>251.4</ele><time>2015-05-01T13:15:18.0000000+00:00</time></trkpt><trkpt lat="35.0135905" lon="33.3888681"><ele>249.4</ele><time>2015-05-01T13:16:05.0000000+00:00</time></trkpt><trkpt lat="35.0136808" lon="33.3892047"><ele>248.5</ele><time>2015-05-01T13:16:23.0000000+00:00</time></trkpt><trkpt lat="35.0142833" lon="33.3891841"><ele>243.6</ele><time>2015-05-01T13:16:46.0000000+00:00</time></trkpt><trkpt lat="35.014171" lon="33.389767"><ele>245.5</ele><time>2015-05-01T13:17:04.0000000+00:00</time></trkpt><trkpt lat="35.0155933" lon="33.3924077"><ele>240.1</ele><time>2015-05-01T13:18:09.0000000+00:00</time></trkpt><trkpt lat="35.0142773" lon="33.3928314"><ele>244.1</ele><time>2015-05-01T13:18:42.0000000+00:00</time></trkpt><trkpt lat="35.014405" lon="33.394017"><ele>241.0</ele><time>2015-05-01T13:19:20.0000000+00:00</time></trkpt><trkpt lat="35.0141944" lon="33.3929338"><ele>244.3</ele><time>2015-05-01T13:20:25.0000000+00:00</time></trkpt><trkpt lat="35.0144073" lon="33.3940746"><ele>241.2</ele><time>2015-05-01T13:21:31.0000000+00:00</time></trkpt><trkpt lat="35.0174671" lon="33.3947448"><ele>238.2</ele><time>2015-05-01T13:25:16.0000000+00:00</time></trkpt><trkpt lat="35.0148237" lon="33.3943325"><ele>242.5</ele><time>2015-05-01T13:37:36.0000000+00:00</time></trkpt><trkpt lat="35.0146532" lon="33.3945043"><ele>241.4</ele><time>2015-05-01T13:37:47.0000000+00:00</time></trkpt><trkpt lat="35.0146685" lon="33.3955734"><ele>241.0</ele><time>2015-05-01T13:38:13.0000000+00:00</time></trkpt><trkpt lat="35.0181492" lon="33.4130768"><ele>231.8</ele><time>2015-05-01T13:43:28.0000000+00:00</time></trkpt><trkpt lat="35.0185405" lon="33.4148697"><ele>230.3</ele><time>2015-05-01T13:43:58.0000000+00:00</time></trkpt><trkpt lat="35.0191013" lon="33.4164522"><ele>230.0</ele><time>2015-05-01T13:44:24.0000000+00:00</time></trkpt><trkpt lat="35.0191528" lon="33.4180432"><ele>228.6</ele><time>2015-05-01T13:44:46.0000000+00:00</time></trkpt><trkpt lat="35.0195765" lon="33.4190985"><ele>227.4</ele><time>2015-05-01T13:45:33.0000000+00:00</time></trkpt><trkpt lat="35.0196956" lon="33.4234049"><ele>227.7</ele><time>2015-05-01T13:47:20.0000000+00:00</time></trkpt><trkpt lat="35.0196225" lon="33.424082"><ele>227.7</ele><time>2015-05-01T13:47:46.0000000+00:00</time></trkpt><trkpt lat="35.0194768" lon="33.4242289"><ele>227.7</ele><time>2015-05-01T13:48:32.0000000+00:00</time></trkpt><trkpt lat="35.0197531" lon="33.4242458"><ele>227.2</ele><time>2015-05-01T13:48:39.0000000+00:00</time></trkpt><trkpt lat="35.0196217" lon="33.423878"><ele>228.1</ele><time>2015-05-01T13:48:48.0000000+00:00</time></trkpt><trkpt lat="35.0195637" lon="33.4221391"><ele>228.4</ele><time>2015-05-01T13:49:23.0000000+00:00</time></trkpt><trkpt lat="35.0192808" lon="33.4217957"><ele>227.2</ele><time>2015-05-01T13:49:37.0000000+00:00</time></trkpt><trkpt lat="35.0192043" lon="33.4224207"><ele>228.4</ele><time>2015-05-01T13:50:04.0000000+00:00</time></trkpt><trkpt lat="35.0194138" lon="33.4229478"><ele>228.2</ele><time>2015-05-01T13:50:20.0000000+00:00</time></trkpt><trkpt lat="35.0189623" lon="33.4233656"><ele>228.7</ele><time>2015-05-01T13:50:49.0000000+00:00</time></trkpt><trkpt lat="35.0163894" lon="33.4234197"><ele>246.9</ele><time>2015-05-01T13:52:25.0000000+00:00</time></trkpt><trkpt lat="35.0161551" lon="33.423772"><ele>250.0</ele><time>2015-05-01T13:52:49.0000000+00:00</time></trkpt><trkpt lat="35.0159637" lon="33.4234322"><ele>253.3</ele><time>2015-05-01T13:53:45.0000000+00:00</time></trkpt><trkpt lat="35.0161771" lon="33.4237828"><ele>249.6</ele><time>2015-05-01T13:54:17.0000000+00:00</time></trkpt><trkpt lat="35.0163794" lon="33.4234018"><ele>247.1</ele><time>2015-05-01T14:03:50.0000000+00:00</time></trkpt><trkpt lat="35.0189672" lon="33.4233295"><ele>228.7</ele><time>2015-05-01T14:05:46.0000000+00:00</time></trkpt><trkpt lat="35.0194157" lon="33.4229364"><ele>228.2</ele><time>2015-05-01T14:06:20.0000000+00:00</time></trkpt><trkpt lat="35.0191917" lon="33.4224074"><ele>228.4</ele><time>2015-05-01T14:06:36.0000000+00:00</time></trkpt><trkpt lat="35.0192962" lon="33.422001"><ele>227.6</ele><time>2015-05-01T14:06:50.0000000+00:00</time></trkpt><trkpt lat="35.0195375" lon="33.4220669"><ele>228.1</ele><time>2015-05-01T14:07:01.0000000+00:00</time></trkpt><trkpt lat="35.0196618" lon="33.4223026"><ele>228.4</ele><time>2015-05-01T14:07:12.0000000+00:00</time></trkpt><trkpt lat="35.0197264" lon="33.4239016"><ele>227.7</ele><time>2015-05-01T14:07:48.0000000+00:00</time></trkpt><trkpt lat="35.0198719" lon="33.4241488"><ele>227.0</ele><time>2015-05-01T14:07:56.0000000+00:00</time></trkpt><trkpt lat="35.0188583" lon="33.424865"><ele>229.2</ele><time>2015-05-01T14:09:12.0000000+00:00</time></trkpt><trkpt lat="35.0181884" lon="33.4251324"><ele>230.9</ele><time>2015-05-01T14:09:35.0000000+00:00</time></trkpt><trkpt lat="35.0144946" lon="33.4256548"><ele>243.0</ele><time>2015-05-01T14:11:33.0000000+00:00</time></trkpt><trkpt lat="35.0122502" lon="33.4269606"><ele>243.1</ele><time>2015-05-01T14:12:37.0000000+00:00</time></trkpt><trkpt lat="35.010877" lon="33.4272869"><ele>244.4</ele><time>2015-05-01T14:13:05.0000000+00:00</time></trkpt><trkpt lat="35.0089165" lon="33.4280716"><ele>244.5</ele><time>2015-05-01T14:13:39.0000000+00:00</time></trkpt><trkpt lat="35.0076814" lon="33.4288149"><ele>241.3</ele><time>2015-05-01T14:14:26.0000000+00:00</time></trkpt><trkpt lat="35.0060361" lon="33.4302561"><ele>237.2</ele><time>2015-05-01T14:15:00.0000000+00:00</time></trkpt><trkpt lat="35.0049344" lon="33.4321527"><ele>234.9</ele><time>2015-05-01T14:15:34.0000000+00:00</time></trkpt><trkpt lat="35.0044121" lon="33.43483"><ele>235.5</ele><time>2015-05-01T14:16:20.0000000+00:00</time></trkpt><trkpt lat="35.0036069" lon="33.4369881"><ele>233.3</ele><time>2015-05-01T14:17:06.0000000+00:00</time></trkpt><trkpt lat="35.0033606" lon="33.4386005"><ele>234.2</ele><time>2015-05-01T14:17:40.0000000+00:00</time></trkpt><trkpt lat="35.0035558" lon="33.4386253"><ele>236.6</ele><time>2015-05-01T14:17:48.0000000+00:00</time></trkpt><trkpt lat="35.0038717" lon="33.4390328"><ele>242.6</ele><time>2015-05-01T14:18:10.0000000+00:00</time></trkpt><trkpt lat="35.004584" lon="33.4392037"><ele>240.7</ele><time>2015-05-01T14:18:40.0000000+00:00</time></trkpt><trkpt lat="35.0038174" lon="33.4389903"><ele>242.7</ele><time>2015-05-01T14:24:40.0000000+00:00</time></trkpt><trkpt lat="35.0034616" lon="33.438548"><ele>234.8</ele><time>2015-05-01T14:24:54.0000000+00:00</time></trkpt><trkpt lat="35.0027326" lon="33.4399002"><ele>235.9</ele><time>2015-05-01T14:25:30.0000000+00:00</time></trkpt><trkpt lat="35.0024104" lon="33.442551"><ele>233.6</ele><time>2015-05-01T14:26:09.0000000+00:00</time></trkpt><trkpt lat="35.001635" lon="33.445994"><ele>236.8</ele><time>2015-05-01T14:27:00.0000000+00:00</time></trkpt><trkpt lat="35.0011602" lon="33.4489159"><ele>239.5</ele><time>2015-05-01T14:27:53.0000000+00:00</time></trkpt><trkpt lat="34.9998604" lon="33.452829"><ele>243.1</ele><time>2015-05-01T14:29:12.0000000+00:00</time></trkpt><trkpt lat="34.9993701" lon="33.4536362"><ele>243.1</ele><time>2015-05-01T14:29:32.0000000+00:00</time></trkpt><trkpt lat="34.9988314" lon="33.454154"><ele>243.1</ele><time>2015-05-01T14:29:52.0000000+00:00</time></trkpt><trkpt lat="34.9953064" lon="33.4561592"><ele>250.1</ele><time>2015-05-01T14:31:14.0000000+00:00</time></trkpt><trkpt lat="34.9945203" lon="33.4568413"><ele>249.7</ele><time>2015-05-01T14:31:35.0000000+00:00</time></trkpt><trkpt lat="34.9937974" lon="33.4580872"><ele>239.8</ele><time>2015-05-01T14:31:52.0000000+00:00</time></trkpt><trkpt lat="34.993582" lon="33.4588252"><ele>238.6</ele><time>2015-05-01T14:32:01.0000000+00:00</time></trkpt><trkpt lat="34.9936461" lon="33.4592618"><ele>239.7</ele><time>2015-05-01T14:32:08.0000000+00:00</time></trkpt><trkpt lat="34.9934491" lon="33.4596926"><ele>238.7</ele><time>2015-05-01T14:32:17.0000000+00:00</time></trkpt><trkpt lat="34.9935033" lon="33.4609476"><ele>243.1</ele><time>2015-05-01T14:32:48.0000000+00:00</time></trkpt><trkpt lat="34.9945194" lon="33.4650379"><ele>256.7</ele><time>2015-05-01T14:35:06.0000000+00:00</time></trkpt><trkpt lat="34.9949604" lon="33.4677369"><ele>254.5</ele><time>2015-05-01T14:35:58.0000000+00:00</time></trkpt><trkpt lat="34.9947545" lon="33.4698673"><ele>253.0</ele><time>2015-05-01T14:36:32.0000000+00:00</time></trkpt><trkpt lat="34.9943458" lon="33.4719072"><ele>251.6</ele><time>2015-05-01T14:37:05.0000000+00:00</time></trkpt><trkpt lat="34.9943851" lon="33.4742127"><ele>251.3</ele><time>2015-05-01T14:37:33.0000000+00:00</time></trkpt><trkpt lat="34.9942217" lon="33.4752586"><ele>248.2</ele><time>2015-05-01T14:37:45.0000000+00:00</time></trkpt><trkpt lat="34.9945122" lon="33.4793788"><ele>240.2</ele><time>2015-05-01T14:38:25.0000000+00:00</time></trkpt><trkpt lat="34.9944198" lon="33.4820822"><ele>236.8</ele><time>2015-05-01T14:38:58.0000000+00:00</time></trkpt><trkpt lat="34.994691" lon="33.4834627"><ele>235.7</ele><time>2015-05-01T14:39:16.0000000+00:00</time></trkpt><trkpt lat="34.9950785" lon="33.4849508"><ele>235.8</ele><time>2015-05-01T14:39:36.0000000+00:00</time></trkpt><trkpt lat="34.9957667" lon="33.4864275"><ele>231.9</ele><time>2015-05-01T14:39:59.0000000+00:00</time></trkpt><trkpt lat="34.9998802" lon="33.4903112"><ele>219.8</ele><time>2015-05-01T14:41:17.0000000+00:00</time></trkpt><trkpt lat="35.0011118" lon="33.4920653"><ele>214.2</ele><time>2015-05-01T14:41:37.0000000+00:00</time></trkpt><trkpt lat="35.0016606" lon="33.4937436"><ele>214.7</ele><time>2015-05-01T14:42:01.0000000+00:00</time></trkpt><trkpt lat="35.002419" lon="33.4995327"><ele>225.8</ele><time>2015-05-01T14:44:28.0000000+00:00</time></trkpt><trkpt lat="34.9976988" lon="33.5025001"><ele>217.5</ele><time>2015-05-01T14:45:51.0000000+00:00</time></trkpt><trkpt lat="34.993815" lon="33.5067231"><ele>207.5</ele><time>2015-05-01T14:47:02.0000000+00:00</time></trkpt><trkpt lat="34.9876713" lon="33.5092718"><ele>190.3</ele><time>2015-05-01T14:48:03.0000000+00:00</time></trkpt><trkpt lat="34.9868269" lon="33.5098355"><ele>187.8</ele><time>2015-05-01T14:48:15.0000000+00:00</time></trkpt><trkpt lat="34.985807" lon="33.5110051"><ele>186.2</ele><time>2015-05-01T14:48:34.0000000+00:00</time></trkpt><trkpt lat="34.983078" lon="33.5152441"><ele>173.2</ele><time>2015-05-01T14:50:04.0000000+00:00</time></trkpt><trkpt lat="34.9825784" lon="33.5155751"><ele>175.4</ele><time>2015-05-01T14:50:14.0000000+00:00</time></trkpt><trkpt lat="34.9814044" lon="33.5158121"><ele>170.5</ele><time>2015-05-01T14:50:38.0000000+00:00</time></trkpt><trkpt lat="34.9807961" lon="33.5164026"><ele>169.4</ele><time>2015-05-01T14:50:54.0000000+00:00</time></trkpt><trkpt lat="34.9786598" lon="33.5202687"><ele>172.7</ele><time>2015-05-01T14:53:03.0000000+00:00</time></trkpt><trkpt lat="34.9762393" lon="33.5270777"><ele>167.8</ele><time>2015-05-01T14:55:13.0000000+00:00</time></trkpt><trkpt lat="34.9735288" lon="33.5310864"><ele>150.6</ele><time>2015-05-01T14:56:14.0000000+00:00</time></trkpt><trkpt lat="34.9711592" lon="33.5386762"><ele>125.1</ele><time>2015-05-01T14:57:19.0000000+00:00</time></trkpt><trkpt lat="34.969637" lon="33.5409114"><ele>122.7</ele><time>2015-05-01T14:58:20.0000000+00:00</time></trkpt><trkpt lat="34.9669109" lon="33.5443243"><ele>110.6</ele><time>2015-05-01T14:59:12.0000000+00:00</time></trkpt><trkpt lat="34.9651543" lon="33.5478694"><ele>110.3</ele><time>2015-05-01T14:59:57.0000000+00:00</time></trkpt><trkpt lat="34.9640468" lon="33.5515928"><ele>102.6</ele><time>2015-05-01T15:00:44.0000000+00:00</time></trkpt><trkpt lat="34.9640599" lon="33.5560645"><ele>96.3</ele><time>2015-05-01T15:01:38.0000000+00:00</time></trkpt><trkpt lat="34.9638427" lon="33.5573981"><ele>93.7</ele><time>2015-05-01T15:01:55.0000000+00:00</time></trkpt><trkpt lat="34.9627944" lon="33.5598656"><ele>90.1</ele><time>2015-05-01T15:02:28.0000000+00:00</time></trkpt><trkpt lat="34.9614661" lon="33.5616813"><ele>86.7</ele><time>2015-05-01T15:03:01.0000000+00:00</time></trkpt><trkpt lat="34.9586414" lon="33.564392"><ele>79.8</ele><time>2015-05-01T15:03:58.0000000+00:00</time></trkpt><trkpt lat="34.9561322" lon="33.5653912"><ele>74.4</ele><time>2015-05-01T15:04:41.0000000+00:00</time></trkpt><trkpt lat="34.9551491" lon="33.5660817"><ele>71.7</ele><time>2015-05-01T15:05:00.0000000+00:00</time></trkpt><trkpt lat="34.9509826" lon="33.5704241"><ele>71.9</ele><time>2015-05-01T15:06:38.0000000+00:00</time></trkpt><trkpt lat="34.9504378" lon="33.5713792"><ele>73.2</ele><time>2015-05-01T15:06:58.0000000+00:00</time></trkpt><trkpt lat="34.9496856" lon="33.5736416"><ele>72.0</ele><time>2015-05-01T15:09:01.0000000+00:00</time></trkpt><trkpt lat="34.9491699" lon="33.5733977"><ele>70.4</ele><time>2015-05-01T15:10:26.0000000+00:00</time></trkpt><trkpt lat="34.9493767" lon="33.5737307"><ele>71.1</ele><time>2015-05-01T15:11:53.0000000+00:00</time></trkpt><trkpt lat="34.9489273" lon="33.5730317"><ele>71.1</ele><time>2015-05-01T15:14:02.0000000+00:00</time></trkpt><trkpt lat="34.9487753" lon="33.5731458"><ele>70.6</ele><time>2015-05-01T15:14:11.0000000+00:00</time></trkpt><trkpt lat="34.9488417" lon="33.5729394"><ele>71.6</ele><time>2015-05-01T15:14:18.0000000+00:00</time></trkpt><trkpt lat="34.9482882" lon="33.5720913"><ele>69.7</ele><time>2015-05-01T15:14:35.0000000+00:00</time></trkpt><trkpt lat="34.9477719" lon="33.5703543"><ele>69.7</ele><time>2015-05-01T15:15:04.0000000+00:00</time></trkpt><trkpt lat="34.9452223" lon="33.5654798"><ele>76.3</ele><time>2015-05-01T15:17:02.0000000+00:00</time></trkpt><trkpt lat="34.94547" lon="33.5656985"><ele>75.6</ele><time>2015-05-01T15:18:08.0000000+00:00</time></trkpt><trkpt lat="34.9478993" lon="33.570455"><ele>69.3</ele><time>2015-05-01T15:19:20.0000000+00:00</time></trkpt><trkpt lat="34.9484322" lon="33.572296"><ele>70.0</ele><time>2015-05-01T15:19:47.0000000+00:00</time></trkpt><trkpt lat="34.9492712" lon="33.5734438"><ele>70.8</ele><time>2015-05-01T15:20:08.0000000+00:00</time></trkpt><trkpt lat="34.9494704" lon="33.5735222"><ele>71.3</ele><time>2015-05-01T15:20:12.0000000+00:00</time></trkpt><trkpt lat="34.949634" lon="33.5734624"><ele>72.0</ele><time>2015-05-01T15:20:18.0000000+00:00</time></trkpt><trkpt lat="34.9499842" lon="33.5725477"><ele>72.7</ele><time>2015-05-01T15:20:55.0000000+00:00</time></trkpt><trkpt lat="34.9503299" lon="33.5724784"><ele>72.3</ele><time>2015-05-01T15:21:09.0000000+00:00</time></trkpt><trkpt lat="34.9507182" lon="33.572704"><ele>65.9</ele><time>2015-05-01T15:21:16.0000000+00:00</time></trkpt><trkpt lat="34.951428" lon="33.573973"><ele>65.2</ele><time>2015-05-01T15:21:30.0000000+00:00</time></trkpt><trkpt lat="34.951523" lon="33.5745223"><ele>64.8</ele><time>2015-05-01T15:21:36.0000000+00:00</time></trkpt><trkpt lat="34.9514183" lon="33.5749201"><ele>64.1</ele><time>2015-05-01T15:21:42.0000000+00:00</time></trkpt><trkpt lat="34.9508883" lon="33.5752977"><ele>65.1</ele><time>2015-05-01T15:21:53.0000000+00:00</time></trkpt><trkpt lat="34.9498885" lon="33.5752223"><ele>70.6</ele><time>2015-05-01T15:22:28.0000000+00:00</time></trkpt><trkpt lat="34.9496245" lon="33.5746995"><ele>70.6</ele><time>2015-05-01T15:22:56.0000000+00:00</time></trkpt><trkpt lat="34.9492405" lon="33.5749934"><ele>69.6</ele><time>2015-05-01T15:23:08.0000000+00:00</time></trkpt><trkpt lat="34.946593" lon="33.578303"><ele>61.0</ele><time>2015-05-01T15:24:05.0000000+00:00</time></trkpt><trkpt lat="34.9445545" lon="33.5804469"><ele>61.4</ele><time>2015-05-01T15:24:52.0000000+00:00</time></trkpt><trkpt lat="34.9440899" lon="33.5812496"><ele>60.5</ele><time>2015-05-01T15:25:13.0000000+00:00</time></trkpt><trkpt lat="34.9438656" lon="33.5812292"><ele>59.8</ele><time>2015-05-01T15:25:37.0000000+00:00</time></trkpt><trkpt lat="34.9436761" lon="33.5814586"><ele>59.2</ele><time>2015-05-01T15:25:47.0000000+00:00</time></trkpt><trkpt lat="34.938343" lon="33.5884557"><ele>47.8</ele><time>2015-05-01T15:27:34.0000000+00:00</time></trkpt><trkpt lat="34.937673" lon="33.5894046"><ele>45.6</ele><time>2015-05-01T15:27:49.0000000+00:00</time></trkpt><trkpt lat="34.93757" lon="33.5899235"><ele>47.5</ele><time>2015-05-01T15:27:56.0000000+00:00</time></trkpt><trkpt lat="34.9368409" lon="33.5904886"><ele>43.7</ele><time>2015-05-01T15:28:08.0000000+00:00</time></trkpt><trkpt lat="34.9318304" lon="33.5973291"><ele>35.0</ele><time>2015-05-01T15:30:10.0000000+00:00</time></trkpt><trkpt lat="34.9287576" lon="33.6035044"><ele>27.9</ele><time>2015-05-01T15:31:31.0000000+00:00</time></trkpt><trkpt lat="34.9286874" lon="33.6041209"><ele>28.3</ele><time>2015-05-01T15:31:40.0000000+00:00</time></trkpt><trkpt lat="34.9282238" lon="33.6045324"><ele>25.6</ele><time>2015-05-01T15:31:48.0000000+00:00</time></trkpt><trkpt lat="34.9271678" lon="33.6062237"><ele>22.5</ele><time>2015-05-01T15:32:14.0000000+00:00</time></trkpt><trkpt lat="34.9245211" lon="33.6093993"><ele>20.0</ele><time>2015-05-01T15:33:09.0000000+00:00</time></trkpt><trkpt lat="34.9229756" lon="33.6119261"><ele>18.4</ele><time>2015-05-01T15:33:53.0000000+00:00</time></trkpt><trkpt lat="34.9229792" lon="33.6120725"><ele>18.1</ele><time>2015-05-01T15:33:57.0000000+00:00</time></trkpt><trkpt lat="34.9234745" lon="33.6123414"><ele>16.6</ele><time>2015-05-01T15:34:18.0000000+00:00</time></trkpt><trkpt lat="34.9233613" lon="33.6129413"><ele>18.5</ele><time>2015-05-01T15:34:32.0000000+00:00</time></trkpt><trkpt lat="34.9234098" lon="33.616039"><ele>15.2</ele><time>2015-05-01T15:35:24.0000000+00:00</time></trkpt><trkpt lat="34.9216695" lon="33.6166946"><ele>15.7</ele><time>2015-05-01T15:36:26.0000000+00:00</time></trkpt><trkpt lat="34.9202731" lon="33.6166244"><ele>18.8</ele><time>2015-05-01T15:37:04.0000000+00:00</time></trkpt><trkpt lat="34.9185522" lon="33.6194232"><ele>14.7</ele><time>2015-05-01T15:37:52.0000000+00:00</time></trkpt><trkpt lat="34.9170884" lon="33.6235195"><ele>10.5</ele><time>2015-05-01T15:39:17.0000000+00:00</time></trkpt><trkpt lat="34.9155988" lon="33.6266987"><ele>11.4</ele><time>2015-05-01T15:40:06.0000000+00:00</time></trkpt><trkpt lat="34.9150683" lon="33.628433"><ele>10.3</ele><time>2015-05-01T15:40:33.0000000+00:00</time></trkpt><trkpt lat="34.914478" lon="33.6297861"><ele>8.5</ele><time>2015-05-01T15:40:52.0000000+00:00</time></trkpt><trkpt lat="34.9143394" lon="33.6306699"><ele>8.2</ele><time>2015-05-01T15:41:07.0000000+00:00</time></trkpt><trkpt lat="34.9139937" lon="33.6313747"><ele>8.7</ele><time>2015-05-01T15:41:34.0000000+00:00</time></trkpt><trkpt lat="34.9137971" lon="33.6316545"><ele>5.5</ele><time>2015-05-01T15:41:40.0000000+00:00</time></trkpt><trkpt lat="34.9132132" lon="33.6317709"><ele>3.5</ele><time>2015-05-01T15:41:52.0000000+00:00</time></trkpt><trkpt lat="34.911818" lon="33.632658"><ele>4.8</ele><time>2015-05-01T15:42:20.0000000+00:00</time></trkpt><trkpt lat="34.9116887" lon="33.6332896"><ele>6.1</ele><time>2015-05-01T15:42:36.0000000+00:00</time></trkpt><trkpt lat="34.9110814" lon="33.633317"><ele>6.5</ele><time>2015-05-01T15:42:55.0000000+00:00</time></trkpt><trkpt lat="34.9108552" lon="33.6331513"><ele>4.9</ele><time>2015-05-01T15:43:05.0000000+00:00</time></trkpt><trkpt lat="34.9103331" lon="33.633364"><ele>4.5</ele><time>2015-05-01T15:43:24.0000000+00:00</time></trkpt><trkpt lat="34.9095288" lon="33.6329176"><ele>6.8</ele><time>2015-05-01T15:43:46.0000000+00:00</time></trkpt><trkpt lat="34.908768" lon="33.6332668"><ele>6.1</ele><time>2015-05-01T15:44:02.0000000+00:00</time></trkpt><trkpt lat="34.9087948" lon="33.6338849"><ele>2.9</ele><time>2015-05-01T15:44:20.0000000+00:00</time></trkpt><trkpt lat="34.9093504" lon="33.6353417"><ele>3.6</ele><time>2015-05-01T15:44:43.0000000+00:00</time></trkpt><trkpt lat="34.9096114" lon="33.6366401"><ele>5.3</ele><time>2015-05-01T15:45:22.0000000+00:00</time></trkpt><trkpt lat="34.9094842" lon="33.6371521"><ele>5.0</ele><time>2015-05-01T15:45:32.0000000+00:00</time></trkpt><trkpt lat="34.9091418" lon="33.6371523"><ele>4.8</ele><time>2015-05-01T15:45:47.0000000+00:00</time></trkpt><trkpt lat="34.9091581" lon="33.6378234"><ele>1.8</ele><time>2015-05-01T15:46:40.0000000+00:00</time></trkpt><trkpt lat="34.9049895" lon="33.6378816"><ele>0.2</ele><time>2015-05-01T15:51:03.0000000+00:00</time></trkpt><trkpt lat="34.9033362" lon="33.6377352"><ele>1.6</ele><time>2015-05-01T15:51:59.0000000+00:00</time></trkpt><trkpt lat="34.9000298" lon="33.6381111"><ele>1.9</ele><time>2015-05-01T15:55:15.0000000+00:00</time></trkpt><trkpt lat="34.8996677" lon="33.6385519"><ele>1.5</ele><time>2015-05-01T15:56:09.0000000+00:00</time></trkpt><trkpt lat="34.9000394" lon="33.6390517"><ele>0.6</ele><time>2015-05-01T15:56:25.0000000+00:00</time></trkpt><trkpt lat="34.8997377" lon="33.6385911"><ele>1.5</ele><time>2015-05-01T15:58:29.0000000+00:00</time></trkpt><trkpt lat="34.8997817" lon="33.6381386"><ele>2.6</ele><time>2015-05-01T16:00:48.0000000+00:00</time></trkpt><trkpt lat="34.8982495" lon="33.6382932"><ele>4.4</ele><time>2015-05-01T16:02:06.0000000+00:00</time></trkpt><trkpt lat="34.8983099" lon="33.6381542"><ele>5.7</ele><time>2015-05-01T16:02:41.0000000+00:00</time></trkpt><trkpt lat="34.8957371" lon="33.6385772"><ele>1.4</ele><time>2015-05-01T16:05:12.0000000+00:00</time></trkpt><trkpt lat="34.8934866" lon="33.638727"><ele>0.9</ele><time>2015-05-01T16:06:02.0000000+00:00</time></trkpt><trkpt lat="34.8923592" lon="33.6383776"><ele>1.3</ele><time>2015-05-01T16:06:30.0000000+00:00</time></trkpt><trkpt lat="34.8914924" lon="33.6371823"><ele>3.7</ele><time>2015-05-01T16:07:07.0000000+00:00</time></trkpt><trkpt lat="34.8893483" lon="33.6366606"><ele>3.1</ele><time>2015-05-01T16:09:56.0000000+00:00</time></trkpt><trkpt lat="34.8898988" lon="33.6366336"><ele>3.3</ele><time>2015-05-01T16:11:28.0000000+00:00</time></trkpt><trkpt lat="34.8911801" lon="33.6370884"><ele>3.5</ele><time>2015-05-01T16:12:09.0000000+00:00</time></trkpt><trkpt lat="34.8915048" lon="33.6369509"><ele>3.8</ele><time>2015-05-01T16:12:21.0000000+00:00</time></trkpt><trkpt lat="34.8914893" lon="33.6365181"><ele>3.2</ele><time>2015-05-01T16:12:33.0000000+00:00</time></trkpt><trkpt lat="34.8908505" lon="33.6344484"><ele>2.7</ele><time>2015-05-01T16:13:51.0000000+00:00</time></trkpt><trkpt lat="34.8910772" lon="33.6351421"><ele>1.9</ele><time>2015-05-01T16:15:27.0000000+00:00</time></trkpt><trkpt lat="34.8932279" lon="33.6340864"><ele>11.9</ele><time>2015-05-01T16:17:04.0000000+00:00</time></trkpt><trkpt lat="34.8929359" lon="33.6343592"><ele>11.8</ele><time>2015-05-01T16:17:18.0000000+00:00</time></trkpt><trkpt lat="34.8931902" lon="33.6351988"><ele>13.3</ele><time>2015-05-01T16:17:45.0000000+00:00</time></trkpt><trkpt lat="34.8930346" lon="33.6350013"><ele>12.5</ele><time>2015-05-01T16:17:54.0000000+00:00</time></trkpt><trkpt lat="34.892836" lon="33.6350769"><ele>13.5</ele><time>2015-05-01T16:18:11.0000000+00:00</time></trkpt><trkpt lat="34.8928664" lon="33.6352754"><ele>12.5</ele><time>2015-05-01T16:18:56.0000000+00:00</time></trkpt><trkpt lat="34.8928205" lon="33.6351194"><ele>13.8</ele><time>2015-05-01T16:19:20.0000000+00:00</time></trkpt></trkseg><trkseg><trkpt lat="34.9281432" lon="33.6354294"><ele>4.7</ele><time>2015-05-02T09:37:35.0000000+00:00</time></trkpt><trkpt lat="34.9280831" lon="33.6368178"><ele>6.8</ele><time>2015-05-02T09:52:10.0000000+00:00</time></trkpt><trkpt lat="34.9293033" lon="33.6370766"><ele>6.1</ele><time>2015-05-02T09:52:36.0000000+00:00</time></trkpt><trkpt lat="34.9303582" lon="33.6364771"><ele>3.1</ele><time>2015-05-02T09:52:59.0000000+00:00</time></trkpt><trkpt lat="34.9308414" lon="33.6371541"><ele>3.1</ele><time>2015-05-02T09:53:36.0000000+00:00</time></trkpt><trkpt lat="34.9314114" lon="33.6376129"><ele>5.0</ele><time>2015-05-02T09:53:49.0000000+00:00</time></trkpt><trkpt lat="34.9337034" lon="33.6387334"><ele>2.4</ele><time>2015-05-02T09:54:25.0000000+00:00</time></trkpt><trkpt lat="34.9358061" lon="33.640154"><ele>2.2</ele><time>2015-05-02T09:55:11.0000000+00:00</time></trkpt><trkpt lat="34.9422994" lon="33.6425911"><ele>1.9</ele><time>2015-05-02T09:57:31.0000000+00:00</time></trkpt><trkpt lat="34.9427743" lon="33.6423578"><ele>2.9</ele><time>2015-05-02T09:57:50.0000000+00:00</time></trkpt><trkpt lat="34.9429707" lon="33.6415668"><ele>2.4</ele><time>2015-05-02T09:58:15.0000000+00:00</time></trkpt><trkpt lat="34.9428134" lon="33.6422938"><ele>2.9</ele><time>2015-05-02T09:58:33.0000000+00:00</time></trkpt><trkpt lat="34.9423558" lon="33.6426536"><ele>1.9</ele><time>2015-05-02T09:58:57.0000000+00:00</time></trkpt><trkpt lat="34.9430619" lon="33.6425248"><ele>2.2</ele><time>2015-05-02T09:59:09.0000000+00:00</time></trkpt><trkpt lat="34.9450406" lon="33.6441838"><ele>2.1</ele><time>2015-05-02T09:59:41.0000000+00:00</time></trkpt><trkpt lat="34.9480438" lon="33.6458184"><ele>2.8</ele><time>2015-05-02T10:00:27.0000000+00:00</time></trkpt><trkpt lat="34.9509846" lon="33.648661"><ele>2.0</ele><time>2015-05-02T10:01:19.0000000+00:00</time></trkpt><trkpt lat="34.9514779" lon="33.6489377"><ele>1.6</ele><time>2015-05-02T10:01:27.0000000+00:00</time></trkpt><trkpt lat="34.9518566" lon="33.6489073"><ele>1.7</ele><time>2015-05-02T10:01:33.0000000+00:00</time></trkpt><trkpt lat="34.9523126" lon="33.6498717"><ele>1.5</ele><time>2015-05-02T10:01:47.0000000+00:00</time></trkpt><trkpt lat="34.9563935" lon="33.6530198"><ele>1.9</ele><time>2015-05-02T10:02:54.0000000+00:00</time></trkpt><trkpt lat="34.9609942" lon="33.6581666"><ele>4.1</ele><time>2015-05-02T10:04:35.0000000+00:00</time></trkpt><trkpt lat="34.9636416" lon="33.65734"><ele>3.7</ele><time>2015-05-02T10:05:23.0000000+00:00</time></trkpt><trkpt lat="34.9683649" lon="33.6572309"><ele>2.4</ele><time>2015-05-02T10:06:33.0000000+00:00</time></trkpt><trkpt lat="34.9689337" lon="33.6568862"><ele>2.6</ele><time>2015-05-02T10:06:42.0000000+00:00</time></trkpt><trkpt lat="34.9701789" lon="33.655526"><ele>3.1</ele><time>2015-05-02T10:07:06.0000000+00:00</time></trkpt><trkpt lat="34.9706812" lon="33.6549621"><ele>3.3</ele><time>2015-05-02T10:07:41.0000000+00:00</time></trkpt><trkpt lat="34.9706605" lon="33.6546643"><ele>3.6</ele><time>2015-05-02T10:16:21.0000000+00:00</time></trkpt><trkpt lat="34.9709063" lon="33.654715"><ele>4.0</ele><time>2015-05-02T10:18:28.0000000+00:00</time></trkpt><trkpt lat="34.9726928" lon="33.6527661"><ele>5.7</ele><time>2015-05-02T10:19:26.0000000+00:00</time></trkpt><trkpt lat="34.9732774" lon="33.6525183"><ele>7.3</ele><time>2015-05-02T10:19:38.0000000+00:00</time></trkpt><trkpt lat="34.9740872" lon="33.652736"><ele>10.1</ele><time>2015-05-02T10:19:54.0000000+00:00</time></trkpt><trkpt lat="34.9747127" lon="33.6535272"><ele>7.6</ele><time>2015-05-02T10:20:10.0000000+00:00</time></trkpt><trkpt lat="34.9748304" lon="33.6542447"><ele>8.7</ele><time>2015-05-02T10:20:22.0000000+00:00</time></trkpt><trkpt lat="34.9747678" lon="33.6571313"><ele>16.1</ele><time>2015-05-02T10:21:21.0000000+00:00</time></trkpt><trkpt lat="34.9748771" lon="33.6574158"><ele>15.9</ele><time>2015-05-02T10:21:29.0000000+00:00</time></trkpt><trkpt lat="34.9774111" lon="33.6572578"><ele>21.5</ele><time>2015-05-02T10:22:25.0000000+00:00</time></trkpt><trkpt lat="34.9811867" lon="33.656571"><ele>24.0</ele><time>2015-05-02T10:23:34.0000000+00:00</time></trkpt><trkpt lat="34.9830427" lon="33.6558416"><ele>27.1</ele><time>2015-05-02T10:24:14.0000000+00:00</time></trkpt><trkpt lat="34.9844179" lon="33.6540818"><ele>32.7</ele><time>2015-05-02T10:24:56.0000000+00:00</time></trkpt><trkpt lat="34.9857367" lon="33.6529786"><ele>36.8</ele><time>2015-05-02T10:25:36.0000000+00:00</time></trkpt><trkpt lat="34.985986" lon="33.6523912"><ele>39.9</ele><time>2015-05-02T10:25:50.0000000+00:00</time></trkpt><trkpt lat="34.986514" lon="33.6520504"><ele>41.0</ele><time>2015-05-02T10:26:10.0000000+00:00</time></trkpt><trkpt lat="34.9867149" lon="33.6513858"><ele>46.1</ele><time>2015-05-02T10:26:33.0000000+00:00</time></trkpt><trkpt lat="34.9866445" lon="33.6506256"><ele>48.3</ele><time>2015-05-02T10:26:56.0000000+00:00</time></trkpt><trkpt lat="34.9863736" lon="33.6505787"><ele>48.2</ele><time>2015-05-02T10:27:18.0000000+00:00</time></trkpt><trkpt lat="34.9863506" lon="33.6501151"><ele>51.0</ele><time>2015-05-02T10:27:36.0000000+00:00</time></trkpt><trkpt lat="34.9851612" lon="33.6497956"><ele>59.3</ele><time>2015-05-02T10:29:06.0000000+00:00</time></trkpt><trkpt lat="34.9844713" lon="33.6493833"><ele>63.0</ele><time>2015-05-02T10:29:52.0000000+00:00</time></trkpt><trkpt lat="34.984077" lon="33.6485642"><ele>71.0</ele><time>2015-05-02T10:30:37.0000000+00:00</time></trkpt><trkpt lat="34.9832077" lon="33.6479271"><ele>80.8</ele><time>2015-05-02T10:31:28.0000000+00:00</time></trkpt><trkpt lat="34.9820613" lon="33.6478414"><ele>93.0</ele><time>2015-05-02T10:32:42.0000000+00:00</time></trkpt><trkpt lat="34.9815085" lon="33.6475701"><ele>92.4</ele><time>2015-05-02T10:33:07.0000000+00:00</time></trkpt><trkpt lat="34.9812937" lon="33.647185"><ele>100.4</ele><time>2015-05-02T10:33:29.0000000+00:00</time></trkpt><trkpt lat="34.9818394" lon="33.6474956"><ele>102.9</ele><time>2015-05-02T10:33:54.0000000+00:00</time></trkpt><trkpt lat="34.9830697" lon="33.647391"><ele>106.4</ele><time>2015-05-02T10:34:34.0000000+00:00</time></trkpt><trkpt lat="34.9847955" lon="33.6479281"><ele>110.5</ele><time>2015-05-02T10:35:27.0000000+00:00</time></trkpt><trkpt lat="34.9851912" lon="33.6477417"><ele>116.7</ele><time>2015-05-02T10:36:03.0000000+00:00</time></trkpt><trkpt lat="34.9852462" lon="33.6486902"><ele>106.8</ele><time>2015-05-02T10:38:07.0000000+00:00</time></trkpt><trkpt lat="34.9853081" lon="33.6483117"><ele>114.3</ele><time>2015-05-02T10:39:53.0000000+00:00</time></trkpt><trkpt lat="34.9854654" lon="33.6483864"><ele>115.8</ele><time>2015-05-02T10:40:05.0000000+00:00</time></trkpt><trkpt lat="34.9857877" lon="33.6479309"><ele>115.5</ele><time>2015-05-02T10:40:25.0000000+00:00</time></trkpt><trkpt lat="34.98701" lon="33.6476788"><ele>111.4</ele><time>2015-05-02T10:40:54.0000000+00:00</time></trkpt><trkpt lat="34.987249" lon="33.6474256"><ele>116.1</ele><time>2015-05-02T10:41:16.0000000+00:00</time></trkpt><trkpt lat="34.9872526" lon="33.6471289"><ele>118.3</ele><time>2015-05-02T10:41:37.0000000+00:00</time></trkpt><trkpt lat="34.9866509" lon="33.6467347"><ele>120.3</ele><time>2015-05-02T10:42:07.0000000+00:00</time></trkpt><trkpt lat="34.9867817" lon="33.6462472"><ele>126.0</ele><time>2015-05-02T10:42:45.0000000+00:00</time></trkpt><trkpt lat="34.9874659" lon="33.6462861"><ele>130.5</ele><time>2015-05-02T10:43:21.0000000+00:00</time></trkpt><trkpt lat="34.9887695" lon="33.6469188"><ele>134.7</ele><time>2015-05-02T10:44:14.0000000+00:00</time></trkpt><trkpt lat="34.9893619" lon="33.6465161"><ele>142.5</ele><time>2015-05-02T10:44:59.0000000+00:00</time></trkpt><trkpt lat="34.9900425" lon="33.6465314"><ele>154.4</ele><time>2015-05-02T10:45:50.0000000+00:00</time></trkpt><trkpt lat="34.9904043" lon="33.6468554"><ele>160.9</ele><time>2015-05-02T10:46:25.0000000+00:00</time></trkpt><trkpt lat="34.9905035" lon="33.6473877"><ele>165.9</ele><time>2015-05-02T10:47:01.0000000+00:00</time></trkpt><trkpt lat="34.9910416" lon="33.6475649"><ele>171.2</ele><time>2015-05-02T10:47:43.0000000+00:00</time></trkpt><trkpt lat="34.9909793" lon="33.6477213"><ele>171.5</ele><time>2015-05-02T10:47:54.0000000+00:00</time></trkpt><trkpt lat="34.9905106" lon="33.6478117"><ele>159.2</ele><time>2015-05-02T10:48:15.0000000+00:00</time></trkpt><trkpt lat="34.9910127" lon="33.6477735"><ele>171.4</ele><time>2015-05-02T10:49:11.0000000+00:00</time></trkpt><trkpt lat="34.9910006" lon="33.6502279"><ele>157.9</ele><time>2015-05-02T10:50:10.0000000+00:00</time></trkpt><trkpt lat="34.9909916" lon="33.6481459"><ele>170.7</ele><time>2015-05-02T11:03:22.0000000+00:00</time></trkpt><trkpt lat="34.9911167" lon="33.6474799"><ele>171.0</ele><time>2015-05-02T11:03:43.0000000+00:00</time></trkpt><trkpt lat="34.9938233" lon="33.6466212"><ele>140.8</ele><time>2015-05-02T11:05:55.0000000+00:00</time></trkpt><trkpt lat="34.9954028" lon="33.6458313"><ele>141.6</ele><time>2015-05-02T11:06:57.0000000+00:00</time></trkpt><trkpt lat="34.9973038" lon="33.6453606"><ele>162.8</ele><time>2015-05-02T11:09:01.0000000+00:00</time></trkpt><trkpt lat="34.9974552" lon="33.6448492"><ele>158.5</ele><time>2015-05-02T11:09:26.0000000+00:00</time></trkpt><trkpt lat="34.9977442" lon="33.6450598"><ele>152.7</ele><time>2015-05-02T11:09:40.0000000+00:00</time></trkpt><trkpt lat="34.9978175" lon="33.6453757"><ele>151.0</ele><time>2015-05-02T11:09:51.0000000+00:00</time></trkpt><trkpt lat="34.9981599" lon="33.6445509"><ele>140.1</ele><time>2015-05-02T11:10:11.0000000+00:00</time></trkpt><trkpt lat="34.9990872" lon="33.6441208"><ele>125.1</ele><time>2015-05-02T11:10:52.0000000+00:00</time></trkpt><trkpt lat="34.9994006" lon="33.644197"><ele>117.3</ele><time>2015-05-02T11:10:59.0000000+00:00</time></trkpt><trkpt lat="34.9994608" lon="33.6445057"><ele>111.9</ele><time>2015-05-02T11:11:06.0000000+00:00</time></trkpt><trkpt lat="34.9990102" lon="33.6454403"><ele>100.2</ele><time>2015-05-02T11:11:25.0000000+00:00</time></trkpt><trkpt lat="34.9993277" lon="33.6461079"><ele>94.8</ele><time>2015-05-02T11:11:41.0000000+00:00</time></trkpt><trkpt lat="35.0003253" lon="33.6472519"><ele>89.5</ele><time>2015-05-02T11:12:12.0000000+00:00</time></trkpt><trkpt lat="35.0006264" lon="33.6466343"><ele>99.4</ele><time>2015-05-02T11:12:25.0000000+00:00</time></trkpt><trkpt lat="35.000404" lon="33.6461254"><ele>102.8</ele><time>2015-05-02T11:12:36.0000000+00:00</time></trkpt><trkpt lat="34.9998783" lon="33.6455456"><ele>104.9</ele><time>2015-05-02T11:12:56.0000000+00:00</time></trkpt><trkpt lat="34.999822" lon="33.6448117"><ele>108.1</ele><time>2015-05-02T11:13:20.0000000+00:00</time></trkpt><trkpt lat="34.9999401" lon="33.6446091"><ele>106.1</ele><time>2015-05-02T11:13:28.0000000+00:00</time></trkpt><trkpt lat="35.0007764" lon="33.644358"><ele>99.6</ele><time>2015-05-02T11:14:16.0000000+00:00</time></trkpt><trkpt lat="35.0014482" lon="33.6443959"><ele>95.0</ele><time>2015-05-02T11:14:32.0000000+00:00</time></trkpt><trkpt lat="35.0021536" lon="33.6437128"><ele>95.6</ele><time>2015-05-02T11:14:47.0000000+00:00</time></trkpt><trkpt lat="35.0034828" lon="33.6435569"><ele>85.1</ele><time>2015-05-02T11:15:06.0000000+00:00</time></trkpt><trkpt lat="35.0039013" lon="33.6426604"><ele>69.9</ele><time>2015-05-02T11:17:42.0000000+00:00</time></trkpt><trkpt lat="35.0048454" lon="33.6429863"><ele>55.6</ele><time>2015-05-02T11:18:21.0000000+00:00</time></trkpt><trkpt lat="35.0050665" lon="33.6432477"><ele>48.8</ele><time>2015-05-02T11:19:26.0000000+00:00</time></trkpt><trkpt lat="35.0052838" lon="33.6427769"><ele>50.5</ele><time>2015-05-02T11:19:55.0000000+00:00</time></trkpt><trkpt lat="35.0053381" lon="33.6419716"><ele>55.7</ele><time>2015-05-02T11:20:58.0000000+00:00</time></trkpt><trkpt lat="35.0055938" lon="33.6430256"><ele>54.1</ele><time>2015-05-02T11:21:28.0000000+00:00</time></trkpt><trkpt lat="35.0059108" lon="33.6430443"><ele>52.9</ele><time>2015-05-02T11:21:35.0000000+00:00</time></trkpt><trkpt lat="35.0068266" lon="33.6423068"><ele>52.1</ele><time>2015-05-02T11:21:54.0000000+00:00</time></trkpt><trkpt lat="35.0071829" lon="33.6417063"><ele>53.3</ele><time>2015-05-02T11:22:10.0000000+00:00</time></trkpt><trkpt lat="35.0077961" lon="33.6414446"><ele>54.3</ele><time>2015-05-02T11:22:47.0000000+00:00</time></trkpt><trkpt lat="35.0084986" lon="33.6397763"><ele>59.4</ele><time>2015-05-02T11:23:28.0000000+00:00</time></trkpt><trkpt lat="35.0089818" lon="33.6394672"><ele>60.8</ele><time>2015-05-02T11:23:47.0000000+00:00</time></trkpt><trkpt lat="35.0093788" lon="33.6387546"><ele>62.1</ele><time>2015-05-02T11:24:04.0000000+00:00</time></trkpt><trkpt lat="35.0103635" lon="33.6377589"><ele>63.5</ele><time>2015-05-02T11:24:28.0000000+00:00</time></trkpt><trkpt lat="35.0110939" lon="33.6366395"><ele>62.8</ele><time>2015-05-02T11:24:48.0000000+00:00</time></trkpt><trkpt lat="35.0122122" lon="33.6344702"><ele>69.3</ele><time>2015-05-02T11:25:32.0000000+00:00</time></trkpt><trkpt lat="35.0125075" lon="33.6341706"><ele>69.0</ele><time>2015-05-02T11:25:41.0000000+00:00</time></trkpt><trkpt lat="35.0132692" lon="33.6321218"><ele>71.2</ele><time>2015-05-02T11:26:17.0000000+00:00</time></trkpt><trkpt lat="35.0135123" lon="33.6291517"><ele>73.7</ele><time>2015-05-02T11:27:09.0000000+00:00</time></trkpt><trkpt lat="35.0139965" lon="33.6274326"><ele>74.8</ele><time>2015-05-02T11:27:51.0000000+00:00</time></trkpt><trkpt lat="35.0141168" lon="33.6257901"><ele>76.5</ele><time>2015-05-02T11:28:32.0000000+00:00</time></trkpt><trkpt lat="35.0144844" lon="33.6241865"><ele>78.3</ele><time>2015-05-02T11:29:00.0000000+00:00</time></trkpt><trkpt lat="35.0144529" lon="33.6232298"><ele>78.9</ele><time>2015-05-02T11:29:17.0000000+00:00</time></trkpt><trkpt lat="35.0150981" lon="33.6217857"><ele>81.9</ele><time>2015-05-02T11:29:50.0000000+00:00</time></trkpt><trkpt lat="35.016442" lon="33.6213674"><ele>83.5</ele><time>2015-05-02T11:30:49.0000000+00:00</time></trkpt><trkpt lat="35.0181991" lon="33.6214679"><ele>84.5</ele><time>2015-05-02T11:31:23.0000000+00:00</time></trkpt><trkpt lat="35.0198542" lon="33.6212192"><ele>84.8</ele><time>2015-05-02T11:31:53.0000000+00:00</time></trkpt><trkpt lat="35.0214954" lon="33.6211958"><ele>85.9</ele><time>2015-05-02T11:32:33.0000000+00:00</time></trkpt><trkpt lat="35.022077" lon="33.6206726"><ele>87.4</ele><time>2015-05-02T11:32:49.0000000+00:00</time></trkpt><trkpt lat="35.0231874" lon="33.6187375"><ele>90.5</ele><time>2015-05-02T11:33:29.0000000+00:00</time></trkpt><trkpt lat="35.0239685" lon="33.6181681"><ele>93.0</ele><time>2015-05-02T11:33:48.0000000+00:00</time></trkpt><trkpt lat="35.0260728" lon="33.6176689"><ele>95.6</ele><time>2015-05-02T11:34:31.0000000+00:00</time></trkpt><trkpt lat="35.0277043" lon="33.6167587"><ele>100.3</ele><time>2015-05-02T11:35:13.0000000+00:00</time></trkpt><trkpt lat="35.0317586" lon="33.6151534"><ele>107.3</ele><time>2015-05-02T11:36:51.0000000+00:00</time></trkpt><trkpt lat="35.0321988" lon="33.6154158"><ele>109.7</ele><time>2015-05-02T11:37:09.0000000+00:00</time></trkpt><trkpt lat="35.0327201" lon="33.6154734"><ele>109.9</ele><time>2015-05-02T11:41:36.0000000+00:00</time></trkpt><trkpt lat="35.0325695" lon="33.6165524"><ele>109.2</ele><time>2015-05-02T11:42:03.0000000+00:00</time></trkpt><trkpt lat="35.032126" lon="33.6161648"><ele>107.9</ele><time>2015-05-02T11:42:18.0000000+00:00</time></trkpt><trkpt lat="35.0315446" lon="33.61599"><ele>108.0</ele><time>2015-05-02T11:42:30.0000000+00:00</time></trkpt><trkpt lat="35.0311761" lon="33.6155292"><ele>107.2</ele><time>2015-05-02T11:42:41.0000000+00:00</time></trkpt><trkpt lat="35.0317667" lon="33.615182"><ele>107.3</ele><time>2015-05-02T11:43:07.0000000+00:00</time></trkpt><trkpt lat="35.0326029" lon="33.6154909"><ele>109.6</ele><time>2015-05-02T11:43:29.0000000+00:00</time></trkpt><trkpt lat="35.0327711" lon="33.6147804"><ele>113.5</ele><time>2015-05-02T11:43:45.0000000+00:00</time></trkpt><trkpt lat="35.0320482" lon="33.6129571"><ele>108.4</ele><time>2015-05-02T11:44:15.0000000+00:00</time></trkpt><trkpt lat="35.0315062" lon="33.6120667"><ele>108.8</ele><time>2015-05-02T11:44:29.0000000+00:00</time></trkpt><trkpt lat="35.0314432" lon="33.6114341"><ele>110.3</ele><time>2015-05-02T11:44:39.0000000+00:00</time></trkpt><trkpt lat="35.030784" lon="33.609657"><ele>103.9</ele><time>2015-05-02T11:45:01.0000000+00:00</time></trkpt><trkpt lat="35.0286333" lon="33.6069492"><ele>104.8</ele><time>2015-05-02T11:45:53.0000000+00:00</time></trkpt><trkpt lat="35.0282002" lon="33.6059702"><ele>105.0</ele><time>2015-05-02T11:46:09.0000000+00:00</time></trkpt><trkpt lat="35.0270594" lon="33.605779"><ele>106.4</ele><time>2015-05-02T11:46:35.0000000+00:00</time></trkpt><trkpt lat="35.0282187" lon="33.6059088"><ele>105.2</ele><time>2015-05-02T11:47:27.0000000+00:00</time></trkpt><trkpt lat="35.0282039" lon="33.604359"><ele>108.0</ele><time>2015-05-02T11:47:56.0000000+00:00</time></trkpt><trkpt lat="35.0280238" lon="33.6032701"><ele>109.5</ele><time>2015-05-02T11:48:18.0000000+00:00</time></trkpt><trkpt lat="35.0281124" lon="33.6020062"><ele>111.5</ele><time>2015-05-02T11:48:40.0000000+00:00</time></trkpt><trkpt lat="35.0277539" lon="33.5990852"><ele>115.8</ele><time>2015-05-02T11:49:30.0000000+00:00</time></trkpt><trkpt lat="35.0268357" lon="33.5956697"><ele>123.2</ele><time>2015-05-02T11:50:42.0000000+00:00</time></trkpt><trkpt lat="35.0253682" lon="33.5937689"><ele>130.6</ele><time>2015-05-02T11:51:33.0000000+00:00</time></trkpt><trkpt lat="35.0247423" lon="33.5920472"><ele>135.2</ele><time>2015-05-02T11:52:12.0000000+00:00</time></trkpt><trkpt lat="35.0241998" lon="33.5911389"><ele>139.7</ele><time>2015-05-02T11:52:37.0000000+00:00</time></trkpt><trkpt lat="35.0223276" lon="33.5905205"><ele>133.8</ele><time>2015-05-02T11:53:15.0000000+00:00</time></trkpt><trkpt lat="35.0196707" lon="33.5889726"><ele>124.4</ele><time>2015-05-02T11:53:59.0000000+00:00</time></trkpt><trkpt lat="35.0188314" lon="33.5879822"><ele>124.5</ele><time>2015-05-02T11:54:21.0000000+00:00</time></trkpt><trkpt lat="35.018275" lon="33.5864948"><ele>131.0</ele><time>2015-05-02T11:55:18.0000000+00:00</time></trkpt><trkpt lat="35.0161812" lon="33.5849752"><ele>131.0</ele><time>2015-05-02T11:56:14.0000000+00:00</time></trkpt><trkpt lat="35.0157677" lon="33.5844668"><ele>131.3</ele><time>2015-05-02T11:56:26.0000000+00:00</time></trkpt><trkpt lat="35.0150219" lon="33.583081"><ele>132.2</ele><time>2015-05-02T11:56:56.0000000+00:00</time></trkpt><trkpt lat="35.014341" lon="33.5797134"><ele>142.5</ele><time>2015-05-02T11:58:04.0000000+00:00</time></trkpt><trkpt lat="35.013321" lon="33.5785208"><ele>148.1</ele><time>2015-05-02T11:58:59.0000000+00:00</time></trkpt><trkpt lat="35.0118798" lon="33.5762812"><ele>140.1</ele><time>2015-05-02T11:59:49.0000000+00:00</time></trkpt><trkpt lat="35.0100332" lon="33.5741306"><ele>132.3</ele><time>2015-05-02T12:01:07.0000000+00:00</time></trkpt><trkpt lat="35.0103397" lon="33.5710132"><ele>131.2</ele><time>2015-05-02T12:02:04.0000000+00:00</time></trkpt><trkpt lat="35.0103176" lon="33.5706301"><ele>132.0</ele><time>2015-05-02T12:02:09.0000000+00:00</time></trkpt><trkpt lat="35.0100688" lon="33.5701934"><ele>133.5</ele><time>2015-05-02T12:02:23.0000000+00:00</time></trkpt><trkpt lat="35.0101408" lon="33.5693604"><ele>136.1</ele><time>2015-05-02T12:02:44.0000000+00:00</time></trkpt><trkpt lat="35.0097914" lon="33.5694474"><ele>135.0</ele><time>2015-05-02T12:02:54.0000000+00:00</time></trkpt><trkpt lat="35.0085758" lon="33.5704413"><ele>129.3</ele><time>2015-05-02T12:03:20.0000000+00:00</time></trkpt><trkpt lat="35.0075717" lon="33.5705726"><ele>125.7</ele><time>2015-05-02T12:03:38.0000000+00:00</time></trkpt><trkpt lat="35.0069553" lon="33.5708409"><ele>124.2</ele><time>2015-05-02T12:03:49.0000000+00:00</time></trkpt><trkpt lat="35.0042872" lon="33.5726527"><ele>119.0</ele><time>2015-05-02T12:04:40.0000000+00:00</time></trkpt><trkpt lat="35.0035038" lon="33.5728108"><ele>116.2</ele><time>2015-05-02T12:04:52.0000000+00:00</time></trkpt><trkpt lat="35.0026021" lon="33.5737733"><ele>111.8</ele><time>2015-05-02T12:05:11.0000000+00:00</time></trkpt><trkpt lat="35.0009947" lon="33.5746786"><ele>113.8</ele><time>2015-05-02T12:05:52.0000000+00:00</time></trkpt><trkpt lat="35.0003264" lon="33.5746814"><ele>113.8</ele><time>2015-05-02T12:06:07.0000000+00:00</time></trkpt><trkpt lat="34.9988816" lon="33.5742196"><ele>111.7</ele><time>2015-05-02T12:06:39.0000000+00:00</time></trkpt><trkpt lat="34.9985351" lon="33.5739463"><ele>110.7</ele><time>2015-05-02T12:06:48.0000000+00:00</time></trkpt><trkpt lat="34.9982168" lon="33.5732702"><ele>112.9</ele><time>2015-05-02T12:07:07.0000000+00:00</time></trkpt><trkpt lat="34.9926298" lon="33.5759622"><ele>129.0</ele><time>2015-05-02T12:11:02.0000000+00:00</time></trkpt><trkpt lat="34.9900685" lon="33.5763727"><ele>122.3</ele><time>2015-05-02T12:12:04.0000000+00:00</time></trkpt><trkpt lat="34.9863398" lon="33.5774123"><ele>106.8</ele><time>2015-05-02T12:15:00.0000000+00:00</time></trkpt><trkpt lat="34.9823661" lon="33.5789845"><ele>95.7</ele><time>2015-05-02T12:16:04.0000000+00:00</time></trkpt><trkpt lat="34.975503" lon="33.5809653"><ele>82.2</ele><time>2015-05-02T12:17:56.0000000+00:00</time></trkpt><trkpt lat="34.972932" lon="33.5829609"><ele>74.7</ele><time>2015-05-02T12:18:46.0000000+00:00</time></trkpt><trkpt lat="34.9703166" lon="33.584275"><ele>69.8</ele><time>2015-05-02T12:19:36.0000000+00:00</time></trkpt><trkpt lat="34.9674041" lon="33.5844466"><ele>65.3</ele><time>2015-05-02T12:20:27.0000000+00:00</time></trkpt><trkpt lat="34.9655958" lon="33.5848236"><ele>66.5</ele><time>2015-05-02T12:21:02.0000000+00:00</time></trkpt><trkpt lat="34.9643709" lon="33.5846846"><ele>62.5</ele><time>2015-05-02T12:21:24.0000000+00:00</time></trkpt><trkpt lat="34.963013" lon="33.5841914"><ele>57.7</ele><time>2015-05-02T12:21:50.0000000+00:00</time></trkpt><trkpt lat="34.9594254" lon="33.584744"><ele>54.3</ele><time>2015-05-02T12:23:11.0000000+00:00</time></trkpt><trkpt lat="34.9579926" lon="33.585769"><ele>52.8</ele><time>2015-05-02T12:23:44.0000000+00:00</time></trkpt><trkpt lat="34.955914" lon="33.5869297"><ele>49.5</ele><time>2015-05-02T12:24:32.0000000+00:00</time></trkpt><trkpt lat="34.9547099" lon="33.5882217"><ele>50.3</ele><time>2015-05-02T12:25:04.0000000+00:00</time></trkpt><trkpt lat="34.9540095" lon="33.5887099"><ele>55.7</ele><time>2015-05-02T12:25:35.0000000+00:00</time></trkpt><trkpt lat="34.9533631" lon="33.5899817"><ele>58.6</ele><time>2015-05-02T12:26:32.0000000+00:00</time></trkpt><trkpt lat="34.953051" lon="33.5901515"><ele>57.8</ele><time>2015-05-02T12:26:57.0000000+00:00</time></trkpt><trkpt lat="34.9526588" lon="33.5893314"><ele>58.0</ele><time>2015-05-02T12:27:30.0000000+00:00</time></trkpt><trkpt lat="34.9523136" lon="33.5856814"><ele>56.8</ele><time>2015-05-02T12:28:45.0000000+00:00</time></trkpt><trkpt lat="34.9510311" lon="33.5799036"><ele>66.1</ele><time>2015-05-02T12:30:43.0000000+00:00</time></trkpt><trkpt lat="34.9502155" lon="33.5779537"><ele>70.2</ele><time>2015-05-02T12:31:30.0000000+00:00</time></trkpt><trkpt lat="34.9497018" lon="33.5746854"><ele>70.8</ele><time>2015-05-02T12:32:37.0000000+00:00</time></trkpt><trkpt lat="34.948743" lon="33.5755538"><ele>67.2</ele><time>2015-05-02T12:33:06.0000000+00:00</time></trkpt><trkpt lat="34.9474887" lon="33.5772667"><ele>62.6</ele><time>2015-05-02T12:33:41.0000000+00:00</time></trkpt><trkpt lat="34.945074" lon="33.5766003"><ele>71.6</ele><time>2015-05-02T12:44:15.0000000+00:00</time></trkpt><trkpt lat="34.944817" lon="33.5761484"><ele>73.3</ele><time>2015-05-02T12:44:50.0000000+00:00</time></trkpt><trkpt lat="34.9445221" lon="33.5734546"><ele>85.8</ele><time>2015-05-02T12:47:06.0000000+00:00</time></trkpt><trkpt lat="34.944147" lon="33.5724662"><ele>84.9</ele><time>2015-05-02T12:47:30.0000000+00:00</time></trkpt><trkpt lat="34.9442514" lon="33.571591"><ele>86.2</ele><time>2015-05-02T12:47:46.0000000+00:00</time></trkpt><trkpt lat="34.9437063" lon="33.5702589"><ele>88.5</ele><time>2015-05-02T12:48:11.0000000+00:00</time></trkpt><trkpt lat="34.9428769" lon="33.5705135"><ele>89.9</ele><time>2015-05-02T12:48:38.0000000+00:00</time></trkpt><trkpt lat="34.9417051" lon="33.5712001"><ele>92.8</ele><time>2015-05-02T12:49:25.0000000+00:00</time></trkpt><trkpt lat="34.9412007" lon="33.5711478"><ele>96.6</ele><time>2015-05-02T12:49:41.0000000+00:00</time></trkpt><trkpt lat="34.9402356" lon="33.5715096"><ele>98.7</ele><time>2015-05-02T12:50:09.0000000+00:00</time></trkpt><trkpt lat="34.9399265" lon="33.5721969"><ele>100.9</ele><time>2015-05-02T12:50:25.0000000+00:00</time></trkpt><trkpt lat="34.9393815" lon="33.5728357"><ele>103.0</ele><time>2015-05-02T12:50:45.0000000+00:00</time></trkpt><trkpt lat="34.938613" lon="33.5729163"><ele>101.4</ele><time>2015-05-02T12:55:53.0000000+00:00</time></trkpt><trkpt lat="34.9386799" lon="33.5727732"><ele>103.4</ele><time>2015-05-02T12:56:33.0000000+00:00</time></trkpt><trkpt lat="34.938199" lon="33.5725237"><ele>104.9</ele><time>2015-05-02T12:57:07.0000000+00:00</time></trkpt><trkpt lat="34.9375435" lon="33.5728382"><ele>100.3</ele><time>2015-05-02T12:57:36.0000000+00:00</time></trkpt><trkpt lat="34.9369109" lon="33.5728456"><ele>92.1</ele><time>2015-05-02T12:57:49.0000000+00:00</time></trkpt><trkpt lat="34.9369521" lon="33.5723946"><ele>92.0</ele><time>2015-05-02T12:57:59.0000000+00:00</time></trkpt><trkpt lat="34.9374322" lon="33.5723267"><ele>98.4</ele><time>2015-05-02T12:58:13.0000000+00:00</time></trkpt><trkpt lat="34.9376646" lon="33.5717979"><ele>93.2</ele><time>2015-05-02T12:58:29.0000000+00:00</time></trkpt><trkpt lat="34.9380279" lon="33.5721119"><ele>102.6</ele><time>2015-05-02T12:58:41.0000000+00:00</time></trkpt><trkpt lat="34.9386272" lon="33.5722637"><ele>102.6</ele><time>2015-05-02T12:58:57.0000000+00:00</time></trkpt><trkpt lat="34.9390302" lon="33.5726443"><ele>103.4</ele><time>2015-05-02T12:59:09.0000000+00:00</time></trkpt><trkpt lat="34.9394591" lon="33.5726593"><ele>102.1</ele><time>2015-05-02T12:59:18.0000000+00:00</time></trkpt><trkpt lat="34.9399136" lon="33.5721969"><ele>100.7</ele><time>2015-05-02T12:59:31.0000000+00:00</time></trkpt><trkpt lat="34.9402102" lon="33.571555"><ele>98.7</ele><time>2015-05-02T12:59:43.0000000+00:00</time></trkpt><trkpt lat="34.940841" lon="33.5713693"><ele>98.3</ele><time>2015-05-02T13:00:02.0000000+00:00</time></trkpt><trkpt lat="34.940136" lon="33.5710668"><ele>94.2</ele><time>2015-05-02T13:00:22.0000000+00:00</time></trkpt><trkpt lat="34.9395176" lon="33.5711497"><ele>84.2</ele><time>2015-05-02T13:00:41.0000000+00:00</time></trkpt><trkpt lat="34.9399663" lon="33.5697456"><ele>84.9</ele><time>2015-05-02T13:01:19.0000000+00:00</time></trkpt><trkpt lat="34.9408641" lon="33.5688127"><ele>94.6</ele><time>2015-05-02T13:02:29.0000000+00:00</time></trkpt><trkpt lat="34.9413032" lon="33.5692374"><ele>102.6</ele><time>2015-05-02T13:03:05.0000000+00:00</time></trkpt><trkpt lat="34.9430624" lon="33.5690995"><ele>98.1</ele><time>2015-05-02T13:04:20.0000000+00:00</time></trkpt><trkpt lat="34.9436925" lon="33.5702448"><ele>88.7</ele><time>2015-05-02T13:04:49.0000000+00:00</time></trkpt><trkpt lat="34.9441396" lon="33.5699538"><ele>88.4</ele><time>2015-05-02T13:05:17.0000000+00:00</time></trkpt><trkpt lat="34.944698" lon="33.5698755"><ele>85.0</ele><time>2015-05-02T13:05:28.0000000+00:00</time></trkpt><trkpt lat="34.9450704" lon="33.5694842"><ele>83.8</ele><time>2015-05-02T13:05:42.0000000+00:00</time></trkpt><trkpt lat="34.9455783" lon="33.5695834"><ele>89.3</ele><time>2015-05-02T13:06:13.0000000+00:00</time></trkpt><trkpt lat="34.9458618" lon="33.5705753"><ele>99.4</ele><time>2015-05-02T13:07:23.0000000+00:00</time></trkpt><trkpt lat="34.944814" lon="33.5712741"><ele>94.2</ele><time>2015-05-02T13:08:06.0000000+00:00</time></trkpt><trkpt lat="34.9442993" lon="33.5725109"><ele>86.3</ele><time>2015-05-02T13:08:27.0000000+00:00</time></trkpt><trkpt lat="34.9449041" lon="33.5762985"><ele>73.2</ele><time>2015-05-02T13:09:22.0000000+00:00</time></trkpt><trkpt lat="34.9458257" lon="33.57615"><ele>71.3</ele><time>2015-05-02T13:09:49.0000000+00:00</time></trkpt><trkpt lat="34.9459832" lon="33.5764727"><ele>67.6</ele><time>2015-05-02T13:09:57.0000000+00:00</time></trkpt><trkpt lat="34.9460976" lon="33.5764464"><ele>68.5</ele><time>2015-05-02T13:10:01.0000000+00:00</time></trkpt><trkpt lat="34.9465752" lon="33.5756137"><ele>73.1</ele><time>2015-05-02T13:10:27.0000000+00:00</time></trkpt><trkpt lat="34.9463412" lon="33.5751586"><ele>76.1</ele><time>2015-05-02T13:10:44.0000000+00:00</time></trkpt><trkpt lat="34.9467298" lon="33.5748849"><ele>73.0</ele><time>2015-05-02T13:10:54.0000000+00:00</time></trkpt><trkpt lat="34.9470869" lon="33.5741048"><ele>73.1</ele><time>2015-05-02T13:11:10.0000000+00:00</time></trkpt><trkpt lat="34.9469518" lon="33.5737107"><ele>74.9</ele><time>2015-05-02T13:11:19.0000000+00:00</time></trkpt><trkpt lat="34.947103" lon="33.5711623"><ele>80.5</ele><time>2015-05-02T13:12:35.0000000+00:00</time></trkpt><trkpt lat="34.9464846" lon="33.5701599"><ele>84.0</ele><time>2015-05-02T13:13:07.0000000+00:00</time></trkpt><trkpt lat="34.9460955" lon="33.5698877"><ele>86.5</ele><time>2015-05-02T13:13:17.0000000+00:00</time></trkpt><trkpt lat="34.9462049" lon="33.5691604"><ele>77.0</ele><time>2015-05-02T13:13:34.0000000+00:00</time></trkpt><trkpt lat="34.945806" lon="33.5684259"><ele>76.1</ele><time>2015-05-02T13:13:52.0000000+00:00</time></trkpt><trkpt lat="34.945151" lon="33.5685757"><ele>76.7</ele><time>2015-05-02T13:14:08.0000000+00:00</time></trkpt><trkpt lat="34.9448067" lon="33.5692873"><ele>80.4</ele><time>2015-05-02T13:14:28.0000000+00:00</time></trkpt><trkpt lat="34.9444642" lon="33.5692896"><ele>81.4</ele><time>2015-05-02T13:14:38.0000000+00:00</time></trkpt><trkpt lat="34.9440134" lon="33.5696056"><ele>86.9</ele><time>2015-05-02T13:15:03.0000000+00:00</time></trkpt><trkpt lat="34.9438227" lon="33.5702917"><ele>88.1</ele><time>2015-05-02T13:15:42.0000000+00:00</time></trkpt><trkpt lat="34.9442454" lon="33.5715233"><ele>86.0</ele><time>2015-05-02T13:16:13.0000000+00:00</time></trkpt><trkpt lat="34.944162" lon="33.5725234"><ele>84.8</ele><time>2015-05-02T13:16:35.0000000+00:00</time></trkpt><trkpt lat="34.9444668" lon="33.5731045"><ele>85.7</ele><time>2015-05-02T13:16:48.0000000+00:00</time></trkpt><trkpt lat="34.9449063" lon="33.5765873"><ele>74.1</ele><time>2015-05-02T13:17:32.0000000+00:00</time></trkpt><trkpt lat="34.9449233" lon="33.5768845"><ele>73.7</ele><time>2015-05-02T13:17:37.0000000+00:00</time></trkpt><trkpt lat="34.9443302" lon="33.578558"><ele>69.5</ele><time>2015-05-02T13:18:18.0000000+00:00</time></trkpt><trkpt lat="34.9441984" lon="33.5797294"><ele>61.1</ele><time>2015-05-02T13:18:31.0000000+00:00</time></trkpt><trkpt lat="34.9444155" lon="33.5801131"><ele>60.5</ele><time>2015-05-02T13:20:25.0000000+00:00</time></trkpt><trkpt lat="34.9435881" lon="33.580951"><ele>59.2</ele><time>2015-05-02T13:20:57.0000000+00:00</time></trkpt><trkpt lat="34.9424046" lon="33.5810462"><ele>56.9</ele><time>2015-05-02T13:21:23.0000000+00:00</time></trkpt><trkpt lat="34.9419494" lon="33.5813064"><ele>55.1</ele><time>2015-05-02T13:21:33.0000000+00:00</time></trkpt><trkpt lat="34.9427688" lon="33.5826762"><ele>57.5</ele><time>2015-05-02T13:23:04.0000000+00:00</time></trkpt><trkpt lat="34.9376557" lon="33.589398"><ele>45.6</ele><time>2015-05-02T13:25:13.0000000+00:00</time></trkpt><trkpt lat="34.9375651" lon="33.5899378"><ele>47.5</ele><time>2015-05-02T13:25:22.0000000+00:00</time></trkpt><trkpt lat="34.9366415" lon="33.590742"><ele>43.2</ele><time>2015-05-02T13:25:42.0000000+00:00</time></trkpt><trkpt lat="34.9329747" lon="33.5958052"><ele>36.2</ele><time>2015-05-02T13:27:53.0000000+00:00</time></trkpt><trkpt lat="34.9328589" lon="33.5954327"><ele>36.0</ele><time>2015-05-02T13:28:38.0000000+00:00</time></trkpt><trkpt lat="34.9335003" lon="33.594621"><ele>39.0</ele><time>2015-05-02T13:29:11.0000000+00:00</time></trkpt><trkpt lat="34.9336139" lon="33.5942409"><ele>40.4</ele><time>2015-05-02T13:31:24.0000000+00:00</time></trkpt><trkpt lat="34.9338081" lon="33.5941985"><ele>40.1</ele><time>2015-05-02T13:49:16.0000000+00:00</time></trkpt><trkpt lat="34.9333945" lon="33.5936271"><ele>37.7</ele><time>2015-05-02T13:54:17.0000000+00:00</time></trkpt><trkpt lat="34.9336948" lon="33.5938761"><ele>39.2</ele><time>2015-05-02T14:28:14.0000000+00:00</time></trkpt><trkpt lat="34.9336258" lon="33.5943278"><ele>40.4</ele><time>2015-05-02T14:31:12.0000000+00:00</time></trkpt><trkpt lat="34.9328954" lon="33.5953766"><ele>36.1</ele><time>2015-05-02T14:41:01.0000000+00:00</time></trkpt><trkpt lat="34.9325492" lon="33.5953454"><ele>35.9</ele><time>2015-05-02T14:41:15.0000000+00:00</time></trkpt><trkpt lat="34.9327373" lon="33.5960375"><ele>36.2</ele><time>2015-05-02T14:41:51.0000000+00:00</time></trkpt><trkpt lat="34.9315013" lon="33.5979257"><ele>34.2</ele><time>2015-05-02T14:42:33.0000000+00:00</time></trkpt><trkpt lat="34.9287447" lon="33.6035817"><ele>27.8</ele><time>2015-05-02T14:44:14.0000000+00:00</time></trkpt><trkpt lat="34.9290148" lon="33.6041488"><ele>28.6</ele><time>2015-05-02T14:45:14.0000000+00:00</time></trkpt><trkpt lat="34.932293" lon="33.606099"><ele>27.2</ele><time>2015-05-02T14:46:13.0000000+00:00</time></trkpt><trkpt lat="34.9339226" lon="33.6079058"><ele>23.1</ele><time>2015-05-02T14:47:21.0000000+00:00</time></trkpt><trkpt lat="34.9336946" lon="33.608316"><ele>22.4</ele><time>2015-05-02T14:47:29.0000000+00:00</time></trkpt><trkpt lat="34.9320224" lon="33.6099962"><ele>20.4</ele><time>2015-05-02T14:48:03.0000000+00:00</time></trkpt><trkpt lat="34.9312609" lon="33.6112797"><ele>17.7</ele><time>2015-05-02T14:48:21.0000000+00:00</time></trkpt><trkpt lat="34.9307311" lon="33.6137807"><ele>15.4</ele><time>2015-05-02T14:48:56.0000000+00:00</time></trkpt><trkpt lat="34.9308728" lon="33.6145554"><ele>14.2</ele><time>2015-05-02T14:49:06.0000000+00:00</time></trkpt><trkpt lat="34.9305377" lon="33.6151005"><ele>13.9</ele><time>2015-05-02T14:49:14.0000000+00:00</time></trkpt><trkpt lat="34.9304168" lon="33.6156741"><ele>12.2</ele><time>2015-05-02T14:49:21.0000000+00:00</time></trkpt><trkpt lat="34.9300598" lon="33.6191565"><ele>7.7</ele><time>2015-05-02T14:50:31.0000000+00:00</time></trkpt><trkpt lat="34.9303094" lon="33.6210033"><ele>7.4</ele><time>2015-05-02T14:51:13.0000000+00:00</time></trkpt><trkpt lat="34.9302829" lon="33.6222881"><ele>5.3</ele><time>2015-05-02T14:52:02.0000000+00:00</time></trkpt><trkpt lat="34.9305604" lon="33.6251524"><ele>5.4</ele><time>2015-05-02T14:53:01.0000000+00:00</time></trkpt><trkpt lat="34.9304909" lon="33.6325433"><ele>4.6</ele><time>2015-05-02T14:55:05.0000000+00:00</time></trkpt><trkpt lat="34.9288807" lon="33.6331518"><ele>3.2</ele><time>2015-05-02T14:55:57.0000000+00:00</time></trkpt><trkpt lat="34.9270545" lon="33.6335569"><ele>4.6</ele><time>2015-05-02T14:56:42.0000000+00:00</time></trkpt><trkpt lat="34.9272876" lon="33.6341931"><ele>2.9</ele><time>2015-05-02T14:56:56.0000000+00:00</time></trkpt><trkpt lat="34.9279709" lon="33.6336612"><ele>3.8</ele><time>2015-05-02T14:57:15.0000000+00:00</time></trkpt><trkpt lat="34.9282638" lon="33.6338719"><ele>4.7</ele><time>2015-05-02T14:57:24.0000000+00:00</time></trkpt><trkpt lat="34.9283271" lon="33.6343181"><ele>4.1</ele><time>2015-05-02T14:57:30.0000000+00:00</time></trkpt><trkpt lat="34.92803" lon="33.6366985"><ele>6.0</ele><time>2015-05-02T15:04:14.0000000+00:00</time></trkpt><trkpt lat="34.9273878" lon="33.6367559"><ele>5.5</ele><time>2015-05-02T15:07:35.0000000+00:00</time></trkpt><trkpt lat="34.927225" lon="33.6381153"><ele>5.0</ele><time>2015-05-02T15:09:21.0000000+00:00</time></trkpt><trkpt lat="34.9259632" lon="33.6380505"><ele>3.5</ele><time>2015-05-02T15:10:30.0000000+00:00</time></trkpt><trkpt lat="34.9237683" lon="33.6375217"><ele>4.1</ele><time>2015-05-02T15:11:51.0000000+00:00</time></trkpt><trkpt lat="34.9216498" lon="33.6373435"><ele>4.2</ele><time>2015-05-02T15:13:08.0000000+00:00</time></trkpt><trkpt lat="34.9213055" lon="33.6368283"><ele>3.3</ele><time>2015-05-02T15:14:08.0000000+00:00</time></trkpt><trkpt lat="34.9206178" lon="33.6369154"><ele>4.2</ele><time>2015-05-02T15:15:00.0000000+00:00</time></trkpt><trkpt lat="34.9190644" lon="33.6366349"><ele>3.5</ele><time>2015-05-02T15:16:35.0000000+00:00</time></trkpt><trkpt lat="34.9188932" lon="33.6378954"><ele>2.9</ele><time>2015-05-02T15:17:19.0000000+00:00</time></trkpt><trkpt lat="34.9180044" lon="33.6379442"><ele>2.1</ele><time>2015-05-02T15:18:30.0000000+00:00</time></trkpt><trkpt lat="34.9177176" lon="33.6378093"><ele>2.8</ele><time>2015-05-02T15:18:51.0000000+00:00</time></trkpt><trkpt lat="34.9165319" lon="33.6380559"><ele>2.7</ele><time>2015-05-02T15:20:52.0000000+00:00</time></trkpt><trkpt lat="34.9164425" lon="33.6382074"><ele>2.1</ele><time>2015-05-02T15:21:05.0000000+00:00</time></trkpt><trkpt lat="34.9105415" lon="33.6377724"><ele>1.8</ele><time>2015-05-02T15:27:46.0000000+00:00</time></trkpt><trkpt lat="34.9101239" lon="33.6379014"><ele>0.7</ele><time>2015-05-02T15:28:16.0000000+00:00</time></trkpt><trkpt lat="34.9049625" lon="33.6378751"><ele>0.3</ele><time>2015-05-02T15:32:17.0000000+00:00</time></trkpt><trkpt lat="34.9033701" lon="33.6377353"><ele>1.7</ele><time>2015-05-02T15:33:14.0000000+00:00</time></trkpt><trkpt lat="34.8957741" lon="33.638542"><ele>1.6</ele><time>2015-05-02T15:40:45.0000000+00:00</time></trkpt><trkpt lat="34.8950876" lon="33.6384178"><ele>2.4</ele><time>2015-05-02T15:41:48.0000000+00:00</time></trkpt><trkpt lat="34.8932611" lon="33.6385873"><ele>1.4</ele><time>2015-05-02T15:44:28.0000000+00:00</time></trkpt><trkpt lat="34.892149" lon="33.6380142"><ele>2.5</ele><time>2015-05-02T15:46:01.0000000+00:00</time></trkpt><trkpt lat="34.8914586" lon="33.6356482"><ele>2.4</ele><time>2015-05-02T15:48:32.0000000+00:00</time></trkpt><trkpt lat="34.8916271" lon="33.6349994"><ele>3.6</ele><time>2015-05-02T15:48:56.0000000+00:00</time></trkpt><trkpt lat="34.8927591" lon="33.634388"><ele>13.6</ele><time>2015-05-02T15:50:50.0000000+00:00</time></trkpt><trkpt lat="34.89298" lon="33.6348638"><ele>11.6</ele><time>2015-05-02T15:51:25.0000000+00:00</time></trkpt><trkpt lat="34.8928424" lon="33.6352056"><ele>13.2</ele><time>2015-05-02T15:53:51.0000000+00:00</time></trkpt></trkseg></trk></gpx>